<?xml version="1.0" encoding="UTF-8" standalone="no" ?>
<gpx xmlns="http://www.topografix.com/GPX/1/1" xmlns:xsi="http://www.w3.org/2001/XMLSchema-instance" xsi:schemaLocation="http://www.topografix.com/GPX/1/1 http://www.topografix.com/GPX/1/1/gpx.xsd" version="1.1" creator="VisuGPX - https://www.visugpx.com">
  <metadata>
    <name>2022-09-20 j6 Mortagne - Rochefort</name>
    <desc><![CDATA[File with points/tracks from Locus Map/3.37.2]]></desc>
  </metadata>
  <trk>
    <name><![CDATA[2022-09-20 j6]]></name>
    <trkseg>
      <trkpt lat="45.46959" lon="-0.77646">
        <ele>-60.28</ele>
        <time>2022-09-20T06:56:50.000Z</time>
      </trkpt>
      <trkpt lat="45.46971" lon="-0.77638">
        <ele>-70.62</ele>
        <time>2022-09-20T06:56:56.000Z</time>
      </trkpt>
      <trkpt lat="45.46959" lon="-0.77655">
        <ele>-59.59</ele>
        <time>2022-09-20T06:57:01.000Z</time>
      </trkpt>
      <trkpt lat="45.46923" lon="-0.77699">
        <ele>-18.18</ele>
        <time>2022-09-20T06:57:06.000Z</time>
      </trkpt>
      <trkpt lat="45.46916" lon="-0.77707">
        <ele>-15.05</ele>
        <time>2022-09-20T06:57:11.000Z</time>
      </trkpt>
      <trkpt lat="45.46898" lon="-0.77722">
        <ele>-12.07</ele>
        <time>2022-09-20T06:57:16.000Z</time>
      </trkpt>
      <trkpt lat="45.46863" lon="-0.7775">
        <ele>16.41</ele>
        <time>2022-09-20T06:57:21.000Z</time>
      </trkpt>
      <trkpt lat="45.46854" lon="-0.77755">
        <ele>20.21</ele>
        <time>2022-09-20T06:57:29.000Z</time>
      </trkpt>
      <trkpt lat="45.46827" lon="-0.77771">
        <ele>12.1</ele>
        <time>2022-09-20T06:58:25.000Z</time>
      </trkpt>
      <trkpt lat="45.46838" lon="-0.77769">
        <ele>4.14</ele>
        <time>2022-09-20T06:58:30.000Z</time>
      </trkpt>
      <trkpt lat="45.46848" lon="-0.77766">
        <ele>-4.75</ele>
        <time>2022-09-20T06:58:51.000Z</time>
      </trkpt>
      <trkpt lat="45.46858" lon="-0.77769">
        <ele>0.18</ele>
        <time>2022-09-20T07:01:39.000Z</time>
      </trkpt>
      <trkpt lat="45.46867" lon="-0.77758">
        <ele>4.98</ele>
        <time>2022-09-20T07:03:23.000Z</time>
      </trkpt>
      <trkpt lat="45.46873" lon="-0.77747">
        <ele>5.8</ele>
        <time>2022-09-20T07:03:34.000Z</time>
      </trkpt>
      <trkpt lat="45.46864" lon="-0.7774">
        <ele>5.4</ele>
        <time>2022-09-20T07:03:50.000Z</time>
      </trkpt>
      <trkpt lat="45.46853" lon="-0.77734">
        <ele>5.1</ele>
        <time>2022-09-20T07:03:59.000Z</time>
      </trkpt>
      <trkpt lat="45.46844" lon="-0.77727">
        <ele>4.91</ele>
        <time>2022-09-20T07:04:04.000Z</time>
      </trkpt>
      <trkpt lat="45.46834" lon="-0.77717">
        <ele>4.61</ele>
        <time>2022-09-20T07:04:09.000Z</time>
      </trkpt>
      <trkpt lat="45.46822" lon="-0.77715">
        <ele>4.4</ele>
        <time>2022-09-20T07:04:14.000Z</time>
      </trkpt>
      <trkpt lat="45.46813" lon="-0.77724">
        <ele>4.5</ele>
        <time>2022-09-20T07:04:19.000Z</time>
      </trkpt>
      <trkpt lat="45.46798" lon="-0.77745">
        <ele>4.4</ele>
        <time>2022-09-20T07:04:24.000Z</time>
      </trkpt>
      <trkpt lat="45.46787" lon="-0.77764">
        <ele>4.4</ele>
        <time>2022-09-20T07:04:29.000Z</time>
      </trkpt>
      <trkpt lat="45.46783" lon="-0.77781">
        <ele>4.33</ele>
        <time>2022-09-20T07:04:34.000Z</time>
      </trkpt>
      <trkpt lat="45.46783" lon="-0.77803">
        <ele>4.2</ele>
        <time>2022-09-20T07:04:39.000Z</time>
      </trkpt>
      <trkpt lat="45.46788" lon="-0.77828">
        <ele>3.74</ele>
        <time>2022-09-20T07:04:44.000Z</time>
      </trkpt>
      <trkpt lat="45.468" lon="-0.7785">
        <ele>3.04</ele>
        <time>2022-09-20T07:04:49.000Z</time>
      </trkpt>
      <trkpt lat="45.46813" lon="-0.77876">
        <ele>2.41</ele>
        <time>2022-09-20T07:04:54.000Z</time>
      </trkpt>
      <trkpt lat="45.46827" lon="-0.77899">
        <ele>2.82</ele>
        <time>2022-09-20T07:04:59.000Z</time>
      </trkpt>
      <trkpt lat="45.46843" lon="-0.77921">
        <ele>3.14</ele>
        <time>2022-09-20T07:05:04.000Z</time>
      </trkpt>
      <trkpt lat="45.46859" lon="-0.77947">
        <ele>2.65</ele>
        <time>2022-09-20T07:05:09.000Z</time>
      </trkpt>
      <trkpt lat="45.46877" lon="-0.77971">
        <ele>1.43</ele>
        <time>2022-09-20T07:05:14.000Z</time>
      </trkpt>
      <trkpt lat="45.46895" lon="-0.77996">
        <ele>1.29</ele>
        <time>2022-09-20T07:05:19.000Z</time>
      </trkpt>
      <trkpt lat="45.46914" lon="-0.78022">
        <ele>1.59</ele>
        <time>2022-09-20T07:05:24.000Z</time>
      </trkpt>
      <trkpt lat="45.46935" lon="-0.78048">
        <ele>1.14</ele>
        <time>2022-09-20T07:05:29.000Z</time>
      </trkpt>
      <trkpt lat="45.46951" lon="-0.7807">
        <ele>1.99</ele>
        <time>2022-09-20T07:05:34.000Z</time>
      </trkpt>
      <trkpt lat="45.46967" lon="-0.78091">
        <ele>2.1</ele>
        <time>2022-09-20T07:05:39.000Z</time>
      </trkpt>
      <trkpt lat="45.46983" lon="-0.78114">
        <ele>1.92</ele>
        <time>2022-09-20T07:05:44.000Z</time>
      </trkpt>
      <trkpt lat="45.47" lon="-0.78139">
        <ele>2.32</ele>
        <time>2022-09-20T07:05:49.000Z</time>
      </trkpt>
      <trkpt lat="45.47017" lon="-0.7816">
        <ele>1.34</ele>
        <time>2022-09-20T07:05:54.000Z</time>
      </trkpt>
      <trkpt lat="45.47035" lon="-0.78179">
        <ele>1.07</ele>
        <time>2022-09-20T07:05:59.000Z</time>
      </trkpt>
      <trkpt lat="45.47051" lon="-0.78204">
        <ele>0.39</ele>
        <time>2022-09-20T07:06:04.000Z</time>
      </trkpt>
      <trkpt lat="45.47071" lon="-0.78228">
        <ele>-0.57</ele>
        <time>2022-09-20T07:06:09.000Z</time>
      </trkpt>
      <trkpt lat="45.47088" lon="-0.78253">
        <ele>-0.57</ele>
        <time>2022-09-20T07:06:14.000Z</time>
      </trkpt>
      <trkpt lat="45.47106" lon="-0.78279">
        <ele>-0.4</ele>
        <time>2022-09-20T07:06:19.000Z</time>
      </trkpt>
      <trkpt lat="45.47123" lon="-0.78302">
        <ele>-0.93</ele>
        <time>2022-09-20T07:06:24.000Z</time>
      </trkpt>
      <trkpt lat="45.4714" lon="-0.78325">
        <ele>-0.92</ele>
        <time>2022-09-20T07:06:29.000Z</time>
      </trkpt>
      <trkpt lat="45.47157" lon="-0.78348">
        <ele>-1.23</ele>
        <time>2022-09-20T07:06:34.000Z</time>
      </trkpt>
      <trkpt lat="45.47173" lon="-0.78371">
        <ele>-1.88</ele>
        <time>2022-09-20T07:06:39.000Z</time>
      </trkpt>
      <trkpt lat="45.4719" lon="-0.78394">
        <ele>-2.44</ele>
        <time>2022-09-20T07:06:44.000Z</time>
      </trkpt>
      <trkpt lat="45.4721" lon="-0.78416">
        <ele>-2.15</ele>
        <time>2022-09-20T07:06:49.000Z</time>
      </trkpt>
      <trkpt lat="45.47225" lon="-0.7844">
        <ele>-1.41</ele>
        <time>2022-09-20T07:06:54.000Z</time>
      </trkpt>
      <trkpt lat="45.47245" lon="-0.78461">
        <ele>-0.9</ele>
        <time>2022-09-20T07:06:59.000Z</time>
      </trkpt>
      <trkpt lat="45.47263" lon="-0.78486">
        <ele>-0.21</ele>
        <time>2022-09-20T07:07:04.000Z</time>
      </trkpt>
      <trkpt lat="45.4728" lon="-0.78511">
        <ele>0.97</ele>
        <time>2022-09-20T07:07:09.000Z</time>
      </trkpt>
      <trkpt lat="45.47298" lon="-0.78536">
        <ele>1.68</ele>
        <time>2022-09-20T07:07:14.000Z</time>
      </trkpt>
      <trkpt lat="45.47317" lon="-0.7856">
        <ele>1.67</ele>
        <time>2022-09-20T07:07:19.000Z</time>
      </trkpt>
      <trkpt lat="45.47334" lon="-0.78585">
        <ele>2.33</ele>
        <time>2022-09-20T07:07:24.000Z</time>
      </trkpt>
      <trkpt lat="45.47353" lon="-0.78605">
        <ele>3.27</ele>
        <time>2022-09-20T07:07:29.000Z</time>
      </trkpt>
      <trkpt lat="45.47371" lon="-0.78627">
        <ele>3.12</ele>
        <time>2022-09-20T07:07:34.000Z</time>
      </trkpt>
      <trkpt lat="45.47388" lon="-0.78655">
        <ele>4.07</ele>
        <time>2022-09-20T07:07:39.000Z</time>
      </trkpt>
      <trkpt lat="45.47404" lon="-0.78681">
        <ele>4.89</ele>
        <time>2022-09-20T07:07:44.000Z</time>
      </trkpt>
      <trkpt lat="45.47422" lon="-0.78705">
        <ele>4.27</ele>
        <time>2022-09-20T07:07:49.000Z</time>
      </trkpt>
      <trkpt lat="45.47442" lon="-0.78729">
        <ele>3.41</ele>
        <time>2022-09-20T07:07:54.000Z</time>
      </trkpt>
      <trkpt lat="45.47461" lon="-0.78752">
        <ele>3.23</ele>
        <time>2022-09-20T07:07:59.000Z</time>
      </trkpt>
      <trkpt lat="45.47483" lon="-0.78777">
        <ele>3.29</ele>
        <time>2022-09-20T07:08:04.000Z</time>
      </trkpt>
      <trkpt lat="45.475" lon="-0.788">
        <ele>4.42</ele>
        <time>2022-09-20T07:08:09.000Z</time>
      </trkpt>
      <trkpt lat="45.47517" lon="-0.78822">
        <ele>5.48</ele>
        <time>2022-09-20T07:08:14.000Z</time>
      </trkpt>
      <trkpt lat="45.47534" lon="-0.78845">
        <ele>4.15</ele>
        <time>2022-09-20T07:08:19.000Z</time>
      </trkpt>
      <trkpt lat="45.4755" lon="-0.78868">
        <ele>4.4</ele>
        <time>2022-09-20T07:08:24.000Z</time>
      </trkpt>
      <trkpt lat="45.47566" lon="-0.7889">
        <ele>4.57</ele>
        <time>2022-09-20T07:08:29.000Z</time>
      </trkpt>
      <trkpt lat="45.47575" lon="-0.78914">
        <ele>4.02</ele>
        <time>2022-09-20T07:08:34.000Z</time>
      </trkpt>
      <trkpt lat="45.47593" lon="-0.78935">
        <ele>2.74</ele>
        <time>2022-09-20T07:08:39.000Z</time>
      </trkpt>
      <trkpt lat="45.4761" lon="-0.78959">
        <ele>3.08</ele>
        <time>2022-09-20T07:08:44.000Z</time>
      </trkpt>
      <trkpt lat="45.47626" lon="-0.78982">
        <ele>2.33</ele>
        <time>2022-09-20T07:08:49.000Z</time>
      </trkpt>
      <trkpt lat="45.47643" lon="-0.79005">
        <ele>1.24</ele>
        <time>2022-09-20T07:08:54.000Z</time>
      </trkpt>
      <trkpt lat="45.47658" lon="-0.79026">
        <ele>0.41</ele>
        <time>2022-09-20T07:08:59.000Z</time>
      </trkpt>
      <trkpt lat="45.47675" lon="-0.79046">
        <ele>0.19</ele>
        <time>2022-09-20T07:09:04.000Z</time>
      </trkpt>
      <trkpt lat="45.4769" lon="-0.79066">
        <ele>1.03</ele>
        <time>2022-09-20T07:09:09.000Z</time>
      </trkpt>
      <trkpt lat="45.47705" lon="-0.79086">
        <ele>1.05</ele>
        <time>2022-09-20T07:09:14.000Z</time>
      </trkpt>
      <trkpt lat="45.47722" lon="-0.79103">
        <ele>0.42</ele>
        <time>2022-09-20T07:09:19.000Z</time>
      </trkpt>
      <trkpt lat="45.47738" lon="-0.79124">
        <ele>-1.23</ele>
        <time>2022-09-20T07:09:24.000Z</time>
      </trkpt>
      <trkpt lat="45.47753" lon="-0.79146">
        <ele>-1.78</ele>
        <time>2022-09-20T07:09:29.000Z</time>
      </trkpt>
      <trkpt lat="45.47771" lon="-0.79167">
        <ele>-1.04</ele>
        <time>2022-09-20T07:09:34.000Z</time>
      </trkpt>
      <trkpt lat="45.4778" lon="-0.79182">
        <ele>-1.25</ele>
        <time>2022-09-20T07:09:39.000Z</time>
      </trkpt>
      <trkpt lat="45.47782" lon="-0.79197">
        <ele>-0.58</ele>
        <time>2022-09-20T07:09:44.000Z</time>
      </trkpt>
      <trkpt lat="45.47776" lon="-0.79219">
        <ele>-0.1</ele>
        <time>2022-09-20T07:09:49.000Z</time>
      </trkpt>
      <trkpt lat="45.47767" lon="-0.7924">
        <ele>-1.48</ele>
        <time>2022-09-20T07:09:54.000Z</time>
      </trkpt>
      <trkpt lat="45.47761" lon="-0.79251">
        <ele>-1.29</ele>
        <time>2022-09-20T07:10:12.000Z</time>
      </trkpt>
      <trkpt lat="45.47768" lon="-0.79261">
        <ele>-1.69</ele>
        <time>2022-09-20T07:10:18.000Z</time>
      </trkpt>
      <trkpt lat="45.47783" lon="-0.79276">
        <ele>-1.6</ele>
        <time>2022-09-20T07:10:23.000Z</time>
      </trkpt>
      <trkpt lat="45.47796" lon="-0.79287">
        <ele>-1.11</ele>
        <time>2022-09-20T07:10:28.000Z</time>
      </trkpt>
      <trkpt lat="45.47808" lon="-0.79299">
        <ele>-0.51</ele>
        <time>2022-09-20T07:10:33.000Z</time>
      </trkpt>
      <trkpt lat="45.47823" lon="-0.79317">
        <ele>-0.16</ele>
        <time>2022-09-20T07:10:38.000Z</time>
      </trkpt>
      <trkpt lat="45.47831" lon="-0.79333">
        <ele>-0.18</ele>
        <time>2022-09-20T07:10:43.000Z</time>
      </trkpt>
      <trkpt lat="45.47842" lon="-0.79346">
        <ele>-0.44</ele>
        <time>2022-09-20T07:10:48.000Z</time>
      </trkpt>
      <trkpt lat="45.47853" lon="-0.79358">
        <ele>0.2</ele>
        <time>2022-09-20T07:10:53.000Z</time>
      </trkpt>
      <trkpt lat="45.47864" lon="-0.79369">
        <ele>-0.58</ele>
        <time>2022-09-20T07:10:58.000Z</time>
      </trkpt>
      <trkpt lat="45.47875" lon="-0.79379">
        <ele>-0.25</ele>
        <time>2022-09-20T07:11:03.000Z</time>
      </trkpt>
      <trkpt lat="45.47885" lon="-0.79387">
        <ele>1.57</ele>
        <time>2022-09-20T07:11:08.000Z</time>
      </trkpt>
      <trkpt lat="45.47899" lon="-0.79389">
        <ele>3.17</ele>
        <time>2022-09-20T07:11:13.000Z</time>
      </trkpt>
      <trkpt lat="45.47916" lon="-0.79385">
        <ele>3.18</ele>
        <time>2022-09-20T07:11:18.000Z</time>
      </trkpt>
      <trkpt lat="45.47927" lon="-0.79385">
        <ele>3.57</ele>
        <time>2022-09-20T07:11:23.000Z</time>
      </trkpt>
      <trkpt lat="45.47939" lon="-0.79386">
        <ele>3.77</ele>
        <time>2022-09-20T07:11:28.000Z</time>
      </trkpt>
      <trkpt lat="45.47953" lon="-0.79381">
        <ele>3.06</ele>
        <time>2022-09-20T07:11:33.000Z</time>
      </trkpt>
      <trkpt lat="45.47965" lon="-0.79371">
        <ele>2.88</ele>
        <time>2022-09-20T07:11:38.000Z</time>
      </trkpt>
      <trkpt lat="45.47974" lon="-0.79357">
        <ele>3.96</ele>
        <time>2022-09-20T07:11:43.000Z</time>
      </trkpt>
      <trkpt lat="45.47979" lon="-0.79342">
        <ele>4.47</ele>
        <time>2022-09-20T07:11:48.000Z</time>
      </trkpt>
      <trkpt lat="45.47981" lon="-0.79328">
        <ele>5.31</ele>
        <time>2022-09-20T07:11:53.000Z</time>
      </trkpt>
      <trkpt lat="45.47984" lon="-0.79314">
        <ele>6.51</ele>
        <time>2022-09-20T07:11:58.000Z</time>
      </trkpt>
      <trkpt lat="45.47983" lon="-0.793">
        <ele>8.22</ele>
        <time>2022-09-20T07:12:04.000Z</time>
      </trkpt>
      <trkpt lat="45.47986" lon="-0.79287">
        <ele>10.42</ele>
        <time>2022-09-20T07:12:11.000Z</time>
      </trkpt>
      <trkpt lat="45.47997" lon="-0.79271">
        <ele>12.2</ele>
        <time>2022-09-20T07:12:16.000Z</time>
      </trkpt>
      <trkpt lat="45.48008" lon="-0.79263">
        <ele>12.98</ele>
        <time>2022-09-20T07:12:21.000Z</time>
      </trkpt>
      <trkpt lat="45.48021" lon="-0.79255">
        <ele>13.84</ele>
        <time>2022-09-20T07:12:26.000Z</time>
      </trkpt>
      <trkpt lat="45.48033" lon="-0.79251">
        <ele>14.82</ele>
        <time>2022-09-20T07:12:31.000Z</time>
      </trkpt>
      <trkpt lat="45.48052" lon="-0.79243">
        <ele>15.84</ele>
        <time>2022-09-20T07:12:36.000Z</time>
      </trkpt>
      <trkpt lat="45.48066" lon="-0.79238">
        <ele>17</ele>
        <time>2022-09-20T07:12:41.000Z</time>
      </trkpt>
      <trkpt lat="45.48081" lon="-0.79233">
        <ele>19.6</ele>
        <time>2022-09-20T07:12:46.000Z</time>
      </trkpt>
      <trkpt lat="45.48095" lon="-0.79228">
        <ele>20.69</ele>
        <time>2022-09-20T07:12:51.000Z</time>
      </trkpt>
      <trkpt lat="45.48106" lon="-0.7922">
        <ele>22.04</ele>
        <time>2022-09-20T07:12:56.000Z</time>
      </trkpt>
      <trkpt lat="45.48121" lon="-0.79208">
        <ele>23.15</ele>
        <time>2022-09-20T07:13:01.000Z</time>
      </trkpt>
      <trkpt lat="45.48134" lon="-0.79195">
        <ele>25.86</ele>
        <time>2022-09-20T07:13:06.000Z</time>
      </trkpt>
      <trkpt lat="45.48146" lon="-0.79181">
        <ele>27.16</ele>
        <time>2022-09-20T07:13:11.000Z</time>
      </trkpt>
      <trkpt lat="45.48157" lon="-0.79167">
        <ele>27.33</ele>
        <time>2022-09-20T07:13:16.000Z</time>
      </trkpt>
      <trkpt lat="45.4817" lon="-0.79154">
        <ele>28.93</ele>
        <time>2022-09-20T07:13:21.000Z</time>
      </trkpt>
      <trkpt lat="45.48181" lon="-0.79139">
        <ele>30.84</ele>
        <time>2022-09-20T07:13:26.000Z</time>
      </trkpt>
      <trkpt lat="45.4819" lon="-0.79127">
        <ele>30.98</ele>
        <time>2022-09-20T07:13:31.000Z</time>
      </trkpt>
      <trkpt lat="45.48202" lon="-0.79112">
        <ele>31.72</ele>
        <time>2022-09-20T07:13:36.000Z</time>
      </trkpt>
      <trkpt lat="45.48213" lon="-0.79101">
        <ele>33.52</ele>
        <time>2022-09-20T07:13:41.000Z</time>
      </trkpt>
      <trkpt lat="45.48221" lon="-0.79088">
        <ele>32.38</ele>
        <time>2022-09-20T07:13:46.000Z</time>
      </trkpt>
      <trkpt lat="45.48232" lon="-0.79076">
        <ele>33.42</ele>
        <time>2022-09-20T07:13:51.000Z</time>
      </trkpt>
      <trkpt lat="45.48244" lon="-0.79067">
        <ele>34.31</ele>
        <time>2022-09-20T07:13:56.000Z</time>
      </trkpt>
      <trkpt lat="45.48256" lon="-0.79056">
        <ele>34.87</ele>
        <time>2022-09-20T07:14:01.000Z</time>
      </trkpt>
      <trkpt lat="45.48268" lon="-0.79046">
        <ele>35.16</ele>
        <time>2022-09-20T07:14:06.000Z</time>
      </trkpt>
      <trkpt lat="45.48281" lon="-0.79037">
        <ele>35.88</ele>
        <time>2022-09-20T07:14:11.000Z</time>
      </trkpt>
      <trkpt lat="45.48291" lon="-0.79029">
        <ele>34.99</ele>
        <time>2022-09-20T07:14:16.000Z</time>
      </trkpt>
      <trkpt lat="45.48303" lon="-0.7902">
        <ele>35.09</ele>
        <time>2022-09-20T07:14:21.000Z</time>
      </trkpt>
      <trkpt lat="45.48313" lon="-0.79013">
        <ele>34.77</ele>
        <time>2022-09-20T07:14:26.000Z</time>
      </trkpt>
      <trkpt lat="45.48328" lon="-0.79012">
        <ele>36.74</ele>
        <time>2022-09-20T07:14:31.000Z</time>
      </trkpt>
      <trkpt lat="45.48344" lon="-0.79015">
        <ele>36.79</ele>
        <time>2022-09-20T07:14:36.000Z</time>
      </trkpt>
      <trkpt lat="45.48357" lon="-0.79022">
        <ele>37.28</ele>
        <time>2022-09-20T07:14:41.000Z</time>
      </trkpt>
      <trkpt lat="45.48371" lon="-0.79032">
        <ele>37.05</ele>
        <time>2022-09-20T07:14:46.000Z</time>
      </trkpt>
      <trkpt lat="45.48385" lon="-0.79032">
        <ele>36.93</ele>
        <time>2022-09-20T07:14:51.000Z</time>
      </trkpt>
      <trkpt lat="45.48397" lon="-0.79017">
        <ele>36.78</ele>
        <time>2022-09-20T07:14:56.000Z</time>
      </trkpt>
      <trkpt lat="45.48397" lon="-0.79">
        <ele>35.82</ele>
        <time>2022-09-20T07:15:01.000Z</time>
      </trkpt>
      <trkpt lat="45.48391" lon="-0.78987">
        <ele>34.84</ele>
        <time>2022-09-20T07:15:06.000Z</time>
      </trkpt>
      <trkpt lat="45.48377" lon="-0.7898">
        <ele>35.78</ele>
        <time>2022-09-20T07:15:11.000Z</time>
      </trkpt>
      <trkpt lat="45.48362" lon="-0.78982">
        <ele>35.7</ele>
        <time>2022-09-20T07:15:16.000Z</time>
      </trkpt>
      <trkpt lat="45.48351" lon="-0.78985">
        <ele>35.75</ele>
        <time>2022-09-20T07:15:29.000Z</time>
      </trkpt>
      <trkpt lat="45.48341" lon="-0.78986">
        <ele>35.77</ele>
        <time>2022-09-20T07:15:34.000Z</time>
      </trkpt>
      <trkpt lat="45.48327" lon="-0.78991">
        <ele>35.97</ele>
        <time>2022-09-20T07:15:39.000Z</time>
      </trkpt>
      <trkpt lat="45.4831" lon="-0.78997">
        <ele>35.68</ele>
        <time>2022-09-20T07:15:44.000Z</time>
      </trkpt>
      <trkpt lat="45.48294" lon="-0.79001">
        <ele>36.3</ele>
        <time>2022-09-20T07:15:49.000Z</time>
      </trkpt>
      <trkpt lat="45.4828" lon="-0.79003">
        <ele>37.06</ele>
        <time>2022-09-20T07:15:54.000Z</time>
      </trkpt>
      <trkpt lat="45.48265" lon="-0.79005">
        <ele>38.54</ele>
        <time>2022-09-20T07:15:59.000Z</time>
      </trkpt>
      <trkpt lat="45.4825" lon="-0.79007">
        <ele>39.31</ele>
        <time>2022-09-20T07:16:04.000Z</time>
      </trkpt>
      <trkpt lat="45.48237" lon="-0.79006">
        <ele>39.65</ele>
        <time>2022-09-20T07:16:09.000Z</time>
      </trkpt>
      <trkpt lat="45.48223" lon="-0.79006">
        <ele>39.74</ele>
        <time>2022-09-20T07:16:14.000Z</time>
      </trkpt>
      <trkpt lat="45.48209" lon="-0.79003">
        <ele>40.2</ele>
        <time>2022-09-20T07:16:19.000Z</time>
      </trkpt>
      <trkpt lat="45.48195" lon="-0.79002">
        <ele>40.64</ele>
        <time>2022-09-20T07:16:24.000Z</time>
      </trkpt>
      <trkpt lat="45.48181" lon="-0.79">
        <ele>41.17</ele>
        <time>2022-09-20T07:16:29.000Z</time>
      </trkpt>
      <trkpt lat="45.48167" lon="-0.78999">
        <ele>42.72</ele>
        <time>2022-09-20T07:16:34.000Z</time>
      </trkpt>
      <trkpt lat="45.48152" lon="-0.78995">
        <ele>43.25</ele>
        <time>2022-09-20T07:16:39.000Z</time>
      </trkpt>
      <trkpt lat="45.48139" lon="-0.78991">
        <ele>43.65</ele>
        <time>2022-09-20T07:16:44.000Z</time>
      </trkpt>
      <trkpt lat="45.48126" lon="-0.78986">
        <ele>44.34</ele>
        <time>2022-09-20T07:16:49.000Z</time>
      </trkpt>
      <trkpt lat="45.48115" lon="-0.78977">
        <ele>45.35</ele>
        <time>2022-09-20T07:16:54.000Z</time>
      </trkpt>
      <trkpt lat="45.48105" lon="-0.78965">
        <ele>45.9</ele>
        <time>2022-09-20T07:16:59.000Z</time>
      </trkpt>
      <trkpt lat="45.48098" lon="-0.78951">
        <ele>46.58</ele>
        <time>2022-09-20T07:17:04.000Z</time>
      </trkpt>
      <trkpt lat="45.4809" lon="-0.78944">
        <ele>49.57</ele>
        <time>2022-09-20T07:17:27.000Z</time>
      </trkpt>
      <trkpt lat="45.48095" lon="-0.78934">
        <ele>51.23</ele>
        <time>2022-09-20T07:17:50.000Z</time>
      </trkpt>
      <trkpt lat="45.48107" lon="-0.78931">
        <ele>51.67</ele>
        <time>2022-09-20T07:17:55.000Z</time>
      </trkpt>
      <trkpt lat="45.48119" lon="-0.78934">
        <ele>52.36</ele>
        <time>2022-09-20T07:18:00.000Z</time>
      </trkpt>
      <trkpt lat="45.4813" lon="-0.78932">
        <ele>52.34</ele>
        <time>2022-09-20T07:18:05.000Z</time>
      </trkpt>
      <trkpt lat="45.48148" lon="-0.78924">
        <ele>52.5</ele>
        <time>2022-09-20T07:18:10.000Z</time>
      </trkpt>
      <trkpt lat="45.48169" lon="-0.7892">
        <ele>54.57</ele>
        <time>2022-09-20T07:18:15.000Z</time>
      </trkpt>
      <trkpt lat="45.48191" lon="-0.78918">
        <ele>54.63</ele>
        <time>2022-09-20T07:18:20.000Z</time>
      </trkpt>
      <trkpt lat="45.48212" lon="-0.78914">
        <ele>56.74</ele>
        <time>2022-09-20T07:18:25.000Z</time>
      </trkpt>
      <trkpt lat="45.4823" lon="-0.78912">
        <ele>57.17</ele>
        <time>2022-09-20T07:18:30.000Z</time>
      </trkpt>
      <trkpt lat="45.48251" lon="-0.78911">
        <ele>58.18</ele>
        <time>2022-09-20T07:18:35.000Z</time>
      </trkpt>
      <trkpt lat="45.48272" lon="-0.7891">
        <ele>60.08</ele>
        <time>2022-09-20T07:18:40.000Z</time>
      </trkpt>
      <trkpt lat="45.48292" lon="-0.78911">
        <ele>61.95</ele>
        <time>2022-09-20T07:18:45.000Z</time>
      </trkpt>
      <trkpt lat="45.48314" lon="-0.78912">
        <ele>62.8</ele>
        <time>2022-09-20T07:18:50.000Z</time>
      </trkpt>
      <trkpt lat="45.48332" lon="-0.78911">
        <ele>61.95</ele>
        <time>2022-09-20T07:18:55.000Z</time>
      </trkpt>
      <trkpt lat="45.48354" lon="-0.7891">
        <ele>62.63</ele>
        <time>2022-09-20T07:19:00.000Z</time>
      </trkpt>
      <trkpt lat="45.48378" lon="-0.78911">
        <ele>62.09</ele>
        <time>2022-09-20T07:19:05.000Z</time>
      </trkpt>
      <trkpt lat="45.48402" lon="-0.78911">
        <ele>61.92</ele>
        <time>2022-09-20T07:19:10.000Z</time>
      </trkpt>
      <trkpt lat="45.48424" lon="-0.78914">
        <ele>59.34</ele>
        <time>2022-09-20T07:19:15.000Z</time>
      </trkpt>
      <trkpt lat="45.48442" lon="-0.78923">
        <ele>58.19</ele>
        <time>2022-09-20T07:19:20.000Z</time>
      </trkpt>
      <trkpt lat="45.48462" lon="-0.78929">
        <ele>54.57</ele>
        <time>2022-09-20T07:19:25.000Z</time>
      </trkpt>
      <trkpt lat="45.48473" lon="-0.78936">
        <ele>54.08</ele>
        <time>2022-09-20T07:19:30.000Z</time>
      </trkpt>
      <trkpt lat="45.48482" lon="-0.78946">
        <ele>54</ele>
        <time>2022-09-20T07:19:35.000Z</time>
      </trkpt>
      <trkpt lat="45.4849" lon="-0.78955">
        <ele>55.79</ele>
        <time>2022-09-20T07:19:53.000Z</time>
      </trkpt>
      <trkpt lat="45.48502" lon="-0.78971">
        <ele>54.07</ele>
        <time>2022-09-20T07:19:58.000Z</time>
      </trkpt>
      <trkpt lat="45.48517" lon="-0.78982">
        <ele>53.34</ele>
        <time>2022-09-20T07:20:03.000Z</time>
      </trkpt>
      <trkpt lat="45.48537" lon="-0.78988">
        <ele>52.54</ele>
        <time>2022-09-20T07:20:08.000Z</time>
      </trkpt>
      <trkpt lat="45.48553" lon="-0.78994">
        <ele>51.93</ele>
        <time>2022-09-20T07:20:13.000Z</time>
      </trkpt>
      <trkpt lat="45.48566" lon="-0.79001">
        <ele>51.46</ele>
        <time>2022-09-20T07:20:18.000Z</time>
      </trkpt>
      <trkpt lat="45.48587" lon="-0.78998">
        <ele>50.46</ele>
        <time>2022-09-20T07:20:23.000Z</time>
      </trkpt>
      <trkpt lat="45.48604" lon="-0.79002">
        <ele>50.25</ele>
        <time>2022-09-20T07:20:28.000Z</time>
      </trkpt>
      <trkpt lat="45.48623" lon="-0.79013">
        <ele>50.7</ele>
        <time>2022-09-20T07:20:33.000Z</time>
      </trkpt>
      <trkpt lat="45.48639" lon="-0.79021">
        <ele>50.6</ele>
        <time>2022-09-20T07:20:38.000Z</time>
      </trkpt>
      <trkpt lat="45.48658" lon="-0.79027">
        <ele>50.6</ele>
        <time>2022-09-20T07:20:43.000Z</time>
      </trkpt>
      <trkpt lat="45.48673" lon="-0.79037">
        <ele>50.79</ele>
        <time>2022-09-20T07:20:48.000Z</time>
      </trkpt>
      <trkpt lat="45.48692" lon="-0.79044">
        <ele>51.17</ele>
        <time>2022-09-20T07:20:53.000Z</time>
      </trkpt>
      <trkpt lat="45.48713" lon="-0.7905">
        <ele>50.65</ele>
        <time>2022-09-20T07:20:58.000Z</time>
      </trkpt>
      <trkpt lat="45.48734" lon="-0.79053">
        <ele>50.06</ele>
        <time>2022-09-20T07:21:03.000Z</time>
      </trkpt>
      <trkpt lat="45.48757" lon="-0.79057">
        <ele>50.47</ele>
        <time>2022-09-20T07:21:08.000Z</time>
      </trkpt>
      <trkpt lat="45.48779" lon="-0.79058">
        <ele>48.9</ele>
        <time>2022-09-20T07:21:13.000Z</time>
      </trkpt>
      <trkpt lat="45.48805" lon="-0.79056">
        <ele>47.67</ele>
        <time>2022-09-20T07:21:18.000Z</time>
      </trkpt>
      <trkpt lat="45.48832" lon="-0.79053">
        <ele>49.81</ele>
        <time>2022-09-20T07:21:23.000Z</time>
      </trkpt>
      <trkpt lat="45.48851" lon="-0.7905">
        <ele>49.66</ele>
        <time>2022-09-20T07:21:28.000Z</time>
      </trkpt>
      <trkpt lat="45.48874" lon="-0.79043">
        <ele>50.23</ele>
        <time>2022-09-20T07:21:33.000Z</time>
      </trkpt>
      <trkpt lat="45.489" lon="-0.79036">
        <ele>55.76</ele>
        <time>2022-09-20T07:21:38.000Z</time>
      </trkpt>
      <trkpt lat="45.48924" lon="-0.79027">
        <ele>57.91</ele>
        <time>2022-09-20T07:21:43.000Z</time>
      </trkpt>
      <trkpt lat="45.48945" lon="-0.79021">
        <ele>57.74</ele>
        <time>2022-09-20T07:21:48.000Z</time>
      </trkpt>
      <trkpt lat="45.48969" lon="-0.79013">
        <ele>57.73</ele>
        <time>2022-09-20T07:21:53.000Z</time>
      </trkpt>
      <trkpt lat="45.48995" lon="-0.79004">
        <ele>56.47</ele>
        <time>2022-09-20T07:21:58.000Z</time>
      </trkpt>
      <trkpt lat="45.49018" lon="-0.78996">
        <ele>55.36</ele>
        <time>2022-09-20T07:22:03.000Z</time>
      </trkpt>
      <trkpt lat="45.49041" lon="-0.78988">
        <ele>55.83</ele>
        <time>2022-09-20T07:22:08.000Z</time>
      </trkpt>
      <trkpt lat="45.49067" lon="-0.78978">
        <ele>56.74</ele>
        <time>2022-09-20T07:22:13.000Z</time>
      </trkpt>
      <trkpt lat="45.49092" lon="-0.78968">
        <ele>56.66</ele>
        <time>2022-09-20T07:22:18.000Z</time>
      </trkpt>
      <trkpt lat="45.49116" lon="-0.78959">
        <ele>57.61</ele>
        <time>2022-09-20T07:22:23.000Z</time>
      </trkpt>
      <trkpt lat="45.49138" lon="-0.78954">
        <ele>58.71</ele>
        <time>2022-09-20T07:22:28.000Z</time>
      </trkpt>
      <trkpt lat="45.49161" lon="-0.78946">
        <ele>59.47</ele>
        <time>2022-09-20T07:22:33.000Z</time>
      </trkpt>
      <trkpt lat="45.49181" lon="-0.78938">
        <ele>59.67</ele>
        <time>2022-09-20T07:22:38.000Z</time>
      </trkpt>
      <trkpt lat="45.49204" lon="-0.78927">
        <ele>60.27</ele>
        <time>2022-09-20T07:22:43.000Z</time>
      </trkpt>
      <trkpt lat="45.49231" lon="-0.78913">
        <ele>60.5</ele>
        <time>2022-09-20T07:22:48.000Z</time>
      </trkpt>
      <trkpt lat="45.49254" lon="-0.78906">
        <ele>60.31</ele>
        <time>2022-09-20T07:22:53.000Z</time>
      </trkpt>
      <trkpt lat="45.49277" lon="-0.78899">
        <ele>58.49</ele>
        <time>2022-09-20T07:22:58.000Z</time>
      </trkpt>
      <trkpt lat="45.493" lon="-0.78893">
        <ele>57.21</ele>
        <time>2022-09-20T07:23:03.000Z</time>
      </trkpt>
      <trkpt lat="45.4932" lon="-0.78894">
        <ele>56.41</ele>
        <time>2022-09-20T07:23:08.000Z</time>
      </trkpt>
      <trkpt lat="45.49345" lon="-0.78888">
        <ele>54.78</ele>
        <time>2022-09-20T07:23:13.000Z</time>
      </trkpt>
      <trkpt lat="45.49367" lon="-0.78894">
        <ele>53.07</ele>
        <time>2022-09-20T07:23:18.000Z</time>
      </trkpt>
      <trkpt lat="45.49393" lon="-0.78904">
        <ele>53.03</ele>
        <time>2022-09-20T07:23:23.000Z</time>
      </trkpt>
      <trkpt lat="45.49416" lon="-0.78913">
        <ele>52.36</ele>
        <time>2022-09-20T07:23:28.000Z</time>
      </trkpt>
      <trkpt lat="45.49434" lon="-0.78923">
        <ele>52.08</ele>
        <time>2022-09-20T07:23:33.000Z</time>
      </trkpt>
      <trkpt lat="45.49453" lon="-0.78929">
        <ele>52.02</ele>
        <time>2022-09-20T07:23:38.000Z</time>
      </trkpt>
      <trkpt lat="45.49465" lon="-0.78936">
        <ele>52.5</ele>
        <time>2022-09-20T07:23:43.000Z</time>
      </trkpt>
      <trkpt lat="45.49483" lon="-0.78942">
        <ele>53.55</ele>
        <time>2022-09-20T07:23:48.000Z</time>
      </trkpt>
      <trkpt lat="45.495" lon="-0.78948">
        <ele>53.61</ele>
        <time>2022-09-20T07:23:53.000Z</time>
      </trkpt>
      <trkpt lat="45.49515" lon="-0.78958">
        <ele>53.97</ele>
        <time>2022-09-20T07:23:58.000Z</time>
      </trkpt>
      <trkpt lat="45.49534" lon="-0.78966">
        <ele>54.29</ele>
        <time>2022-09-20T07:24:03.000Z</time>
      </trkpt>
      <trkpt lat="45.49556" lon="-0.78968">
        <ele>57.05</ele>
        <time>2022-09-20T07:24:08.000Z</time>
      </trkpt>
      <trkpt lat="45.49565" lon="-0.78977">
        <ele>57.03</ele>
        <time>2022-09-20T07:24:23.000Z</time>
      </trkpt>
      <trkpt lat="45.49581" lon="-0.78985">
        <ele>56.05</ele>
        <time>2022-09-20T07:24:28.000Z</time>
      </trkpt>
      <trkpt lat="45.496" lon="-0.78991">
        <ele>55.33</ele>
        <time>2022-09-20T07:24:33.000Z</time>
      </trkpt>
      <trkpt lat="45.49615" lon="-0.79002">
        <ele>54.95</ele>
        <time>2022-09-20T07:24:38.000Z</time>
      </trkpt>
      <trkpt lat="45.49625" lon="-0.7902">
        <ele>54.3</ele>
        <time>2022-09-20T07:24:43.000Z</time>
      </trkpt>
      <trkpt lat="45.49628" lon="-0.79037">
        <ele>53.85</ele>
        <time>2022-09-20T07:24:55.000Z</time>
      </trkpt>
      <trkpt lat="45.49634" lon="-0.79067">
        <ele>53.65</ele>
        <time>2022-09-20T07:25:00.000Z</time>
      </trkpt>
      <trkpt lat="45.49636" lon="-0.79095">
        <ele>52.84</ele>
        <time>2022-09-20T07:25:05.000Z</time>
      </trkpt>
      <trkpt lat="45.4964" lon="-0.79127">
        <ele>50.85</ele>
        <time>2022-09-20T07:25:10.000Z</time>
      </trkpt>
      <trkpt lat="45.49641" lon="-0.79157">
        <ele>50.04</ele>
        <time>2022-09-20T07:25:15.000Z</time>
      </trkpt>
      <trkpt lat="45.49642" lon="-0.79188">
        <ele>49.24</ele>
        <time>2022-09-20T07:25:20.000Z</time>
      </trkpt>
      <trkpt lat="45.49644" lon="-0.79226">
        <ele>48.46</ele>
        <time>2022-09-20T07:25:25.000Z</time>
      </trkpt>
      <trkpt lat="45.49641" lon="-0.79262">
        <ele>47.76</ele>
        <time>2022-09-20T07:25:30.000Z</time>
      </trkpt>
      <trkpt lat="45.49641" lon="-0.79306">
        <ele>46.53</ele>
        <time>2022-09-20T07:25:35.000Z</time>
      </trkpt>
      <trkpt lat="45.49636" lon="-0.79343">
        <ele>46.56</ele>
        <time>2022-09-20T07:25:40.000Z</time>
      </trkpt>
      <trkpt lat="45.49633" lon="-0.79383">
        <ele>47.61</ele>
        <time>2022-09-20T07:25:45.000Z</time>
      </trkpt>
      <trkpt lat="45.49636" lon="-0.79422">
        <ele>47.53</ele>
        <time>2022-09-20T07:25:50.000Z</time>
      </trkpt>
      <trkpt lat="45.49643" lon="-0.79464">
        <ele>47.33</ele>
        <time>2022-09-20T07:25:55.000Z</time>
      </trkpt>
      <trkpt lat="45.49638" lon="-0.79502">
        <ele>46.55</ele>
        <time>2022-09-20T07:26:00.000Z</time>
      </trkpt>
      <trkpt lat="45.4963" lon="-0.79537">
        <ele>45.34</ele>
        <time>2022-09-20T07:26:05.000Z</time>
      </trkpt>
      <trkpt lat="45.4962" lon="-0.79584">
        <ele>45.11</ele>
        <time>2022-09-20T07:26:10.000Z</time>
      </trkpt>
      <trkpt lat="45.49615" lon="-0.79636">
        <ele>44.83</ele>
        <time>2022-09-20T07:26:15.000Z</time>
      </trkpt>
      <trkpt lat="45.49614" lon="-0.79683">
        <ele>44.7</ele>
        <time>2022-09-20T07:26:20.000Z</time>
      </trkpt>
      <trkpt lat="45.49614" lon="-0.7973">
        <ele>44.6</ele>
        <time>2022-09-20T07:26:25.000Z</time>
      </trkpt>
      <trkpt lat="45.49615" lon="-0.79775">
        <ele>44.79</ele>
        <time>2022-09-20T07:26:30.000Z</time>
      </trkpt>
      <trkpt lat="45.49611" lon="-0.79817">
        <ele>44.24</ele>
        <time>2022-09-20T07:26:35.000Z</time>
      </trkpt>
      <trkpt lat="45.49597" lon="-0.79859">
        <ele>44.46</ele>
        <time>2022-09-20T07:26:40.000Z</time>
      </trkpt>
      <trkpt lat="45.49574" lon="-0.79906">
        <ele>42.82</ele>
        <time>2022-09-20T07:26:45.000Z</time>
      </trkpt>
      <trkpt lat="45.4955" lon="-0.79955">
        <ele>40.34</ele>
        <time>2022-09-20T07:26:50.000Z</time>
      </trkpt>
      <trkpt lat="45.49531" lon="-0.80005">
        <ele>38.61</ele>
        <time>2022-09-20T07:26:55.000Z</time>
      </trkpt>
      <trkpt lat="45.49524" lon="-0.80054">
        <ele>37.08</ele>
        <time>2022-09-20T07:27:00.000Z</time>
      </trkpt>
      <trkpt lat="45.49523" lon="-0.80099">
        <ele>35.7</ele>
        <time>2022-09-20T07:27:05.000Z</time>
      </trkpt>
      <trkpt lat="45.49508" lon="-0.80144">
        <ele>34.37</ele>
        <time>2022-09-20T07:27:10.000Z</time>
      </trkpt>
      <trkpt lat="45.49486" lon="-0.80191">
        <ele>32.88</ele>
        <time>2022-09-20T07:27:15.000Z</time>
      </trkpt>
      <trkpt lat="45.49458" lon="-0.80237">
        <ele>32.17</ele>
        <time>2022-09-20T07:27:20.000Z</time>
      </trkpt>
      <trkpt lat="45.49435" lon="-0.80283">
        <ele>31.3</ele>
        <time>2022-09-20T07:27:25.000Z</time>
      </trkpt>
      <trkpt lat="45.49413" lon="-0.80325">
        <ele>30.17</ele>
        <time>2022-09-20T07:27:30.000Z</time>
      </trkpt>
      <trkpt lat="45.49386" lon="-0.80361">
        <ele>28.89</ele>
        <time>2022-09-20T07:27:35.000Z</time>
      </trkpt>
      <trkpt lat="45.49355" lon="-0.80392">
        <ele>27.6</ele>
        <time>2022-09-20T07:27:40.000Z</time>
      </trkpt>
      <trkpt lat="45.49327" lon="-0.80429">
        <ele>26.38</ele>
        <time>2022-09-20T07:27:45.000Z</time>
      </trkpt>
      <trkpt lat="45.49303" lon="-0.8047">
        <ele>25.39</ele>
        <time>2022-09-20T07:27:50.000Z</time>
      </trkpt>
      <trkpt lat="45.49289" lon="-0.80506">
        <ele>25.44</ele>
        <time>2022-09-20T07:27:55.000Z</time>
      </trkpt>
      <trkpt lat="45.49274" lon="-0.80531">
        <ele>25.32</ele>
        <time>2022-09-20T07:28:00.000Z</time>
      </trkpt>
      <trkpt lat="45.49256" lon="-0.80546">
        <ele>25.83</ele>
        <time>2022-09-20T07:28:05.000Z</time>
      </trkpt>
      <trkpt lat="45.49233" lon="-0.80557">
        <ele>25.23</ele>
        <time>2022-09-20T07:28:10.000Z</time>
      </trkpt>
      <trkpt lat="45.49211" lon="-0.80569">
        <ele>24.71</ele>
        <time>2022-09-20T07:28:15.000Z</time>
      </trkpt>
      <trkpt lat="45.49217" lon="-0.80556">
        <ele>27.11</ele>
        <time>2022-09-20T07:28:27.000Z</time>
      </trkpt>
      <trkpt lat="45.4923" lon="-0.8055">
        <ele>28.01</ele>
        <time>2022-09-20T07:28:32.000Z</time>
      </trkpt>
      <trkpt lat="45.49238" lon="-0.80544">
        <ele>28.39</ele>
        <time>2022-09-20T07:28:38.000Z</time>
      </trkpt>
      <trkpt lat="45.49256" lon="-0.80535">
        <ele>28.99</ele>
        <time>2022-09-20T07:28:43.000Z</time>
      </trkpt>
      <trkpt lat="45.49272" lon="-0.80518">
        <ele>28.45</ele>
        <time>2022-09-20T07:28:48.000Z</time>
      </trkpt>
      <trkpt lat="45.49283" lon="-0.80501">
        <ele>29.24</ele>
        <time>2022-09-20T07:28:53.000Z</time>
      </trkpt>
      <trkpt lat="45.49299" lon="-0.80492">
        <ele>30.86</ele>
        <time>2022-09-20T07:28:58.000Z</time>
      </trkpt>
      <trkpt lat="45.49305" lon="-0.80504">
        <ele>31.57</ele>
        <time>2022-09-20T07:29:03.000Z</time>
      </trkpt>
      <trkpt lat="45.49316" lon="-0.8052">
        <ele>32.71</ele>
        <time>2022-09-20T07:29:08.000Z</time>
      </trkpt>
      <trkpt lat="45.49327" lon="-0.80535">
        <ele>33.84</ele>
        <time>2022-09-20T07:29:13.000Z</time>
      </trkpt>
      <trkpt lat="45.49337" lon="-0.80551">
        <ele>35.98</ele>
        <time>2022-09-20T07:29:18.000Z</time>
      </trkpt>
      <trkpt lat="45.49343" lon="-0.80569">
        <ele>37.49</ele>
        <time>2022-09-20T07:29:23.000Z</time>
      </trkpt>
      <trkpt lat="45.49353" lon="-0.80588">
        <ele>40.23</ele>
        <time>2022-09-20T07:29:28.000Z</time>
      </trkpt>
      <trkpt lat="45.49365" lon="-0.80607">
        <ele>42.64</ele>
        <time>2022-09-20T07:29:33.000Z</time>
      </trkpt>
      <trkpt lat="45.49377" lon="-0.80626">
        <ele>44.57</ele>
        <time>2022-09-20T07:29:38.000Z</time>
      </trkpt>
      <trkpt lat="45.49391" lon="-0.80641">
        <ele>46.27</ele>
        <time>2022-09-20T07:29:43.000Z</time>
      </trkpt>
      <trkpt lat="45.49413" lon="-0.8066">
        <ele>48.26</ele>
        <time>2022-09-20T07:29:48.000Z</time>
      </trkpt>
      <trkpt lat="45.49433" lon="-0.8068">
        <ele>50.1</ele>
        <time>2022-09-20T07:29:53.000Z</time>
      </trkpt>
      <trkpt lat="45.49446" lon="-0.80713">
        <ele>51.5</ele>
        <time>2022-09-20T07:29:58.000Z</time>
      </trkpt>
      <trkpt lat="45.49452" lon="-0.80748">
        <ele>53.07</ele>
        <time>2022-09-20T07:30:03.000Z</time>
      </trkpt>
      <trkpt lat="45.49459" lon="-0.80782">
        <ele>54.79</ele>
        <time>2022-09-20T07:30:08.000Z</time>
      </trkpt>
      <trkpt lat="45.49468" lon="-0.80828">
        <ele>55.88</ele>
        <time>2022-09-20T07:30:13.000Z</time>
      </trkpt>
      <trkpt lat="45.49477" lon="-0.80864">
        <ele>56.85</ele>
        <time>2022-09-20T07:30:18.000Z</time>
      </trkpt>
      <trkpt lat="45.49485" lon="-0.80895">
        <ele>56.94</ele>
        <time>2022-09-20T07:30:23.000Z</time>
      </trkpt>
      <trkpt lat="45.49491" lon="-0.8092">
        <ele>57.93</ele>
        <time>2022-09-20T07:30:28.000Z</time>
      </trkpt>
      <trkpt lat="45.49489" lon="-0.80945">
        <ele>58.83</ele>
        <time>2022-09-20T07:30:33.000Z</time>
      </trkpt>
      <trkpt lat="45.49486" lon="-0.80967">
        <ele>57.89</ele>
        <time>2022-09-20T07:30:38.000Z</time>
      </trkpt>
      <trkpt lat="45.49481" lon="-0.80982">
        <ele>55.87</ele>
        <time>2022-09-20T07:30:43.000Z</time>
      </trkpt>
      <trkpt lat="45.49475" lon="-0.80995">
        <ele>53.14</ele>
        <time>2022-09-20T07:30:48.000Z</time>
      </trkpt>
      <trkpt lat="45.4947" lon="-0.81011">
        <ele>50.58</ele>
        <time>2022-09-20T07:30:53.000Z</time>
      </trkpt>
      <trkpt lat="45.49467" lon="-0.81027">
        <ele>49.09</ele>
        <time>2022-09-20T07:30:58.000Z</time>
      </trkpt>
      <trkpt lat="45.49468" lon="-0.81044">
        <ele>46.81</ele>
        <time>2022-09-20T07:31:03.000Z</time>
      </trkpt>
      <trkpt lat="45.4947" lon="-0.81062">
        <ele>45.29</ele>
        <time>2022-09-20T07:31:08.000Z</time>
      </trkpt>
      <trkpt lat="45.49471" lon="-0.81078">
        <ele>44.26</ele>
        <time>2022-09-20T07:31:13.000Z</time>
      </trkpt>
      <trkpt lat="45.49473" lon="-0.81094">
        <ele>43.83</ele>
        <time>2022-09-20T07:31:18.000Z</time>
      </trkpt>
      <trkpt lat="45.4948" lon="-0.81115">
        <ele>43.31</ele>
        <time>2022-09-20T07:31:23.000Z</time>
      </trkpt>
      <trkpt lat="45.49485" lon="-0.81137">
        <ele>42.81</ele>
        <time>2022-09-20T07:31:28.000Z</time>
      </trkpt>
      <trkpt lat="45.49491" lon="-0.81154">
        <ele>42.33</ele>
        <time>2022-09-20T07:31:33.000Z</time>
      </trkpt>
      <trkpt lat="45.49499" lon="-0.81167">
        <ele>41.79</ele>
        <time>2022-09-20T07:31:38.000Z</time>
      </trkpt>
      <trkpt lat="45.49502" lon="-0.81155">
        <ele>41.42</ele>
        <time>2022-09-20T07:31:52.000Z</time>
      </trkpt>
      <trkpt lat="45.49511" lon="-0.81142">
        <ele>41.33</ele>
        <time>2022-09-20T07:31:57.000Z</time>
      </trkpt>
      <trkpt lat="45.49522" lon="-0.81132">
        <ele>41.2</ele>
        <time>2022-09-20T07:32:02.000Z</time>
      </trkpt>
      <trkpt lat="45.49538" lon="-0.81117">
        <ele>41.02</ele>
        <time>2022-09-20T07:32:07.000Z</time>
      </trkpt>
      <trkpt lat="45.49553" lon="-0.81118">
        <ele>42.71</ele>
        <time>2022-09-20T07:32:12.000Z</time>
      </trkpt>
      <trkpt lat="45.49563" lon="-0.81133">
        <ele>42.73</ele>
        <time>2022-09-20T07:32:17.000Z</time>
      </trkpt>
      <trkpt lat="45.49574" lon="-0.81151">
        <ele>41.08</ele>
        <time>2022-09-20T07:32:22.000Z</time>
      </trkpt>
      <trkpt lat="45.49588" lon="-0.81171">
        <ele>38.66</ele>
        <time>2022-09-20T07:32:27.000Z</time>
      </trkpt>
      <trkpt lat="45.49608" lon="-0.81187">
        <ele>35.66</ele>
        <time>2022-09-20T07:32:32.000Z</time>
      </trkpt>
      <trkpt lat="45.49632" lon="-0.812">
        <ele>33.82</ele>
        <time>2022-09-20T07:32:37.000Z</time>
      </trkpt>
      <trkpt lat="45.49653" lon="-0.81216">
        <ele>32.03</ele>
        <time>2022-09-20T07:32:42.000Z</time>
      </trkpt>
      <trkpt lat="45.49669" lon="-0.8124">
        <ele>30.75</ele>
        <time>2022-09-20T07:32:47.000Z</time>
      </trkpt>
      <trkpt lat="45.49686" lon="-0.81259">
        <ele>30.35</ele>
        <time>2022-09-20T07:32:52.000Z</time>
      </trkpt>
      <trkpt lat="45.49698" lon="-0.81297">
        <ele>30.64</ele>
        <time>2022-09-20T07:32:57.000Z</time>
      </trkpt>
      <trkpt lat="45.49708" lon="-0.81324">
        <ele>30.46</ele>
        <time>2022-09-20T07:33:02.000Z</time>
      </trkpt>
      <trkpt lat="45.49721" lon="-0.81351">
        <ele>29.57</ele>
        <time>2022-09-20T07:33:07.000Z</time>
      </trkpt>
      <trkpt lat="45.49732" lon="-0.81377">
        <ele>28.57</ele>
        <time>2022-09-20T07:33:12.000Z</time>
      </trkpt>
      <trkpt lat="45.49743" lon="-0.81402">
        <ele>27.67</ele>
        <time>2022-09-20T07:33:17.000Z</time>
      </trkpt>
      <trkpt lat="45.49749" lon="-0.81424">
        <ele>26.77</ele>
        <time>2022-09-20T07:33:22.000Z</time>
      </trkpt>
      <trkpt lat="45.49747" lon="-0.81451">
        <ele>25.87</ele>
        <time>2022-09-20T07:33:27.000Z</time>
      </trkpt>
      <trkpt lat="45.49748" lon="-0.81485">
        <ele>24.87</ele>
        <time>2022-09-20T07:33:32.000Z</time>
      </trkpt>
      <trkpt lat="45.4974" lon="-0.81505">
        <ele>24.04</ele>
        <time>2022-09-20T07:33:37.000Z</time>
      </trkpt>
      <trkpt lat="45.49722" lon="-0.81517">
        <ele>22.71</ele>
        <time>2022-09-20T07:33:42.000Z</time>
      </trkpt>
      <trkpt lat="45.49722" lon="-0.81532">
        <ele>22.34</ele>
        <time>2022-09-20T07:33:48.000Z</time>
      </trkpt>
      <trkpt lat="45.49733" lon="-0.81543">
        <ele>21.63</ele>
        <time>2022-09-20T07:33:53.000Z</time>
      </trkpt>
      <trkpt lat="45.49729" lon="-0.81561">
        <ele>20.93</ele>
        <time>2022-09-20T07:33:58.000Z</time>
      </trkpt>
      <trkpt lat="45.49717" lon="-0.81577">
        <ele>20.16</ele>
        <time>2022-09-20T07:34:03.000Z</time>
      </trkpt>
      <trkpt lat="45.49718" lon="-0.81594">
        <ele>19.31</ele>
        <time>2022-09-20T07:34:08.000Z</time>
      </trkpt>
      <trkpt lat="45.49723" lon="-0.81614">
        <ele>19.33</ele>
        <time>2022-09-20T07:34:13.000Z</time>
      </trkpt>
      <trkpt lat="45.49729" lon="-0.8164">
        <ele>19</ele>
        <time>2022-09-20T07:34:18.000Z</time>
      </trkpt>
      <trkpt lat="45.49737" lon="-0.81674">
        <ele>18.73</ele>
        <time>2022-09-20T07:34:23.000Z</time>
      </trkpt>
      <trkpt lat="45.49746" lon="-0.81707">
        <ele>18.33</ele>
        <time>2022-09-20T07:34:28.000Z</time>
      </trkpt>
      <trkpt lat="45.49765" lon="-0.81734">
        <ele>18.01</ele>
        <time>2022-09-20T07:34:33.000Z</time>
      </trkpt>
      <trkpt lat="45.4979" lon="-0.81757">
        <ele>17.7</ele>
        <time>2022-09-20T07:34:38.000Z</time>
      </trkpt>
      <trkpt lat="45.49818" lon="-0.81783">
        <ele>17.62</ele>
        <time>2022-09-20T07:34:43.000Z</time>
      </trkpt>
      <trkpt lat="45.49843" lon="-0.81815">
        <ele>17.5</ele>
        <time>2022-09-20T07:34:48.000Z</time>
      </trkpt>
      <trkpt lat="45.49863" lon="-0.81849">
        <ele>17.31</ele>
        <time>2022-09-20T07:34:53.000Z</time>
      </trkpt>
      <trkpt lat="45.49895" lon="-0.81874">
        <ele>17.54</ele>
        <time>2022-09-20T07:34:58.000Z</time>
      </trkpt>
      <trkpt lat="45.49915" lon="-0.81904">
        <ele>17.36</ele>
        <time>2022-09-20T07:35:03.000Z</time>
      </trkpt>
      <trkpt lat="45.49932" lon="-0.8193">
        <ele>17.2</ele>
        <time>2022-09-20T07:35:08.000Z</time>
      </trkpt>
      <trkpt lat="45.49944" lon="-0.81963">
        <ele>17.11</ele>
        <time>2022-09-20T07:35:13.000Z</time>
      </trkpt>
      <trkpt lat="45.49951" lon="-0.81989">
        <ele>17</ele>
        <time>2022-09-20T07:35:18.000Z</time>
      </trkpt>
      <trkpt lat="45.49941" lon="-0.81986">
        <ele>17.13</ele>
        <time>2022-09-20T07:35:24.000Z</time>
      </trkpt>
      <trkpt lat="45.49944" lon="-0.81998">
        <ele>18.41</ele>
        <time>2022-09-20T07:36:14.000Z</time>
      </trkpt>
      <trkpt lat="45.49942" lon="-0.82037">
        <ele>17.8</ele>
        <time>2022-09-20T07:36:19.000Z</time>
      </trkpt>
      <trkpt lat="45.49938" lon="-0.82091">
        <ele>18.06</ele>
        <time>2022-09-20T07:36:24.000Z</time>
      </trkpt>
      <trkpt lat="45.4993" lon="-0.82138">
        <ele>18.1</ele>
        <time>2022-09-20T07:36:29.000Z</time>
      </trkpt>
      <trkpt lat="45.49914" lon="-0.82181">
        <ele>18</ele>
        <time>2022-09-20T07:36:34.000Z</time>
      </trkpt>
      <trkpt lat="45.49902" lon="-0.82232">
        <ele>17.71</ele>
        <time>2022-09-20T07:36:39.000Z</time>
      </trkpt>
      <trkpt lat="45.49909" lon="-0.82293">
        <ele>17.6</ele>
        <time>2022-09-20T07:36:44.000Z</time>
      </trkpt>
      <trkpt lat="45.49902" lon="-0.82351">
        <ele>17.5</ele>
        <time>2022-09-20T07:36:49.000Z</time>
      </trkpt>
      <trkpt lat="45.49899" lon="-0.82397">
        <ele>17.48</ele>
        <time>2022-09-20T07:36:54.000Z</time>
      </trkpt>
      <trkpt lat="45.49902" lon="-0.8242">
        <ele>17.6</ele>
        <time>2022-09-20T07:36:59.000Z</time>
      </trkpt>
      <trkpt lat="45.49905" lon="-0.82445">
        <ele>17.6</ele>
        <time>2022-09-20T07:37:04.000Z</time>
      </trkpt>
      <trkpt lat="45.49907" lon="-0.82467">
        <ele>17.7</ele>
        <time>2022-09-20T07:37:09.000Z</time>
      </trkpt>
      <trkpt lat="45.49909" lon="-0.82489">
        <ele>17.7</ele>
        <time>2022-09-20T07:37:14.000Z</time>
      </trkpt>
      <trkpt lat="45.4991" lon="-0.82513">
        <ele>17.8</ele>
        <time>2022-09-20T07:37:19.000Z</time>
      </trkpt>
      <trkpt lat="45.4991" lon="-0.82535">
        <ele>17.89</ele>
        <time>2022-09-20T07:37:24.000Z</time>
      </trkpt>
      <trkpt lat="45.49943" lon="-0.82552">
        <ele>18.07</ele>
        <time>2022-09-20T07:37:29.000Z</time>
      </trkpt>
      <trkpt lat="45.49973" lon="-0.82571">
        <ele>18.58</ele>
        <time>2022-09-20T07:37:34.000Z</time>
      </trkpt>
      <trkpt lat="45.49984" lon="-0.8259">
        <ele>19.23</ele>
        <time>2022-09-20T07:37:39.000Z</time>
      </trkpt>
      <trkpt lat="45.49994" lon="-0.82611">
        <ele>20.48</ele>
        <time>2022-09-20T07:37:44.000Z</time>
      </trkpt>
      <trkpt lat="45.50004" lon="-0.82632">
        <ele>21.67</ele>
        <time>2022-09-20T07:37:49.000Z</time>
      </trkpt>
      <trkpt lat="45.50014" lon="-0.82654">
        <ele>22.28</ele>
        <time>2022-09-20T07:37:54.000Z</time>
      </trkpt>
      <trkpt lat="45.50025" lon="-0.82678">
        <ele>23.61</ele>
        <time>2022-09-20T07:37:59.000Z</time>
      </trkpt>
      <trkpt lat="45.50036" lon="-0.82706">
        <ele>24.09</ele>
        <time>2022-09-20T07:38:04.000Z</time>
      </trkpt>
      <trkpt lat="45.5005" lon="-0.82739">
        <ele>25.22</ele>
        <time>2022-09-20T07:38:09.000Z</time>
      </trkpt>
      <trkpt lat="45.50065" lon="-0.82774">
        <ele>25.87</ele>
        <time>2022-09-20T07:38:14.000Z</time>
      </trkpt>
      <trkpt lat="45.50076" lon="-0.82817">
        <ele>26.47</ele>
        <time>2022-09-20T07:38:19.000Z</time>
      </trkpt>
      <trkpt lat="45.50082" lon="-0.82856">
        <ele>26.97</ele>
        <time>2022-09-20T07:38:24.000Z</time>
      </trkpt>
      <trkpt lat="45.50081" lon="-0.82891">
        <ele>27.39</ele>
        <time>2022-09-20T07:38:29.000Z</time>
      </trkpt>
      <trkpt lat="45.5008" lon="-0.82924">
        <ele>27.87</ele>
        <time>2022-09-20T07:38:34.000Z</time>
      </trkpt>
      <trkpt lat="45.50083" lon="-0.82954">
        <ele>28.27</ele>
        <time>2022-09-20T07:38:39.000Z</time>
      </trkpt>
      <trkpt lat="45.50098" lon="-0.82978">
        <ele>28.45</ele>
        <time>2022-09-20T07:38:44.000Z</time>
      </trkpt>
      <trkpt lat="45.50123" lon="-0.83012">
        <ele>27.51</ele>
        <time>2022-09-20T07:38:49.000Z</time>
      </trkpt>
      <trkpt lat="45.5015" lon="-0.83057">
        <ele>25.67</ele>
        <time>2022-09-20T07:38:54.000Z</time>
      </trkpt>
      <trkpt lat="45.50164" lon="-0.83109">
        <ele>25.13</ele>
        <time>2022-09-20T07:38:59.000Z</time>
      </trkpt>
      <trkpt lat="45.50165" lon="-0.83164">
        <ele>24.73</ele>
        <time>2022-09-20T07:39:04.000Z</time>
      </trkpt>
      <trkpt lat="45.50166" lon="-0.83233">
        <ele>24.14</ele>
        <time>2022-09-20T07:39:09.000Z</time>
      </trkpt>
      <trkpt lat="45.5017" lon="-0.83297">
        <ele>23.63</ele>
        <time>2022-09-20T07:39:14.000Z</time>
      </trkpt>
      <trkpt lat="45.50176" lon="-0.83349">
        <ele>23.23</ele>
        <time>2022-09-20T07:39:19.000Z</time>
      </trkpt>
      <trkpt lat="45.50182" lon="-0.83359">
        <ele>22.64</ele>
        <time>2022-09-20T07:39:24.000Z</time>
      </trkpt>
      <trkpt lat="45.50185" lon="-0.83381">
        <ele>21.64</ele>
        <time>2022-09-20T07:39:29.000Z</time>
      </trkpt>
      <trkpt lat="45.50191" lon="-0.83398">
        <ele>21.33</ele>
        <time>2022-09-20T07:39:34.000Z</time>
      </trkpt>
      <trkpt lat="45.502" lon="-0.83394">
        <ele>10.57</ele>
        <time>2022-09-20T07:41:08.000Z</time>
      </trkpt>
      <trkpt lat="45.50211" lon="-0.83396">
        <ele>10.42</ele>
        <time>2022-09-20T07:41:14.000Z</time>
      </trkpt>
      <trkpt lat="45.50224" lon="-0.83404">
        <ele>9.84</ele>
        <time>2022-09-20T07:41:19.000Z</time>
      </trkpt>
      <trkpt lat="45.5024" lon="-0.83415">
        <ele>9.53</ele>
        <time>2022-09-20T07:41:24.000Z</time>
      </trkpt>
      <trkpt lat="45.50255" lon="-0.83435">
        <ele>8.59</ele>
        <time>2022-09-20T07:41:29.000Z</time>
      </trkpt>
      <trkpt lat="45.50273" lon="-0.83456">
        <ele>7.47</ele>
        <time>2022-09-20T07:41:34.000Z</time>
      </trkpt>
      <trkpt lat="45.50292" lon="-0.83478">
        <ele>6.15</ele>
        <time>2022-09-20T07:41:39.000Z</time>
      </trkpt>
      <trkpt lat="45.50311" lon="-0.83496">
        <ele>5.43</ele>
        <time>2022-09-20T07:41:44.000Z</time>
      </trkpt>
      <trkpt lat="45.5033" lon="-0.83512">
        <ele>4.74</ele>
        <time>2022-09-20T07:41:49.000Z</time>
      </trkpt>
      <trkpt lat="45.50347" lon="-0.83526">
        <ele>3.79</ele>
        <time>2022-09-20T07:41:54.000Z</time>
      </trkpt>
      <trkpt lat="45.50366" lon="-0.83545">
        <ele>3.12</ele>
        <time>2022-09-20T07:41:59.000Z</time>
      </trkpt>
      <trkpt lat="45.50382" lon="-0.83562">
        <ele>2.57</ele>
        <time>2022-09-20T07:42:04.000Z</time>
      </trkpt>
      <trkpt lat="45.50398" lon="-0.83581">
        <ele>1.86</ele>
        <time>2022-09-20T07:42:09.000Z</time>
      </trkpt>
      <trkpt lat="45.50416" lon="-0.83601">
        <ele>1.33</ele>
        <time>2022-09-20T07:42:14.000Z</time>
      </trkpt>
      <trkpt lat="45.50433" lon="-0.83622">
        <ele>0.83</ele>
        <time>2022-09-20T07:42:19.000Z</time>
      </trkpt>
      <trkpt lat="45.50447" lon="-0.83644">
        <ele>1.04</ele>
        <time>2022-09-20T07:42:24.000Z</time>
      </trkpt>
      <trkpt lat="45.50456" lon="-0.83659">
        <ele>0.94</ele>
        <time>2022-09-20T07:42:29.000Z</time>
      </trkpt>
      <trkpt lat="45.50465" lon="-0.83673">
        <ele>0.99</ele>
        <time>2022-09-20T07:42:34.000Z</time>
      </trkpt>
      <trkpt lat="45.50471" lon="-0.83689">
        <ele>1.27</ele>
        <time>2022-09-20T07:42:39.000Z</time>
      </trkpt>
      <trkpt lat="45.5048" lon="-0.83701">
        <ele>1.31</ele>
        <time>2022-09-20T07:42:44.000Z</time>
      </trkpt>
      <trkpt lat="45.50489" lon="-0.83716">
        <ele>1.59</ele>
        <time>2022-09-20T07:42:49.000Z</time>
      </trkpt>
      <trkpt lat="45.50496" lon="-0.83729">
        <ele>2.07</ele>
        <time>2022-09-20T07:42:54.000Z</time>
      </trkpt>
      <trkpt lat="45.50507" lon="-0.83746">
        <ele>2.15</ele>
        <time>2022-09-20T07:42:59.000Z</time>
      </trkpt>
      <trkpt lat="45.50515" lon="-0.8376">
        <ele>2.19</ele>
        <time>2022-09-20T07:43:04.000Z</time>
      </trkpt>
      <trkpt lat="45.50523" lon="-0.83776">
        <ele>2.57</ele>
        <time>2022-09-20T07:43:09.000Z</time>
      </trkpt>
      <trkpt lat="45.50529" lon="-0.83792">
        <ele>2.97</ele>
        <time>2022-09-20T07:43:14.000Z</time>
      </trkpt>
      <trkpt lat="45.50536" lon="-0.83808">
        <ele>3.54</ele>
        <time>2022-09-20T07:43:19.000Z</time>
      </trkpt>
      <trkpt lat="45.50544" lon="-0.8382">
        <ele>4.07</ele>
        <time>2022-09-20T07:43:24.000Z</time>
      </trkpt>
      <trkpt lat="45.50551" lon="-0.83833">
        <ele>4.84</ele>
        <time>2022-09-20T07:43:29.000Z</time>
      </trkpt>
      <trkpt lat="45.50556" lon="-0.83847">
        <ele>5.37</ele>
        <time>2022-09-20T07:43:34.000Z</time>
      </trkpt>
      <trkpt lat="45.50562" lon="-0.83857">
        <ele>7.17</ele>
        <time>2022-09-20T07:43:51.000Z</time>
      </trkpt>
      <trkpt lat="45.50565" lon="-0.83871">
        <ele>12.12</ele>
        <time>2022-09-20T07:45:46.000Z</time>
      </trkpt>
      <trkpt lat="45.50572" lon="-0.839">
        <ele>12.39</ele>
        <time>2022-09-20T07:45:51.000Z</time>
      </trkpt>
      <trkpt lat="45.50583" lon="-0.83924">
        <ele>12.49</ele>
        <time>2022-09-20T07:45:56.000Z</time>
      </trkpt>
      <trkpt lat="45.50594" lon="-0.83949">
        <ele>12.7</ele>
        <time>2022-09-20T07:46:01.000Z</time>
      </trkpt>
      <trkpt lat="45.50605" lon="-0.83975">
        <ele>13.25</ele>
        <time>2022-09-20T07:46:06.000Z</time>
      </trkpt>
      <trkpt lat="45.50615" lon="-0.83999">
        <ele>13.93</ele>
        <time>2022-09-20T07:46:11.000Z</time>
      </trkpt>
      <trkpt lat="45.50623" lon="-0.84022">
        <ele>14.37</ele>
        <time>2022-09-20T07:46:16.000Z</time>
      </trkpt>
      <trkpt lat="45.5063" lon="-0.84047">
        <ele>15.06</ele>
        <time>2022-09-20T07:46:21.000Z</time>
      </trkpt>
      <trkpt lat="45.50637" lon="-0.84072">
        <ele>15.97</ele>
        <time>2022-09-20T07:46:26.000Z</time>
      </trkpt>
      <trkpt lat="45.50643" lon="-0.84098">
        <ele>17.42</ele>
        <time>2022-09-20T07:46:31.000Z</time>
      </trkpt>
      <trkpt lat="45.50649" lon="-0.84124">
        <ele>18.36</ele>
        <time>2022-09-20T07:46:36.000Z</time>
      </trkpt>
      <trkpt lat="45.50657" lon="-0.84155">
        <ele>18.32</ele>
        <time>2022-09-20T07:46:41.000Z</time>
      </trkpt>
      <trkpt lat="45.50666" lon="-0.84191">
        <ele>18.17</ele>
        <time>2022-09-20T07:46:46.000Z</time>
      </trkpt>
      <trkpt lat="45.50683" lon="-0.84235">
        <ele>17.04</ele>
        <time>2022-09-20T07:46:51.000Z</time>
      </trkpt>
      <trkpt lat="45.50709" lon="-0.84282">
        <ele>16.29</ele>
        <time>2022-09-20T07:46:56.000Z</time>
      </trkpt>
      <trkpt lat="45.50743" lon="-0.84325">
        <ele>13.55</ele>
        <time>2022-09-20T07:47:01.000Z</time>
      </trkpt>
      <trkpt lat="45.5078" lon="-0.84365">
        <ele>9.09</ele>
        <time>2022-09-20T07:47:06.000Z</time>
      </trkpt>
      <trkpt lat="45.50816" lon="-0.84409">
        <ele>5.63</ele>
        <time>2022-09-20T07:47:11.000Z</time>
      </trkpt>
      <trkpt lat="45.50851" lon="-0.84457">
        <ele>2.48</ele>
        <time>2022-09-20T07:47:16.000Z</time>
      </trkpt>
      <trkpt lat="45.50888" lon="-0.84504">
        <ele>0.16</ele>
        <time>2022-09-20T07:47:21.000Z</time>
      </trkpt>
      <trkpt lat="45.50923" lon="-0.84545">
        <ele>-1.46</ele>
        <time>2022-09-20T07:47:26.000Z</time>
      </trkpt>
      <trkpt lat="45.50956" lon="-0.84584">
        <ele>-2.09</ele>
        <time>2022-09-20T07:47:31.000Z</time>
      </trkpt>
      <trkpt lat="45.50984" lon="-0.8462">
        <ele>-1.98</ele>
        <time>2022-09-20T07:47:36.000Z</time>
      </trkpt>
      <trkpt lat="45.50999" lon="-0.84666">
        <ele>-2.22</ele>
        <time>2022-09-20T07:47:41.000Z</time>
      </trkpt>
      <trkpt lat="45.51004" lon="-0.84716">
        <ele>-3.63</ele>
        <time>2022-09-20T07:47:46.000Z</time>
      </trkpt>
      <trkpt lat="45.51012" lon="-0.84764">
        <ele>-5.06</ele>
        <time>2022-09-20T07:47:51.000Z</time>
      </trkpt>
      <trkpt lat="45.51032" lon="-0.84802">
        <ele>-3.95</ele>
        <time>2022-09-20T07:47:56.000Z</time>
      </trkpt>
      <trkpt lat="45.51054" lon="-0.84834">
        <ele>-5.03</ele>
        <time>2022-09-20T07:48:01.000Z</time>
      </trkpt>
      <trkpt lat="45.51077" lon="-0.84862">
        <ele>-4.83</ele>
        <time>2022-09-20T07:48:06.000Z</time>
      </trkpt>
      <trkpt lat="45.51099" lon="-0.84885">
        <ele>-5.14</ele>
        <time>2022-09-20T07:48:11.000Z</time>
      </trkpt>
      <trkpt lat="45.51122" lon="-0.84904">
        <ele>-5.78</ele>
        <time>2022-09-20T07:48:16.000Z</time>
      </trkpt>
      <trkpt lat="45.51146" lon="-0.8492">
        <ele>-4.92</ele>
        <time>2022-09-20T07:48:21.000Z</time>
      </trkpt>
      <trkpt lat="45.51174" lon="-0.84936">
        <ele>-4.46</ele>
        <time>2022-09-20T07:48:26.000Z</time>
      </trkpt>
      <trkpt lat="45.51201" lon="-0.84953">
        <ele>-4.35</ele>
        <time>2022-09-20T07:48:31.000Z</time>
      </trkpt>
      <trkpt lat="45.51226" lon="-0.84973">
        <ele>-3.79</ele>
        <time>2022-09-20T07:48:36.000Z</time>
      </trkpt>
      <trkpt lat="45.51251" lon="-0.84998">
        <ele>-4.84</ele>
        <time>2022-09-20T07:48:41.000Z</time>
      </trkpt>
      <trkpt lat="45.51273" lon="-0.85024">
        <ele>-4.33</ele>
        <time>2022-09-20T07:48:46.000Z</time>
      </trkpt>
      <trkpt lat="45.51296" lon="-0.85047">
        <ele>-4.81</ele>
        <time>2022-09-20T07:48:51.000Z</time>
      </trkpt>
      <trkpt lat="45.51321" lon="-0.85067">
        <ele>-4.39</ele>
        <time>2022-09-20T07:48:56.000Z</time>
      </trkpt>
      <trkpt lat="45.51349" lon="-0.85079">
        <ele>-4.84</ele>
        <time>2022-09-20T07:49:01.000Z</time>
      </trkpt>
      <trkpt lat="45.51378" lon="-0.85085">
        <ele>-4.2</ele>
        <time>2022-09-20T07:49:06.000Z</time>
      </trkpt>
      <trkpt lat="45.51404" lon="-0.85089">
        <ele>-4.09</ele>
        <time>2022-09-20T07:49:11.000Z</time>
      </trkpt>
      <trkpt lat="45.51435" lon="-0.85092">
        <ele>-3.53</ele>
        <time>2022-09-20T07:49:16.000Z</time>
      </trkpt>
      <trkpt lat="45.51463" lon="-0.85097">
        <ele>-0.8</ele>
        <time>2022-09-20T07:49:21.000Z</time>
      </trkpt>
      <trkpt lat="45.51491" lon="-0.851">
        <ele>-0.54</ele>
        <time>2022-09-20T07:49:26.000Z</time>
      </trkpt>
      <trkpt lat="45.51521" lon="-0.85103">
        <ele>0.27</ele>
        <time>2022-09-20T07:49:31.000Z</time>
      </trkpt>
      <trkpt lat="45.51547" lon="-0.8511">
        <ele>1.16</ele>
        <time>2022-09-20T07:49:36.000Z</time>
      </trkpt>
      <trkpt lat="45.51576" lon="-0.85127">
        <ele>-1.96</ele>
        <time>2022-09-20T07:49:41.000Z</time>
      </trkpt>
      <trkpt lat="45.51583" lon="-0.85165">
        <ele>-1.23</ele>
        <time>2022-09-20T07:49:46.000Z</time>
      </trkpt>
      <trkpt lat="45.51575" lon="-0.85207">
        <ele>-1.25</ele>
        <time>2022-09-20T07:49:51.000Z</time>
      </trkpt>
      <trkpt lat="45.51571" lon="-0.85243">
        <ele>-1.31</ele>
        <time>2022-09-20T07:49:56.000Z</time>
      </trkpt>
      <trkpt lat="45.51567" lon="-0.85278">
        <ele>-1.21</ele>
        <time>2022-09-20T07:50:01.000Z</time>
      </trkpt>
      <trkpt lat="45.51569" lon="-0.85317">
        <ele>-0.44</ele>
        <time>2022-09-20T07:50:06.000Z</time>
      </trkpt>
      <trkpt lat="45.51574" lon="-0.85355">
        <ele>0.18</ele>
        <time>2022-09-20T07:50:11.000Z</time>
      </trkpt>
      <trkpt lat="45.51583" lon="-0.85386">
        <ele>1.1</ele>
        <time>2022-09-20T07:50:16.000Z</time>
      </trkpt>
      <trkpt lat="45.51599" lon="-0.85412">
        <ele>-0.26</ele>
        <time>2022-09-20T07:50:21.000Z</time>
      </trkpt>
      <trkpt lat="45.51615" lon="-0.85426">
        <ele>-0.19</ele>
        <time>2022-09-20T07:50:26.000Z</time>
      </trkpt>
      <trkpt lat="45.51626" lon="-0.85426">
        <ele>-0.15</ele>
        <time>2022-09-20T07:50:49.000Z</time>
      </trkpt>
      <trkpt lat="45.51639" lon="-0.85441">
        <ele>-1.31</ele>
        <time>2022-09-20T07:50:54.000Z</time>
      </trkpt>
      <trkpt lat="45.51658" lon="-0.85457">
        <ele>-2.23</ele>
        <time>2022-09-20T07:50:59.000Z</time>
      </trkpt>
      <trkpt lat="45.5168" lon="-0.85475">
        <ele>-2.26</ele>
        <time>2022-09-20T07:51:04.000Z</time>
      </trkpt>
      <trkpt lat="45.51701" lon="-0.85493">
        <ele>-2.77</ele>
        <time>2022-09-20T07:51:09.000Z</time>
      </trkpt>
      <trkpt lat="45.51724" lon="-0.85513">
        <ele>-3.09</ele>
        <time>2022-09-20T07:51:14.000Z</time>
      </trkpt>
      <trkpt lat="45.51748" lon="-0.85535">
        <ele>-3.13</ele>
        <time>2022-09-20T07:51:19.000Z</time>
      </trkpt>
      <trkpt lat="45.51774" lon="-0.85552">
        <ele>-3</ele>
        <time>2022-09-20T07:51:24.000Z</time>
      </trkpt>
      <trkpt lat="45.51795" lon="-0.85569">
        <ele>-4.03</ele>
        <time>2022-09-20T07:51:29.000Z</time>
      </trkpt>
      <trkpt lat="45.51808" lon="-0.85582">
        <ele>-4.14</ele>
        <time>2022-09-20T07:51:34.000Z</time>
      </trkpt>
      <trkpt lat="45.51799" lon="-0.85584">
        <ele>-3.28</ele>
        <time>2022-09-20T07:51:51.000Z</time>
      </trkpt>
      <trkpt lat="45.51789" lon="-0.85573">
        <ele>-2.54</ele>
        <time>2022-09-20T07:51:56.000Z</time>
      </trkpt>
      <trkpt lat="45.51773" lon="-0.8556">
        <ele>-1.98</ele>
        <time>2022-09-20T07:52:01.000Z</time>
      </trkpt>
      <trkpt lat="45.51756" lon="-0.85544">
        <ele>-2.44</ele>
        <time>2022-09-20T07:52:06.000Z</time>
      </trkpt>
      <trkpt lat="45.51738" lon="-0.85531">
        <ele>-2.89</ele>
        <time>2022-09-20T07:52:11.000Z</time>
      </trkpt>
      <trkpt lat="45.5172" lon="-0.85519">
        <ele>-3</ele>
        <time>2022-09-20T07:52:16.000Z</time>
      </trkpt>
      <trkpt lat="45.51705" lon="-0.85516">
        <ele>-3.19</ele>
        <time>2022-09-20T07:52:21.000Z</time>
      </trkpt>
      <trkpt lat="45.51687" lon="-0.85528">
        <ele>-3.59</ele>
        <time>2022-09-20T07:52:26.000Z</time>
      </trkpt>
      <trkpt lat="45.51669" lon="-0.85545">
        <ele>-4.12</ele>
        <time>2022-09-20T07:52:31.000Z</time>
      </trkpt>
      <trkpt lat="45.51646" lon="-0.85565">
        <ele>-4.64</ele>
        <time>2022-09-20T07:52:36.000Z</time>
      </trkpt>
      <trkpt lat="45.51636" lon="-0.85583">
        <ele>-5.35</ele>
        <time>2022-09-20T07:52:41.000Z</time>
      </trkpt>
      <trkpt lat="45.51641" lon="-0.85603">
        <ele>-5.5</ele>
        <time>2022-09-20T07:52:46.000Z</time>
      </trkpt>
      <trkpt lat="45.51649" lon="-0.85621">
        <ele>-5.7</ele>
        <time>2022-09-20T07:52:51.000Z</time>
      </trkpt>
      <trkpt lat="45.51656" lon="-0.85639">
        <ele>-6.06</ele>
        <time>2022-09-20T07:52:56.000Z</time>
      </trkpt>
      <trkpt lat="45.51666" lon="-0.8567">
        <ele>-6.32</ele>
        <time>2022-09-20T07:53:01.000Z</time>
      </trkpt>
      <trkpt lat="45.51677" lon="-0.85698">
        <ele>-5.81</ele>
        <time>2022-09-20T07:53:06.000Z</time>
      </trkpt>
      <trkpt lat="45.51687" lon="-0.8573">
        <ele>-5.34</ele>
        <time>2022-09-20T07:53:11.000Z</time>
      </trkpt>
      <trkpt lat="45.51699" lon="-0.85763">
        <ele>-5.45</ele>
        <time>2022-09-20T07:53:16.000Z</time>
      </trkpt>
      <trkpt lat="45.51705" lon="-0.85788">
        <ele>-4.27</ele>
        <time>2022-09-20T07:53:21.000Z</time>
      </trkpt>
      <trkpt lat="45.51707" lon="-0.8581">
        <ele>-3.38</ele>
        <time>2022-09-20T07:53:26.000Z</time>
      </trkpt>
      <trkpt lat="45.51711" lon="-0.85831">
        <ele>-2.63</ele>
        <time>2022-09-20T07:53:31.000Z</time>
      </trkpt>
      <trkpt lat="45.51714" lon="-0.85848">
        <ele>-2.31</ele>
        <time>2022-09-20T07:53:36.000Z</time>
      </trkpt>
      <trkpt lat="45.51716" lon="-0.85867">
        <ele>-2.59</ele>
        <time>2022-09-20T07:53:41.000Z</time>
      </trkpt>
      <trkpt lat="45.51717" lon="-0.8588">
        <ele>-2.77</ele>
        <time>2022-09-20T07:53:46.000Z</time>
      </trkpt>
      <trkpt lat="45.51718" lon="-0.85899">
        <ele>-2.25</ele>
        <time>2022-09-20T07:53:51.000Z</time>
      </trkpt>
      <trkpt lat="45.51719" lon="-0.85915">
        <ele>-1.73</ele>
        <time>2022-09-20T07:53:56.000Z</time>
      </trkpt>
      <trkpt lat="45.51723" lon="-0.8593">
        <ele>-0.86</ele>
        <time>2022-09-20T07:54:01.000Z</time>
      </trkpt>
      <trkpt lat="45.51726" lon="-0.85946">
        <ele>-0.43</ele>
        <time>2022-09-20T07:54:06.000Z</time>
      </trkpt>
      <trkpt lat="45.51728" lon="-0.85961">
        <ele>0.95</ele>
        <time>2022-09-20T07:54:11.000Z</time>
      </trkpt>
      <trkpt lat="45.51731" lon="-0.85977">
        <ele>2.33</ele>
        <time>2022-09-20T07:54:16.000Z</time>
      </trkpt>
      <trkpt lat="45.51736" lon="-0.85997">
        <ele>3.34</ele>
        <time>2022-09-20T07:54:21.000Z</time>
      </trkpt>
      <trkpt lat="45.5174" lon="-0.86014">
        <ele>3.89</ele>
        <time>2022-09-20T07:54:26.000Z</time>
      </trkpt>
      <trkpt lat="45.51745" lon="-0.86033">
        <ele>4.56</ele>
        <time>2022-09-20T07:54:31.000Z</time>
      </trkpt>
      <trkpt lat="45.51751" lon="-0.86052">
        <ele>5.53</ele>
        <time>2022-09-20T07:54:36.000Z</time>
      </trkpt>
      <trkpt lat="45.51755" lon="-0.86067">
        <ele>6.09</ele>
        <time>2022-09-20T07:54:41.000Z</time>
      </trkpt>
      <trkpt lat="45.5176" lon="-0.86083">
        <ele>8.77</ele>
        <time>2022-09-20T07:54:46.000Z</time>
      </trkpt>
      <trkpt lat="45.51763" lon="-0.861">
        <ele>11.82</ele>
        <time>2022-09-20T07:54:51.000Z</time>
      </trkpt>
      <trkpt lat="45.51765" lon="-0.86117">
        <ele>12.65</ele>
        <time>2022-09-20T07:54:56.000Z</time>
      </trkpt>
      <trkpt lat="45.51767" lon="-0.86136">
        <ele>13.53</ele>
        <time>2022-09-20T07:55:01.000Z</time>
      </trkpt>
      <trkpt lat="45.51771" lon="-0.86156">
        <ele>15.16</ele>
        <time>2022-09-20T07:55:06.000Z</time>
      </trkpt>
      <trkpt lat="45.51774" lon="-0.86177">
        <ele>17.06</ele>
        <time>2022-09-20T07:55:11.000Z</time>
      </trkpt>
      <trkpt lat="45.5178" lon="-0.86198">
        <ele>19.55</ele>
        <time>2022-09-20T07:55:16.000Z</time>
      </trkpt>
      <trkpt lat="45.51787" lon="-0.86219">
        <ele>21.2</ele>
        <time>2022-09-20T07:55:21.000Z</time>
      </trkpt>
      <trkpt lat="45.51797" lon="-0.86242">
        <ele>20.78</ele>
        <time>2022-09-20T07:55:26.000Z</time>
      </trkpt>
      <trkpt lat="45.51808" lon="-0.86263">
        <ele>21.37</ele>
        <time>2022-09-20T07:55:31.000Z</time>
      </trkpt>
      <trkpt lat="45.5182" lon="-0.86287">
        <ele>20.41</ele>
        <time>2022-09-20T07:55:36.000Z</time>
      </trkpt>
      <trkpt lat="45.5183" lon="-0.86313">
        <ele>20.74</ele>
        <time>2022-09-20T07:55:41.000Z</time>
      </trkpt>
      <trkpt lat="45.51842" lon="-0.86339">
        <ele>20.15</ele>
        <time>2022-09-20T07:55:46.000Z</time>
      </trkpt>
      <trkpt lat="45.51853" lon="-0.86365">
        <ele>19.4</ele>
        <time>2022-09-20T07:55:51.000Z</time>
      </trkpt>
      <trkpt lat="45.51864" lon="-0.86392">
        <ele>19.17</ele>
        <time>2022-09-20T07:55:56.000Z</time>
      </trkpt>
      <trkpt lat="45.51874" lon="-0.86421">
        <ele>19.29</ele>
        <time>2022-09-20T07:56:01.000Z</time>
      </trkpt>
      <trkpt lat="45.51884" lon="-0.86447">
        <ele>19.54</ele>
        <time>2022-09-20T07:56:06.000Z</time>
      </trkpt>
      <trkpt lat="45.51896" lon="-0.86473">
        <ele>19.37</ele>
        <time>2022-09-20T07:56:11.000Z</time>
      </trkpt>
      <trkpt lat="45.51908" lon="-0.865">
        <ele>18.1</ele>
        <time>2022-09-20T07:56:16.000Z</time>
      </trkpt>
      <trkpt lat="45.5192" lon="-0.86526">
        <ele>18.77</ele>
        <time>2022-09-20T07:56:21.000Z</time>
      </trkpt>
      <trkpt lat="45.51932" lon="-0.8655">
        <ele>20.08</ele>
        <time>2022-09-20T07:56:26.000Z</time>
      </trkpt>
      <trkpt lat="45.51941" lon="-0.86572">
        <ele>21.18</ele>
        <time>2022-09-20T07:56:31.000Z</time>
      </trkpt>
      <trkpt lat="45.51951" lon="-0.86594">
        <ele>21.43</ele>
        <time>2022-09-20T07:56:36.000Z</time>
      </trkpt>
      <trkpt lat="45.51961" lon="-0.86617">
        <ele>22.42</ele>
        <time>2022-09-20T07:56:41.000Z</time>
      </trkpt>
      <trkpt lat="45.51969" lon="-0.86639">
        <ele>23.94</ele>
        <time>2022-09-20T07:56:46.000Z</time>
      </trkpt>
      <trkpt lat="45.51977" lon="-0.86659">
        <ele>25.57</ele>
        <time>2022-09-20T07:56:51.000Z</time>
      </trkpt>
      <trkpt lat="45.51987" lon="-0.86678">
        <ele>26.99</ele>
        <time>2022-09-20T07:56:56.000Z</time>
      </trkpt>
      <trkpt lat="45.51996" lon="-0.86697">
        <ele>27.3</ele>
        <time>2022-09-20T07:57:01.000Z</time>
      </trkpt>
      <trkpt lat="45.52006" lon="-0.86719">
        <ele>26.43</ele>
        <time>2022-09-20T07:57:06.000Z</time>
      </trkpt>
      <trkpt lat="45.52018" lon="-0.86746">
        <ele>26.44</ele>
        <time>2022-09-20T07:57:11.000Z</time>
      </trkpt>
      <trkpt lat="45.52029" lon="-0.86781">
        <ele>23.88</ele>
        <time>2022-09-20T07:57:16.000Z</time>
      </trkpt>
      <trkpt lat="45.52039" lon="-0.86816">
        <ele>23.66</ele>
        <time>2022-09-20T07:57:21.000Z</time>
      </trkpt>
      <trkpt lat="45.5205" lon="-0.86851">
        <ele>23.18</ele>
        <time>2022-09-20T07:57:26.000Z</time>
      </trkpt>
      <trkpt lat="45.5206" lon="-0.86883">
        <ele>23.43</ele>
        <time>2022-09-20T07:57:31.000Z</time>
      </trkpt>
      <trkpt lat="45.52069" lon="-0.8691">
        <ele>23.84</ele>
        <time>2022-09-20T07:57:36.000Z</time>
      </trkpt>
      <trkpt lat="45.52076" lon="-0.86935">
        <ele>24.75</ele>
        <time>2022-09-20T07:57:41.000Z</time>
      </trkpt>
      <trkpt lat="45.52081" lon="-0.86956">
        <ele>25.6</ele>
        <time>2022-09-20T07:57:46.000Z</time>
      </trkpt>
      <trkpt lat="45.52084" lon="-0.86974">
        <ele>26.32</ele>
        <time>2022-09-20T07:57:51.000Z</time>
      </trkpt>
      <trkpt lat="45.5209" lon="-0.86992">
        <ele>26.49</ele>
        <time>2022-09-20T07:57:56.000Z</time>
      </trkpt>
      <trkpt lat="45.52094" lon="-0.87011">
        <ele>27.05</ele>
        <time>2022-09-20T07:58:01.000Z</time>
      </trkpt>
      <trkpt lat="45.52103" lon="-0.87028">
        <ele>25.95</ele>
        <time>2022-09-20T07:58:06.000Z</time>
      </trkpt>
      <trkpt lat="45.52117" lon="-0.87045">
        <ele>23.14</ele>
        <time>2022-09-20T07:58:11.000Z</time>
      </trkpt>
      <trkpt lat="45.52131" lon="-0.87061">
        <ele>21.52</ele>
        <time>2022-09-20T07:58:16.000Z</time>
      </trkpt>
      <trkpt lat="45.52145" lon="-0.87077">
        <ele>21.07</ele>
        <time>2022-09-20T07:58:21.000Z</time>
      </trkpt>
      <trkpt lat="45.52159" lon="-0.87095">
        <ele>19.6</ele>
        <time>2022-09-20T07:58:26.000Z</time>
      </trkpt>
      <trkpt lat="45.5217" lon="-0.87116">
        <ele>20.68</ele>
        <time>2022-09-20T07:58:31.000Z</time>
      </trkpt>
      <trkpt lat="45.52181" lon="-0.87138">
        <ele>22.22</ele>
        <time>2022-09-20T07:58:36.000Z</time>
      </trkpt>
      <trkpt lat="45.52192" lon="-0.87159">
        <ele>22.86</ele>
        <time>2022-09-20T07:58:41.000Z</time>
      </trkpt>
      <trkpt lat="45.52201" lon="-0.87181">
        <ele>24.31</ele>
        <time>2022-09-20T07:58:46.000Z</time>
      </trkpt>
      <trkpt lat="45.52212" lon="-0.87203">
        <ele>26.36</ele>
        <time>2022-09-20T07:58:51.000Z</time>
      </trkpt>
      <trkpt lat="45.52225" lon="-0.87229">
        <ele>27.76</ele>
        <time>2022-09-20T07:58:56.000Z</time>
      </trkpt>
      <trkpt lat="45.52239" lon="-0.87254">
        <ele>27.51</ele>
        <time>2022-09-20T07:59:01.000Z</time>
      </trkpt>
      <trkpt lat="45.52253" lon="-0.87274">
        <ele>28.99</ele>
        <time>2022-09-20T07:59:06.000Z</time>
      </trkpt>
      <trkpt lat="45.52266" lon="-0.87296">
        <ele>28.2</ele>
        <time>2022-09-20T07:59:11.000Z</time>
      </trkpt>
      <trkpt lat="45.52283" lon="-0.87317">
        <ele>25.31</ele>
        <time>2022-09-20T07:59:16.000Z</time>
      </trkpt>
      <trkpt lat="45.52298" lon="-0.87336">
        <ele>24.87</ele>
        <time>2022-09-20T07:59:21.000Z</time>
      </trkpt>
      <trkpt lat="45.52313" lon="-0.87355">
        <ele>22.92</ele>
        <time>2022-09-20T07:59:26.000Z</time>
      </trkpt>
      <trkpt lat="45.52325" lon="-0.8737">
        <ele>22.34</ele>
        <time>2022-09-20T07:59:31.000Z</time>
      </trkpt>
      <trkpt lat="45.52334" lon="-0.87382">
        <ele>21.83</ele>
        <time>2022-09-20T07:59:36.000Z</time>
      </trkpt>
      <trkpt lat="45.52344" lon="-0.87393">
        <ele>25.15</ele>
        <time>2022-09-20T08:01:03.000Z</time>
      </trkpt>
      <trkpt lat="45.52351" lon="-0.87404">
        <ele>26.82</ele>
        <time>2022-09-20T08:03:14.000Z</time>
      </trkpt>
      <trkpt lat="45.52375" lon="-0.87428">
        <ele>26.63</ele>
        <time>2022-09-20T08:03:19.000Z</time>
      </trkpt>
      <trkpt lat="45.52406" lon="-0.87457">
        <ele>25.1</ele>
        <time>2022-09-20T08:03:24.000Z</time>
      </trkpt>
      <trkpt lat="45.52434" lon="-0.87506">
        <ele>22.42</ele>
        <time>2022-09-20T08:03:29.000Z</time>
      </trkpt>
      <trkpt lat="45.52465" lon="-0.87552">
        <ele>19.8</ele>
        <time>2022-09-20T08:03:34.000Z</time>
      </trkpt>
      <trkpt lat="45.52499" lon="-0.87594">
        <ele>15.33</ele>
        <time>2022-09-20T08:03:39.000Z</time>
      </trkpt>
      <trkpt lat="45.52532" lon="-0.87642">
        <ele>9.42</ele>
        <time>2022-09-20T08:03:44.000Z</time>
      </trkpt>
      <trkpt lat="45.52563" lon="-0.8769">
        <ele>5.47</ele>
        <time>2022-09-20T08:03:49.000Z</time>
      </trkpt>
      <trkpt lat="45.52597" lon="-0.87729">
        <ele>3.32</ele>
        <time>2022-09-20T08:03:54.000Z</time>
      </trkpt>
      <trkpt lat="45.52625" lon="-0.87774">
        <ele>0.82</ele>
        <time>2022-09-20T08:03:59.000Z</time>
      </trkpt>
      <trkpt lat="45.52645" lon="-0.87818">
        <ele>-0.81</ele>
        <time>2022-09-20T08:04:04.000Z</time>
      </trkpt>
      <trkpt lat="45.52662" lon="-0.87853">
        <ele>0.77</ele>
        <time>2022-09-20T08:04:09.000Z</time>
      </trkpt>
      <trkpt lat="45.52677" lon="-0.8788">
        <ele>1.63</ele>
        <time>2022-09-20T08:04:14.000Z</time>
      </trkpt>
      <trkpt lat="45.52691" lon="-0.87909">
        <ele>1.71</ele>
        <time>2022-09-20T08:04:19.000Z</time>
      </trkpt>
      <trkpt lat="45.52701" lon="-0.87944">
        <ele>1.63</ele>
        <time>2022-09-20T08:04:24.000Z</time>
      </trkpt>
      <trkpt lat="45.52709" lon="-0.87987">
        <ele>1.01</ele>
        <time>2022-09-20T08:04:29.000Z</time>
      </trkpt>
      <trkpt lat="45.52719" lon="-0.88034">
        <ele>-0.05</ele>
        <time>2022-09-20T08:04:34.000Z</time>
      </trkpt>
      <trkpt lat="45.52731" lon="-0.8808">
        <ele>-0.2</ele>
        <time>2022-09-20T08:04:39.000Z</time>
      </trkpt>
      <trkpt lat="45.52748" lon="-0.88121">
        <ele>-0.41</ele>
        <time>2022-09-20T08:04:44.000Z</time>
      </trkpt>
      <trkpt lat="45.52768" lon="-0.88155">
        <ele>-0.4</ele>
        <time>2022-09-20T08:04:49.000Z</time>
      </trkpt>
      <trkpt lat="45.52792" lon="-0.88183">
        <ele>-1.49</ele>
        <time>2022-09-20T08:04:54.000Z</time>
      </trkpt>
      <trkpt lat="45.5282" lon="-0.88205">
        <ele>-2.26</ele>
        <time>2022-09-20T08:04:59.000Z</time>
      </trkpt>
      <trkpt lat="45.52843" lon="-0.88218">
        <ele>-2.87</ele>
        <time>2022-09-20T08:05:04.000Z</time>
      </trkpt>
      <trkpt lat="45.52857" lon="-0.88221">
        <ele>-3.56</ele>
        <time>2022-09-20T08:05:09.000Z</time>
      </trkpt>
      <trkpt lat="45.52862" lon="-0.88234">
        <ele>-3.89</ele>
        <time>2022-09-20T08:05:15.000Z</time>
      </trkpt>
      <trkpt lat="45.52868" lon="-0.88261">
        <ele>-4.15</ele>
        <time>2022-09-20T08:05:20.000Z</time>
      </trkpt>
      <trkpt lat="45.52879" lon="-0.88293">
        <ele>-4.64</ele>
        <time>2022-09-20T08:05:25.000Z</time>
      </trkpt>
      <trkpt lat="45.52891" lon="-0.88331">
        <ele>-4.68</ele>
        <time>2022-09-20T08:05:30.000Z</time>
      </trkpt>
      <trkpt lat="45.52905" lon="-0.8837">
        <ele>-5.06</ele>
        <time>2022-09-20T08:05:35.000Z</time>
      </trkpt>
      <trkpt lat="45.52919" lon="-0.88408">
        <ele>-5.61</ele>
        <time>2022-09-20T08:05:40.000Z</time>
      </trkpt>
      <trkpt lat="45.52934" lon="-0.88445">
        <ele>-6</ele>
        <time>2022-09-20T08:05:45.000Z</time>
      </trkpt>
      <trkpt lat="45.52945" lon="-0.88478">
        <ele>-6.84</ele>
        <time>2022-09-20T08:05:50.000Z</time>
      </trkpt>
      <trkpt lat="45.52959" lon="-0.88512">
        <ele>-7.92</ele>
        <time>2022-09-20T08:05:55.000Z</time>
      </trkpt>
      <trkpt lat="45.52972" lon="-0.8855">
        <ele>-7.53</ele>
        <time>2022-09-20T08:06:00.000Z</time>
      </trkpt>
      <trkpt lat="45.52984" lon="-0.88586">
        <ele>-7.9</ele>
        <time>2022-09-20T08:06:05.000Z</time>
      </trkpt>
      <trkpt lat="45.52998" lon="-0.88622">
        <ele>-8.68</ele>
        <time>2022-09-20T08:06:10.000Z</time>
      </trkpt>
      <trkpt lat="45.53011" lon="-0.88657">
        <ele>-8.16</ele>
        <time>2022-09-20T08:06:15.000Z</time>
      </trkpt>
      <trkpt lat="45.53024" lon="-0.88694">
        <ele>-8.17</ele>
        <time>2022-09-20T08:06:20.000Z</time>
      </trkpt>
      <trkpt lat="45.53037" lon="-0.88731">
        <ele>-7.64</ele>
        <time>2022-09-20T08:06:25.000Z</time>
      </trkpt>
      <trkpt lat="45.53049" lon="-0.88766">
        <ele>-8.16</ele>
        <time>2022-09-20T08:06:30.000Z</time>
      </trkpt>
      <trkpt lat="45.53062" lon="-0.88804">
        <ele>-9.7</ele>
        <time>2022-09-20T08:06:35.000Z</time>
      </trkpt>
      <trkpt lat="45.53076" lon="-0.88842">
        <ele>-10.27</ele>
        <time>2022-09-20T08:06:40.000Z</time>
      </trkpt>
      <trkpt lat="45.53089" lon="-0.88879">
        <ele>-11.28</ele>
        <time>2022-09-20T08:06:45.000Z</time>
      </trkpt>
      <trkpt lat="45.53103" lon="-0.88916">
        <ele>-11.91</ele>
        <time>2022-09-20T08:06:50.000Z</time>
      </trkpt>
      <trkpt lat="45.53116" lon="-0.88953">
        <ele>-11.84</ele>
        <time>2022-09-20T08:06:55.000Z</time>
      </trkpt>
      <trkpt lat="45.53129" lon="-0.8899">
        <ele>-12.6</ele>
        <time>2022-09-20T08:07:00.000Z</time>
      </trkpt>
      <trkpt lat="45.53141" lon="-0.89025">
        <ele>-12.68</ele>
        <time>2022-09-20T08:07:05.000Z</time>
      </trkpt>
      <trkpt lat="45.53154" lon="-0.89059">
        <ele>-13.08</ele>
        <time>2022-09-20T08:07:10.000Z</time>
      </trkpt>
      <trkpt lat="45.53167" lon="-0.89089">
        <ele>-12.84</ele>
        <time>2022-09-20T08:07:15.000Z</time>
      </trkpt>
      <trkpt lat="45.53177" lon="-0.89111">
        <ele>-12.23</ele>
        <time>2022-09-20T08:07:20.000Z</time>
      </trkpt>
      <trkpt lat="45.53181" lon="-0.89132">
        <ele>-11.57</ele>
        <time>2022-09-20T08:07:25.000Z</time>
      </trkpt>
      <trkpt lat="45.53177" lon="-0.89148">
        <ele>-10.66</ele>
        <time>2022-09-20T08:07:30.000Z</time>
      </trkpt>
      <trkpt lat="45.53179" lon="-0.89169">
        <ele>-10.26</ele>
        <time>2022-09-20T08:07:35.000Z</time>
      </trkpt>
      <trkpt lat="45.53182" lon="-0.89189">
        <ele>-10.84</ele>
        <time>2022-09-20T08:07:40.000Z</time>
      </trkpt>
      <trkpt lat="45.53184" lon="-0.89211">
        <ele>-11</ele>
        <time>2022-09-20T08:07:45.000Z</time>
      </trkpt>
      <trkpt lat="45.53184" lon="-0.89234">
        <ele>-11.36</ele>
        <time>2022-09-20T08:07:50.000Z</time>
      </trkpt>
      <trkpt lat="45.53181" lon="-0.8925">
        <ele>-11.5</ele>
        <time>2022-09-20T08:07:55.000Z</time>
      </trkpt>
      <trkpt lat="45.53182" lon="-0.89272">
        <ele>-11.33</ele>
        <time>2022-09-20T08:08:00.000Z</time>
      </trkpt>
      <trkpt lat="45.53183" lon="-0.89293">
        <ele>-11.2</ele>
        <time>2022-09-20T08:08:05.000Z</time>
      </trkpt>
      <trkpt lat="45.53183" lon="-0.89317">
        <ele>-10.8</ele>
        <time>2022-09-20T08:08:10.000Z</time>
      </trkpt>
      <trkpt lat="45.53183" lon="-0.89344">
        <ele>-10.34</ele>
        <time>2022-09-20T08:08:15.000Z</time>
      </trkpt>
      <trkpt lat="45.53179" lon="-0.89375">
        <ele>-10.11</ele>
        <time>2022-09-20T08:08:20.000Z</time>
      </trkpt>
      <trkpt lat="45.53178" lon="-0.89405">
        <ele>-8.79</ele>
        <time>2022-09-20T08:08:25.000Z</time>
      </trkpt>
      <trkpt lat="45.53177" lon="-0.89429">
        <ele>-7.15</ele>
        <time>2022-09-20T08:08:30.000Z</time>
      </trkpt>
      <trkpt lat="45.53176" lon="-0.89456">
        <ele>-4.84</ele>
        <time>2022-09-20T08:08:35.000Z</time>
      </trkpt>
      <trkpt lat="45.53176" lon="-0.89484">
        <ele>-3.83</ele>
        <time>2022-09-20T08:08:40.000Z</time>
      </trkpt>
      <trkpt lat="45.53177" lon="-0.89511">
        <ele>-1.42</ele>
        <time>2022-09-20T08:08:45.000Z</time>
      </trkpt>
      <trkpt lat="45.53179" lon="-0.89536">
        <ele>-0.33</ele>
        <time>2022-09-20T08:08:50.000Z</time>
      </trkpt>
      <trkpt lat="45.53181" lon="-0.89562">
        <ele>-0.52</ele>
        <time>2022-09-20T08:08:55.000Z</time>
      </trkpt>
      <trkpt lat="45.53186" lon="-0.89593">
        <ele>0.14</ele>
        <time>2022-09-20T08:09:00.000Z</time>
      </trkpt>
      <trkpt lat="45.5319" lon="-0.89625">
        <ele>-0.49</ele>
        <time>2022-09-20T08:09:05.000Z</time>
      </trkpt>
      <trkpt lat="45.53195" lon="-0.89659">
        <ele>1.21</ele>
        <time>2022-09-20T08:09:10.000Z</time>
      </trkpt>
      <trkpt lat="45.53202" lon="-0.89689">
        <ele>2.61</ele>
        <time>2022-09-20T08:09:15.000Z</time>
      </trkpt>
      <trkpt lat="45.53208" lon="-0.89719">
        <ele>3.35</ele>
        <time>2022-09-20T08:09:20.000Z</time>
      </trkpt>
      <trkpt lat="45.53215" lon="-0.89745">
        <ele>4.1</ele>
        <time>2022-09-20T08:09:25.000Z</time>
      </trkpt>
      <trkpt lat="45.5322" lon="-0.89769">
        <ele>5.63</ele>
        <time>2022-09-20T08:09:30.000Z</time>
      </trkpt>
      <trkpt lat="45.53225" lon="-0.89791">
        <ele>7.44</ele>
        <time>2022-09-20T08:09:35.000Z</time>
      </trkpt>
      <trkpt lat="45.5323" lon="-0.89812">
        <ele>9.52</ele>
        <time>2022-09-20T08:09:40.000Z</time>
      </trkpt>
      <trkpt lat="45.53236" lon="-0.89834">
        <ele>11.1</ele>
        <time>2022-09-20T08:09:45.000Z</time>
      </trkpt>
      <trkpt lat="45.53242" lon="-0.89852">
        <ele>12.41</ele>
        <time>2022-09-20T08:09:50.000Z</time>
      </trkpt>
      <trkpt lat="45.53248" lon="-0.89877">
        <ele>13.49</ele>
        <time>2022-09-20T08:09:55.000Z</time>
      </trkpt>
      <trkpt lat="45.53255" lon="-0.899">
        <ele>15.58</ele>
        <time>2022-09-20T08:10:00.000Z</time>
      </trkpt>
      <trkpt lat="45.5326" lon="-0.89922">
        <ele>16.65</ele>
        <time>2022-09-20T08:10:05.000Z</time>
      </trkpt>
      <trkpt lat="45.53264" lon="-0.89943">
        <ele>16.89</ele>
        <time>2022-09-20T08:10:10.000Z</time>
      </trkpt>
      <trkpt lat="45.5327" lon="-0.89965">
        <ele>16.96</ele>
        <time>2022-09-20T08:10:15.000Z</time>
      </trkpt>
      <trkpt lat="45.53281" lon="-0.89992">
        <ele>16.07</ele>
        <time>2022-09-20T08:10:20.000Z</time>
      </trkpt>
      <trkpt lat="45.53292" lon="-0.90022">
        <ele>13.42</ele>
        <time>2022-09-20T08:10:25.000Z</time>
      </trkpt>
      <trkpt lat="45.53304" lon="-0.90053">
        <ele>11.84</ele>
        <time>2022-09-20T08:10:30.000Z</time>
      </trkpt>
      <trkpt lat="45.53314" lon="-0.90092">
        <ele>11.73</ele>
        <time>2022-09-20T08:10:35.000Z</time>
      </trkpt>
      <trkpt lat="45.53329" lon="-0.90133">
        <ele>11.41</ele>
        <time>2022-09-20T08:10:40.000Z</time>
      </trkpt>
      <trkpt lat="45.53348" lon="-0.90159">
        <ele>10.11</ele>
        <time>2022-09-20T08:10:45.000Z</time>
      </trkpt>
      <trkpt lat="45.53366" lon="-0.90169">
        <ele>7.66</ele>
        <time>2022-09-20T08:10:50.000Z</time>
      </trkpt>
      <trkpt lat="45.53388" lon="-0.90178">
        <ele>5.38</ele>
        <time>2022-09-20T08:10:55.000Z</time>
      </trkpt>
      <trkpt lat="45.53416" lon="-0.90181">
        <ele>3.6</ele>
        <time>2022-09-20T08:11:00.000Z</time>
      </trkpt>
      <trkpt lat="45.53449" lon="-0.90181">
        <ele>2.49</ele>
        <time>2022-09-20T08:11:05.000Z</time>
      </trkpt>
      <trkpt lat="45.5347" lon="-0.90212">
        <ele>0.44</ele>
        <time>2022-09-20T08:11:10.000Z</time>
      </trkpt>
      <trkpt lat="45.53485" lon="-0.90243">
        <ele>-1.59</ele>
        <time>2022-09-20T08:11:15.000Z</time>
      </trkpt>
      <trkpt lat="45.53503" lon="-0.90267">
        <ele>-3.91</ele>
        <time>2022-09-20T08:11:20.000Z</time>
      </trkpt>
      <trkpt lat="45.53521" lon="-0.90294">
        <ele>-6.18</ele>
        <time>2022-09-20T08:11:25.000Z</time>
      </trkpt>
      <trkpt lat="45.5354" lon="-0.90325">
        <ele>-8.49</ele>
        <time>2022-09-20T08:11:30.000Z</time>
      </trkpt>
      <trkpt lat="45.53554" lon="-0.90355">
        <ele>-10.3</ele>
        <time>2022-09-20T08:11:35.000Z</time>
      </trkpt>
      <trkpt lat="45.53567" lon="-0.90388">
        <ele>-11.7</ele>
        <time>2022-09-20T08:11:40.000Z</time>
      </trkpt>
      <trkpt lat="45.53577" lon="-0.90416">
        <ele>-13.37</ele>
        <time>2022-09-20T08:11:45.000Z</time>
      </trkpt>
      <trkpt lat="45.53583" lon="-0.90447">
        <ele>-14.75</ele>
        <time>2022-09-20T08:11:50.000Z</time>
      </trkpt>
      <trkpt lat="45.53589" lon="-0.90482">
        <ele>-15.78</ele>
        <time>2022-09-20T08:11:55.000Z</time>
      </trkpt>
      <trkpt lat="45.53594" lon="-0.90519">
        <ele>-17.13</ele>
        <time>2022-09-20T08:12:00.000Z</time>
      </trkpt>
      <trkpt lat="45.53598" lon="-0.90551">
        <ele>-18.85</ele>
        <time>2022-09-20T08:12:05.000Z</time>
      </trkpt>
      <trkpt lat="45.53603" lon="-0.90578">
        <ele>-19.59</ele>
        <time>2022-09-20T08:12:10.000Z</time>
      </trkpt>
      <trkpt lat="45.53603" lon="-0.90591">
        <ele>-18.43</ele>
        <time>2022-09-20T08:12:15.000Z</time>
      </trkpt>
      <trkpt lat="45.53608" lon="-0.90602">
        <ele>-14.51</ele>
        <time>2022-09-20T08:13:03.000Z</time>
      </trkpt>
      <trkpt lat="45.53614" lon="-0.90617">
        <ele>-14.67</ele>
        <time>2022-09-20T08:13:08.000Z</time>
      </trkpt>
      <trkpt lat="45.53623" lon="-0.90639">
        <ele>-15.2</ele>
        <time>2022-09-20T08:13:13.000Z</time>
      </trkpt>
      <trkpt lat="45.53634" lon="-0.90649">
        <ele>-15.1</ele>
        <time>2022-09-20T08:13:18.000Z</time>
      </trkpt>
      <trkpt lat="45.53646" lon="-0.90647">
        <ele>-14.44</ele>
        <time>2022-09-20T08:13:23.000Z</time>
      </trkpt>
      <trkpt lat="45.53655" lon="-0.90643">
        <ele>-13.86</ele>
        <time>2022-09-20T08:13:28.000Z</time>
      </trkpt>
      <trkpt lat="45.53661" lon="-0.90631">
        <ele>-7.99</ele>
        <time>2022-09-20T08:14:09.000Z</time>
      </trkpt>
      <trkpt lat="45.53672" lon="-0.90616">
        <ele>-7.14</ele>
        <time>2022-09-20T08:14:14.000Z</time>
      </trkpt>
      <trkpt lat="45.53689" lon="-0.90607">
        <ele>-6.54</ele>
        <time>2022-09-20T08:14:19.000Z</time>
      </trkpt>
      <trkpt lat="45.53705" lon="-0.90596">
        <ele>-6.31</ele>
        <time>2022-09-20T08:14:24.000Z</time>
      </trkpt>
      <trkpt lat="45.53725" lon="-0.9059">
        <ele>-6.42</ele>
        <time>2022-09-20T08:14:29.000Z</time>
      </trkpt>
      <trkpt lat="45.53749" lon="-0.90584">
        <ele>-6.73</ele>
        <time>2022-09-20T08:14:34.000Z</time>
      </trkpt>
      <trkpt lat="45.53772" lon="-0.90573">
        <ele>-6.02</ele>
        <time>2022-09-20T08:14:39.000Z</time>
      </trkpt>
      <trkpt lat="45.53794" lon="-0.90564">
        <ele>-5.84</ele>
        <time>2022-09-20T08:14:44.000Z</time>
      </trkpt>
      <trkpt lat="45.53816" lon="-0.90555">
        <ele>-5.81</ele>
        <time>2022-09-20T08:14:49.000Z</time>
      </trkpt>
      <trkpt lat="45.53836" lon="-0.90567">
        <ele>-6.87</ele>
        <time>2022-09-20T08:14:54.000Z</time>
      </trkpt>
      <trkpt lat="45.53857" lon="-0.90582">
        <ele>-9.36</ele>
        <time>2022-09-20T08:14:59.000Z</time>
      </trkpt>
      <trkpt lat="45.53878" lon="-0.90598">
        <ele>-10.83</ele>
        <time>2022-09-20T08:15:04.000Z</time>
      </trkpt>
      <trkpt lat="45.53898" lon="-0.90614">
        <ele>-10.52</ele>
        <time>2022-09-20T08:15:09.000Z</time>
      </trkpt>
      <trkpt lat="45.53919" lon="-0.9063">
        <ele>-11.44</ele>
        <time>2022-09-20T08:15:14.000Z</time>
      </trkpt>
      <trkpt lat="45.53939" lon="-0.90645">
        <ele>-11.5</ele>
        <time>2022-09-20T08:15:19.000Z</time>
      </trkpt>
      <trkpt lat="45.53957" lon="-0.90661">
        <ele>-12.16</ele>
        <time>2022-09-20T08:15:24.000Z</time>
      </trkpt>
      <trkpt lat="45.53974" lon="-0.90675">
        <ele>-10.88</ele>
        <time>2022-09-20T08:15:29.000Z</time>
      </trkpt>
      <trkpt lat="45.53992" lon="-0.90689">
        <ele>-9.49</ele>
        <time>2022-09-20T08:15:34.000Z</time>
      </trkpt>
      <trkpt lat="45.54011" lon="-0.90704">
        <ele>-9.87</ele>
        <time>2022-09-20T08:15:39.000Z</time>
      </trkpt>
      <trkpt lat="45.54029" lon="-0.90718">
        <ele>-10.25</ele>
        <time>2022-09-20T08:15:44.000Z</time>
      </trkpt>
      <trkpt lat="45.54049" lon="-0.90734">
        <ele>-10.28</ele>
        <time>2022-09-20T08:15:49.000Z</time>
      </trkpt>
      <trkpt lat="45.54069" lon="-0.90749">
        <ele>-9.15</ele>
        <time>2022-09-20T08:15:54.000Z</time>
      </trkpt>
      <trkpt lat="45.54089" lon="-0.90766">
        <ele>-8.89</ele>
        <time>2022-09-20T08:15:59.000Z</time>
      </trkpt>
      <trkpt lat="45.54108" lon="-0.90782">
        <ele>-9.19</ele>
        <time>2022-09-20T08:16:04.000Z</time>
      </trkpt>
      <trkpt lat="45.54128" lon="-0.90798">
        <ele>-9.04</ele>
        <time>2022-09-20T08:16:09.000Z</time>
      </trkpt>
      <trkpt lat="45.54145" lon="-0.90813">
        <ele>-11.06</ele>
        <time>2022-09-20T08:16:14.000Z</time>
      </trkpt>
      <trkpt lat="45.54166" lon="-0.90829">
        <ele>-12.76</ele>
        <time>2022-09-20T08:16:19.000Z</time>
      </trkpt>
      <trkpt lat="45.54188" lon="-0.90846">
        <ele>-13.51</ele>
        <time>2022-09-20T08:16:24.000Z</time>
      </trkpt>
      <trkpt lat="45.54211" lon="-0.90865">
        <ele>-13.09</ele>
        <time>2022-09-20T08:16:29.000Z</time>
      </trkpt>
      <trkpt lat="45.54234" lon="-0.90882">
        <ele>-12.97</ele>
        <time>2022-09-20T08:16:34.000Z</time>
      </trkpt>
      <trkpt lat="45.54257" lon="-0.909">
        <ele>-13.34</ele>
        <time>2022-09-20T08:16:39.000Z</time>
      </trkpt>
      <trkpt lat="45.54279" lon="-0.90917">
        <ele>-12.72</ele>
        <time>2022-09-20T08:16:44.000Z</time>
      </trkpt>
      <trkpt lat="45.54302" lon="-0.90936">
        <ele>-12.26</ele>
        <time>2022-09-20T08:16:49.000Z</time>
      </trkpt>
      <trkpt lat="45.54323" lon="-0.90952">
        <ele>-12.23</ele>
        <time>2022-09-20T08:16:54.000Z</time>
      </trkpt>
      <trkpt lat="45.54345" lon="-0.90971">
        <ele>-11.86</ele>
        <time>2022-09-20T08:16:59.000Z</time>
      </trkpt>
      <trkpt lat="45.54369" lon="-0.90988">
        <ele>-11.53</ele>
        <time>2022-09-20T08:17:04.000Z</time>
      </trkpt>
      <trkpt lat="45.5439" lon="-0.91005">
        <ele>-11.02</ele>
        <time>2022-09-20T08:17:09.000Z</time>
      </trkpt>
      <trkpt lat="45.54409" lon="-0.91021">
        <ele>-10.81</ele>
        <time>2022-09-20T08:17:14.000Z</time>
      </trkpt>
      <trkpt lat="45.54429" lon="-0.91038">
        <ele>-10.41</ele>
        <time>2022-09-20T08:17:19.000Z</time>
      </trkpt>
      <trkpt lat="45.54451" lon="-0.91054">
        <ele>-9.04</ele>
        <time>2022-09-20T08:17:24.000Z</time>
      </trkpt>
      <trkpt lat="45.54473" lon="-0.91071">
        <ele>-8.23</ele>
        <time>2022-09-20T08:17:29.000Z</time>
      </trkpt>
      <trkpt lat="45.54494" lon="-0.91086">
        <ele>-8.15</ele>
        <time>2022-09-20T08:17:34.000Z</time>
      </trkpt>
      <trkpt lat="45.54513" lon="-0.91102">
        <ele>-8.55</ele>
        <time>2022-09-20T08:17:39.000Z</time>
      </trkpt>
      <trkpt lat="45.54528" lon="-0.91123">
        <ele>-7.02</ele>
        <time>2022-09-20T08:17:44.000Z</time>
      </trkpt>
      <trkpt lat="45.54539" lon="-0.91133">
        <ele>-6.88</ele>
        <time>2022-09-20T08:17:49.000Z</time>
      </trkpt>
      <trkpt lat="45.54553" lon="-0.91143">
        <ele>-6.63</ele>
        <time>2022-09-20T08:17:54.000Z</time>
      </trkpt>
      <trkpt lat="45.54569" lon="-0.91157">
        <ele>-6.53</ele>
        <time>2022-09-20T08:17:59.000Z</time>
      </trkpt>
      <trkpt lat="45.54587" lon="-0.91169">
        <ele>-6.42</ele>
        <time>2022-09-20T08:18:04.000Z</time>
      </trkpt>
      <trkpt lat="45.54606" lon="-0.91183">
        <ele>-7.3</ele>
        <time>2022-09-20T08:18:09.000Z</time>
      </trkpt>
      <trkpt lat="45.54626" lon="-0.912">
        <ele>-8.45</ele>
        <time>2022-09-20T08:18:14.000Z</time>
      </trkpt>
      <trkpt lat="45.54646" lon="-0.91215">
        <ele>-9.49</ele>
        <time>2022-09-20T08:18:19.000Z</time>
      </trkpt>
      <trkpt lat="45.54664" lon="-0.91231">
        <ele>-9.23</ele>
        <time>2022-09-20T08:18:24.000Z</time>
      </trkpt>
      <trkpt lat="45.54683" lon="-0.91246">
        <ele>-8.37</ele>
        <time>2022-09-20T08:18:29.000Z</time>
      </trkpt>
      <trkpt lat="45.54699" lon="-0.91262">
        <ele>-7.29</ele>
        <time>2022-09-20T08:18:34.000Z</time>
      </trkpt>
      <trkpt lat="45.54716" lon="-0.91277">
        <ele>-8.27</ele>
        <time>2022-09-20T08:18:39.000Z</time>
      </trkpt>
      <trkpt lat="45.54733" lon="-0.91294">
        <ele>-7.92</ele>
        <time>2022-09-20T08:18:44.000Z</time>
      </trkpt>
      <trkpt lat="45.54752" lon="-0.91308">
        <ele>-8.14</ele>
        <time>2022-09-20T08:18:49.000Z</time>
      </trkpt>
      <trkpt lat="45.54772" lon="-0.91323">
        <ele>-8.52</ele>
        <time>2022-09-20T08:18:54.000Z</time>
      </trkpt>
      <trkpt lat="45.54792" lon="-0.91342">
        <ele>-8.82</ele>
        <time>2022-09-20T08:18:59.000Z</time>
      </trkpt>
      <trkpt lat="45.5481" lon="-0.91364">
        <ele>-8.34</ele>
        <time>2022-09-20T08:19:04.000Z</time>
      </trkpt>
      <trkpt lat="45.5483" lon="-0.91386">
        <ele>-8.25</ele>
        <time>2022-09-20T08:19:09.000Z</time>
      </trkpt>
      <trkpt lat="45.54849" lon="-0.91407">
        <ele>-7.76</ele>
        <time>2022-09-20T08:19:14.000Z</time>
      </trkpt>
      <trkpt lat="45.54869" lon="-0.91427">
        <ele>-6.6</ele>
        <time>2022-09-20T08:19:19.000Z</time>
      </trkpt>
      <trkpt lat="45.54888" lon="-0.91448">
        <ele>-6.03</ele>
        <time>2022-09-20T08:19:24.000Z</time>
      </trkpt>
      <trkpt lat="45.54906" lon="-0.91469">
        <ele>-5.43</ele>
        <time>2022-09-20T08:19:29.000Z</time>
      </trkpt>
      <trkpt lat="45.54926" lon="-0.91488">
        <ele>-4.74</ele>
        <time>2022-09-20T08:19:34.000Z</time>
      </trkpt>
      <trkpt lat="45.54942" lon="-0.91512">
        <ele>-3.49</ele>
        <time>2022-09-20T08:19:39.000Z</time>
      </trkpt>
      <trkpt lat="45.5496" lon="-0.91535">
        <ele>-3.51</ele>
        <time>2022-09-20T08:19:44.000Z</time>
      </trkpt>
      <trkpt lat="45.54978" lon="-0.91559">
        <ele>-4.39</ele>
        <time>2022-09-20T08:19:49.000Z</time>
      </trkpt>
      <trkpt lat="45.54997" lon="-0.91584">
        <ele>-4.93</ele>
        <time>2022-09-20T08:19:54.000Z</time>
      </trkpt>
      <trkpt lat="45.55015" lon="-0.91609">
        <ele>-5.67</ele>
        <time>2022-09-20T08:19:59.000Z</time>
      </trkpt>
      <trkpt lat="45.55031" lon="-0.91635">
        <ele>-6.46</ele>
        <time>2022-09-20T08:20:04.000Z</time>
      </trkpt>
      <trkpt lat="45.55046" lon="-0.91661">
        <ele>-7.28</ele>
        <time>2022-09-20T08:20:09.000Z</time>
      </trkpt>
      <trkpt lat="45.55061" lon="-0.91688">
        <ele>-7.74</ele>
        <time>2022-09-20T08:20:14.000Z</time>
      </trkpt>
      <trkpt lat="45.55073" lon="-0.91717">
        <ele>-8.64</ele>
        <time>2022-09-20T08:20:19.000Z</time>
      </trkpt>
      <trkpt lat="45.55086" lon="-0.91746">
        <ele>-8.8</ele>
        <time>2022-09-20T08:20:24.000Z</time>
      </trkpt>
      <trkpt lat="45.55099" lon="-0.91774">
        <ele>-8.84</ele>
        <time>2022-09-20T08:20:29.000Z</time>
      </trkpt>
      <trkpt lat="45.55111" lon="-0.918">
        <ele>-9.35</ele>
        <time>2022-09-20T08:20:34.000Z</time>
      </trkpt>
      <trkpt lat="45.55122" lon="-0.91824">
        <ele>-10.34</ele>
        <time>2022-09-20T08:20:39.000Z</time>
      </trkpt>
      <trkpt lat="45.55139" lon="-0.91825">
        <ele>-9.86</ele>
        <time>2022-09-20T08:20:44.000Z</time>
      </trkpt>
      <trkpt lat="45.55152" lon="-0.9182">
        <ele>-9.41</ele>
        <time>2022-09-20T08:20:49.000Z</time>
      </trkpt>
      <trkpt lat="45.55157" lon="-0.91841">
        <ele>-9.89</ele>
        <time>2022-09-20T08:20:54.000Z</time>
      </trkpt>
      <trkpt lat="45.55161" lon="-0.91864">
        <ele>-10.37</ele>
        <time>2022-09-20T08:20:59.000Z</time>
      </trkpt>
      <trkpt lat="45.55165" lon="-0.91888">
        <ele>-10.59</ele>
        <time>2022-09-20T08:21:04.000Z</time>
      </trkpt>
      <trkpt lat="45.55176" lon="-0.91915">
        <ele>-11.46</ele>
        <time>2022-09-20T08:21:09.000Z</time>
      </trkpt>
      <trkpt lat="45.55189" lon="-0.91937">
        <ele>-12.02</ele>
        <time>2022-09-20T08:21:14.000Z</time>
      </trkpt>
      <trkpt lat="45.55198" lon="-0.91954">
        <ele>-12.1</ele>
        <time>2022-09-20T08:21:19.000Z</time>
      </trkpt>
      <trkpt lat="45.55205" lon="-0.9197">
        <ele>-12.3</ele>
        <time>2022-09-20T08:21:24.000Z</time>
      </trkpt>
      <trkpt lat="45.55214" lon="-0.91985">
        <ele>-12.67</ele>
        <time>2022-09-20T08:21:29.000Z</time>
      </trkpt>
      <trkpt lat="45.55224" lon="-0.92001">
        <ele>-12.92</ele>
        <time>2022-09-20T08:21:34.000Z</time>
      </trkpt>
      <trkpt lat="45.55231" lon="-0.92016">
        <ele>-12.62</ele>
        <time>2022-09-20T08:21:39.000Z</time>
      </trkpt>
      <trkpt lat="45.55228" lon="-0.92032">
        <ele>-12.99</ele>
        <time>2022-09-20T08:21:44.000Z</time>
      </trkpt>
      <trkpt lat="45.55226" lon="-0.9205">
        <ele>-12.56</ele>
        <time>2022-09-20T08:21:49.000Z</time>
      </trkpt>
      <trkpt lat="45.55218" lon="-0.92066">
        <ele>-7.97</ele>
        <time>2022-09-20T08:22:48.000Z</time>
      </trkpt>
      <trkpt lat="45.55199" lon="-0.92102">
        <ele>-8.02</ele>
        <time>2022-09-20T08:22:53.000Z</time>
      </trkpt>
      <trkpt lat="45.55183" lon="-0.92116">
        <ele>-8</ele>
        <time>2022-09-20T08:22:58.000Z</time>
      </trkpt>
      <trkpt lat="45.55166" lon="-0.92133">
        <ele>-7.91</ele>
        <time>2022-09-20T08:23:03.000Z</time>
      </trkpt>
      <trkpt lat="45.55149" lon="-0.92149">
        <ele>-7.81</ele>
        <time>2022-09-20T08:23:08.000Z</time>
      </trkpt>
      <trkpt lat="45.55135" lon="-0.92169">
        <ele>-7.8</ele>
        <time>2022-09-20T08:23:13.000Z</time>
      </trkpt>
      <trkpt lat="45.55128" lon="-0.92196">
        <ele>-7.8</ele>
        <time>2022-09-20T08:23:18.000Z</time>
      </trkpt>
      <trkpt lat="45.55124" lon="-0.92234">
        <ele>-7.54</ele>
        <time>2022-09-20T08:23:23.000Z</time>
      </trkpt>
      <trkpt lat="45.55122" lon="-0.92269">
        <ele>-7.8</ele>
        <time>2022-09-20T08:23:28.000Z</time>
      </trkpt>
      <trkpt lat="45.5513" lon="-0.92299">
        <ele>-7.35</ele>
        <time>2022-09-20T08:23:33.000Z</time>
      </trkpt>
      <trkpt lat="45.55139" lon="-0.92325">
        <ele>-6.75</ele>
        <time>2022-09-20T08:23:38.000Z</time>
      </trkpt>
      <trkpt lat="45.55149" lon="-0.92348">
        <ele>-6.7</ele>
        <time>2022-09-20T08:23:43.000Z</time>
      </trkpt>
      <trkpt lat="45.55168" lon="-0.92366">
        <ele>-7.27</ele>
        <time>2022-09-20T08:23:48.000Z</time>
      </trkpt>
      <trkpt lat="45.55191" lon="-0.92371">
        <ele>-6.25</ele>
        <time>2022-09-20T08:23:53.000Z</time>
      </trkpt>
      <trkpt lat="45.55211" lon="-0.92372">
        <ele>-6.96</ele>
        <time>2022-09-20T08:23:58.000Z</time>
      </trkpt>
      <trkpt lat="45.55234" lon="-0.92376">
        <ele>-9.13</ele>
        <time>2022-09-20T08:24:03.000Z</time>
      </trkpt>
      <trkpt lat="45.55256" lon="-0.92386">
        <ele>-9.38</ele>
        <time>2022-09-20T08:24:08.000Z</time>
      </trkpt>
      <trkpt lat="45.55277" lon="-0.92404">
        <ele>-9.87</ele>
        <time>2022-09-20T08:24:13.000Z</time>
      </trkpt>
      <trkpt lat="45.55297" lon="-0.92423">
        <ele>-9.88</ele>
        <time>2022-09-20T08:24:18.000Z</time>
      </trkpt>
      <trkpt lat="45.55317" lon="-0.92441">
        <ele>-10.1</ele>
        <time>2022-09-20T08:24:23.000Z</time>
      </trkpt>
      <trkpt lat="45.55335" lon="-0.92462">
        <ele>-9.17</ele>
        <time>2022-09-20T08:24:28.000Z</time>
      </trkpt>
      <trkpt lat="45.55356" lon="-0.92483">
        <ele>-9.28</ele>
        <time>2022-09-20T08:24:33.000Z</time>
      </trkpt>
      <trkpt lat="45.55373" lon="-0.92507">
        <ele>-8.61</ele>
        <time>2022-09-20T08:24:38.000Z</time>
      </trkpt>
      <trkpt lat="45.55391" lon="-0.9253">
        <ele>-7.56</ele>
        <time>2022-09-20T08:24:43.000Z</time>
      </trkpt>
      <trkpt lat="45.55409" lon="-0.92554">
        <ele>-7.5</ele>
        <time>2022-09-20T08:24:48.000Z</time>
      </trkpt>
      <trkpt lat="45.55426" lon="-0.92578">
        <ele>-8.06</ele>
        <time>2022-09-20T08:24:53.000Z</time>
      </trkpt>
      <trkpt lat="45.55444" lon="-0.92603">
        <ele>-7.15</ele>
        <time>2022-09-20T08:24:58.000Z</time>
      </trkpt>
      <trkpt lat="45.55461" lon="-0.92628">
        <ele>-6.74</ele>
        <time>2022-09-20T08:25:03.000Z</time>
      </trkpt>
      <trkpt lat="45.55479" lon="-0.92656">
        <ele>-6.24</ele>
        <time>2022-09-20T08:25:08.000Z</time>
      </trkpt>
      <trkpt lat="45.55497" lon="-0.92682">
        <ele>-5.66</ele>
        <time>2022-09-20T08:25:13.000Z</time>
      </trkpt>
      <trkpt lat="45.55516" lon="-0.92709">
        <ele>-4.39</ele>
        <time>2022-09-20T08:25:18.000Z</time>
      </trkpt>
      <trkpt lat="45.55533" lon="-0.92739">
        <ele>-4.02</ele>
        <time>2022-09-20T08:25:23.000Z</time>
      </trkpt>
      <trkpt lat="45.55547" lon="-0.92772">
        <ele>-3.52</ele>
        <time>2022-09-20T08:25:28.000Z</time>
      </trkpt>
      <trkpt lat="45.55559" lon="-0.92805">
        <ele>-3.96</ele>
        <time>2022-09-20T08:25:33.000Z</time>
      </trkpt>
      <trkpt lat="45.55574" lon="-0.92833">
        <ele>-4.59</ele>
        <time>2022-09-20T08:25:38.000Z</time>
      </trkpt>
      <trkpt lat="45.5559" lon="-0.92863">
        <ele>-4.95</ele>
        <time>2022-09-20T08:25:43.000Z</time>
      </trkpt>
      <trkpt lat="45.55605" lon="-0.92891">
        <ele>-6.35</ele>
        <time>2022-09-20T08:25:48.000Z</time>
      </trkpt>
      <trkpt lat="45.55616" lon="-0.92921">
        <ele>-6.7</ele>
        <time>2022-09-20T08:25:53.000Z</time>
      </trkpt>
      <trkpt lat="45.55626" lon="-0.92952">
        <ele>-6.13</ele>
        <time>2022-09-20T08:25:58.000Z</time>
      </trkpt>
      <trkpt lat="45.55639" lon="-0.92982">
        <ele>-4.99</ele>
        <time>2022-09-20T08:26:03.000Z</time>
      </trkpt>
      <trkpt lat="45.55646" lon="-0.93014">
        <ele>-3.12</ele>
        <time>2022-09-20T08:26:08.000Z</time>
      </trkpt>
      <trkpt lat="45.55641" lon="-0.93047">
        <ele>-3.4</ele>
        <time>2022-09-20T08:26:13.000Z</time>
      </trkpt>
      <trkpt lat="45.55647" lon="-0.93073">
        <ele>-2.26</ele>
        <time>2022-09-20T08:26:18.000Z</time>
      </trkpt>
      <trkpt lat="45.55657" lon="-0.93098">
        <ele>-3.13</ele>
        <time>2022-09-20T08:26:23.000Z</time>
      </trkpt>
      <trkpt lat="45.55667" lon="-0.93126">
        <ele>-4.12</ele>
        <time>2022-09-20T08:26:28.000Z</time>
      </trkpt>
      <trkpt lat="45.55677" lon="-0.93153">
        <ele>-4.17</ele>
        <time>2022-09-20T08:26:33.000Z</time>
      </trkpt>
      <trkpt lat="45.55689" lon="-0.9318">
        <ele>-4.03</ele>
        <time>2022-09-20T08:26:38.000Z</time>
      </trkpt>
      <trkpt lat="45.55706" lon="-0.93204">
        <ele>-4.68</ele>
        <time>2022-09-20T08:26:43.000Z</time>
      </trkpt>
      <trkpt lat="45.55722" lon="-0.93227">
        <ele>-5.7</ele>
        <time>2022-09-20T08:26:48.000Z</time>
      </trkpt>
      <trkpt lat="45.55741" lon="-0.9324">
        <ele>-7.2</ele>
        <time>2022-09-20T08:26:53.000Z</time>
      </trkpt>
      <trkpt lat="45.55755" lon="-0.93264">
        <ele>-7.38</ele>
        <time>2022-09-20T08:26:58.000Z</time>
      </trkpt>
      <trkpt lat="45.55768" lon="-0.93292">
        <ele>-7.42</ele>
        <time>2022-09-20T08:27:03.000Z</time>
      </trkpt>
      <trkpt lat="45.55778" lon="-0.93319">
        <ele>-7.26</ele>
        <time>2022-09-20T08:27:08.000Z</time>
      </trkpt>
      <trkpt lat="45.55777" lon="-0.93353">
        <ele>-7.65</ele>
        <time>2022-09-20T08:27:13.000Z</time>
      </trkpt>
      <trkpt lat="45.55769" lon="-0.93385">
        <ele>-6.62</ele>
        <time>2022-09-20T08:27:18.000Z</time>
      </trkpt>
      <trkpt lat="45.5576" lon="-0.93415">
        <ele>-6.36</ele>
        <time>2022-09-20T08:27:23.000Z</time>
      </trkpt>
      <trkpt lat="45.55756" lon="-0.9345">
        <ele>-6.11</ele>
        <time>2022-09-20T08:27:28.000Z</time>
      </trkpt>
      <trkpt lat="45.55757" lon="-0.93487">
        <ele>-5.73</ele>
        <time>2022-09-20T08:27:33.000Z</time>
      </trkpt>
      <trkpt lat="45.5576" lon="-0.93522">
        <ele>-5.36</ele>
        <time>2022-09-20T08:27:38.000Z</time>
      </trkpt>
      <trkpt lat="45.55763" lon="-0.93557">
        <ele>-5.52</ele>
        <time>2022-09-20T08:27:43.000Z</time>
      </trkpt>
      <trkpt lat="45.55766" lon="-0.93589">
        <ele>-6.01</ele>
        <time>2022-09-20T08:27:48.000Z</time>
      </trkpt>
      <trkpt lat="45.55769" lon="-0.93621">
        <ele>-6.65</ele>
        <time>2022-09-20T08:27:53.000Z</time>
      </trkpt>
      <trkpt lat="45.55774" lon="-0.93654">
        <ele>-8.13</ele>
        <time>2022-09-20T08:27:58.000Z</time>
      </trkpt>
      <trkpt lat="45.55778" lon="-0.93688">
        <ele>-8.26</ele>
        <time>2022-09-20T08:28:03.000Z</time>
      </trkpt>
      <trkpt lat="45.55783" lon="-0.93722">
        <ele>-7.56</ele>
        <time>2022-09-20T08:28:08.000Z</time>
      </trkpt>
      <trkpt lat="45.55786" lon="-0.93756">
        <ele>-7.82</ele>
        <time>2022-09-20T08:28:13.000Z</time>
      </trkpt>
      <trkpt lat="45.55791" lon="-0.9379">
        <ele>-8</ele>
        <time>2022-09-20T08:28:18.000Z</time>
      </trkpt>
      <trkpt lat="45.55796" lon="-0.93824">
        <ele>-8.44</ele>
        <time>2022-09-20T08:28:23.000Z</time>
      </trkpt>
      <trkpt lat="45.558" lon="-0.93854">
        <ele>-7.47</ele>
        <time>2022-09-20T08:28:28.000Z</time>
      </trkpt>
      <trkpt lat="45.55791" lon="-0.93874">
        <ele>-4.01</ele>
        <time>2022-09-20T08:28:33.000Z</time>
      </trkpt>
      <trkpt lat="45.55768" lon="-0.93877">
        <ele>-2.24</ele>
        <time>2022-09-20T08:28:38.000Z</time>
      </trkpt>
      <trkpt lat="45.55748" lon="-0.93882">
        <ele>-2.58</ele>
        <time>2022-09-20T08:28:43.000Z</time>
      </trkpt>
      <trkpt lat="45.55731" lon="-0.93894">
        <ele>-2.11</ele>
        <time>2022-09-20T08:28:48.000Z</time>
      </trkpt>
      <trkpt lat="45.55729" lon="-0.93916">
        <ele>-1.52</ele>
        <time>2022-09-20T08:28:53.000Z</time>
      </trkpt>
      <trkpt lat="45.55733" lon="-0.93943">
        <ele>-1.05</ele>
        <time>2022-09-20T08:28:58.000Z</time>
      </trkpt>
      <trkpt lat="45.55735" lon="-0.93966">
        <ele>-1.27</ele>
        <time>2022-09-20T08:29:03.000Z</time>
      </trkpt>
      <trkpt lat="45.55737" lon="-0.93992">
        <ele>-1.89</ele>
        <time>2022-09-20T08:29:08.000Z</time>
      </trkpt>
      <trkpt lat="45.55737" lon="-0.9402">
        <ele>-3.39</ele>
        <time>2022-09-20T08:29:13.000Z</time>
      </trkpt>
      <trkpt lat="45.55736" lon="-0.94051">
        <ele>-3.37</ele>
        <time>2022-09-20T08:29:18.000Z</time>
      </trkpt>
      <trkpt lat="45.55734" lon="-0.94081">
        <ele>-3.57</ele>
        <time>2022-09-20T08:29:23.000Z</time>
      </trkpt>
      <trkpt lat="45.55726" lon="-0.94111">
        <ele>-2.78</ele>
        <time>2022-09-20T08:29:28.000Z</time>
      </trkpt>
      <trkpt lat="45.55715" lon="-0.94137">
        <ele>-2.8</ele>
        <time>2022-09-20T08:29:33.000Z</time>
      </trkpt>
      <trkpt lat="45.55705" lon="-0.94161">
        <ele>-2.73</ele>
        <time>2022-09-20T08:29:38.000Z</time>
      </trkpt>
      <trkpt lat="45.55702" lon="-0.94192">
        <ele>-3.14</ele>
        <time>2022-09-20T08:29:43.000Z</time>
      </trkpt>
      <trkpt lat="45.55696" lon="-0.94218">
        <ele>-4.7</ele>
        <time>2022-09-20T08:29:48.000Z</time>
      </trkpt>
      <trkpt lat="45.55676" lon="-0.94226">
        <ele>-3.85</ele>
        <time>2022-09-20T08:29:53.000Z</time>
      </trkpt>
      <trkpt lat="45.55654" lon="-0.94239">
        <ele>-2.92</ele>
        <time>2022-09-20T08:29:58.000Z</time>
      </trkpt>
      <trkpt lat="45.5563" lon="-0.94249">
        <ele>-2.62</ele>
        <time>2022-09-20T08:30:03.000Z</time>
      </trkpt>
      <trkpt lat="45.55607" lon="-0.94259">
        <ele>-2.13</ele>
        <time>2022-09-20T08:30:08.000Z</time>
      </trkpt>
      <trkpt lat="45.55589" lon="-0.94269">
        <ele>-2.4</ele>
        <time>2022-09-20T08:30:13.000Z</time>
      </trkpt>
      <trkpt lat="45.55574" lon="-0.94285">
        <ele>-2.09</ele>
        <time>2022-09-20T08:30:18.000Z</time>
      </trkpt>
      <trkpt lat="45.55559" lon="-0.94304">
        <ele>-1.91</ele>
        <time>2022-09-20T08:30:23.000Z</time>
      </trkpt>
      <trkpt lat="45.55546" lon="-0.94323">
        <ele>-2.28</ele>
        <time>2022-09-20T08:30:28.000Z</time>
      </trkpt>
      <trkpt lat="45.55537" lon="-0.94336">
        <ele>-1.97</ele>
        <time>2022-09-20T08:30:33.000Z</time>
      </trkpt>
      <trkpt lat="45.5554" lon="-0.9435">
        <ele>-1.35</ele>
        <time>2022-09-20T08:30:51.000Z</time>
      </trkpt>
      <trkpt lat="45.55548" lon="-0.94369">
        <ele>-2.35</ele>
        <time>2022-09-20T08:30:56.000Z</time>
      </trkpt>
      <trkpt lat="45.55558" lon="-0.94393">
        <ele>-4.25</ele>
        <time>2022-09-20T08:31:01.000Z</time>
      </trkpt>
      <trkpt lat="45.5557" lon="-0.94418">
        <ele>-4.77</ele>
        <time>2022-09-20T08:31:06.000Z</time>
      </trkpt>
      <trkpt lat="45.55581" lon="-0.94438">
        <ele>-5.24</ele>
        <time>2022-09-20T08:31:11.000Z</time>
      </trkpt>
      <trkpt lat="45.55592" lon="-0.94454">
        <ele>-5.69</ele>
        <time>2022-09-20T08:31:16.000Z</time>
      </trkpt>
      <trkpt lat="45.556" lon="-0.94467">
        <ele>-5.99</ele>
        <time>2022-09-20T08:31:21.000Z</time>
      </trkpt>
      <trkpt lat="45.55591" lon="-0.94462">
        <ele>-5.54</ele>
        <time>2022-09-20T08:31:30.000Z</time>
      </trkpt>
      <trkpt lat="45.55593" lon="-0.94443">
        <ele>-5.95</ele>
        <time>2022-09-20T08:32:11.000Z</time>
      </trkpt>
      <trkpt lat="45.55607" lon="-0.94438">
        <ele>-4.92</ele>
        <time>2022-09-20T08:32:59.000Z</time>
      </trkpt>
      <trkpt lat="45.55596" lon="-0.94442">
        <ele>-5.02</ele>
        <time>2022-09-20T08:40:33.000Z</time>
      </trkpt>
      <trkpt lat="45.55588" lon="-0.94446">
        <ele>-10.93</ele>
        <time>2022-09-20T08:43:38.000Z</time>
      </trkpt>
      <trkpt lat="45.55577" lon="-0.94441">
        <ele>-9.03</ele>
        <time>2022-09-20T08:45:49.000Z</time>
      </trkpt>
      <trkpt lat="45.55568" lon="-0.94446">
        <ele>-8.91</ele>
        <time>2022-09-20T08:45:54.000Z</time>
      </trkpt>
      <trkpt lat="45.55555" lon="-0.94466">
        <ele>-9.08</ele>
        <time>2022-09-20T08:45:59.000Z</time>
      </trkpt>
      <trkpt lat="45.55545" lon="-0.94481">
        <ele>-9.45</ele>
        <time>2022-09-20T08:46:04.000Z</time>
      </trkpt>
      <trkpt lat="45.55536" lon="-0.94495">
        <ele>-9.68</ele>
        <time>2022-09-20T08:46:09.000Z</time>
      </trkpt>
      <trkpt lat="45.55531" lon="-0.94508">
        <ele>-10.07</ele>
        <time>2022-09-20T08:46:14.000Z</time>
      </trkpt>
      <trkpt lat="45.55526" lon="-0.94521">
        <ele>-7.21</ele>
        <time>2022-09-20T08:46:43.000Z</time>
      </trkpt>
      <trkpt lat="45.55523" lon="-0.94534">
        <ele>-6.87</ele>
        <time>2022-09-20T08:46:55.000Z</time>
      </trkpt>
      <trkpt lat="45.55515" lon="-0.94541">
        <ele>-6.79</ele>
        <time>2022-09-20T08:47:11.000Z</time>
      </trkpt>
      <trkpt lat="45.55506" lon="-0.94542">
        <ele>-6.54</ele>
        <time>2022-09-20T08:47:19.000Z</time>
      </trkpt>
      <trkpt lat="45.55496" lon="-0.9454">
        <ele>-6.31</ele>
        <time>2022-09-20T08:47:26.000Z</time>
      </trkpt>
      <trkpt lat="45.55487" lon="-0.94539">
        <ele>-5.8</ele>
        <time>2022-09-20T08:47:37.000Z</time>
      </trkpt>
      <trkpt lat="45.55496" lon="-0.94546">
        <ele>-4.17</ele>
        <time>2022-09-20T08:49:40.000Z</time>
      </trkpt>
      <trkpt lat="45.55503" lon="-0.94564">
        <ele>-4.01</ele>
        <time>2022-09-20T08:49:45.000Z</time>
      </trkpt>
      <trkpt lat="45.55507" lon="-0.94594">
        <ele>-3.73</ele>
        <time>2022-09-20T08:49:50.000Z</time>
      </trkpt>
      <trkpt lat="45.55509" lon="-0.94627">
        <ele>-3.55</ele>
        <time>2022-09-20T08:49:55.000Z</time>
      </trkpt>
      <trkpt lat="45.55515" lon="-0.94662">
        <ele>-3.71</ele>
        <time>2022-09-20T08:50:00.000Z</time>
      </trkpt>
      <trkpt lat="45.55522" lon="-0.94699">
        <ele>-3.13</ele>
        <time>2022-09-20T08:50:05.000Z</time>
      </trkpt>
      <trkpt lat="45.55528" lon="-0.94737">
        <ele>-3.25</ele>
        <time>2022-09-20T08:50:10.000Z</time>
      </trkpt>
      <trkpt lat="45.55536" lon="-0.94774">
        <ele>-3.8</ele>
        <time>2022-09-20T08:50:15.000Z</time>
      </trkpt>
      <trkpt lat="45.55544" lon="-0.94812">
        <ele>-4.02</ele>
        <time>2022-09-20T08:50:20.000Z</time>
      </trkpt>
      <trkpt lat="45.55553" lon="-0.94849">
        <ele>-3.97</ele>
        <time>2022-09-20T08:50:25.000Z</time>
      </trkpt>
      <trkpt lat="45.55564" lon="-0.94885">
        <ele>-4.37</ele>
        <time>2022-09-20T08:50:30.000Z</time>
      </trkpt>
      <trkpt lat="45.55578" lon="-0.94919">
        <ele>-4.62</ele>
        <time>2022-09-20T08:50:35.000Z</time>
      </trkpt>
      <trkpt lat="45.55591" lon="-0.9495">
        <ele>-4.77</ele>
        <time>2022-09-20T08:50:40.000Z</time>
      </trkpt>
      <trkpt lat="45.55599" lon="-0.9498">
        <ele>-6.27</ele>
        <time>2022-09-20T08:50:45.000Z</time>
      </trkpt>
      <trkpt lat="45.55614" lon="-0.95013">
        <ele>-6.87</ele>
        <time>2022-09-20T08:50:50.000Z</time>
      </trkpt>
      <trkpt lat="45.55628" lon="-0.95044">
        <ele>-7.88</ele>
        <time>2022-09-20T08:50:55.000Z</time>
      </trkpt>
      <trkpt lat="45.55642" lon="-0.95077">
        <ele>-8.82</ele>
        <time>2022-09-20T08:51:00.000Z</time>
      </trkpt>
      <trkpt lat="45.55656" lon="-0.95108">
        <ele>-8.87</ele>
        <time>2022-09-20T08:51:05.000Z</time>
      </trkpt>
      <trkpt lat="45.55673" lon="-0.95136">
        <ele>-9.3</ele>
        <time>2022-09-20T08:51:10.000Z</time>
      </trkpt>
      <trkpt lat="45.55688" lon="-0.95155">
        <ele>-9.57</ele>
        <time>2022-09-20T08:51:15.000Z</time>
      </trkpt>
      <trkpt lat="45.55704" lon="-0.95138">
        <ele>-9.97</ele>
        <time>2022-09-20T08:51:20.000Z</time>
      </trkpt>
      <trkpt lat="45.55724" lon="-0.95124">
        <ele>-10.07</ele>
        <time>2022-09-20T08:51:25.000Z</time>
      </trkpt>
      <trkpt lat="45.55746" lon="-0.95126">
        <ele>-10.47</ele>
        <time>2022-09-20T08:51:30.000Z</time>
      </trkpt>
      <trkpt lat="45.55765" lon="-0.95137">
        <ele>-9.61</ele>
        <time>2022-09-20T08:51:35.000Z</time>
      </trkpt>
      <trkpt lat="45.55778" lon="-0.95145">
        <ele>-8.54</ele>
        <time>2022-09-20T08:51:40.000Z</time>
      </trkpt>
      <trkpt lat="45.55789" lon="-0.95155">
        <ele>-8.31</ele>
        <time>2022-09-20T08:51:45.000Z</time>
      </trkpt>
      <trkpt lat="45.55799" lon="-0.95167">
        <ele>-6.15</ele>
        <time>2022-09-20T08:51:50.000Z</time>
      </trkpt>
      <trkpt lat="45.55806" lon="-0.9518">
        <ele>-3.54</ele>
        <time>2022-09-20T08:51:55.000Z</time>
      </trkpt>
      <trkpt lat="45.55811" lon="-0.95196">
        <ele>-3.06</ele>
        <time>2022-09-20T08:52:00.000Z</time>
      </trkpt>
      <trkpt lat="45.55817" lon="-0.95209">
        <ele>-2.78</ele>
        <time>2022-09-20T08:52:05.000Z</time>
      </trkpt>
      <trkpt lat="45.55819" lon="-0.95224">
        <ele>0.47</ele>
        <time>2022-09-20T08:52:10.000Z</time>
      </trkpt>
      <trkpt lat="45.55811" lon="-0.95231">
        <ele>1.4</ele>
        <time>2022-09-20T08:52:21.000Z</time>
      </trkpt>
      <trkpt lat="45.55803" lon="-0.95238">
        <ele>1.23</ele>
        <time>2022-09-20T08:52:26.000Z</time>
      </trkpt>
      <trkpt lat="45.55814" lon="-0.95233">
        <ele>1.84</ele>
        <time>2022-09-20T08:52:41.000Z</time>
      </trkpt>
      <trkpt lat="45.55825" lon="-0.95232">
        <ele>3.21</ele>
        <time>2022-09-20T08:52:46.000Z</time>
      </trkpt>
      <trkpt lat="45.55834" lon="-0.9524">
        <ele>2.85</ele>
        <time>2022-09-20T08:52:51.000Z</time>
      </trkpt>
      <trkpt lat="45.55841" lon="-0.95249">
        <ele>2.42</ele>
        <time>2022-09-20T08:52:56.000Z</time>
      </trkpt>
      <trkpt lat="45.55855" lon="-0.95256">
        <ele>5.08</ele>
        <time>2022-09-20T09:04:25.000Z</time>
      </trkpt>
      <trkpt lat="45.55849" lon="-0.95242">
        <ele>6.3</ele>
        <time>2022-09-20T09:05:34.000Z</time>
      </trkpt>
      <trkpt lat="45.55854" lon="-0.95257">
        <ele>6.48</ele>
        <time>2022-09-20T09:06:15.000Z</time>
      </trkpt>
      <trkpt lat="45.55865" lon="-0.95273">
        <ele>6.33</ele>
        <time>2022-09-20T09:06:20.000Z</time>
      </trkpt>
      <trkpt lat="45.55876" lon="-0.95282">
        <ele>5.73</ele>
        <time>2022-09-20T09:06:25.000Z</time>
      </trkpt>
      <trkpt lat="45.55885" lon="-0.95292">
        <ele>5.16</ele>
        <time>2022-09-20T09:06:30.000Z</time>
      </trkpt>
      <trkpt lat="45.55894" lon="-0.95294">
        <ele>3.45</ele>
        <time>2022-09-20T09:06:41.000Z</time>
      </trkpt>
      <trkpt lat="45.55902" lon="-0.95286">
        <ele>0.96</ele>
        <time>2022-09-20T09:07:00.000Z</time>
      </trkpt>
      <trkpt lat="45.55895" lon="-0.95295">
        <ele>-2.41</ele>
        <time>2022-09-20T09:07:34.000Z</time>
      </trkpt>
      <trkpt lat="45.55891" lon="-0.95307">
        <ele>-1.2</ele>
        <time>2022-09-20T09:07:51.000Z</time>
      </trkpt>
      <trkpt lat="45.559" lon="-0.9529">
        <ele>-0.3</ele>
        <time>2022-09-20T09:09:56.000Z</time>
      </trkpt>
      <trkpt lat="45.55895" lon="-0.95301">
        <ele>-0.39</ele>
        <time>2022-09-20T09:10:28.000Z</time>
      </trkpt>
      <trkpt lat="45.55889" lon="-0.95317">
        <ele>-0.5</ele>
        <time>2022-09-20T09:11:10.000Z</time>
      </trkpt>
      <trkpt lat="45.55898" lon="-0.95298">
        <ele>0.05</ele>
        <time>2022-09-20T09:12:01.000Z</time>
      </trkpt>
      <trkpt lat="45.55898" lon="-0.9532">
        <ele>0.12</ele>
        <time>2022-09-20T09:12:09.000Z</time>
      </trkpt>
      <trkpt lat="45.55911" lon="-0.95333">
        <ele>11</ele>
        <time>2022-09-20T09:12:14.000Z</time>
      </trkpt>
      <trkpt lat="45.5592" lon="-0.95338">
        <ele>0.39</ele>
        <time>2022-09-20T09:12:19.000Z</time>
      </trkpt>
      <trkpt lat="45.55934" lon="-0.95353">
        <ele>0.33</ele>
        <time>2022-09-20T09:12:24.000Z</time>
      </trkpt>
      <trkpt lat="45.55948" lon="-0.95363">
        <ele>0.47</ele>
        <time>2022-09-20T09:12:29.000Z</time>
      </trkpt>
      <trkpt lat="45.55957" lon="-0.95378">
        <ele>1.27</ele>
        <time>2022-09-20T09:12:34.000Z</time>
      </trkpt>
      <trkpt lat="45.55966" lon="-0.95386">
        <ele>1.28</ele>
        <time>2022-09-20T09:12:39.000Z</time>
      </trkpt>
      <trkpt lat="45.55978" lon="-0.95395">
        <ele>1.21</ele>
        <time>2022-09-20T09:12:44.000Z</time>
      </trkpt>
      <trkpt lat="45.55988" lon="-0.95411">
        <ele>1.11</ele>
        <time>2022-09-20T09:12:49.000Z</time>
      </trkpt>
      <trkpt lat="45.55995" lon="-0.95431">
        <ele>0.83</ele>
        <time>2022-09-20T09:12:54.000Z</time>
      </trkpt>
      <trkpt lat="45.56002" lon="-0.95446">
        <ele>0.7</ele>
        <time>2022-09-20T09:12:59.000Z</time>
      </trkpt>
      <trkpt lat="45.56005" lon="-0.95464">
        <ele>0.7</ele>
        <time>2022-09-20T09:13:04.000Z</time>
      </trkpt>
      <trkpt lat="45.56012" lon="-0.95488">
        <ele>0.51</ele>
        <time>2022-09-20T09:13:09.000Z</time>
      </trkpt>
      <trkpt lat="45.56026" lon="-0.95523">
        <ele>1.16</ele>
        <time>2022-09-20T09:13:14.000Z</time>
      </trkpt>
      <trkpt lat="45.56036" lon="-0.95534">
        <ele>3.67</ele>
        <time>2022-09-20T09:13:19.000Z</time>
      </trkpt>
      <trkpt lat="45.56045" lon="-0.95545">
        <ele>10.39</ele>
        <time>2022-09-20T09:14:46.000Z</time>
      </trkpt>
      <trkpt lat="45.56055" lon="-0.95566">
        <ele>10.3</ele>
        <time>2022-09-20T09:14:51.000Z</time>
      </trkpt>
      <trkpt lat="45.56064" lon="-0.95593">
        <ele>10.62</ele>
        <time>2022-09-20T09:14:56.000Z</time>
      </trkpt>
      <trkpt lat="45.56068" lon="-0.95618">
        <ele>10.41</ele>
        <time>2022-09-20T09:15:01.000Z</time>
      </trkpt>
      <trkpt lat="45.56074" lon="-0.95643">
        <ele>10.71</ele>
        <time>2022-09-20T09:15:06.000Z</time>
      </trkpt>
      <trkpt lat="45.56079" lon="-0.95667">
        <ele>11.76</ele>
        <time>2022-09-20T09:15:11.000Z</time>
      </trkpt>
      <trkpt lat="45.56081" lon="-0.9569">
        <ele>12.44</ele>
        <time>2022-09-20T09:15:16.000Z</time>
      </trkpt>
      <trkpt lat="45.56084" lon="-0.95713">
        <ele>12.97</ele>
        <time>2022-09-20T09:15:21.000Z</time>
      </trkpt>
      <trkpt lat="45.56087" lon="-0.95735">
        <ele>13.47</ele>
        <time>2022-09-20T09:15:26.000Z</time>
      </trkpt>
      <trkpt lat="45.56101" lon="-0.95752">
        <ele>14.17</ele>
        <time>2022-09-20T09:15:31.000Z</time>
      </trkpt>
      <trkpt lat="45.56112" lon="-0.95768">
        <ele>14.74</ele>
        <time>2022-09-20T09:15:36.000Z</time>
      </trkpt>
      <trkpt lat="45.56123" lon="-0.95785">
        <ele>15.36</ele>
        <time>2022-09-20T09:15:41.000Z</time>
      </trkpt>
      <trkpt lat="45.56138" lon="-0.95795">
        <ele>16.14</ele>
        <time>2022-09-20T09:15:46.000Z</time>
      </trkpt>
      <trkpt lat="45.56155" lon="-0.95804">
        <ele>16.76</ele>
        <time>2022-09-20T09:15:51.000Z</time>
      </trkpt>
      <trkpt lat="45.56165" lon="-0.95819">
        <ele>17.27</ele>
        <time>2022-09-20T09:15:56.000Z</time>
      </trkpt>
      <trkpt lat="45.56176" lon="-0.95838">
        <ele>17.85</ele>
        <time>2022-09-20T09:16:01.000Z</time>
      </trkpt>
      <trkpt lat="45.56193" lon="-0.95855">
        <ele>18.37</ele>
        <time>2022-09-20T09:16:06.000Z</time>
      </trkpt>
      <trkpt lat="45.56213" lon="-0.95874">
        <ele>18.87</ele>
        <time>2022-09-20T09:16:11.000Z</time>
      </trkpt>
      <trkpt lat="45.56231" lon="-0.95891">
        <ele>19.12</ele>
        <time>2022-09-20T09:16:16.000Z</time>
      </trkpt>
      <trkpt lat="45.56254" lon="-0.95912">
        <ele>18.56</ele>
        <time>2022-09-20T09:16:21.000Z</time>
      </trkpt>
      <trkpt lat="45.56276" lon="-0.95934">
        <ele>18.4</ele>
        <time>2022-09-20T09:16:26.000Z</time>
      </trkpt>
      <trkpt lat="45.56304" lon="-0.95961">
        <ele>17.82</ele>
        <time>2022-09-20T09:16:31.000Z</time>
      </trkpt>
      <trkpt lat="45.56338" lon="-0.95982">
        <ele>17.04</ele>
        <time>2022-09-20T09:16:36.000Z</time>
      </trkpt>
      <trkpt lat="45.56371" lon="-0.96005">
        <ele>16.29</ele>
        <time>2022-09-20T09:16:41.000Z</time>
      </trkpt>
      <trkpt lat="45.56397" lon="-0.96022">
        <ele>15.84</ele>
        <time>2022-09-20T09:16:46.000Z</time>
      </trkpt>
      <trkpt lat="45.56417" lon="-0.96036">
        <ele>15.16</ele>
        <time>2022-09-20T09:16:51.000Z</time>
      </trkpt>
      <trkpt lat="45.56433" lon="-0.96047">
        <ele>13.73</ele>
        <time>2022-09-20T09:16:56.000Z</time>
      </trkpt>
      <trkpt lat="45.56446" lon="-0.96057">
        <ele>13.13</ele>
        <time>2022-09-20T09:17:01.000Z</time>
      </trkpt>
      <trkpt lat="45.5646" lon="-0.96069">
        <ele>12.83</ele>
        <time>2022-09-20T09:17:06.000Z</time>
      </trkpt>
      <trkpt lat="45.56471" lon="-0.9608">
        <ele>12.53</ele>
        <time>2022-09-20T09:17:11.000Z</time>
      </trkpt>
      <trkpt lat="45.56483" lon="-0.96091">
        <ele>12.13</ele>
        <time>2022-09-20T09:17:16.000Z</time>
      </trkpt>
      <trkpt lat="45.56499" lon="-0.96103">
        <ele>12.09</ele>
        <time>2022-09-20T09:17:21.000Z</time>
      </trkpt>
      <trkpt lat="45.56515" lon="-0.96111">
        <ele>11.54</ele>
        <time>2022-09-20T09:17:26.000Z</time>
      </trkpt>
      <trkpt lat="45.56523" lon="-0.9612">
        <ele>11.52</ele>
        <time>2022-09-20T09:17:31.000Z</time>
      </trkpt>
      <trkpt lat="45.56533" lon="-0.96117">
        <ele>11.26</ele>
        <time>2022-09-20T09:17:36.000Z</time>
      </trkpt>
      <trkpt lat="45.56548" lon="-0.96118">
        <ele>10.63</ele>
        <time>2022-09-20T09:17:41.000Z</time>
      </trkpt>
      <trkpt lat="45.5656" lon="-0.9613">
        <ele>11.3</ele>
        <time>2022-09-20T09:17:46.000Z</time>
      </trkpt>
      <trkpt lat="45.56571" lon="-0.96144">
        <ele>12.27</ele>
        <time>2022-09-20T09:17:51.000Z</time>
      </trkpt>
      <trkpt lat="45.56579" lon="-0.96152">
        <ele>12.06</ele>
        <time>2022-09-20T09:17:56.000Z</time>
      </trkpt>
      <trkpt lat="45.56586" lon="-0.96167">
        <ele>12.42</ele>
        <time>2022-09-20T09:18:01.000Z</time>
      </trkpt>
      <trkpt lat="45.56597" lon="-0.96176">
        <ele>12.42</ele>
        <time>2022-09-20T09:18:06.000Z</time>
      </trkpt>
      <trkpt lat="45.56608" lon="-0.96186">
        <ele>12.44</ele>
        <time>2022-09-20T09:18:11.000Z</time>
      </trkpt>
      <trkpt lat="45.56619" lon="-0.96194">
        <ele>12.38</ele>
        <time>2022-09-20T09:18:16.000Z</time>
      </trkpt>
      <trkpt lat="45.56627" lon="-0.96203">
        <ele>11.62</ele>
        <time>2022-09-20T09:18:21.000Z</time>
      </trkpt>
      <trkpt lat="45.56635" lon="-0.9621">
        <ele>11.74</ele>
        <time>2022-09-20T09:18:26.000Z</time>
      </trkpt>
      <trkpt lat="45.56646" lon="-0.96216">
        <ele>11.69</ele>
        <time>2022-09-20T09:18:31.000Z</time>
      </trkpt>
      <trkpt lat="45.56657" lon="-0.96224">
        <ele>10.86</ele>
        <time>2022-09-20T09:18:36.000Z</time>
      </trkpt>
      <trkpt lat="45.56669" lon="-0.96229">
        <ele>10.83</ele>
        <time>2022-09-20T09:18:41.000Z</time>
      </trkpt>
      <trkpt lat="45.56684" lon="-0.96236">
        <ele>10.33</ele>
        <time>2022-09-20T09:18:46.000Z</time>
      </trkpt>
      <trkpt lat="45.56698" lon="-0.96247">
        <ele>9.83</ele>
        <time>2022-09-20T09:18:51.000Z</time>
      </trkpt>
      <trkpt lat="45.56714" lon="-0.96258">
        <ele>9.63</ele>
        <time>2022-09-20T09:18:56.000Z</time>
      </trkpt>
      <trkpt lat="45.56723" lon="-0.96267">
        <ele>9.43</ele>
        <time>2022-09-20T09:19:01.000Z</time>
      </trkpt>
      <trkpt lat="45.56734" lon="-0.96274">
        <ele>9.21</ele>
        <time>2022-09-20T09:19:06.000Z</time>
      </trkpt>
      <trkpt lat="45.56756" lon="-0.96288">
        <ele>8.93</ele>
        <time>2022-09-20T09:19:11.000Z</time>
      </trkpt>
      <trkpt lat="45.56783" lon="-0.96296">
        <ele>8.7</ele>
        <time>2022-09-20T09:19:16.000Z</time>
      </trkpt>
      <trkpt lat="45.56812" lon="-0.96312">
        <ele>8.51</ele>
        <time>2022-09-20T09:19:21.000Z</time>
      </trkpt>
      <trkpt lat="45.5684" lon="-0.9633">
        <ele>8.23</ele>
        <time>2022-09-20T09:19:26.000Z</time>
      </trkpt>
      <trkpt lat="45.56879" lon="-0.96349">
        <ele>8.2</ele>
        <time>2022-09-20T09:19:31.000Z</time>
      </trkpt>
      <trkpt lat="45.56914" lon="-0.96369">
        <ele>8.59</ele>
        <time>2022-09-20T09:19:36.000Z</time>
      </trkpt>
      <trkpt lat="45.56947" lon="-0.96385">
        <ele>9.16</ele>
        <time>2022-09-20T09:19:41.000Z</time>
      </trkpt>
      <trkpt lat="45.5698" lon="-0.96401">
        <ele>9.89</ele>
        <time>2022-09-20T09:19:46.000Z</time>
      </trkpt>
      <trkpt lat="45.57013" lon="-0.96418">
        <ele>10.07</ele>
        <time>2022-09-20T09:19:51.000Z</time>
      </trkpt>
      <trkpt lat="45.57045" lon="-0.96435">
        <ele>11.32</ele>
        <time>2022-09-20T09:19:56.000Z</time>
      </trkpt>
      <trkpt lat="45.57074" lon="-0.96447">
        <ele>12.94</ele>
        <time>2022-09-20T09:20:01.000Z</time>
      </trkpt>
      <trkpt lat="45.57098" lon="-0.96462">
        <ele>13.85</ele>
        <time>2022-09-20T09:20:06.000Z</time>
      </trkpt>
      <trkpt lat="45.57115" lon="-0.96489">
        <ele>14.3</ele>
        <time>2022-09-20T09:20:11.000Z</time>
      </trkpt>
      <trkpt lat="45.5713" lon="-0.96512">
        <ele>14.59</ele>
        <time>2022-09-20T09:20:16.000Z</time>
      </trkpt>
      <trkpt lat="45.57155" lon="-0.9653">
        <ele>14.89</ele>
        <time>2022-09-20T09:20:21.000Z</time>
      </trkpt>
      <trkpt lat="45.57184" lon="-0.9654">
        <ele>14.99</ele>
        <time>2022-09-20T09:20:26.000Z</time>
      </trkpt>
      <trkpt lat="45.57213" lon="-0.96554">
        <ele>14.9</ele>
        <time>2022-09-20T09:20:31.000Z</time>
      </trkpt>
      <trkpt lat="45.5723" lon="-0.96576">
        <ele>14.74</ele>
        <time>2022-09-20T09:20:36.000Z</time>
      </trkpt>
      <trkpt lat="45.57242" lon="-0.966">
        <ele>16.11</ele>
        <time>2022-09-20T09:20:41.000Z</time>
      </trkpt>
      <trkpt lat="45.57248" lon="-0.9662">
        <ele>17.45</ele>
        <time>2022-09-20T09:20:46.000Z</time>
      </trkpt>
      <trkpt lat="45.57254" lon="-0.9664">
        <ele>18.46</ele>
        <time>2022-09-20T09:20:51.000Z</time>
      </trkpt>
      <trkpt lat="45.57264" lon="-0.96648">
        <ele>18.18</ele>
        <time>2022-09-20T09:22:03.000Z</time>
      </trkpt>
      <trkpt lat="45.57267" lon="-0.96661">
        <ele>18.56</ele>
        <time>2022-09-20T09:22:10.000Z</time>
      </trkpt>
      <trkpt lat="45.57278" lon="-0.9668">
        <ele>18.63</ele>
        <time>2022-09-20T09:22:15.000Z</time>
      </trkpt>
      <trkpt lat="45.57293" lon="-0.96703">
        <ele>18.48</ele>
        <time>2022-09-20T09:22:20.000Z</time>
      </trkpt>
      <trkpt lat="45.57307" lon="-0.9673">
        <ele>18.13</ele>
        <time>2022-09-20T09:22:25.000Z</time>
      </trkpt>
      <trkpt lat="45.57317" lon="-0.96758">
        <ele>17.8</ele>
        <time>2022-09-20T09:22:30.000Z</time>
      </trkpt>
      <trkpt lat="45.57328" lon="-0.96782">
        <ele>17.7</ele>
        <time>2022-09-20T09:22:35.000Z</time>
      </trkpt>
      <trkpt lat="45.57338" lon="-0.96804">
        <ele>17.61</ele>
        <time>2022-09-20T09:22:40.000Z</time>
      </trkpt>
      <trkpt lat="45.5735" lon="-0.96826">
        <ele>17.5</ele>
        <time>2022-09-20T09:22:45.000Z</time>
      </trkpt>
      <trkpt lat="45.5736" lon="-0.96851">
        <ele>17.5</ele>
        <time>2022-09-20T09:22:50.000Z</time>
      </trkpt>
      <trkpt lat="45.5737" lon="-0.9688">
        <ele>17.4</ele>
        <time>2022-09-20T09:22:55.000Z</time>
      </trkpt>
      <trkpt lat="45.57379" lon="-0.96906">
        <ele>17.01</ele>
        <time>2022-09-20T09:23:00.000Z</time>
      </trkpt>
      <trkpt lat="45.57386" lon="-0.96933">
        <ele>16.73</ele>
        <time>2022-09-20T09:23:05.000Z</time>
      </trkpt>
      <trkpt lat="45.574" lon="-0.96962">
        <ele>16.43</ele>
        <time>2022-09-20T09:23:10.000Z</time>
      </trkpt>
      <trkpt lat="45.57416" lon="-0.96988">
        <ele>16.11</ele>
        <time>2022-09-20T09:23:15.000Z</time>
      </trkpt>
      <trkpt lat="45.57428" lon="-0.97013">
        <ele>15.63</ele>
        <time>2022-09-20T09:23:20.000Z</time>
      </trkpt>
      <trkpt lat="45.5744" lon="-0.97033">
        <ele>15.23</ele>
        <time>2022-09-20T09:23:25.000Z</time>
      </trkpt>
      <trkpt lat="45.57454" lon="-0.97052">
        <ele>14.43</ele>
        <time>2022-09-20T09:23:30.000Z</time>
      </trkpt>
      <trkpt lat="45.57468" lon="-0.9707">
        <ele>13.83</ele>
        <time>2022-09-20T09:23:35.000Z</time>
      </trkpt>
      <trkpt lat="45.57485" lon="-0.97088">
        <ele>13.33</ele>
        <time>2022-09-20T09:23:40.000Z</time>
      </trkpt>
      <trkpt lat="45.57511" lon="-0.97101">
        <ele>12.76</ele>
        <time>2022-09-20T09:23:45.000Z</time>
      </trkpt>
      <trkpt lat="45.5754" lon="-0.97117">
        <ele>11.77</ele>
        <time>2022-09-20T09:23:50.000Z</time>
      </trkpt>
      <trkpt lat="45.57574" lon="-0.97147">
        <ele>11.18</ele>
        <time>2022-09-20T09:23:55.000Z</time>
      </trkpt>
      <trkpt lat="45.57594" lon="-0.97174">
        <ele>10.64</ele>
        <time>2022-09-20T09:24:00.000Z</time>
      </trkpt>
      <trkpt lat="45.57602" lon="-0.97204">
        <ele>10.11</ele>
        <time>2022-09-20T09:24:05.000Z</time>
      </trkpt>
      <trkpt lat="45.57613" lon="-0.97234">
        <ele>9.36</ele>
        <time>2022-09-20T09:24:10.000Z</time>
      </trkpt>
      <trkpt lat="45.57639" lon="-0.97271">
        <ele>10.11</ele>
        <time>2022-09-20T09:24:15.000Z</time>
      </trkpt>
      <trkpt lat="45.57656" lon="-0.97306">
        <ele>10.14</ele>
        <time>2022-09-20T09:24:20.000Z</time>
      </trkpt>
      <trkpt lat="45.57668" lon="-0.97334">
        <ele>10.16</ele>
        <time>2022-09-20T09:24:25.000Z</time>
      </trkpt>
      <trkpt lat="45.57676" lon="-0.97355">
        <ele>9.2</ele>
        <time>2022-09-20T09:24:30.000Z</time>
      </trkpt>
      <trkpt lat="45.5769" lon="-0.97373">
        <ele>9.11</ele>
        <time>2022-09-20T09:24:35.000Z</time>
      </trkpt>
      <trkpt lat="45.57701" lon="-0.97396">
        <ele>9</ele>
        <time>2022-09-20T09:24:40.000Z</time>
      </trkpt>
      <trkpt lat="45.57709" lon="-0.97413">
        <ele>8.81</ele>
        <time>2022-09-20T09:24:45.000Z</time>
      </trkpt>
      <trkpt lat="45.57718" lon="-0.97435">
        <ele>8.53</ele>
        <time>2022-09-20T09:24:50.000Z</time>
      </trkpt>
      <trkpt lat="45.57725" lon="-0.97457">
        <ele>8.13</ele>
        <time>2022-09-20T09:24:55.000Z</time>
      </trkpt>
      <trkpt lat="45.57733" lon="-0.97473">
        <ele>7.73</ele>
        <time>2022-09-20T09:25:00.000Z</time>
      </trkpt>
      <trkpt lat="45.5774" lon="-0.97486">
        <ele>7.43</ele>
        <time>2022-09-20T09:25:05.000Z</time>
      </trkpt>
      <trkpt lat="45.57747" lon="-0.97498">
        <ele>7.03</ele>
        <time>2022-09-20T09:25:10.000Z</time>
      </trkpt>
      <trkpt lat="45.57763" lon="-0.97506">
        <ele>6.63</ele>
        <time>2022-09-20T09:25:15.000Z</time>
      </trkpt>
      <trkpt lat="45.57775" lon="-0.97505">
        <ele>6.13</ele>
        <time>2022-09-20T09:25:20.000Z</time>
      </trkpt>
      <trkpt lat="45.5779" lon="-0.97511">
        <ele>5.73</ele>
        <time>2022-09-20T09:25:25.000Z</time>
      </trkpt>
      <trkpt lat="45.57796" lon="-0.97524">
        <ele>5.41</ele>
        <time>2022-09-20T09:25:30.000Z</time>
      </trkpt>
      <trkpt lat="45.57812" lon="-0.97534">
        <ele>4.93</ele>
        <time>2022-09-20T09:25:35.000Z</time>
      </trkpt>
      <trkpt lat="45.57826" lon="-0.97545">
        <ele>4.71</ele>
        <time>2022-09-20T09:25:40.000Z</time>
      </trkpt>
      <trkpt lat="45.57839" lon="-0.97555">
        <ele>4.33</ele>
        <time>2022-09-20T09:25:45.000Z</time>
      </trkpt>
      <trkpt lat="45.57853" lon="-0.97566">
        <ele>4.03</ele>
        <time>2022-09-20T09:25:50.000Z</time>
      </trkpt>
      <trkpt lat="45.57864" lon="-0.9758">
        <ele>3.54</ele>
        <time>2022-09-20T09:25:55.000Z</time>
      </trkpt>
      <trkpt lat="45.57859" lon="-0.97602">
        <ele>2.76</ele>
        <time>2022-09-20T09:26:00.000Z</time>
      </trkpt>
      <trkpt lat="45.57859" lon="-0.97616">
        <ele>2.13</ele>
        <time>2022-09-20T09:26:05.000Z</time>
      </trkpt>
      <trkpt lat="45.5786" lon="-0.97637">
        <ele>1.63</ele>
        <time>2022-09-20T09:26:10.000Z</time>
      </trkpt>
      <trkpt lat="45.57857" lon="-0.97662">
        <ele>1.03</ele>
        <time>2022-09-20T09:26:15.000Z</time>
      </trkpt>
      <trkpt lat="45.57865" lon="-0.97678">
        <ele>0.26</ele>
        <time>2022-09-20T09:26:21.000Z</time>
      </trkpt>
      <trkpt lat="45.5787" lon="-0.97699">
        <ele>-0.46</ele>
        <time>2022-09-20T09:26:26.000Z</time>
      </trkpt>
      <trkpt lat="45.57881" lon="-0.97721">
        <ele>-0.96</ele>
        <time>2022-09-20T09:26:31.000Z</time>
      </trkpt>
      <trkpt lat="45.5789" lon="-0.97744">
        <ele>-1.56</ele>
        <time>2022-09-20T09:26:36.000Z</time>
      </trkpt>
      <trkpt lat="45.57904" lon="-0.97778">
        <ele>-2.24</ele>
        <time>2022-09-20T09:26:41.000Z</time>
      </trkpt>
      <trkpt lat="45.57915" lon="-0.97811">
        <ele>-2.77</ele>
        <time>2022-09-20T09:26:46.000Z</time>
      </trkpt>
      <trkpt lat="45.57921" lon="-0.97831">
        <ele>-3.24</ele>
        <time>2022-09-20T09:26:51.000Z</time>
      </trkpt>
      <trkpt lat="45.57927" lon="-0.97846">
        <ele>-3.77</ele>
        <time>2022-09-20T09:26:56.000Z</time>
      </trkpt>
      <trkpt lat="45.57933" lon="-0.97857">
        <ele>-4.27</ele>
        <time>2022-09-20T09:27:01.000Z</time>
      </trkpt>
      <trkpt lat="45.57938" lon="-0.97871">
        <ele>-4.69</ele>
        <time>2022-09-20T09:27:06.000Z</time>
      </trkpt>
      <trkpt lat="45.57943" lon="-0.97886">
        <ele>-4.8</ele>
        <time>2022-09-20T09:27:11.000Z</time>
      </trkpt>
      <trkpt lat="45.57948" lon="-0.97901">
        <ele>-5.27</ele>
        <time>2022-09-20T09:27:16.000Z</time>
      </trkpt>
      <trkpt lat="45.57956" lon="-0.97912">
        <ele>-6.17</ele>
        <time>2022-09-20T09:27:25.000Z</time>
      </trkpt>
      <trkpt lat="45.57961" lon="-0.9794">
        <ele>-6.79</ele>
        <time>2022-09-20T09:27:30.000Z</time>
      </trkpt>
      <trkpt lat="45.57967" lon="-0.97952">
        <ele>-7.09</ele>
        <time>2022-09-20T09:27:35.000Z</time>
      </trkpt>
      <trkpt lat="45.57969" lon="-0.97968">
        <ele>-7</ele>
        <time>2022-09-20T09:27:42.000Z</time>
      </trkpt>
      <trkpt lat="45.57969" lon="-0.97983">
        <ele>-7.19</ele>
        <time>2022-09-20T09:27:47.000Z</time>
      </trkpt>
      <trkpt lat="45.57974" lon="-0.97997">
        <ele>-7.37</ele>
        <time>2022-09-20T09:27:52.000Z</time>
      </trkpt>
      <trkpt lat="45.57979" lon="-0.98013">
        <ele>-7.59</ele>
        <time>2022-09-20T09:27:57.000Z</time>
      </trkpt>
      <trkpt lat="45.57978" lon="-0.98035">
        <ele>-7.87</ele>
        <time>2022-09-20T09:28:02.000Z</time>
      </trkpt>
      <trkpt lat="45.57991" lon="-0.98073">
        <ele>-8.37</ele>
        <time>2022-09-20T09:28:07.000Z</time>
      </trkpt>
      <trkpt lat="45.58002" lon="-0.98117">
        <ele>-8.97</ele>
        <time>2022-09-20T09:28:12.000Z</time>
      </trkpt>
      <trkpt lat="45.58031" lon="-0.98162">
        <ele>-9.56</ele>
        <time>2022-09-20T09:28:17.000Z</time>
      </trkpt>
      <trkpt lat="45.58057" lon="-0.98198">
        <ele>-10.24</ele>
        <time>2022-09-20T09:28:22.000Z</time>
      </trkpt>
      <trkpt lat="45.58077" lon="-0.98227">
        <ele>-10.67</ele>
        <time>2022-09-20T09:28:27.000Z</time>
      </trkpt>
      <trkpt lat="45.58099" lon="-0.98261">
        <ele>-11.17</ele>
        <time>2022-09-20T09:28:32.000Z</time>
      </trkpt>
      <trkpt lat="45.58135" lon="-0.98309">
        <ele>-12.03</ele>
        <time>2022-09-20T09:28:37.000Z</time>
      </trkpt>
      <trkpt lat="45.58172" lon="-0.98341">
        <ele>-12.94</ele>
        <time>2022-09-20T09:28:42.000Z</time>
      </trkpt>
      <trkpt lat="45.58204" lon="-0.9837">
        <ele>-13.74</ele>
        <time>2022-09-20T09:28:47.000Z</time>
      </trkpt>
      <trkpt lat="45.58243" lon="-0.984">
        <ele>-14.54</ele>
        <time>2022-09-20T09:28:52.000Z</time>
      </trkpt>
      <trkpt lat="45.58289" lon="-0.9843">
        <ele>-15.43</ele>
        <time>2022-09-20T09:28:57.000Z</time>
      </trkpt>
      <trkpt lat="45.58332" lon="-0.98471">
        <ele>-16.24</ele>
        <time>2022-09-20T09:29:02.000Z</time>
      </trkpt>
      <trkpt lat="45.58356" lon="-0.98502">
        <ele>-17.13</ele>
        <time>2022-09-20T09:29:07.000Z</time>
      </trkpt>
      <trkpt lat="45.58376" lon="-0.98513">
        <ele>-16.72</ele>
        <time>2022-09-20T09:29:12.000Z</time>
      </trkpt>
      <trkpt lat="45.58388" lon="-0.98529">
        <ele>-17.07</ele>
        <time>2022-09-20T09:29:17.000Z</time>
      </trkpt>
      <trkpt lat="45.58396" lon="-0.98538">
        <ele>-17.76</ele>
        <time>2022-09-20T09:29:22.000Z</time>
      </trkpt>
      <trkpt lat="45.58406" lon="-0.98543">
        <ele>-19.43</ele>
        <time>2022-09-20T09:29:33.000Z</time>
      </trkpt>
      <trkpt lat="45.58414" lon="-0.98551">
        <ele>-20.37</ele>
        <time>2022-09-20T09:29:40.000Z</time>
      </trkpt>
      <trkpt lat="45.58421" lon="-0.98541">
        <ele>-19.91</ele>
        <time>2022-09-20T09:29:48.000Z</time>
      </trkpt>
      <trkpt lat="45.58433" lon="-0.98548">
        <ele>-19.43</ele>
        <time>2022-09-20T09:29:53.000Z</time>
      </trkpt>
      <trkpt lat="45.58448" lon="-0.98555">
        <ele>-19.52</ele>
        <time>2022-09-20T09:29:58.000Z</time>
      </trkpt>
      <trkpt lat="45.58471" lon="-0.98559">
        <ele>-20.46</ele>
        <time>2022-09-20T09:30:03.000Z</time>
      </trkpt>
      <trkpt lat="45.58486" lon="-0.98568">
        <ele>-20.87</ele>
        <time>2022-09-20T09:30:08.000Z</time>
      </trkpt>
      <trkpt lat="45.58504" lon="-0.98576">
        <ele>-20.25</ele>
        <time>2022-09-20T09:30:13.000Z</time>
      </trkpt>
      <trkpt lat="45.58518" lon="-0.98582">
        <ele>-17.75</ele>
        <time>2022-09-20T09:30:18.000Z</time>
      </trkpt>
      <trkpt lat="45.58538" lon="-0.98583">
        <ele>-17.37</ele>
        <time>2022-09-20T09:30:23.000Z</time>
      </trkpt>
      <trkpt lat="45.58563" lon="-0.98571">
        <ele>-15.99</ele>
        <time>2022-09-20T09:30:28.000Z</time>
      </trkpt>
      <trkpt lat="45.58586" lon="-0.98559">
        <ele>-14.48</ele>
        <time>2022-09-20T09:30:33.000Z</time>
      </trkpt>
      <trkpt lat="45.5861" lon="-0.98544">
        <ele>-13.75</ele>
        <time>2022-09-20T09:30:38.000Z</time>
      </trkpt>
      <trkpt lat="45.58638" lon="-0.9853">
        <ele>-12.57</ele>
        <time>2022-09-20T09:30:43.000Z</time>
      </trkpt>
      <trkpt lat="45.58667" lon="-0.98519">
        <ele>-11.99</ele>
        <time>2022-09-20T09:30:48.000Z</time>
      </trkpt>
      <trkpt lat="45.58686" lon="-0.98521">
        <ele>-11.83</ele>
        <time>2022-09-20T09:30:53.000Z</time>
      </trkpt>
      <trkpt lat="45.58709" lon="-0.98532">
        <ele>-12.07</ele>
        <time>2022-09-20T09:30:58.000Z</time>
      </trkpt>
      <trkpt lat="45.58739" lon="-0.98537">
        <ele>-12.19</ele>
        <time>2022-09-20T09:31:03.000Z</time>
      </trkpt>
      <trkpt lat="45.58767" lon="-0.98548">
        <ele>-12.45</ele>
        <time>2022-09-20T09:31:08.000Z</time>
      </trkpt>
      <trkpt lat="45.58801" lon="-0.98557">
        <ele>-12.89</ele>
        <time>2022-09-20T09:31:13.000Z</time>
      </trkpt>
      <trkpt lat="45.58834" lon="-0.9857">
        <ele>-12.92</ele>
        <time>2022-09-20T09:31:18.000Z</time>
      </trkpt>
      <trkpt lat="45.58857" lon="-0.98597">
        <ele>-12.8</ele>
        <time>2022-09-20T09:31:23.000Z</time>
      </trkpt>
      <trkpt lat="45.58881" lon="-0.98628">
        <ele>-12.73</ele>
        <time>2022-09-20T09:31:28.000Z</time>
      </trkpt>
      <trkpt lat="45.589" lon="-0.98652">
        <ele>-12.07</ele>
        <time>2022-09-20T09:31:33.000Z</time>
      </trkpt>
      <trkpt lat="45.58918" lon="-0.98674">
        <ele>-11.5</ele>
        <time>2022-09-20T09:31:38.000Z</time>
      </trkpt>
      <trkpt lat="45.5894" lon="-0.98694">
        <ele>-10.86</ele>
        <time>2022-09-20T09:31:43.000Z</time>
      </trkpt>
      <trkpt lat="45.58956" lon="-0.98708">
        <ele>-8.5</ele>
        <time>2022-09-20T09:31:48.000Z</time>
      </trkpt>
      <trkpt lat="45.58967" lon="-0.98707">
        <ele>-5.06</ele>
        <time>2022-09-20T09:31:53.000Z</time>
      </trkpt>
      <trkpt lat="45.58979" lon="-0.98721">
        <ele>-1.31</ele>
        <time>2022-09-20T09:31:58.000Z</time>
      </trkpt>
      <trkpt lat="45.5898" lon="-0.98745">
        <ele>0.52</ele>
        <time>2022-09-20T09:32:03.000Z</time>
      </trkpt>
      <trkpt lat="45.58976" lon="-0.98767">
        <ele>1.17</ele>
        <time>2022-09-20T09:32:08.000Z</time>
      </trkpt>
      <trkpt lat="45.58969" lon="-0.98796">
        <ele>1.57</ele>
        <time>2022-09-20T09:32:13.000Z</time>
      </trkpt>
      <trkpt lat="45.58963" lon="-0.98829">
        <ele>0.62</ele>
        <time>2022-09-20T09:32:18.000Z</time>
      </trkpt>
      <trkpt lat="45.58956" lon="-0.9886">
        <ele>0.55</ele>
        <time>2022-09-20T09:32:23.000Z</time>
      </trkpt>
      <trkpt lat="45.58957" lon="-0.98898">
        <ele>1.92</ele>
        <time>2022-09-20T09:32:28.000Z</time>
      </trkpt>
      <trkpt lat="45.58975" lon="-0.98918">
        <ele>1.68</ele>
        <time>2022-09-20T09:32:33.000Z</time>
      </trkpt>
      <trkpt lat="45.59003" lon="-0.98932">
        <ele>1.07</ele>
        <time>2022-09-20T09:32:38.000Z</time>
      </trkpt>
      <trkpt lat="45.59032" lon="-0.98944">
        <ele>0.44</ele>
        <time>2022-09-20T09:32:43.000Z</time>
      </trkpt>
      <trkpt lat="45.59061" lon="-0.98955">
        <ele>0.57</ele>
        <time>2022-09-20T09:32:48.000Z</time>
      </trkpt>
      <trkpt lat="45.59092" lon="-0.9897">
        <ele>0.8</ele>
        <time>2022-09-20T09:32:53.000Z</time>
      </trkpt>
      <trkpt lat="45.59124" lon="-0.98983">
        <ele>0.9</ele>
        <time>2022-09-20T09:32:58.000Z</time>
      </trkpt>
      <trkpt lat="45.59154" lon="-0.98991">
        <ele>0.98</ele>
        <time>2022-09-20T09:33:03.000Z</time>
      </trkpt>
      <trkpt lat="45.59169" lon="-0.99013">
        <ele>-0.99</ele>
        <time>2022-09-20T09:33:08.000Z</time>
      </trkpt>
      <trkpt lat="45.59168" lon="-0.99026">
        <ele>-2.01</ele>
        <time>2022-09-20T09:33:17.000Z</time>
      </trkpt>
      <trkpt lat="45.59178" lon="-0.99032">
        <ele>-2.96</ele>
        <time>2022-09-20T09:33:22.000Z</time>
      </trkpt>
      <trkpt lat="45.59197" lon="-0.9904">
        <ele>-4.12</ele>
        <time>2022-09-20T09:33:27.000Z</time>
      </trkpt>
      <trkpt lat="45.59221" lon="-0.9905">
        <ele>-4.85</ele>
        <time>2022-09-20T09:33:32.000Z</time>
      </trkpt>
      <trkpt lat="45.59245" lon="-0.9906">
        <ele>-5.24</ele>
        <time>2022-09-20T09:33:37.000Z</time>
      </trkpt>
      <trkpt lat="45.59271" lon="-0.99069">
        <ele>-4.84</ele>
        <time>2022-09-20T09:33:42.000Z</time>
      </trkpt>
      <trkpt lat="45.59298" lon="-0.99079">
        <ele>-3.75</ele>
        <time>2022-09-20T09:33:47.000Z</time>
      </trkpt>
      <trkpt lat="45.59325" lon="-0.99091">
        <ele>-5.32</ele>
        <time>2022-09-20T09:33:52.000Z</time>
      </trkpt>
      <trkpt lat="45.59353" lon="-0.99105">
        <ele>-5.73</ele>
        <time>2022-09-20T09:33:57.000Z</time>
      </trkpt>
      <trkpt lat="45.59382" lon="-0.99119">
        <ele>-5.24</ele>
        <time>2022-09-20T09:34:02.000Z</time>
      </trkpt>
      <trkpt lat="45.59408" lon="-0.9913">
        <ele>-4.3</ele>
        <time>2022-09-20T09:34:07.000Z</time>
      </trkpt>
      <trkpt lat="45.59433" lon="-0.99142">
        <ele>-3.57</ele>
        <time>2022-09-20T09:34:12.000Z</time>
      </trkpt>
      <trkpt lat="45.59459" lon="-0.99155">
        <ele>-2.95</ele>
        <time>2022-09-20T09:34:17.000Z</time>
      </trkpt>
      <trkpt lat="45.59483" lon="-0.99168">
        <ele>-2.4</ele>
        <time>2022-09-20T09:34:22.000Z</time>
      </trkpt>
      <trkpt lat="45.59508" lon="-0.99179">
        <ele>-1.48</ele>
        <time>2022-09-20T09:34:27.000Z</time>
      </trkpt>
      <trkpt lat="45.59531" lon="-0.9919">
        <ele>-1.12</ele>
        <time>2022-09-20T09:34:32.000Z</time>
      </trkpt>
      <trkpt lat="45.59555" lon="-0.99201">
        <ele>-0.29</ele>
        <time>2022-09-20T09:34:37.000Z</time>
      </trkpt>
      <trkpt lat="45.59579" lon="-0.99209">
        <ele>1.07</ele>
        <time>2022-09-20T09:34:42.000Z</time>
      </trkpt>
      <trkpt lat="45.59603" lon="-0.99218">
        <ele>1.65</ele>
        <time>2022-09-20T09:34:47.000Z</time>
      </trkpt>
      <trkpt lat="45.59627" lon="-0.99226">
        <ele>1</ele>
        <time>2022-09-20T09:34:52.000Z</time>
      </trkpt>
      <trkpt lat="45.5965" lon="-0.99236">
        <ele>-0.26</ele>
        <time>2022-09-20T09:34:57.000Z</time>
      </trkpt>
      <trkpt lat="45.59672" lon="-0.99245">
        <ele>-1.07</ele>
        <time>2022-09-20T09:35:02.000Z</time>
      </trkpt>
      <trkpt lat="45.59692" lon="-0.99256">
        <ele>-2.29</ele>
        <time>2022-09-20T09:35:07.000Z</time>
      </trkpt>
      <trkpt lat="45.59713" lon="-0.99267">
        <ele>-3.17</ele>
        <time>2022-09-20T09:35:12.000Z</time>
      </trkpt>
      <trkpt lat="45.59734" lon="-0.99277">
        <ele>-4.33</ele>
        <time>2022-09-20T09:35:17.000Z</time>
      </trkpt>
      <trkpt lat="45.59758" lon="-0.99287">
        <ele>-4.56</ele>
        <time>2022-09-20T09:35:22.000Z</time>
      </trkpt>
      <trkpt lat="45.59783" lon="-0.99297">
        <ele>-4.4</ele>
        <time>2022-09-20T09:35:27.000Z</time>
      </trkpt>
      <trkpt lat="45.59807" lon="-0.9931">
        <ele>-4.56</ele>
        <time>2022-09-20T09:35:32.000Z</time>
      </trkpt>
      <trkpt lat="45.5983" lon="-0.99325">
        <ele>-5.68</ele>
        <time>2022-09-20T09:35:37.000Z</time>
      </trkpt>
      <trkpt lat="45.59851" lon="-0.99345">
        <ele>-5.09</ele>
        <time>2022-09-20T09:35:42.000Z</time>
      </trkpt>
      <trkpt lat="45.59866" lon="-0.99366">
        <ele>-4.8</ele>
        <time>2022-09-20T09:35:47.000Z</time>
      </trkpt>
      <trkpt lat="45.59878" lon="-0.99389">
        <ele>-4.3</ele>
        <time>2022-09-20T09:35:52.000Z</time>
      </trkpt>
      <trkpt lat="45.59891" lon="-0.99401">
        <ele>-3.53</ele>
        <time>2022-09-20T09:35:57.000Z</time>
      </trkpt>
      <trkpt lat="45.59903" lon="-0.99424">
        <ele>-3.03</ele>
        <time>2022-09-20T09:36:02.000Z</time>
      </trkpt>
      <trkpt lat="45.59918" lon="-0.99449">
        <ele>-3.15</ele>
        <time>2022-09-20T09:36:07.000Z</time>
      </trkpt>
      <trkpt lat="45.59937" lon="-0.99466">
        <ele>-2.23</ele>
        <time>2022-09-20T09:36:12.000Z</time>
      </trkpt>
      <trkpt lat="45.59959" lon="-0.99482">
        <ele>-1.59</ele>
        <time>2022-09-20T09:36:17.000Z</time>
      </trkpt>
      <trkpt lat="45.59978" lon="-0.99509">
        <ele>-1.62</ele>
        <time>2022-09-20T09:36:22.000Z</time>
      </trkpt>
      <trkpt lat="45.59992" lon="-0.99541">
        <ele>-2.56</ele>
        <time>2022-09-20T09:36:27.000Z</time>
      </trkpt>
      <trkpt lat="45.60007" lon="-0.99571">
        <ele>-2.92</ele>
        <time>2022-09-20T09:36:32.000Z</time>
      </trkpt>
      <trkpt lat="45.60017" lon="-0.99601">
        <ele>-2.57</ele>
        <time>2022-09-20T09:36:37.000Z</time>
      </trkpt>
      <trkpt lat="45.60029" lon="-0.99627">
        <ele>-1.94</ele>
        <time>2022-09-20T09:36:42.000Z</time>
      </trkpt>
      <trkpt lat="45.60042" lon="-0.99649">
        <ele>-1.9</ele>
        <time>2022-09-20T09:36:47.000Z</time>
      </trkpt>
      <trkpt lat="45.60054" lon="-0.99676">
        <ele>-2.41</ele>
        <time>2022-09-20T09:36:52.000Z</time>
      </trkpt>
      <trkpt lat="45.60067" lon="-0.99708">
        <ele>-1.76</ele>
        <time>2022-09-20T09:36:57.000Z</time>
      </trkpt>
      <trkpt lat="45.60078" lon="-0.99737">
        <ele>-3.03</ele>
        <time>2022-09-20T09:37:02.000Z</time>
      </trkpt>
      <trkpt lat="45.60087" lon="-0.99765">
        <ele>-1.46</ele>
        <time>2022-09-20T09:37:07.000Z</time>
      </trkpt>
      <trkpt lat="45.601" lon="-0.99798">
        <ele>1.17</ele>
        <time>2022-09-20T09:37:12.000Z</time>
      </trkpt>
      <trkpt lat="45.60108" lon="-0.99828">
        <ele>3.41</ele>
        <time>2022-09-20T09:37:17.000Z</time>
      </trkpt>
      <trkpt lat="45.60117" lon="-0.99863">
        <ele>4.95</ele>
        <time>2022-09-20T09:37:22.000Z</time>
      </trkpt>
      <trkpt lat="45.60123" lon="-0.99896">
        <ele>4.78</ele>
        <time>2022-09-20T09:37:27.000Z</time>
      </trkpt>
      <trkpt lat="45.6013" lon="-0.9993">
        <ele>5.7</ele>
        <time>2022-09-20T09:37:32.000Z</time>
      </trkpt>
      <trkpt lat="45.60137" lon="-0.99962">
        <ele>5.25</ele>
        <time>2022-09-20T09:37:37.000Z</time>
      </trkpt>
      <trkpt lat="45.60143" lon="-0.99985">
        <ele>2.84</ele>
        <time>2022-09-20T09:37:42.000Z</time>
      </trkpt>
      <trkpt lat="45.60148" lon="-1.00003">
        <ele>0.56</ele>
        <time>2022-09-20T09:37:47.000Z</time>
      </trkpt>
      <trkpt lat="45.60153" lon="-1.00032">
        <ele>-0.87</ele>
        <time>2022-09-20T09:37:52.000Z</time>
      </trkpt>
      <trkpt lat="45.60161" lon="-1.00064">
        <ele>-0.97</ele>
        <time>2022-09-20T09:37:57.000Z</time>
      </trkpt>
      <trkpt lat="45.60171" lon="-1.00096">
        <ele>0.09</ele>
        <time>2022-09-20T09:38:02.000Z</time>
      </trkpt>
      <trkpt lat="45.60177" lon="-1.00121">
        <ele>-0.3</ele>
        <time>2022-09-20T09:38:07.000Z</time>
      </trkpt>
      <trkpt lat="45.60188" lon="-1.00154">
        <ele>-1.88</ele>
        <time>2022-09-20T09:38:12.000Z</time>
      </trkpt>
      <trkpt lat="45.60196" lon="-1.00182">
        <ele>-2.67</ele>
        <time>2022-09-20T09:38:17.000Z</time>
      </trkpt>
      <trkpt lat="45.60203" lon="-1.00209">
        <ele>-2.63</ele>
        <time>2022-09-20T09:38:22.000Z</time>
      </trkpt>
      <trkpt lat="45.60206" lon="-1.00228">
        <ele>-1.01</ele>
        <time>2022-09-20T09:38:27.000Z</time>
      </trkpt>
      <trkpt lat="45.60209" lon="-1.00242">
        <ele>-0.09</ele>
        <time>2022-09-20T09:38:32.000Z</time>
      </trkpt>
      <trkpt lat="45.60226" lon="-1.00245">
        <ele>0.56</ele>
        <time>2022-09-20T09:38:37.000Z</time>
      </trkpt>
      <trkpt lat="45.60242" lon="-1.00256">
        <ele>1.36</ele>
        <time>2022-09-20T09:38:42.000Z</time>
      </trkpt>
      <trkpt lat="45.60262" lon="-1.00273">
        <ele>1.42</ele>
        <time>2022-09-20T09:38:47.000Z</time>
      </trkpt>
      <trkpt lat="45.60284" lon="-1.00287">
        <ele>3.08</ele>
        <time>2022-09-20T09:38:52.000Z</time>
      </trkpt>
      <trkpt lat="45.60301" lon="-1.00303">
        <ele>4.16</ele>
        <time>2022-09-20T09:38:57.000Z</time>
      </trkpt>
      <trkpt lat="45.60316" lon="-1.00315">
        <ele>5.16</ele>
        <time>2022-09-20T09:39:02.000Z</time>
      </trkpt>
      <trkpt lat="45.60331" lon="-1.00332">
        <ele>5.19</ele>
        <time>2022-09-20T09:39:07.000Z</time>
      </trkpt>
      <trkpt lat="45.60345" lon="-1.0035">
        <ele>2.6</ele>
        <time>2022-09-20T09:39:12.000Z</time>
      </trkpt>
      <trkpt lat="45.60358" lon="-1.00369">
        <ele>1.61</ele>
        <time>2022-09-20T09:39:17.000Z</time>
      </trkpt>
      <trkpt lat="45.60372" lon="-1.00389">
        <ele>0.77</ele>
        <time>2022-09-20T09:39:22.000Z</time>
      </trkpt>
      <trkpt lat="45.60389" lon="-1.00409">
        <ele>-0.97</ele>
        <time>2022-09-20T09:39:27.000Z</time>
      </trkpt>
      <trkpt lat="45.60403" lon="-1.00428">
        <ele>-1.63</ele>
        <time>2022-09-20T09:39:32.000Z</time>
      </trkpt>
      <trkpt lat="45.60418" lon="-1.00447">
        <ele>-1.09</ele>
        <time>2022-09-20T09:39:37.000Z</time>
      </trkpt>
      <trkpt lat="45.60432" lon="-1.00462">
        <ele>-0.62</ele>
        <time>2022-09-20T09:39:42.000Z</time>
      </trkpt>
      <trkpt lat="45.60444" lon="-1.00477">
        <ele>1.03</ele>
        <time>2022-09-20T09:39:47.000Z</time>
      </trkpt>
      <trkpt lat="45.60456" lon="-1.00493">
        <ele>1.93</ele>
        <time>2022-09-20T09:39:52.000Z</time>
      </trkpt>
      <trkpt lat="45.60468" lon="-1.00509">
        <ele>1.85</ele>
        <time>2022-09-20T09:39:57.000Z</time>
      </trkpt>
      <trkpt lat="45.60481" lon="-1.00524">
        <ele>2.96</ele>
        <time>2022-09-20T09:40:02.000Z</time>
      </trkpt>
      <trkpt lat="45.60495" lon="-1.00538">
        <ele>3.58</ele>
        <time>2022-09-20T09:40:07.000Z</time>
      </trkpt>
      <trkpt lat="45.60508" lon="-1.00551">
        <ele>4.09</ele>
        <time>2022-09-20T09:40:12.000Z</time>
      </trkpt>
      <trkpt lat="45.60521" lon="-1.00565">
        <ele>4.37</ele>
        <time>2022-09-20T09:40:17.000Z</time>
      </trkpt>
      <trkpt lat="45.60533" lon="-1.00577">
        <ele>4.95</ele>
        <time>2022-09-20T09:40:22.000Z</time>
      </trkpt>
      <trkpt lat="45.60545" lon="-1.0059">
        <ele>5.47</ele>
        <time>2022-09-20T09:40:27.000Z</time>
      </trkpt>
      <trkpt lat="45.60558" lon="-1.00599">
        <ele>6.14</ele>
        <time>2022-09-20T09:40:32.000Z</time>
      </trkpt>
      <trkpt lat="45.60573" lon="-1.00606">
        <ele>6.16</ele>
        <time>2022-09-20T09:40:37.000Z</time>
      </trkpt>
      <trkpt lat="45.6059" lon="-1.00608">
        <ele>5.63</ele>
        <time>2022-09-20T09:40:42.000Z</time>
      </trkpt>
      <trkpt lat="45.6061" lon="-1.0061">
        <ele>5.53</ele>
        <time>2022-09-20T09:40:47.000Z</time>
      </trkpt>
      <trkpt lat="45.60633" lon="-1.00613">
        <ele>5.26</ele>
        <time>2022-09-20T09:40:52.000Z</time>
      </trkpt>
      <trkpt lat="45.60658" lon="-1.00629">
        <ele>4.14</ele>
        <time>2022-09-20T09:40:57.000Z</time>
      </trkpt>
      <trkpt lat="45.60686" lon="-1.00656">
        <ele>3.78</ele>
        <time>2022-09-20T09:41:02.000Z</time>
      </trkpt>
      <trkpt lat="45.60708" lon="-1.00687">
        <ele>4.75</ele>
        <time>2022-09-20T09:41:07.000Z</time>
      </trkpt>
      <trkpt lat="45.60732" lon="-1.00725">
        <ele>3.94</ele>
        <time>2022-09-20T09:41:12.000Z</time>
      </trkpt>
      <trkpt lat="45.60755" lon="-1.00765">
        <ele>3.53</ele>
        <time>2022-09-20T09:41:17.000Z</time>
      </trkpt>
      <trkpt lat="45.60775" lon="-1.00806">
        <ele>3.23</ele>
        <time>2022-09-20T09:41:22.000Z</time>
      </trkpt>
      <trkpt lat="45.60799" lon="-1.00839">
        <ele>2.81</ele>
        <time>2022-09-20T09:41:27.000Z</time>
      </trkpt>
      <trkpt lat="45.60839" lon="-1.00858">
        <ele>3.3</ele>
        <time>2022-09-20T09:41:32.000Z</time>
      </trkpt>
      <trkpt lat="45.60867" lon="-1.00868">
        <ele>3.74</ele>
        <time>2022-09-20T09:41:37.000Z</time>
      </trkpt>
      <trkpt lat="45.60901" lon="-1.00875">
        <ele>4.47</ele>
        <time>2022-09-20T09:41:42.000Z</time>
      </trkpt>
      <trkpt lat="45.60934" lon="-1.0088">
        <ele>4.13</ele>
        <time>2022-09-20T09:41:47.000Z</time>
      </trkpt>
      <trkpt lat="45.60964" lon="-1.00886">
        <ele>2.35</ele>
        <time>2022-09-20T09:41:52.000Z</time>
      </trkpt>
      <trkpt lat="45.60992" lon="-1.00894">
        <ele>0.46</ele>
        <time>2022-09-20T09:41:57.000Z</time>
      </trkpt>
      <trkpt lat="45.61021" lon="-1.009">
        <ele>-0.22</ele>
        <time>2022-09-20T09:42:02.000Z</time>
      </trkpt>
      <trkpt lat="45.6105" lon="-1.00908">
        <ele>-1.32</ele>
        <time>2022-09-20T09:42:07.000Z</time>
      </trkpt>
      <trkpt lat="45.61079" lon="-1.00916">
        <ele>-2.23</ele>
        <time>2022-09-20T09:42:12.000Z</time>
      </trkpt>
      <trkpt lat="45.61107" lon="-1.00925">
        <ele>-2.88</ele>
        <time>2022-09-20T09:42:17.000Z</time>
      </trkpt>
      <trkpt lat="45.61137" lon="-1.00934">
        <ele>-3.07</ele>
        <time>2022-09-20T09:42:22.000Z</time>
      </trkpt>
      <trkpt lat="45.61163" lon="-1.00944">
        <ele>-3.38</ele>
        <time>2022-09-20T09:42:27.000Z</time>
      </trkpt>
      <trkpt lat="45.61188" lon="-1.00954">
        <ele>-3.97</ele>
        <time>2022-09-20T09:42:32.000Z</time>
      </trkpt>
      <trkpt lat="45.61212" lon="-1.00968">
        <ele>-4.27</ele>
        <time>2022-09-20T09:42:37.000Z</time>
      </trkpt>
      <trkpt lat="45.61236" lon="-1.00984">
        <ele>-5.13</ele>
        <time>2022-09-20T09:42:42.000Z</time>
      </trkpt>
      <trkpt lat="45.61259" lon="-1.00999">
        <ele>-5.37</ele>
        <time>2022-09-20T09:42:47.000Z</time>
      </trkpt>
      <trkpt lat="45.61284" lon="-1.01018">
        <ele>-5.94</ele>
        <time>2022-09-20T09:42:52.000Z</time>
      </trkpt>
      <trkpt lat="45.6131" lon="-1.01032">
        <ele>-5.81</ele>
        <time>2022-09-20T09:42:57.000Z</time>
      </trkpt>
      <trkpt lat="45.6133" lon="-1.01048">
        <ele>-6.29</ele>
        <time>2022-09-20T09:43:02.000Z</time>
      </trkpt>
      <trkpt lat="45.61357" lon="-1.01067">
        <ele>-6.31</ele>
        <time>2022-09-20T09:43:07.000Z</time>
      </trkpt>
      <trkpt lat="45.61377" lon="-1.01088">
        <ele>-5.64</ele>
        <time>2022-09-20T09:43:12.000Z</time>
      </trkpt>
      <trkpt lat="45.61398" lon="-1.01109">
        <ele>-4.57</ele>
        <time>2022-09-20T09:43:17.000Z</time>
      </trkpt>
      <trkpt lat="45.61418" lon="-1.01127">
        <ele>-3.76</ele>
        <time>2022-09-20T09:43:22.000Z</time>
      </trkpt>
      <trkpt lat="45.61438" lon="-1.01147">
        <ele>-2.83</ele>
        <time>2022-09-20T09:43:27.000Z</time>
      </trkpt>
      <trkpt lat="45.6146" lon="-1.01166">
        <ele>-3.18</ele>
        <time>2022-09-20T09:43:32.000Z</time>
      </trkpt>
      <trkpt lat="45.61481" lon="-1.01184">
        <ele>-3.69</ele>
        <time>2022-09-20T09:43:37.000Z</time>
      </trkpt>
      <trkpt lat="45.61503" lon="-1.01203">
        <ele>-4.46</ele>
        <time>2022-09-20T09:43:42.000Z</time>
      </trkpt>
      <trkpt lat="45.61528" lon="-1.01229">
        <ele>-3.52</ele>
        <time>2022-09-20T09:43:47.000Z</time>
      </trkpt>
      <trkpt lat="45.61553" lon="-1.01253">
        <ele>-3.07</ele>
        <time>2022-09-20T09:43:52.000Z</time>
      </trkpt>
      <trkpt lat="45.61577" lon="-1.01278">
        <ele>-3.4</ele>
        <time>2022-09-20T09:43:57.000Z</time>
      </trkpt>
      <trkpt lat="45.616" lon="-1.01302">
        <ele>-3.04</ele>
        <time>2022-09-20T09:44:02.000Z</time>
      </trkpt>
      <trkpt lat="45.61623" lon="-1.01328">
        <ele>-2.36</ele>
        <time>2022-09-20T09:44:07.000Z</time>
      </trkpt>
      <trkpt lat="45.61646" lon="-1.01355">
        <ele>-2.57</ele>
        <time>2022-09-20T09:44:12.000Z</time>
      </trkpt>
      <trkpt lat="45.61671" lon="-1.01381">
        <ele>-2.31</ele>
        <time>2022-09-20T09:44:17.000Z</time>
      </trkpt>
      <trkpt lat="45.61692" lon="-1.01405">
        <ele>-2.75</ele>
        <time>2022-09-20T09:44:22.000Z</time>
      </trkpt>
      <trkpt lat="45.61713" lon="-1.01431">
        <ele>-2.85</ele>
        <time>2022-09-20T09:44:27.000Z</time>
      </trkpt>
      <trkpt lat="45.61733" lon="-1.01456">
        <ele>-2.23</ele>
        <time>2022-09-20T09:44:32.000Z</time>
      </trkpt>
      <trkpt lat="45.61755" lon="-1.01482">
        <ele>-3.14</ele>
        <time>2022-09-20T09:44:37.000Z</time>
      </trkpt>
      <trkpt lat="45.61777" lon="-1.01509">
        <ele>-4.42</ele>
        <time>2022-09-20T09:44:42.000Z</time>
      </trkpt>
      <trkpt lat="45.61798" lon="-1.01536">
        <ele>-4.8</ele>
        <time>2022-09-20T09:44:47.000Z</time>
      </trkpt>
      <trkpt lat="45.61819" lon="-1.01563">
        <ele>-4.58</ele>
        <time>2022-09-20T09:44:52.000Z</time>
      </trkpt>
      <trkpt lat="45.6184" lon="-1.01587">
        <ele>-5.09</ele>
        <time>2022-09-20T09:44:57.000Z</time>
      </trkpt>
      <trkpt lat="45.61856" lon="-1.01609">
        <ele>-4.07</ele>
        <time>2022-09-20T09:45:02.000Z</time>
      </trkpt>
      <trkpt lat="45.61872" lon="-1.01633">
        <ele>-2.52</ele>
        <time>2022-09-20T09:45:07.000Z</time>
      </trkpt>
      <trkpt lat="45.61893" lon="-1.0166">
        <ele>-1.03</ele>
        <time>2022-09-20T09:45:12.000Z</time>
      </trkpt>
      <trkpt lat="45.61913" lon="-1.01687">
        <ele>-0.12</ele>
        <time>2022-09-20T09:45:17.000Z</time>
      </trkpt>
      <trkpt lat="45.61936" lon="-1.01712">
        <ele>0.98</ele>
        <time>2022-09-20T09:45:22.000Z</time>
      </trkpt>
      <trkpt lat="45.61957" lon="-1.01736">
        <ele>0.81</ele>
        <time>2022-09-20T09:45:27.000Z</time>
      </trkpt>
      <trkpt lat="45.61975" lon="-1.01762">
        <ele>2.05</ele>
        <time>2022-09-20T09:45:32.000Z</time>
      </trkpt>
      <trkpt lat="45.61996" lon="-1.01791">
        <ele>2.56</ele>
        <time>2022-09-20T09:45:37.000Z</time>
      </trkpt>
      <trkpt lat="45.62016" lon="-1.01819">
        <ele>2.94</ele>
        <time>2022-09-20T09:45:42.000Z</time>
      </trkpt>
      <trkpt lat="45.62036" lon="-1.01844">
        <ele>3.19</ele>
        <time>2022-09-20T09:45:47.000Z</time>
      </trkpt>
      <trkpt lat="45.62056" lon="-1.0187">
        <ele>2.54</ele>
        <time>2022-09-20T09:45:52.000Z</time>
      </trkpt>
      <trkpt lat="45.62077" lon="-1.01896">
        <ele>2.3</ele>
        <time>2022-09-20T09:45:57.000Z</time>
      </trkpt>
      <trkpt lat="45.62097" lon="-1.01922">
        <ele>1.6</ele>
        <time>2022-09-20T09:46:02.000Z</time>
      </trkpt>
      <trkpt lat="45.62116" lon="-1.01946">
        <ele>3.03</ele>
        <time>2022-09-20T09:46:07.000Z</time>
      </trkpt>
      <trkpt lat="45.62136" lon="-1.0197">
        <ele>3.93</ele>
        <time>2022-09-20T09:46:12.000Z</time>
      </trkpt>
      <trkpt lat="45.62154" lon="-1.01994">
        <ele>4.74</ele>
        <time>2022-09-20T09:46:17.000Z</time>
      </trkpt>
      <trkpt lat="45.62171" lon="-1.02017">
        <ele>2.66</ele>
        <time>2022-09-20T09:46:22.000Z</time>
      </trkpt>
      <trkpt lat="45.62186" lon="-1.02039">
        <ele>2.87</ele>
        <time>2022-09-20T09:46:27.000Z</time>
      </trkpt>
      <trkpt lat="45.62199" lon="-1.02065">
        <ele>3.27</ele>
        <time>2022-09-20T09:46:32.000Z</time>
      </trkpt>
      <trkpt lat="45.62215" lon="-1.02094">
        <ele>3.59</ele>
        <time>2022-09-20T09:46:37.000Z</time>
      </trkpt>
      <trkpt lat="45.62233" lon="-1.02125">
        <ele>4.31</ele>
        <time>2022-09-20T09:46:42.000Z</time>
      </trkpt>
      <trkpt lat="45.62249" lon="-1.02151">
        <ele>5.26</ele>
        <time>2022-09-20T09:46:47.000Z</time>
      </trkpt>
      <trkpt lat="45.62264" lon="-1.02181">
        <ele>6.34</ele>
        <time>2022-09-20T09:46:52.000Z</time>
      </trkpt>
      <trkpt lat="45.6228" lon="-1.02213">
        <ele>6.41</ele>
        <time>2022-09-20T09:46:57.000Z</time>
      </trkpt>
      <trkpt lat="45.62296" lon="-1.02244">
        <ele>5.14</ele>
        <time>2022-09-20T09:47:02.000Z</time>
      </trkpt>
      <trkpt lat="45.62312" lon="-1.02272">
        <ele>3.62</ele>
        <time>2022-09-20T09:47:07.000Z</time>
      </trkpt>
      <trkpt lat="45.62327" lon="-1.02301">
        <ele>1.89</ele>
        <time>2022-09-20T09:47:12.000Z</time>
      </trkpt>
      <trkpt lat="45.62338" lon="-1.02328">
        <ele>-0.11</ele>
        <time>2022-09-20T09:47:17.000Z</time>
      </trkpt>
      <trkpt lat="45.62349" lon="-1.02349">
        <ele>-0.6</ele>
        <time>2022-09-20T09:47:22.000Z</time>
      </trkpt>
      <trkpt lat="45.62356" lon="-1.02359">
        <ele>0.43</ele>
        <time>2022-09-20T09:47:27.000Z</time>
      </trkpt>
      <trkpt lat="45.62364" lon="-1.02363">
        <ele>1.1</ele>
        <time>2022-09-20T09:47:46.000Z</time>
      </trkpt>
      <trkpt lat="45.62362" lon="-1.02377">
        <ele>1.3</ele>
        <time>2022-09-20T09:47:54.000Z</time>
      </trkpt>
      <trkpt lat="45.6236" lon="-1.02393">
        <ele>1.57</ele>
        <time>2022-09-20T09:47:59.000Z</time>
      </trkpt>
      <trkpt lat="45.62357" lon="-1.02415">
        <ele>1.4</ele>
        <time>2022-09-20T09:48:04.000Z</time>
      </trkpt>
      <trkpt lat="45.62359" lon="-1.02435">
        <ele>1.49</ele>
        <time>2022-09-20T09:48:09.000Z</time>
      </trkpt>
      <trkpt lat="45.62365" lon="-1.02461">
        <ele>1.5</ele>
        <time>2022-09-20T09:48:14.000Z</time>
      </trkpt>
      <trkpt lat="45.6237" lon="-1.02489">
        <ele>1.5</ele>
        <time>2022-09-20T09:48:19.000Z</time>
      </trkpt>
      <trkpt lat="45.62376" lon="-1.02518">
        <ele>1.42</ele>
        <time>2022-09-20T09:48:24.000Z</time>
      </trkpt>
      <trkpt lat="45.62381" lon="-1.0254">
        <ele>1.79</ele>
        <time>2022-09-20T09:48:29.000Z</time>
      </trkpt>
      <trkpt lat="45.62389" lon="-1.02554">
        <ele>1.7</ele>
        <time>2022-09-20T09:48:34.000Z</time>
      </trkpt>
      <trkpt lat="45.62393" lon="-1.02572">
        <ele>0.66</ele>
        <time>2022-09-20T09:48:39.000Z</time>
      </trkpt>
      <trkpt lat="45.62401" lon="-1.02577">
        <ele>0.59</ele>
        <time>2022-09-20T09:48:53.000Z</time>
      </trkpt>
      <trkpt lat="45.62393" lon="-1.02567">
        <ele>-6.7</ele>
        <time>2022-09-20T09:50:56.000Z</time>
      </trkpt>
      <trkpt lat="45.62393" lon="-1.02584">
        <ele>-7.8</ele>
        <time>2022-09-20T09:51:12.000Z</time>
      </trkpt>
      <trkpt lat="45.62392" lon="-1.02608">
        <ele>-8.02</ele>
        <time>2022-09-20T09:51:17.000Z</time>
      </trkpt>
      <trkpt lat="45.6239" lon="-1.02635">
        <ele>-8.12</ele>
        <time>2022-09-20T09:51:22.000Z</time>
      </trkpt>
      <trkpt lat="45.62383" lon="-1.02664">
        <ele>-8.4</ele>
        <time>2022-09-20T09:51:27.000Z</time>
      </trkpt>
      <trkpt lat="45.62376" lon="-1.02694">
        <ele>-8.59</ele>
        <time>2022-09-20T09:51:32.000Z</time>
      </trkpt>
      <trkpt lat="45.62368" lon="-1.02728">
        <ele>-9.35</ele>
        <time>2022-09-20T09:51:37.000Z</time>
      </trkpt>
      <trkpt lat="45.62358" lon="-1.02755">
        <ele>-9.5</ele>
        <time>2022-09-20T09:51:42.000Z</time>
      </trkpt>
      <trkpt lat="45.62353" lon="-1.02776">
        <ele>-10.15</ele>
        <time>2022-09-20T09:51:47.000Z</time>
      </trkpt>
      <trkpt lat="45.62351" lon="-1.0279">
        <ele>-10.32</ele>
        <time>2022-09-20T09:51:52.000Z</time>
      </trkpt>
      <trkpt lat="45.62347" lon="-1.02801">
        <ele>-10.57</ele>
        <time>2022-09-20T09:52:05.000Z</time>
      </trkpt>
      <trkpt lat="45.62339" lon="-1.02819">
        <ele>-10.6</ele>
        <time>2022-09-20T09:52:10.000Z</time>
      </trkpt>
      <trkpt lat="45.62327" lon="-1.02839">
        <ele>-11</ele>
        <time>2022-09-20T09:52:15.000Z</time>
      </trkpt>
      <trkpt lat="45.62311" lon="-1.02848">
        <ele>-11.37</ele>
        <time>2022-09-20T09:52:20.000Z</time>
      </trkpt>
      <trkpt lat="45.62298" lon="-1.02855">
        <ele>-11.7</ele>
        <time>2022-09-20T09:52:25.000Z</time>
      </trkpt>
      <trkpt lat="45.62286" lon="-1.02882">
        <ele>-11.62</ele>
        <time>2022-09-20T09:52:30.000Z</time>
      </trkpt>
      <trkpt lat="45.62272" lon="-1.02907">
        <ele>-11.6</ele>
        <time>2022-09-20T09:52:35.000Z</time>
      </trkpt>
      <trkpt lat="45.62258" lon="-1.02925">
        <ele>-11.51</ele>
        <time>2022-09-20T09:52:40.000Z</time>
      </trkpt>
      <trkpt lat="45.62238" lon="-1.02945">
        <ele>-11.48</ele>
        <time>2022-09-20T09:52:45.000Z</time>
      </trkpt>
      <trkpt lat="45.62217" lon="-1.02949">
        <ele>-11.61</ele>
        <time>2022-09-20T09:52:50.000Z</time>
      </trkpt>
      <trkpt lat="45.62203" lon="-1.02946">
        <ele>-11.21</ele>
        <time>2022-09-20T09:52:55.000Z</time>
      </trkpt>
      <trkpt lat="45.62191" lon="-1.02948">
        <ele>-10.91</ele>
        <time>2022-09-20T09:53:00.000Z</time>
      </trkpt>
      <trkpt lat="45.62176" lon="-1.02959">
        <ele>-10.71</ele>
        <time>2022-09-20T09:53:05.000Z</time>
      </trkpt>
      <trkpt lat="45.62166" lon="-1.02973">
        <ele>-10.5</ele>
        <time>2022-09-20T09:53:10.000Z</time>
      </trkpt>
      <trkpt lat="45.62156" lon="-1.02996">
        <ele>-10.19</ele>
        <time>2022-09-20T09:53:15.000Z</time>
      </trkpt>
      <trkpt lat="45.62136" lon="-1.02991">
        <ele>-10.54</ele>
        <time>2022-09-20T09:53:20.000Z</time>
      </trkpt>
      <trkpt lat="45.62122" lon="-1.02992">
        <ele>-10.24</ele>
        <time>2022-09-20T09:53:25.000Z</time>
      </trkpt>
      <trkpt lat="45.6211" lon="-1.03007">
        <ele>-9.91</ele>
        <time>2022-09-20T09:53:30.000Z</time>
      </trkpt>
      <trkpt lat="45.62099" lon="-1.03023">
        <ele>-9.34</ele>
        <time>2022-09-20T09:53:35.000Z</time>
      </trkpt>
      <trkpt lat="45.62089" lon="-1.03038">
        <ele>-8.59</ele>
        <time>2022-09-20T09:53:40.000Z</time>
      </trkpt>
      <trkpt lat="45.62084" lon="-1.03055">
        <ele>-8.89</ele>
        <time>2022-09-20T09:53:45.000Z</time>
      </trkpt>
      <trkpt lat="45.62078" lon="-1.03075">
        <ele>-8.81</ele>
        <time>2022-09-20T09:53:50.000Z</time>
      </trkpt>
      <trkpt lat="45.62062" lon="-1.03089">
        <ele>-8.73</ele>
        <time>2022-09-20T09:53:55.000Z</time>
      </trkpt>
      <trkpt lat="45.62044" lon="-1.03106">
        <ele>-9.77</ele>
        <time>2022-09-20T09:54:00.000Z</time>
      </trkpt>
      <trkpt lat="45.62023" lon="-1.03124">
        <ele>-11.3</ele>
        <time>2022-09-20T09:54:05.000Z</time>
      </trkpt>
      <trkpt lat="45.62" lon="-1.03141">
        <ele>-11.76</ele>
        <time>2022-09-20T09:54:10.000Z</time>
      </trkpt>
      <trkpt lat="45.61978" lon="-1.03158">
        <ele>-11.1</ele>
        <time>2022-09-20T09:54:15.000Z</time>
      </trkpt>
      <trkpt lat="45.6196" lon="-1.03183">
        <ele>-8.94</ele>
        <time>2022-09-20T09:54:20.000Z</time>
      </trkpt>
      <trkpt lat="45.61952" lon="-1.03215">
        <ele>-7.25</ele>
        <time>2022-09-20T09:54:25.000Z</time>
      </trkpt>
      <trkpt lat="45.61948" lon="-1.03253">
        <ele>-5.23</ele>
        <time>2022-09-20T09:54:30.000Z</time>
      </trkpt>
      <trkpt lat="45.61955" lon="-1.03291">
        <ele>-3.07</ele>
        <time>2022-09-20T09:54:35.000Z</time>
      </trkpt>
      <trkpt lat="45.61956" lon="-1.03315">
        <ele>-1.64</ele>
        <time>2022-09-20T09:54:40.000Z</time>
      </trkpt>
      <trkpt lat="45.6196" lon="-1.03331">
        <ele>2.2</ele>
        <time>2022-09-20T09:54:45.000Z</time>
      </trkpt>
      <trkpt lat="45.6197" lon="-1.03353">
        <ele>4.3</ele>
        <time>2022-09-20T09:54:50.000Z</time>
      </trkpt>
      <trkpt lat="45.61972" lon="-1.03371">
        <ele>5.74</ele>
        <time>2022-09-20T09:54:55.000Z</time>
      </trkpt>
      <trkpt lat="45.61979" lon="-1.0339">
        <ele>6.24</ele>
        <time>2022-09-20T09:55:00.000Z</time>
      </trkpt>
      <trkpt lat="45.61987" lon="-1.03411">
        <ele>7.27</ele>
        <time>2022-09-20T09:55:05.000Z</time>
      </trkpt>
      <trkpt lat="45.61994" lon="-1.03435">
        <ele>7.75</ele>
        <time>2022-09-20T09:55:10.000Z</time>
      </trkpt>
      <trkpt lat="45.61998" lon="-1.03461">
        <ele>8.57</ele>
        <time>2022-09-20T09:55:15.000Z</time>
      </trkpt>
      <trkpt lat="45.62002" lon="-1.03489">
        <ele>9.46</ele>
        <time>2022-09-20T09:55:20.000Z</time>
      </trkpt>
      <trkpt lat="45.6201" lon="-1.03504">
        <ele>10.21</ele>
        <time>2022-09-20T09:55:25.000Z</time>
      </trkpt>
      <trkpt lat="45.62001" lon="-1.03501">
        <ele>10.97</ele>
        <time>2022-09-20T09:55:56.000Z</time>
      </trkpt>
      <trkpt lat="45.61994" lon="-1.03512">
        <ele>11.73</ele>
        <time>2022-09-20T09:56:16.000Z</time>
      </trkpt>
      <trkpt lat="45.61984" lon="-1.03526">
        <ele>10.63</ele>
        <time>2022-09-20T09:56:21.000Z</time>
      </trkpt>
      <trkpt lat="45.61966" lon="-1.03532">
        <ele>8.8</ele>
        <time>2022-09-20T09:56:26.000Z</time>
      </trkpt>
      <trkpt lat="45.6195" lon="-1.03544">
        <ele>7.45</ele>
        <time>2022-09-20T09:56:31.000Z</time>
      </trkpt>
      <trkpt lat="45.61932" lon="-1.03558">
        <ele>6.67</ele>
        <time>2022-09-20T09:56:36.000Z</time>
      </trkpt>
      <trkpt lat="45.6191" lon="-1.03574">
        <ele>5.21</ele>
        <time>2022-09-20T09:56:41.000Z</time>
      </trkpt>
      <trkpt lat="45.61887" lon="-1.03591">
        <ele>2.2</ele>
        <time>2022-09-20T09:56:46.000Z</time>
      </trkpt>
      <trkpt lat="45.61871" lon="-1.03611">
        <ele>-0.53</ele>
        <time>2022-09-20T09:56:51.000Z</time>
      </trkpt>
      <trkpt lat="45.61848" lon="-1.03631">
        <ele>-1.4</ele>
        <time>2022-09-20T09:56:56.000Z</time>
      </trkpt>
      <trkpt lat="45.61823" lon="-1.03653">
        <ele>-3.1</ele>
        <time>2022-09-20T09:57:01.000Z</time>
      </trkpt>
      <trkpt lat="45.61804" lon="-1.03684">
        <ele>-4.29</ele>
        <time>2022-09-20T09:57:06.000Z</time>
      </trkpt>
      <trkpt lat="45.61803" lon="-1.03729">
        <ele>-5.43</ele>
        <time>2022-09-20T09:57:11.000Z</time>
      </trkpt>
      <trkpt lat="45.61803" lon="-1.03765">
        <ele>-3.38</ele>
        <time>2022-09-20T09:57:16.000Z</time>
      </trkpt>
      <trkpt lat="45.61803" lon="-1.03795">
        <ele>0.9</ele>
        <time>2022-09-20T09:57:21.000Z</time>
      </trkpt>
      <trkpt lat="45.61806" lon="-1.03827">
        <ele>4.64</ele>
        <time>2022-09-20T09:57:26.000Z</time>
      </trkpt>
      <trkpt lat="45.61806" lon="-1.03857">
        <ele>5.46</ele>
        <time>2022-09-20T09:57:31.000Z</time>
      </trkpt>
      <trkpt lat="45.61806" lon="-1.039">
        <ele>5.15</ele>
        <time>2022-09-20T09:57:36.000Z</time>
      </trkpt>
      <trkpt lat="45.61808" lon="-1.03944">
        <ele>4.67</ele>
        <time>2022-09-20T09:57:41.000Z</time>
      </trkpt>
      <trkpt lat="45.61794" lon="-1.03984">
        <ele>2.31</ele>
        <time>2022-09-20T09:57:46.000Z</time>
      </trkpt>
      <trkpt lat="45.61786" lon="-1.0401">
        <ele>0.42</ele>
        <time>2022-09-20T09:57:51.000Z</time>
      </trkpt>
      <trkpt lat="45.6179" lon="-1.0403">
        <ele>0.9</ele>
        <time>2022-09-20T09:57:56.000Z</time>
      </trkpt>
      <trkpt lat="45.61791" lon="-1.04052">
        <ele>-0.85</ele>
        <time>2022-09-20T09:58:01.000Z</time>
      </trkpt>
      <trkpt lat="45.61784" lon="-1.04068">
        <ele>-1.48</ele>
        <time>2022-09-20T09:58:06.000Z</time>
      </trkpt>
      <trkpt lat="45.61772" lon="-1.04082">
        <ele>-0.98</ele>
        <time>2022-09-20T09:58:11.000Z</time>
      </trkpt>
      <trkpt lat="45.61764" lon="-1.04098">
        <ele>0.98</ele>
        <time>2022-09-20T09:58:16.000Z</time>
      </trkpt>
      <trkpt lat="45.61762" lon="-1.04121">
        <ele>5.61</ele>
        <time>2022-09-20T09:58:21.000Z</time>
      </trkpt>
      <trkpt lat="45.61768" lon="-1.04145">
        <ele>5.54</ele>
        <time>2022-09-20T09:58:26.000Z</time>
      </trkpt>
      <trkpt lat="45.61772" lon="-1.04165">
        <ele>5.7</ele>
        <time>2022-09-20T09:58:31.000Z</time>
      </trkpt>
      <trkpt lat="45.61776" lon="-1.04179">
        <ele>5.27</ele>
        <time>2022-09-20T09:58:37.000Z</time>
      </trkpt>
      <trkpt lat="45.6178" lon="-1.04196">
        <ele>6.87</ele>
        <time>2022-09-20T09:58:42.000Z</time>
      </trkpt>
      <trkpt lat="45.61786" lon="-1.0421">
        <ele>7.4</ele>
        <time>2022-09-20T09:58:47.000Z</time>
      </trkpt>
      <trkpt lat="45.61793" lon="-1.04226">
        <ele>7.15</ele>
        <time>2022-09-20T09:58:52.000Z</time>
      </trkpt>
      <trkpt lat="45.618" lon="-1.04241">
        <ele>7</ele>
        <time>2022-09-20T09:58:57.000Z</time>
      </trkpt>
      <trkpt lat="45.61813" lon="-1.04249">
        <ele>6.82</ele>
        <time>2022-09-20T09:59:02.000Z</time>
      </trkpt>
      <trkpt lat="45.61829" lon="-1.04258">
        <ele>6.38</ele>
        <time>2022-09-20T09:59:07.000Z</time>
      </trkpt>
      <trkpt lat="45.61848" lon="-1.04266">
        <ele>5.14</ele>
        <time>2022-09-20T09:59:12.000Z</time>
      </trkpt>
      <trkpt lat="45.6187" lon="-1.04266">
        <ele>2.83</ele>
        <time>2022-09-20T09:59:17.000Z</time>
      </trkpt>
      <trkpt lat="45.61886" lon="-1.0424">
        <ele>1.43</ele>
        <time>2022-09-20T09:59:22.000Z</time>
      </trkpt>
      <trkpt lat="45.61901" lon="-1.04216">
        <ele>0.21</ele>
        <time>2022-09-20T09:59:27.000Z</time>
      </trkpt>
      <trkpt lat="45.61923" lon="-1.04208">
        <ele>-1.35</ele>
        <time>2022-09-20T09:59:32.000Z</time>
      </trkpt>
      <trkpt lat="45.61943" lon="-1.04208">
        <ele>-0.83</ele>
        <time>2022-09-20T09:59:37.000Z</time>
      </trkpt>
      <trkpt lat="45.61961" lon="-1.04208">
        <ele>-1.66</ele>
        <time>2022-09-20T09:59:42.000Z</time>
      </trkpt>
      <trkpt lat="45.61979" lon="-1.04204">
        <ele>-2.38</ele>
        <time>2022-09-20T09:59:47.000Z</time>
      </trkpt>
      <trkpt lat="45.61997" lon="-1.04205">
        <ele>-3.65</ele>
        <time>2022-09-20T09:59:52.000Z</time>
      </trkpt>
      <trkpt lat="45.62007" lon="-1.04207">
        <ele>-5.01</ele>
        <time>2022-09-20T09:59:57.000Z</time>
      </trkpt>
      <trkpt lat="45.62016" lon="-1.04191">
        <ele>-3.15</ele>
        <time>2022-09-20T10:00:02.000Z</time>
      </trkpt>
      <trkpt lat="45.6203" lon="-1.04203">
        <ele>0.32</ele>
        <time>2022-09-20T10:00:07.000Z</time>
      </trkpt>
      <trkpt lat="45.62047" lon="-1.04221">
        <ele>2.43</ele>
        <time>2022-09-20T10:00:12.000Z</time>
      </trkpt>
      <trkpt lat="45.62064" lon="-1.04238">
        <ele>2.74</ele>
        <time>2022-09-20T10:00:17.000Z</time>
      </trkpt>
      <trkpt lat="45.62062" lon="-1.04261">
        <ele>2.7</ele>
        <time>2022-09-20T10:00:22.000Z</time>
      </trkpt>
      <trkpt lat="45.62045" lon="-1.04278">
        <ele>1.34</ele>
        <time>2022-09-20T10:00:27.000Z</time>
      </trkpt>
      <trkpt lat="45.62035" lon="-1.04301">
        <ele>1.6</ele>
        <time>2022-09-20T10:00:32.000Z</time>
      </trkpt>
      <trkpt lat="45.62042" lon="-1.04325">
        <ele>2.86</ele>
        <time>2022-09-20T10:00:37.000Z</time>
      </trkpt>
      <trkpt lat="45.62054" lon="-1.04353">
        <ele>4.55</ele>
        <time>2022-09-20T10:00:42.000Z</time>
      </trkpt>
      <trkpt lat="45.62066" lon="-1.04381">
        <ele>4.93</ele>
        <time>2022-09-20T10:00:47.000Z</time>
      </trkpt>
      <trkpt lat="45.6207" lon="-1.04413">
        <ele>5.32</ele>
        <time>2022-09-20T10:00:52.000Z</time>
      </trkpt>
      <trkpt lat="45.6206" lon="-1.04441">
        <ele>4.39</ele>
        <time>2022-09-20T10:00:57.000Z</time>
      </trkpt>
      <trkpt lat="45.62045" lon="-1.04463">
        <ele>1.41</ele>
        <time>2022-09-20T10:01:02.000Z</time>
      </trkpt>
      <trkpt lat="45.62049" lon="-1.04495">
        <ele>0.93</ele>
        <time>2022-09-20T10:01:07.000Z</time>
      </trkpt>
      <trkpt lat="45.62057" lon="-1.04526">
        <ele>1.57</ele>
        <time>2022-09-20T10:01:12.000Z</time>
      </trkpt>
      <trkpt lat="45.62063" lon="-1.04556">
        <ele>2.51</ele>
        <time>2022-09-20T10:01:17.000Z</time>
      </trkpt>
      <trkpt lat="45.62073" lon="-1.04589">
        <ele>2.68</ele>
        <time>2022-09-20T10:01:22.000Z</time>
      </trkpt>
      <trkpt lat="45.62095" lon="-1.04599">
        <ele>1.94</ele>
        <time>2022-09-20T10:01:27.000Z</time>
      </trkpt>
      <trkpt lat="45.62118" lon="-1.0461">
        <ele>0.87</ele>
        <time>2022-09-20T10:01:32.000Z</time>
      </trkpt>
      <trkpt lat="45.62141" lon="-1.04626">
        <ele>-0.81</ele>
        <time>2022-09-20T10:01:37.000Z</time>
      </trkpt>
      <trkpt lat="45.62167" lon="-1.04622">
        <ele>-1.63</ele>
        <time>2022-09-20T10:01:42.000Z</time>
      </trkpt>
      <trkpt lat="45.62198" lon="-1.0464">
        <ele>-2.31</ele>
        <time>2022-09-20T10:01:47.000Z</time>
      </trkpt>
      <trkpt lat="45.62215" lon="-1.04676">
        <ele>-1.43</ele>
        <time>2022-09-20T10:01:52.000Z</time>
      </trkpt>
      <trkpt lat="45.6221" lon="-1.04708">
        <ele>1.72</ele>
        <time>2022-09-20T10:01:57.000Z</time>
      </trkpt>
      <trkpt lat="45.62196" lon="-1.04733">
        <ele>1.23</ele>
        <time>2022-09-20T10:02:02.000Z</time>
      </trkpt>
      <trkpt lat="45.62181" lon="-1.0476">
        <ele>0.21</ele>
        <time>2022-09-20T10:02:07.000Z</time>
      </trkpt>
      <trkpt lat="45.62164" lon="-1.04787">
        <ele>-0.61</ele>
        <time>2022-09-20T10:02:12.000Z</time>
      </trkpt>
      <trkpt lat="45.62147" lon="-1.04814">
        <ele>-0.43</ele>
        <time>2022-09-20T10:02:17.000Z</time>
      </trkpt>
      <trkpt lat="45.6212" lon="-1.04827">
        <ele>-1.2</ele>
        <time>2022-09-20T10:02:22.000Z</time>
      </trkpt>
      <trkpt lat="45.6209" lon="-1.04835">
        <ele>-2.34</ele>
        <time>2022-09-20T10:02:27.000Z</time>
      </trkpt>
      <trkpt lat="45.62066" lon="-1.04858">
        <ele>-3.51</ele>
        <time>2022-09-20T10:02:32.000Z</time>
      </trkpt>
      <trkpt lat="45.62065" lon="-1.04897">
        <ele>0.06</ele>
        <time>2022-09-20T10:02:37.000Z</time>
      </trkpt>
      <trkpt lat="45.62085" lon="-1.04927">
        <ele>0.76</ele>
        <time>2022-09-20T10:02:42.000Z</time>
      </trkpt>
      <trkpt lat="45.62103" lon="-1.04956">
        <ele>1.44</ele>
        <time>2022-09-20T10:02:47.000Z</time>
      </trkpt>
      <trkpt lat="45.62122" lon="-1.04986">
        <ele>2.44</ele>
        <time>2022-09-20T10:02:52.000Z</time>
      </trkpt>
      <trkpt lat="45.62139" lon="-1.05015">
        <ele>3.18</ele>
        <time>2022-09-20T10:02:57.000Z</time>
      </trkpt>
      <trkpt lat="45.62155" lon="-1.0505">
        <ele>3.66</ele>
        <time>2022-09-20T10:03:02.000Z</time>
      </trkpt>
      <trkpt lat="45.62172" lon="-1.05083">
        <ele>3.86</ele>
        <time>2022-09-20T10:03:07.000Z</time>
      </trkpt>
      <trkpt lat="45.62189" lon="-1.05117">
        <ele>3.95</ele>
        <time>2022-09-20T10:03:12.000Z</time>
      </trkpt>
      <trkpt lat="45.62207" lon="-1.05148">
        <ele>5.49</ele>
        <time>2022-09-20T10:03:17.000Z</time>
      </trkpt>
      <trkpt lat="45.62223" lon="-1.05176">
        <ele>5.07</ele>
        <time>2022-09-20T10:03:22.000Z</time>
      </trkpt>
      <trkpt lat="45.62245" lon="-1.05193">
        <ele>4.51</ele>
        <time>2022-09-20T10:03:27.000Z</time>
      </trkpt>
      <trkpt lat="45.62272" lon="-1.05193">
        <ele>2.89</ele>
        <time>2022-09-20T10:03:32.000Z</time>
      </trkpt>
      <trkpt lat="45.62292" lon="-1.05175">
        <ele>2.3</ele>
        <time>2022-09-20T10:03:37.000Z</time>
      </trkpt>
      <trkpt lat="45.62309" lon="-1.05145">
        <ele>1.83</ele>
        <time>2022-09-20T10:03:42.000Z</time>
      </trkpt>
      <trkpt lat="45.62328" lon="-1.05118">
        <ele>1.16</ele>
        <time>2022-09-20T10:03:47.000Z</time>
      </trkpt>
      <trkpt lat="45.62349" lon="-1.05093">
        <ele>0.63</ele>
        <time>2022-09-20T10:03:52.000Z</time>
      </trkpt>
      <trkpt lat="45.62367" lon="-1.05079">
        <ele>0.13</ele>
        <time>2022-09-20T10:03:57.000Z</time>
      </trkpt>
      <trkpt lat="45.62385" lon="-1.05075">
        <ele>0.32</ele>
        <time>2022-09-20T10:04:02.000Z</time>
      </trkpt>
      <trkpt lat="45.62404" lon="-1.05067">
        <ele>-0.35</ele>
        <time>2022-09-20T10:04:07.000Z</time>
      </trkpt>
      <trkpt lat="45.62421" lon="-1.05058">
        <ele>-1.17</ele>
        <time>2022-09-20T10:04:12.000Z</time>
      </trkpt>
      <trkpt lat="45.62439" lon="-1.05048">
        <ele>-0.95</ele>
        <time>2022-09-20T10:04:17.000Z</time>
      </trkpt>
      <trkpt lat="45.62455" lon="-1.0504">
        <ele>-1.08</ele>
        <time>2022-09-20T10:04:22.000Z</time>
      </trkpt>
      <trkpt lat="45.62464" lon="-1.05036">
        <ele>-0.07</ele>
        <time>2022-09-20T10:04:27.000Z</time>
      </trkpt>
      <trkpt lat="45.62478" lon="-1.05041">
        <ele>0.29</ele>
        <time>2022-09-20T10:04:32.000Z</time>
      </trkpt>
      <trkpt lat="45.62493" lon="-1.05038">
        <ele>0.67</ele>
        <time>2022-09-20T10:04:37.000Z</time>
      </trkpt>
      <trkpt lat="45.62502" lon="-1.0503">
        <ele>1.16</ele>
        <time>2022-09-20T10:04:42.000Z</time>
      </trkpt>
      <trkpt lat="45.62515" lon="-1.05017">
        <ele>2.12</ele>
        <time>2022-09-20T10:04:47.000Z</time>
      </trkpt>
      <trkpt lat="45.62534" lon="-1.05">
        <ele>3.24</ele>
        <time>2022-09-20T10:04:52.000Z</time>
      </trkpt>
      <trkpt lat="45.62538" lon="-1.04986">
        <ele>3.4</ele>
        <time>2022-09-20T10:05:11.000Z</time>
      </trkpt>
      <trkpt lat="45.62548" lon="-1.04987">
        <ele>5.33</ele>
        <time>2022-09-20T10:07:42.000Z</time>
      </trkpt>
      <trkpt lat="45.62556" lon="-1.04974">
        <ele>5.4</ele>
        <time>2022-09-20T10:07:47.000Z</time>
      </trkpt>
      <trkpt lat="45.62572" lon="-1.04955">
        <ele>5.15</ele>
        <time>2022-09-20T10:07:52.000Z</time>
      </trkpt>
      <trkpt lat="45.62585" lon="-1.0494">
        <ele>5.26</ele>
        <time>2022-09-20T10:07:57.000Z</time>
      </trkpt>
      <trkpt lat="45.62597" lon="-1.04926">
        <ele>5.5</ele>
        <time>2022-09-20T10:08:02.000Z</time>
      </trkpt>
      <trkpt lat="45.62609" lon="-1.04914">
        <ele>5.3</ele>
        <time>2022-09-20T10:08:07.000Z</time>
      </trkpt>
      <trkpt lat="45.62624" lon="-1.04896">
        <ele>5.26</ele>
        <time>2022-09-20T10:08:12.000Z</time>
      </trkpt>
      <trkpt lat="45.62637" lon="-1.04873">
        <ele>5.14</ele>
        <time>2022-09-20T10:08:17.000Z</time>
      </trkpt>
      <trkpt lat="45.6265" lon="-1.04859">
        <ele>5.7</ele>
        <time>2022-09-20T10:08:22.000Z</time>
      </trkpt>
      <trkpt lat="45.6266" lon="-1.04847">
        <ele>6.64</ele>
        <time>2022-09-20T10:08:27.000Z</time>
      </trkpt>
      <trkpt lat="45.62672" lon="-1.04828">
        <ele>7.71</ele>
        <time>2022-09-20T10:08:32.000Z</time>
      </trkpt>
      <trkpt lat="45.62684" lon="-1.04809">
        <ele>8.63</ele>
        <time>2022-09-20T10:08:37.000Z</time>
      </trkpt>
      <trkpt lat="45.62694" lon="-1.04792">
        <ele>9.54</ele>
        <time>2022-09-20T10:08:42.000Z</time>
      </trkpt>
      <trkpt lat="45.62708" lon="-1.04771">
        <ele>10.24</ele>
        <time>2022-09-20T10:08:47.000Z</time>
      </trkpt>
      <trkpt lat="45.62722" lon="-1.04753">
        <ele>11.21</ele>
        <time>2022-09-20T10:08:52.000Z</time>
      </trkpt>
      <trkpt lat="45.62729" lon="-1.0474">
        <ele>12.66</ele>
        <time>2022-09-20T10:08:57.000Z</time>
      </trkpt>
      <trkpt lat="45.62726" lon="-1.04724">
        <ele>13.17</ele>
        <time>2022-09-20T10:09:02.000Z</time>
      </trkpt>
      <trkpt lat="45.62721" lon="-1.04704">
        <ele>13.86</ele>
        <time>2022-09-20T10:09:07.000Z</time>
      </trkpt>
      <trkpt lat="45.62714" lon="-1.04688">
        <ele>14.64</ele>
        <time>2022-09-20T10:09:12.000Z</time>
      </trkpt>
      <trkpt lat="45.62705" lon="-1.04675">
        <ele>15.27</ele>
        <time>2022-09-20T10:09:17.000Z</time>
      </trkpt>
      <trkpt lat="45.62699" lon="-1.04652">
        <ele>16.19</ele>
        <time>2022-09-20T10:09:22.000Z</time>
      </trkpt>
      <trkpt lat="45.62703" lon="-1.04638">
        <ele>18.34</ele>
        <time>2022-09-20T10:09:31.000Z</time>
      </trkpt>
      <trkpt lat="45.62711" lon="-1.04633">
        <ele>19.06</ele>
        <time>2022-09-20T10:09:39.000Z</time>
      </trkpt>
      <trkpt lat="45.62717" lon="-1.04621">
        <ele>19.46</ele>
        <time>2022-09-20T10:09:44.000Z</time>
      </trkpt>
      <trkpt lat="45.62726" lon="-1.04605">
        <ele>20.24</ele>
        <time>2022-09-20T10:09:49.000Z</time>
      </trkpt>
      <trkpt lat="45.62735" lon="-1.04588">
        <ele>20.87</ele>
        <time>2022-09-20T10:09:54.000Z</time>
      </trkpt>
      <trkpt lat="45.6275" lon="-1.04559">
        <ele>21.54</ele>
        <time>2022-09-20T10:09:59.000Z</time>
      </trkpt>
      <trkpt lat="45.6276" lon="-1.04547">
        <ele>21.77</ele>
        <time>2022-09-20T10:10:04.000Z</time>
      </trkpt>
      <trkpt lat="45.62771" lon="-1.04531">
        <ele>22.25</ele>
        <time>2022-09-20T10:10:09.000Z</time>
      </trkpt>
      <trkpt lat="45.62787" lon="-1.04513">
        <ele>22.47</ele>
        <time>2022-09-20T10:10:14.000Z</time>
      </trkpt>
      <trkpt lat="45.62802" lon="-1.04492">
        <ele>21.86</ele>
        <time>2022-09-20T10:10:19.000Z</time>
      </trkpt>
      <trkpt lat="45.62821" lon="-1.0447">
        <ele>22.24</ele>
        <time>2022-09-20T10:10:24.000Z</time>
      </trkpt>
      <trkpt lat="45.62839" lon="-1.04447">
        <ele>21.78</ele>
        <time>2022-09-20T10:10:29.000Z</time>
      </trkpt>
      <trkpt lat="45.62856" lon="-1.04426">
        <ele>20.66</ele>
        <time>2022-09-20T10:10:34.000Z</time>
      </trkpt>
      <trkpt lat="45.62873" lon="-1.04404">
        <ele>18.69</ele>
        <time>2022-09-20T10:10:39.000Z</time>
      </trkpt>
      <trkpt lat="45.6289" lon="-1.04381">
        <ele>16.48</ele>
        <time>2022-09-20T10:10:44.000Z</time>
      </trkpt>
      <trkpt lat="45.62907" lon="-1.04363">
        <ele>14.27</ele>
        <time>2022-09-20T10:10:49.000Z</time>
      </trkpt>
      <trkpt lat="45.62917" lon="-1.04352">
        <ele>13</ele>
        <time>2022-09-20T10:10:54.000Z</time>
      </trkpt>
      <trkpt lat="45.62926" lon="-1.04343">
        <ele>13.22</ele>
        <time>2022-09-20T10:11:08.000Z</time>
      </trkpt>
      <trkpt lat="45.62936" lon="-1.04326">
        <ele>12.93</ele>
        <time>2022-09-20T10:11:13.000Z</time>
      </trkpt>
      <trkpt lat="45.62951" lon="-1.043">
        <ele>13.09</ele>
        <time>2022-09-20T10:11:18.000Z</time>
      </trkpt>
      <trkpt lat="45.62967" lon="-1.04277">
        <ele>13.37</ele>
        <time>2022-09-20T10:11:23.000Z</time>
      </trkpt>
      <trkpt lat="45.62984" lon="-1.04258">
        <ele>13.67</ele>
        <time>2022-09-20T10:11:28.000Z</time>
      </trkpt>
      <trkpt lat="45.63001" lon="-1.04238">
        <ele>13.97</ele>
        <time>2022-09-20T10:11:33.000Z</time>
      </trkpt>
      <trkpt lat="45.63014" lon="-1.0422">
        <ele>14.07</ele>
        <time>2022-09-20T10:11:38.000Z</time>
      </trkpt>
      <trkpt lat="45.63021" lon="-1.04204">
        <ele>14.1</ele>
        <time>2022-09-20T10:11:43.000Z</time>
      </trkpt>
      <trkpt lat="45.63035" lon="-1.04185">
        <ele>14</ele>
        <time>2022-09-20T10:11:48.000Z</time>
      </trkpt>
      <trkpt lat="45.63047" lon="-1.04165">
        <ele>14.11</ele>
        <time>2022-09-20T10:11:53.000Z</time>
      </trkpt>
      <trkpt lat="45.63056" lon="-1.04148">
        <ele>14.94</ele>
        <time>2022-09-20T10:11:58.000Z</time>
      </trkpt>
      <trkpt lat="45.63068" lon="-1.0413">
        <ele>14.73</ele>
        <time>2022-09-20T10:12:03.000Z</time>
      </trkpt>
      <trkpt lat="45.63082" lon="-1.04108">
        <ele>14.34</ele>
        <time>2022-09-20T10:12:08.000Z</time>
      </trkpt>
      <trkpt lat="45.63098" lon="-1.04082">
        <ele>14.39</ele>
        <time>2022-09-20T10:12:13.000Z</time>
      </trkpt>
      <trkpt lat="45.63115" lon="-1.04056">
        <ele>14.67</ele>
        <time>2022-09-20T10:12:18.000Z</time>
      </trkpt>
      <trkpt lat="45.6313" lon="-1.04035">
        <ele>14.89</ele>
        <time>2022-09-20T10:12:23.000Z</time>
      </trkpt>
      <trkpt lat="45.6314" lon="-1.04019">
        <ele>15.27</ele>
        <time>2022-09-20T10:12:28.000Z</time>
      </trkpt>
      <trkpt lat="45.63158" lon="-1.03987">
        <ele>15.49</ele>
        <time>2022-09-20T10:12:33.000Z</time>
      </trkpt>
      <trkpt lat="45.63182" lon="-1.03954">
        <ele>15.31</ele>
        <time>2022-09-20T10:12:38.000Z</time>
      </trkpt>
      <trkpt lat="45.63205" lon="-1.03925">
        <ele>14.47</ele>
        <time>2022-09-20T10:12:43.000Z</time>
      </trkpt>
      <trkpt lat="45.63226" lon="-1.039">
        <ele>12.81</ele>
        <time>2022-09-20T10:12:48.000Z</time>
      </trkpt>
      <trkpt lat="45.63239" lon="-1.0388">
        <ele>12.63</ele>
        <time>2022-09-20T10:12:53.000Z</time>
      </trkpt>
      <trkpt lat="45.63253" lon="-1.03858">
        <ele>13.1</ele>
        <time>2022-09-20T10:12:58.000Z</time>
      </trkpt>
      <trkpt lat="45.63267" lon="-1.03837">
        <ele>12.66</ele>
        <time>2022-09-20T10:13:03.000Z</time>
      </trkpt>
      <trkpt lat="45.63282" lon="-1.03816">
        <ele>11.61</ele>
        <time>2022-09-20T10:13:08.000Z</time>
      </trkpt>
      <trkpt lat="45.63297" lon="-1.03793">
        <ele>9.69</ele>
        <time>2022-09-20T10:13:13.000Z</time>
      </trkpt>
      <trkpt lat="45.63311" lon="-1.03773">
        <ele>9.32</ele>
        <time>2022-09-20T10:13:18.000Z</time>
      </trkpt>
      <trkpt lat="45.63325" lon="-1.03752">
        <ele>9.41</ele>
        <time>2022-09-20T10:13:23.000Z</time>
      </trkpt>
      <trkpt lat="45.63338" lon="-1.03733">
        <ele>8.59</ele>
        <time>2022-09-20T10:13:28.000Z</time>
      </trkpt>
      <trkpt lat="45.63351" lon="-1.03715">
        <ele>7.93</ele>
        <time>2022-09-20T10:13:33.000Z</time>
      </trkpt>
      <trkpt lat="45.63364" lon="-1.03698">
        <ele>7.7</ele>
        <time>2022-09-20T10:13:38.000Z</time>
      </trkpt>
      <trkpt lat="45.63376" lon="-1.03681">
        <ele>9.23</ele>
        <time>2022-09-20T10:13:43.000Z</time>
      </trkpt>
      <trkpt lat="45.63388" lon="-1.03661">
        <ele>9.36</ele>
        <time>2022-09-20T10:13:48.000Z</time>
      </trkpt>
      <trkpt lat="45.63403" lon="-1.03639">
        <ele>10.54</ele>
        <time>2022-09-20T10:13:53.000Z</time>
      </trkpt>
      <trkpt lat="45.63417" lon="-1.03616">
        <ele>10.9</ele>
        <time>2022-09-20T10:13:58.000Z</time>
      </trkpt>
      <trkpt lat="45.6343" lon="-1.03594">
        <ele>11.15</ele>
        <time>2022-09-20T10:14:03.000Z</time>
      </trkpt>
      <trkpt lat="45.63439" lon="-1.03573">
        <ele>11.47</ele>
        <time>2022-09-20T10:14:08.000Z</time>
      </trkpt>
      <trkpt lat="45.63447" lon="-1.03561">
        <ele>11.88</ele>
        <time>2022-09-20T10:14:13.000Z</time>
      </trkpt>
      <trkpt lat="45.63455" lon="-1.03553">
        <ele>13.13</ele>
        <time>2022-09-20T10:14:18.000Z</time>
      </trkpt>
      <trkpt lat="45.6346" lon="-1.03541">
        <ele>15.07</ele>
        <time>2022-09-20T10:14:42.000Z</time>
      </trkpt>
      <trkpt lat="45.63471" lon="-1.0354">
        <ele>15.27</ele>
        <time>2022-09-20T10:14:47.000Z</time>
      </trkpt>
      <trkpt lat="45.63485" lon="-1.0353">
        <ele>15.3</ele>
        <time>2022-09-20T10:14:52.000Z</time>
      </trkpt>
      <trkpt lat="45.63505" lon="-1.03514">
        <ele>15.21</ele>
        <time>2022-09-20T10:14:57.000Z</time>
      </trkpt>
      <trkpt lat="45.6353" lon="-1.03504">
        <ele>15.24</ele>
        <time>2022-09-20T10:15:02.000Z</time>
      </trkpt>
      <trkpt lat="45.63556" lon="-1.03489">
        <ele>14.74</ele>
        <time>2022-09-20T10:15:07.000Z</time>
      </trkpt>
      <trkpt lat="45.6358" lon="-1.03475">
        <ele>14.5</ele>
        <time>2022-09-20T10:15:12.000Z</time>
      </trkpt>
      <trkpt lat="45.63605" lon="-1.03459">
        <ele>14.41</ele>
        <time>2022-09-20T10:15:17.000Z</time>
      </trkpt>
      <trkpt lat="45.63626" lon="-1.03444">
        <ele>14.21</ele>
        <time>2022-09-20T10:15:22.000Z</time>
      </trkpt>
      <trkpt lat="45.6365" lon="-1.03426">
        <ele>14.17</ele>
        <time>2022-09-20T10:15:27.000Z</time>
      </trkpt>
      <trkpt lat="45.63674" lon="-1.03403">
        <ele>15.35</ele>
        <time>2022-09-20T10:15:32.000Z</time>
      </trkpt>
      <trkpt lat="45.63697" lon="-1.03381">
        <ele>15.78</ele>
        <time>2022-09-20T10:15:37.000Z</time>
      </trkpt>
      <trkpt lat="45.6372" lon="-1.03357">
        <ele>15.87</ele>
        <time>2022-09-20T10:15:42.000Z</time>
      </trkpt>
      <trkpt lat="45.63744" lon="-1.03337">
        <ele>16.07</ele>
        <time>2022-09-20T10:15:47.000Z</time>
      </trkpt>
      <trkpt lat="45.63769" lon="-1.0332">
        <ele>16.27</ele>
        <time>2022-09-20T10:15:52.000Z</time>
      </trkpt>
      <trkpt lat="45.63789" lon="-1.03302">
        <ele>16.67</ele>
        <time>2022-09-20T10:15:57.000Z</time>
      </trkpt>
      <trkpt lat="45.63814" lon="-1.03279">
        <ele>16.94</ele>
        <time>2022-09-20T10:16:02.000Z</time>
      </trkpt>
      <trkpt lat="45.63837" lon="-1.03262">
        <ele>18.05</ele>
        <time>2022-09-20T10:16:07.000Z</time>
      </trkpt>
      <trkpt lat="45.63858" lon="-1.03248">
        <ele>19.39</ele>
        <time>2022-09-20T10:16:12.000Z</time>
      </trkpt>
      <trkpt lat="45.63882" lon="-1.03232">
        <ele>20.99</ele>
        <time>2022-09-20T10:16:17.000Z</time>
      </trkpt>
      <trkpt lat="45.63905" lon="-1.03218">
        <ele>21.79</ele>
        <time>2022-09-20T10:16:22.000Z</time>
      </trkpt>
      <trkpt lat="45.63923" lon="-1.03209">
        <ele>22.2</ele>
        <time>2022-09-20T10:16:27.000Z</time>
      </trkpt>
      <trkpt lat="45.63943" lon="-1.03197">
        <ele>21.82</ele>
        <time>2022-09-20T10:16:32.000Z</time>
      </trkpt>
      <trkpt lat="45.63967" lon="-1.03189">
        <ele>21.21</ele>
        <time>2022-09-20T10:16:37.000Z</time>
      </trkpt>
      <trkpt lat="45.6399" lon="-1.03182">
        <ele>18.68</ele>
        <time>2022-09-20T10:16:42.000Z</time>
      </trkpt>
      <trkpt lat="45.64017" lon="-1.03172">
        <ele>15.12</ele>
        <time>2022-09-20T10:16:47.000Z</time>
      </trkpt>
      <trkpt lat="45.6404" lon="-1.03157">
        <ele>14.43</ele>
        <time>2022-09-20T10:16:52.000Z</time>
      </trkpt>
      <trkpt lat="45.64057" lon="-1.03147">
        <ele>14.03</ele>
        <time>2022-09-20T10:16:57.000Z</time>
      </trkpt>
      <trkpt lat="45.6407" lon="-1.03139">
        <ele>13.87</ele>
        <time>2022-09-20T10:17:02.000Z</time>
      </trkpt>
      <trkpt lat="45.64081" lon="-1.03134">
        <ele>14.09</ele>
        <time>2022-09-20T10:17:07.000Z</time>
      </trkpt>
      <trkpt lat="45.64097" lon="-1.03129">
        <ele>14.65</ele>
        <time>2022-09-20T10:17:12.000Z</time>
      </trkpt>
      <trkpt lat="45.64116" lon="-1.03128">
        <ele>13.98</ele>
        <time>2022-09-20T10:17:17.000Z</time>
      </trkpt>
      <trkpt lat="45.64135" lon="-1.03128">
        <ele>12.79</ele>
        <time>2022-09-20T10:17:22.000Z</time>
      </trkpt>
      <trkpt lat="45.64153" lon="-1.03121">
        <ele>12.43</ele>
        <time>2022-09-20T10:17:27.000Z</time>
      </trkpt>
      <trkpt lat="45.64169" lon="-1.03111">
        <ele>14.13</ele>
        <time>2022-09-20T10:17:32.000Z</time>
      </trkpt>
      <trkpt lat="45.64186" lon="-1.03102">
        <ele>13.9</ele>
        <time>2022-09-20T10:17:37.000Z</time>
      </trkpt>
      <trkpt lat="45.64205" lon="-1.03099">
        <ele>13.99</ele>
        <time>2022-09-20T10:17:42.000Z</time>
      </trkpt>
      <trkpt lat="45.64221" lon="-1.03101">
        <ele>13.37</ele>
        <time>2022-09-20T10:17:47.000Z</time>
      </trkpt>
      <trkpt lat="45.64235" lon="-1.03096">
        <ele>17.37</ele>
        <time>2022-09-20T10:18:12.000Z</time>
      </trkpt>
      <trkpt lat="45.64241" lon="-1.03108">
        <ele>18.74</ele>
        <time>2022-09-20T10:18:17.000Z</time>
      </trkpt>
      <trkpt lat="45.64253" lon="-1.03127">
        <ele>20.71</ele>
        <time>2022-09-20T10:18:22.000Z</time>
      </trkpt>
      <trkpt lat="45.6427" lon="-1.03151">
        <ele>21.49</ele>
        <time>2022-09-20T10:18:27.000Z</time>
      </trkpt>
      <trkpt lat="45.64289" lon="-1.03173">
        <ele>21.92</ele>
        <time>2022-09-20T10:18:32.000Z</time>
      </trkpt>
      <trkpt lat="45.64309" lon="-1.03195">
        <ele>22.19</ele>
        <time>2022-09-20T10:18:37.000Z</time>
      </trkpt>
      <trkpt lat="45.64329" lon="-1.03216">
        <ele>21.14</ele>
        <time>2022-09-20T10:18:42.000Z</time>
      </trkpt>
      <trkpt lat="45.64349" lon="-1.03223">
        <ele>19.63</ele>
        <time>2022-09-20T10:18:47.000Z</time>
      </trkpt>
      <trkpt lat="45.6437" lon="-1.03217">
        <ele>19.11</ele>
        <time>2022-09-20T10:18:52.000Z</time>
      </trkpt>
      <trkpt lat="45.64389" lon="-1.03204">
        <ele>18.81</ele>
        <time>2022-09-20T10:18:57.000Z</time>
      </trkpt>
      <trkpt lat="45.64409" lon="-1.0318">
        <ele>16.5</ele>
        <time>2022-09-20T10:19:02.000Z</time>
      </trkpt>
      <trkpt lat="45.64421" lon="-1.03167">
        <ele>15.6</ele>
        <time>2022-09-20T10:19:07.000Z</time>
      </trkpt>
      <trkpt lat="45.64435" lon="-1.03151">
        <ele>16.31</ele>
        <time>2022-09-20T10:19:12.000Z</time>
      </trkpt>
      <trkpt lat="45.64453" lon="-1.03134">
        <ele>16.97</ele>
        <time>2022-09-20T10:19:17.000Z</time>
      </trkpt>
      <trkpt lat="45.64472" lon="-1.0313">
        <ele>17.15</ele>
        <time>2022-09-20T10:19:22.000Z</time>
      </trkpt>
      <trkpt lat="45.64496" lon="-1.03114">
        <ele>17.67</ele>
        <time>2022-09-20T10:19:27.000Z</time>
      </trkpt>
      <trkpt lat="45.6451" lon="-1.0309">
        <ele>18.93</ele>
        <time>2022-09-20T10:19:32.000Z</time>
      </trkpt>
      <trkpt lat="45.64525" lon="-1.03066">
        <ele>19.69</ele>
        <time>2022-09-20T10:19:37.000Z</time>
      </trkpt>
      <trkpt lat="45.64534" lon="-1.03063">
        <ele>18.45</ele>
        <time>2022-09-20T10:19:59.000Z</time>
      </trkpt>
      <trkpt lat="45.64552" lon="-1.03073">
        <ele>18.57</ele>
        <time>2022-09-20T10:20:04.000Z</time>
      </trkpt>
      <trkpt lat="45.64571" lon="-1.03085">
        <ele>18.67</ele>
        <time>2022-09-20T10:20:09.000Z</time>
      </trkpt>
      <trkpt lat="45.64585" lon="-1.0311">
        <ele>18.77</ele>
        <time>2022-09-20T10:20:14.000Z</time>
      </trkpt>
      <trkpt lat="45.6459" lon="-1.03131">
        <ele>18.9</ele>
        <time>2022-09-20T10:20:19.000Z</time>
      </trkpt>
      <trkpt lat="45.6461" lon="-1.03161">
        <ele>19.22</ele>
        <time>2022-09-20T10:20:24.000Z</time>
      </trkpt>
      <trkpt lat="45.64632" lon="-1.03183">
        <ele>19.22</ele>
        <time>2022-09-20T10:20:29.000Z</time>
      </trkpt>
      <trkpt lat="45.64652" lon="-1.03204">
        <ele>18.93</ele>
        <time>2022-09-20T10:20:34.000Z</time>
      </trkpt>
      <trkpt lat="45.64676" lon="-1.03222">
        <ele>18.86</ele>
        <time>2022-09-20T10:20:39.000Z</time>
      </trkpt>
      <trkpt lat="45.64705" lon="-1.03228">
        <ele>18.9</ele>
        <time>2022-09-20T10:20:44.000Z</time>
      </trkpt>
      <trkpt lat="45.64734" lon="-1.03232">
        <ele>19.26</ele>
        <time>2022-09-20T10:20:49.000Z</time>
      </trkpt>
      <trkpt lat="45.64759" lon="-1.03249">
        <ele>19.28</ele>
        <time>2022-09-20T10:20:54.000Z</time>
      </trkpt>
      <trkpt lat="45.64774" lon="-1.03278">
        <ele>20.17</ele>
        <time>2022-09-20T10:20:59.000Z</time>
      </trkpt>
      <trkpt lat="45.64786" lon="-1.03312">
        <ele>19.78</ele>
        <time>2022-09-20T10:21:04.000Z</time>
      </trkpt>
      <trkpt lat="45.64797" lon="-1.03347">
        <ele>19.9</ele>
        <time>2022-09-20T10:21:09.000Z</time>
      </trkpt>
      <trkpt lat="45.64807" lon="-1.03379">
        <ele>19.9</ele>
        <time>2022-09-20T10:21:14.000Z</time>
      </trkpt>
      <trkpt lat="45.64819" lon="-1.03408">
        <ele>19.85</ele>
        <time>2022-09-20T10:21:19.000Z</time>
      </trkpt>
      <trkpt lat="45.64834" lon="-1.03408">
        <ele>19.53</ele>
        <time>2022-09-20T10:21:24.000Z</time>
      </trkpt>
      <trkpt lat="45.64849" lon="-1.03387">
        <ele>19.13</ele>
        <time>2022-09-20T10:21:29.000Z</time>
      </trkpt>
      <trkpt lat="45.64858" lon="-1.03357">
        <ele>19.37</ele>
        <time>2022-09-20T10:21:34.000Z</time>
      </trkpt>
      <trkpt lat="45.6487" lon="-1.03337">
        <ele>18.95</ele>
        <time>2022-09-20T10:21:39.000Z</time>
      </trkpt>
      <trkpt lat="45.64883" lon="-1.03318">
        <ele>17.64</ele>
        <time>2022-09-20T10:21:44.000Z</time>
      </trkpt>
      <trkpt lat="45.64895" lon="-1.03297">
        <ele>16.67</ele>
        <time>2022-09-20T10:21:49.000Z</time>
      </trkpt>
      <trkpt lat="45.64906" lon="-1.03277">
        <ele>17.14</ele>
        <time>2022-09-20T10:21:54.000Z</time>
      </trkpt>
      <trkpt lat="45.64918" lon="-1.03255">
        <ele>18.23</ele>
        <time>2022-09-20T10:21:59.000Z</time>
      </trkpt>
      <trkpt lat="45.64934" lon="-1.03241">
        <ele>18.58</ele>
        <time>2022-09-20T10:22:04.000Z</time>
      </trkpt>
      <trkpt lat="45.64952" lon="-1.03228">
        <ele>19.61</ele>
        <time>2022-09-20T10:22:09.000Z</time>
      </trkpt>
      <trkpt lat="45.6497" lon="-1.03215">
        <ele>20.76</ele>
        <time>2022-09-20T10:22:14.000Z</time>
      </trkpt>
      <trkpt lat="45.64987" lon="-1.03202">
        <ele>22.23</ele>
        <time>2022-09-20T10:22:19.000Z</time>
      </trkpt>
      <trkpt lat="45.64998" lon="-1.03194">
        <ele>23.23</ele>
        <time>2022-09-20T10:22:24.000Z</time>
      </trkpt>
      <trkpt lat="45.64988" lon="-1.03196">
        <ele>25.93</ele>
        <time>2022-09-20T10:22:35.000Z</time>
      </trkpt>
      <trkpt lat="45.64998" lon="-1.03187">
        <ele>27.04</ele>
        <time>2022-09-20T10:22:43.000Z</time>
      </trkpt>
      <trkpt lat="45.65007" lon="-1.03169">
        <ele>26.65</ele>
        <time>2022-09-20T10:22:48.000Z</time>
      </trkpt>
      <trkpt lat="45.6502" lon="-1.03141">
        <ele>26.04</ele>
        <time>2022-09-20T10:22:53.000Z</time>
      </trkpt>
      <trkpt lat="45.65028" lon="-1.03114">
        <ele>26.19</ele>
        <time>2022-09-20T10:22:58.000Z</time>
      </trkpt>
      <trkpt lat="45.65037" lon="-1.03085">
        <ele>26.12</ele>
        <time>2022-09-20T10:23:03.000Z</time>
      </trkpt>
      <trkpt lat="45.65053" lon="-1.03062">
        <ele>26.27</ele>
        <time>2022-09-20T10:23:08.000Z</time>
      </trkpt>
      <trkpt lat="45.65065" lon="-1.03043">
        <ele>25.9</ele>
        <time>2022-09-20T10:23:13.000Z</time>
      </trkpt>
      <trkpt lat="45.65074" lon="-1.03026">
        <ele>25.92</ele>
        <time>2022-09-20T10:23:18.000Z</time>
      </trkpt>
      <trkpt lat="45.65082" lon="-1.03005">
        <ele>25.8</ele>
        <time>2022-09-20T10:23:23.000Z</time>
      </trkpt>
      <trkpt lat="45.65087" lon="-1.02971">
        <ele>23.36</ele>
        <time>2022-09-20T10:23:28.000Z</time>
      </trkpt>
      <trkpt lat="45.6509" lon="-1.02946">
        <ele>22.16</ele>
        <time>2022-09-20T10:23:33.000Z</time>
      </trkpt>
      <trkpt lat="45.6509" lon="-1.02927">
        <ele>20.51</ele>
        <time>2022-09-20T10:23:38.000Z</time>
      </trkpt>
      <trkpt lat="45.65091" lon="-1.02904">
        <ele>20.86</ele>
        <time>2022-09-20T10:23:43.000Z</time>
      </trkpt>
      <trkpt lat="45.65092" lon="-1.02878">
        <ele>19.96</ele>
        <time>2022-09-20T10:23:48.000Z</time>
      </trkpt>
      <trkpt lat="45.65089" lon="-1.02847">
        <ele>19.68</ele>
        <time>2022-09-20T10:23:53.000Z</time>
      </trkpt>
      <trkpt lat="45.65088" lon="-1.0282">
        <ele>20.08</ele>
        <time>2022-09-20T10:23:58.000Z</time>
      </trkpt>
      <trkpt lat="45.65092" lon="-1.02792">
        <ele>20.7</ele>
        <time>2022-09-20T10:24:03.000Z</time>
      </trkpt>
      <trkpt lat="45.651" lon="-1.02768">
        <ele>20.68</ele>
        <time>2022-09-20T10:24:08.000Z</time>
      </trkpt>
      <trkpt lat="45.6511" lon="-1.02747">
        <ele>21.31</ele>
        <time>2022-09-20T10:24:13.000Z</time>
      </trkpt>
      <trkpt lat="45.65119" lon="-1.02727">
        <ele>21.92</ele>
        <time>2022-09-20T10:24:18.000Z</time>
      </trkpt>
      <trkpt lat="45.65128" lon="-1.02703">
        <ele>21.36</ele>
        <time>2022-09-20T10:24:23.000Z</time>
      </trkpt>
      <trkpt lat="45.65138" lon="-1.02682">
        <ele>21.57</ele>
        <time>2022-09-20T10:24:28.000Z</time>
      </trkpt>
      <trkpt lat="45.65145" lon="-1.02662">
        <ele>22.06</ele>
        <time>2022-09-20T10:24:33.000Z</time>
      </trkpt>
      <trkpt lat="45.65153" lon="-1.02641">
        <ele>22.2</ele>
        <time>2022-09-20T10:24:38.000Z</time>
      </trkpt>
      <trkpt lat="45.65162" lon="-1.0262">
        <ele>22.22</ele>
        <time>2022-09-20T10:24:43.000Z</time>
      </trkpt>
      <trkpt lat="45.65168" lon="-1.02592">
        <ele>22.3</ele>
        <time>2022-09-20T10:24:48.000Z</time>
      </trkpt>
      <trkpt lat="45.65169" lon="-1.02565">
        <ele>22.37</ele>
        <time>2022-09-20T10:24:53.000Z</time>
      </trkpt>
      <trkpt lat="45.65169" lon="-1.02537">
        <ele>22.22</ele>
        <time>2022-09-20T10:24:58.000Z</time>
      </trkpt>
      <trkpt lat="45.65165" lon="-1.02506">
        <ele>21.27</ele>
        <time>2022-09-20T10:25:03.000Z</time>
      </trkpt>
      <trkpt lat="45.6516" lon="-1.02476">
        <ele>21.13</ele>
        <time>2022-09-20T10:25:08.000Z</time>
      </trkpt>
      <trkpt lat="45.65158" lon="-1.02449">
        <ele>21.22</ele>
        <time>2022-09-20T10:25:13.000Z</time>
      </trkpt>
      <trkpt lat="45.65155" lon="-1.02419">
        <ele>21.29</ele>
        <time>2022-09-20T10:25:18.000Z</time>
      </trkpt>
      <trkpt lat="45.65155" lon="-1.0239">
        <ele>21.49</ele>
        <time>2022-09-20T10:25:23.000Z</time>
      </trkpt>
      <trkpt lat="45.6516" lon="-1.02374">
        <ele>21.87</ele>
        <time>2022-09-20T10:25:28.000Z</time>
      </trkpt>
      <trkpt lat="45.65173" lon="-1.02368">
        <ele>22.17</ele>
        <time>2022-09-20T10:25:33.000Z</time>
      </trkpt>
      <trkpt lat="45.65191" lon="-1.02358">
        <ele>22.57</ele>
        <time>2022-09-20T10:25:38.000Z</time>
      </trkpt>
      <trkpt lat="45.65204" lon="-1.02351">
        <ele>22.97</ele>
        <time>2022-09-20T10:25:43.000Z</time>
      </trkpt>
      <trkpt lat="45.65213" lon="-1.0235">
        <ele>24.27</ele>
        <time>2022-09-20T10:25:56.000Z</time>
      </trkpt>
      <trkpt lat="45.65226" lon="-1.02347">
        <ele>25.47</ele>
        <time>2022-09-20T10:26:17.000Z</time>
      </trkpt>
      <trkpt lat="45.6525" lon="-1.02331">
        <ele>25.87</ele>
        <time>2022-09-20T10:26:22.000Z</time>
      </trkpt>
      <trkpt lat="45.65272" lon="-1.02321">
        <ele>26.09</ele>
        <time>2022-09-20T10:26:27.000Z</time>
      </trkpt>
      <trkpt lat="45.65294" lon="-1.02312">
        <ele>26.29</ele>
        <time>2022-09-20T10:26:32.000Z</time>
      </trkpt>
      <trkpt lat="45.65318" lon="-1.02307">
        <ele>26.59</ele>
        <time>2022-09-20T10:26:37.000Z</time>
      </trkpt>
      <trkpt lat="45.65337" lon="-1.02298">
        <ele>26.5</ele>
        <time>2022-09-20T10:26:42.000Z</time>
      </trkpt>
      <trkpt lat="45.6536" lon="-1.02301">
        <ele>26.38</ele>
        <time>2022-09-20T10:26:47.000Z</time>
      </trkpt>
      <trkpt lat="45.65391" lon="-1.02301">
        <ele>26</ele>
        <time>2022-09-20T10:26:52.000Z</time>
      </trkpt>
      <trkpt lat="45.65413" lon="-1.02299">
        <ele>25.74</ele>
        <time>2022-09-20T10:26:57.000Z</time>
      </trkpt>
      <trkpt lat="45.65434" lon="-1.02297">
        <ele>24.64</ele>
        <time>2022-09-20T10:27:02.000Z</time>
      </trkpt>
      <trkpt lat="45.65456" lon="-1.02296">
        <ele>24.91</ele>
        <time>2022-09-20T10:27:07.000Z</time>
      </trkpt>
      <trkpt lat="45.6548" lon="-1.02296">
        <ele>24.33</ele>
        <time>2022-09-20T10:27:12.000Z</time>
      </trkpt>
      <trkpt lat="45.65504" lon="-1.02294">
        <ele>23.35</ele>
        <time>2022-09-20T10:27:17.000Z</time>
      </trkpt>
      <trkpt lat="45.65527" lon="-1.02294">
        <ele>23</ele>
        <time>2022-09-20T10:27:22.000Z</time>
      </trkpt>
      <trkpt lat="45.65551" lon="-1.02293">
        <ele>21.65</ele>
        <time>2022-09-20T10:27:27.000Z</time>
      </trkpt>
      <trkpt lat="45.65575" lon="-1.02292">
        <ele>21.36</ele>
        <time>2022-09-20T10:27:32.000Z</time>
      </trkpt>
      <trkpt lat="45.65598" lon="-1.02289">
        <ele>21.81</ele>
        <time>2022-09-20T10:27:37.000Z</time>
      </trkpt>
      <trkpt lat="45.65621" lon="-1.02284">
        <ele>26</ele>
        <time>2022-09-20T10:27:42.000Z</time>
      </trkpt>
      <trkpt lat="45.65646" lon="-1.02277">
        <ele>26.47</ele>
        <time>2022-09-20T10:27:47.000Z</time>
      </trkpt>
      <trkpt lat="45.6567" lon="-1.02269">
        <ele>24.67</ele>
        <time>2022-09-20T10:27:52.000Z</time>
      </trkpt>
      <trkpt lat="45.6569" lon="-1.02257">
        <ele>24.18</ele>
        <time>2022-09-20T10:27:57.000Z</time>
      </trkpt>
      <trkpt lat="45.65713" lon="-1.02242">
        <ele>24.94</ele>
        <time>2022-09-20T10:28:02.000Z</time>
      </trkpt>
      <trkpt lat="45.65732" lon="-1.02223">
        <ele>24.78</ele>
        <time>2022-09-20T10:28:07.000Z</time>
      </trkpt>
      <trkpt lat="45.6575" lon="-1.02203">
        <ele>24.56</ele>
        <time>2022-09-20T10:28:12.000Z</time>
      </trkpt>
      <trkpt lat="45.65771" lon="-1.02181">
        <ele>23.74</ele>
        <time>2022-09-20T10:28:17.000Z</time>
      </trkpt>
      <trkpt lat="45.65791" lon="-1.02161">
        <ele>24.09</ele>
        <time>2022-09-20T10:28:22.000Z</time>
      </trkpt>
      <trkpt lat="45.6581" lon="-1.02144">
        <ele>25.17</ele>
        <time>2022-09-20T10:28:27.000Z</time>
      </trkpt>
      <trkpt lat="45.65821" lon="-1.02131">
        <ele>25.56</ele>
        <time>2022-09-20T10:28:32.000Z</time>
      </trkpt>
      <trkpt lat="45.65834" lon="-1.02112">
        <ele>26.34</ele>
        <time>2022-09-20T10:28:37.000Z</time>
      </trkpt>
      <trkpt lat="45.65854" lon="-1.0209">
        <ele>27.43</ele>
        <time>2022-09-20T10:28:42.000Z</time>
      </trkpt>
      <trkpt lat="45.65873" lon="-1.02066">
        <ele>28.53</ele>
        <time>2022-09-20T10:28:47.000Z</time>
      </trkpt>
      <trkpt lat="45.65893" lon="-1.02043">
        <ele>29.2</ele>
        <time>2022-09-20T10:28:52.000Z</time>
      </trkpt>
      <trkpt lat="45.65916" lon="-1.02018">
        <ele>29.07</ele>
        <time>2022-09-20T10:28:57.000Z</time>
      </trkpt>
      <trkpt lat="45.65938" lon="-1.01993">
        <ele>29.4</ele>
        <time>2022-09-20T10:29:02.000Z</time>
      </trkpt>
      <trkpt lat="45.65962" lon="-1.01967">
        <ele>29.28</ele>
        <time>2022-09-20T10:29:07.000Z</time>
      </trkpt>
      <trkpt lat="45.65985" lon="-1.01942">
        <ele>29.96</ele>
        <time>2022-09-20T10:29:12.000Z</time>
      </trkpt>
      <trkpt lat="45.66008" lon="-1.01919">
        <ele>30.83</ele>
        <time>2022-09-20T10:29:17.000Z</time>
      </trkpt>
      <trkpt lat="45.6603" lon="-1.01897">
        <ele>31.66</ele>
        <time>2022-09-20T10:29:22.000Z</time>
      </trkpt>
      <trkpt lat="45.66052" lon="-1.01869">
        <ele>32.63</ele>
        <time>2022-09-20T10:29:27.000Z</time>
      </trkpt>
      <trkpt lat="45.66066" lon="-1.01846">
        <ele>33.63</ele>
        <time>2022-09-20T10:29:32.000Z</time>
      </trkpt>
      <trkpt lat="45.6609" lon="-1.01827">
        <ele>34.54</ele>
        <time>2022-09-20T10:29:37.000Z</time>
      </trkpt>
      <trkpt lat="45.66108" lon="-1.01802">
        <ele>35.26</ele>
        <time>2022-09-20T10:29:42.000Z</time>
      </trkpt>
      <trkpt lat="45.66126" lon="-1.01771">
        <ele>35.44</ele>
        <time>2022-09-20T10:29:47.000Z</time>
      </trkpt>
      <trkpt lat="45.66155" lon="-1.01748">
        <ele>33.57</ele>
        <time>2022-09-20T10:29:52.000Z</time>
      </trkpt>
      <trkpt lat="45.66178" lon="-1.01717">
        <ele>32.93</ele>
        <time>2022-09-20T10:29:57.000Z</time>
      </trkpt>
      <trkpt lat="45.66204" lon="-1.01687">
        <ele>32.34</ele>
        <time>2022-09-20T10:30:02.000Z</time>
      </trkpt>
      <trkpt lat="45.6623" lon="-1.01658">
        <ele>31.42</ele>
        <time>2022-09-20T10:30:07.000Z</time>
      </trkpt>
      <trkpt lat="45.66256" lon="-1.01627">
        <ele>30.21</ele>
        <time>2022-09-20T10:30:12.000Z</time>
      </trkpt>
      <trkpt lat="45.6628" lon="-1.016">
        <ele>28.94</ele>
        <time>2022-09-20T10:30:17.000Z</time>
      </trkpt>
      <trkpt lat="45.66303" lon="-1.01575">
        <ele>26.61</ele>
        <time>2022-09-20T10:30:22.000Z</time>
      </trkpt>
      <trkpt lat="45.66323" lon="-1.01551">
        <ele>26.13</ele>
        <time>2022-09-20T10:30:27.000Z</time>
      </trkpt>
      <trkpt lat="45.66349" lon="-1.01524">
        <ele>25.54</ele>
        <time>2022-09-20T10:30:32.000Z</time>
      </trkpt>
      <trkpt lat="45.66375" lon="-1.01494">
        <ele>23.87</ele>
        <time>2022-09-20T10:30:37.000Z</time>
      </trkpt>
      <trkpt lat="45.66392" lon="-1.01467">
        <ele>22.33</ele>
        <time>2022-09-20T10:30:42.000Z</time>
      </trkpt>
      <trkpt lat="45.66409" lon="-1.01441">
        <ele>20.83</ele>
        <time>2022-09-20T10:30:47.000Z</time>
      </trkpt>
      <trkpt lat="45.66426" lon="-1.01415">
        <ele>18.15</ele>
        <time>2022-09-20T10:30:52.000Z</time>
      </trkpt>
      <trkpt lat="45.66447" lon="-1.01385">
        <ele>14.69</ele>
        <time>2022-09-20T10:30:57.000Z</time>
      </trkpt>
      <trkpt lat="45.66463" lon="-1.01357">
        <ele>13.17</ele>
        <time>2022-09-20T10:31:02.000Z</time>
      </trkpt>
      <trkpt lat="45.66481" lon="-1.01328">
        <ele>12.46</ele>
        <time>2022-09-20T10:31:07.000Z</time>
      </trkpt>
      <trkpt lat="45.665" lon="-1.013">
        <ele>11.94</ele>
        <time>2022-09-20T10:31:12.000Z</time>
      </trkpt>
      <trkpt lat="45.66513" lon="-1.01275">
        <ele>11.15</ele>
        <time>2022-09-20T10:31:17.000Z</time>
      </trkpt>
      <trkpt lat="45.66517" lon="-1.01263">
        <ele>10.07</ele>
        <time>2022-09-20T10:31:22.000Z</time>
      </trkpt>
      <trkpt lat="45.66519" lon="-1.01238">
        <ele>9.05</ele>
        <time>2022-09-20T10:31:27.000Z</time>
      </trkpt>
      <trkpt lat="45.66533" lon="-1.01222">
        <ele>7.29</ele>
        <time>2022-09-20T10:31:32.000Z</time>
      </trkpt>
      <trkpt lat="45.66548" lon="-1.01229">
        <ele>8.07</ele>
        <time>2022-09-20T10:31:37.000Z</time>
      </trkpt>
      <trkpt lat="45.66558" lon="-1.01243">
        <ele>8.63</ele>
        <time>2022-09-20T10:31:42.000Z</time>
      </trkpt>
      <trkpt lat="45.66567" lon="-1.01252">
        <ele>9.46</ele>
        <time>2022-09-20T10:32:11.000Z</time>
      </trkpt>
      <trkpt lat="45.66582" lon="-1.01258">
        <ele>8.47</ele>
        <time>2022-09-20T10:32:16.000Z</time>
      </trkpt>
      <trkpt lat="45.66602" lon="-1.01253">
        <ele>7.27</ele>
        <time>2022-09-20T10:32:21.000Z</time>
      </trkpt>
      <trkpt lat="45.6662" lon="-1.01257">
        <ele>5.29</ele>
        <time>2022-09-20T10:32:26.000Z</time>
      </trkpt>
      <trkpt lat="45.66642" lon="-1.01249">
        <ele>3.77</ele>
        <time>2022-09-20T10:32:31.000Z</time>
      </trkpt>
      <trkpt lat="45.66663" lon="-1.01241">
        <ele>2.66</ele>
        <time>2022-09-20T10:32:36.000Z</time>
      </trkpt>
      <trkpt lat="45.66683" lon="-1.01234">
        <ele>2.1</ele>
        <time>2022-09-20T10:32:41.000Z</time>
      </trkpt>
      <trkpt lat="45.66705" lon="-1.01226">
        <ele>1.75</ele>
        <time>2022-09-20T10:32:46.000Z</time>
      </trkpt>
      <trkpt lat="45.66727" lon="-1.0122">
        <ele>0.46</ele>
        <time>2022-09-20T10:32:51.000Z</time>
      </trkpt>
      <trkpt lat="45.66744" lon="-1.01216">
        <ele>-0.3</ele>
        <time>2022-09-20T10:32:56.000Z</time>
      </trkpt>
      <trkpt lat="45.66761" lon="-1.01213">
        <ele>-0.59</ele>
        <time>2022-09-20T10:33:01.000Z</time>
      </trkpt>
      <trkpt lat="45.6678" lon="-1.01205">
        <ele>-0.07</ele>
        <time>2022-09-20T10:33:06.000Z</time>
      </trkpt>
      <trkpt lat="45.66797" lon="-1.01205">
        <ele>14</ele>
        <time>2022-09-20T10:33:11.000Z</time>
      </trkpt>
      <trkpt lat="45.6681" lon="-1.01206">
        <ele>0.97</ele>
        <time>2022-09-20T10:33:16.000Z</time>
      </trkpt>
      <trkpt lat="45.66821" lon="-1.01203">
        <ele>1.88</ele>
        <time>2022-09-20T10:33:21.000Z</time>
      </trkpt>
      <trkpt lat="45.66835" lon="-1.01196">
        <ele>4.04</ele>
        <time>2022-09-20T10:33:26.000Z</time>
      </trkpt>
      <trkpt lat="45.66858" lon="-1.01186">
        <ele>4.41</ele>
        <time>2022-09-20T10:33:31.000Z</time>
      </trkpt>
      <trkpt lat="45.66878" lon="-1.01178">
        <ele>3.75</ele>
        <time>2022-09-20T10:33:36.000Z</time>
      </trkpt>
      <trkpt lat="45.66897" lon="-1.01171">
        <ele>2.97</ele>
        <time>2022-09-20T10:33:41.000Z</time>
      </trkpt>
      <trkpt lat="45.66914" lon="-1.01158">
        <ele>3.64</ele>
        <time>2022-09-20T10:33:46.000Z</time>
      </trkpt>
      <trkpt lat="45.66933" lon="-1.01153">
        <ele>4.25</ele>
        <time>2022-09-20T10:33:51.000Z</time>
      </trkpt>
      <trkpt lat="45.66951" lon="-1.01144">
        <ele>4.6</ele>
        <time>2022-09-20T10:33:56.000Z</time>
      </trkpt>
      <trkpt lat="45.66965" lon="-1.01132">
        <ele>3.92</ele>
        <time>2022-09-20T10:34:01.000Z</time>
      </trkpt>
      <trkpt lat="45.66981" lon="-1.01124">
        <ele>3.53</ele>
        <time>2022-09-20T10:34:06.000Z</time>
      </trkpt>
      <trkpt lat="45.66995" lon="-1.01112">
        <ele>3.47</ele>
        <time>2022-09-20T10:34:11.000Z</time>
      </trkpt>
      <trkpt lat="45.67012" lon="-1.01104">
        <ele>2.75</ele>
        <time>2022-09-20T10:34:16.000Z</time>
      </trkpt>
      <trkpt lat="45.6703" lon="-1.01096">
        <ele>2.47</ele>
        <time>2022-09-20T10:34:21.000Z</time>
      </trkpt>
      <trkpt lat="45.67049" lon="-1.01091">
        <ele>1.97</ele>
        <time>2022-09-20T10:34:26.000Z</time>
      </trkpt>
      <trkpt lat="45.67069" lon="-1.01082">
        <ele>1.23</ele>
        <time>2022-09-20T10:34:31.000Z</time>
      </trkpt>
      <trkpt lat="45.67089" lon="-1.01079">
        <ele>1.52</ele>
        <time>2022-09-20T10:34:36.000Z</time>
      </trkpt>
      <trkpt lat="45.67107" lon="-1.01075">
        <ele>1.26</ele>
        <time>2022-09-20T10:34:41.000Z</time>
      </trkpt>
      <trkpt lat="45.67124" lon="-1.01071">
        <ele>0.74</ele>
        <time>2022-09-20T10:34:46.000Z</time>
      </trkpt>
      <trkpt lat="45.67142" lon="-1.01065">
        <ele>2.45</ele>
        <time>2022-09-20T10:34:51.000Z</time>
      </trkpt>
      <trkpt lat="45.67161" lon="-1.01058">
        <ele>2.97</ele>
        <time>2022-09-20T10:34:56.000Z</time>
      </trkpt>
      <trkpt lat="45.67177" lon="-1.01052">
        <ele>4.57</ele>
        <time>2022-09-20T10:35:01.000Z</time>
      </trkpt>
      <trkpt lat="45.67197" lon="-1.01053">
        <ele>4.73</ele>
        <time>2022-09-20T10:35:06.000Z</time>
      </trkpt>
      <trkpt lat="45.67215" lon="-1.01059">
        <ele>7.68</ele>
        <time>2022-09-20T10:35:11.000Z</time>
      </trkpt>
      <trkpt lat="45.67231" lon="-1.01067">
        <ele>7.98</ele>
        <time>2022-09-20T10:35:16.000Z</time>
      </trkpt>
      <trkpt lat="45.67249" lon="-1.01073">
        <ele>6.17</ele>
        <time>2022-09-20T10:35:21.000Z</time>
      </trkpt>
      <trkpt lat="45.67266" lon="-1.01079">
        <ele>5.69</ele>
        <time>2022-09-20T10:35:26.000Z</time>
      </trkpt>
      <trkpt lat="45.67283" lon="-1.01084">
        <ele>5.34</ele>
        <time>2022-09-20T10:35:31.000Z</time>
      </trkpt>
      <trkpt lat="45.67298" lon="-1.01077">
        <ele>4.53</ele>
        <time>2022-09-20T10:35:36.000Z</time>
      </trkpt>
      <trkpt lat="45.67315" lon="-1.0107">
        <ele>5.03</ele>
        <time>2022-09-20T10:35:41.000Z</time>
      </trkpt>
      <trkpt lat="45.67329" lon="-1.01058">
        <ele>6.1</ele>
        <time>2022-09-20T10:35:46.000Z</time>
      </trkpt>
      <trkpt lat="45.67344" lon="-1.01047">
        <ele>6.29</ele>
        <time>2022-09-20T10:35:51.000Z</time>
      </trkpt>
      <trkpt lat="45.6736" lon="-1.01036">
        <ele>6.57</ele>
        <time>2022-09-20T10:35:56.000Z</time>
      </trkpt>
      <trkpt lat="45.67372" lon="-1.01024">
        <ele>6.68</ele>
        <time>2022-09-20T10:36:01.000Z</time>
      </trkpt>
      <trkpt lat="45.67379" lon="-1.01016">
        <ele>8.11</ele>
        <time>2022-09-20T10:36:15.000Z</time>
      </trkpt>
      <trkpt lat="45.6737" lon="-1.01004">
        <ele>7.05</ele>
        <time>2022-09-20T10:36:54.000Z</time>
      </trkpt>
      <trkpt lat="45.67379" lon="-1.01005">
        <ele>3.68</ele>
        <time>2022-09-20T10:45:37.000Z</time>
      </trkpt>
      <trkpt lat="45.6737" lon="-1.01008">
        <ele>5.57</ele>
        <time>2022-09-20T10:46:17.000Z</time>
      </trkpt>
      <trkpt lat="45.6736" lon="-1.01011">
        <ele>-3.45</ele>
        <time>2022-09-20T11:01:20.000Z</time>
      </trkpt>
      <trkpt lat="45.67367" lon="-1.01019">
        <ele>-8.5</ele>
        <time>2022-09-20T11:03:37.000Z</time>
      </trkpt>
      <trkpt lat="45.67372" lon="-1.01031">
        <ele>-0.88</ele>
        <time>2022-09-20T11:06:38.000Z</time>
      </trkpt>
      <trkpt lat="45.67365" lon="-1.01044">
        <ele>-1</ele>
        <time>2022-09-20T11:06:43.000Z</time>
      </trkpt>
      <trkpt lat="45.6735" lon="-1.01051">
        <ele>-1.2</ele>
        <time>2022-09-20T11:06:48.000Z</time>
      </trkpt>
      <trkpt lat="45.67334" lon="-1.01065">
        <ele>-1.22</ele>
        <time>2022-09-20T11:06:53.000Z</time>
      </trkpt>
      <trkpt lat="45.67315" lon="-1.01077">
        <ele>-1.34</ele>
        <time>2022-09-20T11:06:58.000Z</time>
      </trkpt>
      <trkpt lat="45.67297" lon="-1.01087">
        <ele>-1.05</ele>
        <time>2022-09-20T11:07:03.000Z</time>
      </trkpt>
      <trkpt lat="45.67282" lon="-1.01095">
        <ele>0.57</ele>
        <time>2022-09-20T11:07:08.000Z</time>
      </trkpt>
      <trkpt lat="45.67272" lon="-1.01098">
        <ele>6.31</ele>
        <time>2022-09-20T11:07:28.000Z</time>
      </trkpt>
      <trkpt lat="45.67263" lon="-1.01106">
        <ele>6.84</ele>
        <time>2022-09-20T11:07:33.000Z</time>
      </trkpt>
      <trkpt lat="45.67252" lon="-1.0111">
        <ele>7.1</ele>
        <time>2022-09-20T11:07:38.000Z</time>
      </trkpt>
      <trkpt lat="45.67243" lon="-1.01108">
        <ele>6.93</ele>
        <time>2022-09-20T11:07:45.000Z</time>
      </trkpt>
      <trkpt lat="45.67234" lon="-1.01112">
        <ele>6.06</ele>
        <time>2022-09-20T11:07:52.000Z</time>
      </trkpt>
      <trkpt lat="45.67244" lon="-1.01111">
        <ele>7.11</ele>
        <time>2022-09-20T11:08:27.000Z</time>
      </trkpt>
      <trkpt lat="45.67256" lon="-1.01103">
        <ele>7.08</ele>
        <time>2022-09-20T11:08:32.000Z</time>
      </trkpt>
      <trkpt lat="45.67267" lon="-1.01094">
        <ele>7.27</ele>
        <time>2022-09-20T11:08:37.000Z</time>
      </trkpt>
      <trkpt lat="45.6728" lon="-1.01085">
        <ele>7.3</ele>
        <time>2022-09-20T11:08:42.000Z</time>
      </trkpt>
      <trkpt lat="45.67299" lon="-1.01078">
        <ele>7.2</ele>
        <time>2022-09-20T11:08:47.000Z</time>
      </trkpt>
      <trkpt lat="45.67316" lon="-1.01068">
        <ele>7.1</ele>
        <time>2022-09-20T11:08:52.000Z</time>
      </trkpt>
      <trkpt lat="45.67334" lon="-1.01054">
        <ele>7.3</ele>
        <time>2022-09-20T11:08:57.000Z</time>
      </trkpt>
      <trkpt lat="45.67353" lon="-1.01038">
        <ele>7.3</ele>
        <time>2022-09-20T11:09:02.000Z</time>
      </trkpt>
      <trkpt lat="45.67372" lon="-1.01021">
        <ele>7.42</ele>
        <time>2022-09-20T11:09:07.000Z</time>
      </trkpt>
      <trkpt lat="45.67387" lon="-1.00997">
        <ele>7.3</ele>
        <time>2022-09-20T11:09:12.000Z</time>
      </trkpt>
      <trkpt lat="45.67409" lon="-1.0097">
        <ele>6.71</ele>
        <time>2022-09-20T11:09:17.000Z</time>
      </trkpt>
      <trkpt lat="45.67427" lon="-1.00947">
        <ele>6.6</ele>
        <time>2022-09-20T11:09:22.000Z</time>
      </trkpt>
      <trkpt lat="45.67442" lon="-1.00923">
        <ele>6.43</ele>
        <time>2022-09-20T11:09:27.000Z</time>
      </trkpt>
      <trkpt lat="45.67454" lon="-1.00889">
        <ele>5.68</ele>
        <time>2022-09-20T11:09:32.000Z</time>
      </trkpt>
      <trkpt lat="45.67466" lon="-1.00854">
        <ele>5.3</ele>
        <time>2022-09-20T11:09:37.000Z</time>
      </trkpt>
      <trkpt lat="45.67474" lon="-1.00822">
        <ele>5.01</ele>
        <time>2022-09-20T11:09:42.000Z</time>
      </trkpt>
      <trkpt lat="45.67476" lon="-1.00787">
        <ele>4.71</ele>
        <time>2022-09-20T11:09:47.000Z</time>
      </trkpt>
      <trkpt lat="45.67483" lon="-1.00752">
        <ele>4.06</ele>
        <time>2022-09-20T11:09:52.000Z</time>
      </trkpt>
      <trkpt lat="45.67496" lon="-1.00728">
        <ele>3.82</ele>
        <time>2022-09-20T11:09:57.000Z</time>
      </trkpt>
      <trkpt lat="45.67511" lon="-1.00708">
        <ele>3.63</ele>
        <time>2022-09-20T11:10:02.000Z</time>
      </trkpt>
      <trkpt lat="45.67528" lon="-1.00692">
        <ele>3.33</ele>
        <time>2022-09-20T11:10:07.000Z</time>
      </trkpt>
      <trkpt lat="45.67552" lon="-1.00678">
        <ele>4.81</ele>
        <time>2022-09-20T11:10:12.000Z</time>
      </trkpt>
      <trkpt lat="45.67577" lon="-1.00659">
        <ele>5.04</ele>
        <time>2022-09-20T11:10:17.000Z</time>
      </trkpt>
      <trkpt lat="45.67601" lon="-1.00634">
        <ele>4.76</ele>
        <time>2022-09-20T11:10:22.000Z</time>
      </trkpt>
      <trkpt lat="45.6762" lon="-1.00606">
        <ele>3.5</ele>
        <time>2022-09-20T11:10:27.000Z</time>
      </trkpt>
      <trkpt lat="45.67639" lon="-1.00576">
        <ele>2.74</ele>
        <time>2022-09-20T11:10:32.000Z</time>
      </trkpt>
      <trkpt lat="45.67658" lon="-1.00546">
        <ele>2.13</ele>
        <time>2022-09-20T11:10:37.000Z</time>
      </trkpt>
      <trkpt lat="45.67676" lon="-1.00515">
        <ele>1.36</ele>
        <time>2022-09-20T11:10:42.000Z</time>
      </trkpt>
      <trkpt lat="45.67695" lon="-1.00493">
        <ele>0.94</ele>
        <time>2022-09-20T11:10:47.000Z</time>
      </trkpt>
      <trkpt lat="45.67712" lon="-1.00469">
        <ele>1.49</ele>
        <time>2022-09-20T11:10:52.000Z</time>
      </trkpt>
      <trkpt lat="45.67728" lon="-1.00446">
        <ele>2.34</ele>
        <time>2022-09-20T11:10:57.000Z</time>
      </trkpt>
      <trkpt lat="45.67744" lon="-1.0042">
        <ele>2.9</ele>
        <time>2022-09-20T11:11:02.000Z</time>
      </trkpt>
      <trkpt lat="45.67761" lon="-1.00397">
        <ele>3.39</ele>
        <time>2022-09-20T11:11:07.000Z</time>
      </trkpt>
      <trkpt lat="45.67778" lon="-1.00373">
        <ele>4.31</ele>
        <time>2022-09-20T11:11:12.000Z</time>
      </trkpt>
      <trkpt lat="45.67794" lon="-1.00349">
        <ele>3.17</ele>
        <time>2022-09-20T11:11:17.000Z</time>
      </trkpt>
      <trkpt lat="45.67809" lon="-1.00326">
        <ele>2.05</ele>
        <time>2022-09-20T11:11:22.000Z</time>
      </trkpt>
      <trkpt lat="45.67822" lon="-1.00304">
        <ele>2.14</ele>
        <time>2022-09-20T11:11:27.000Z</time>
      </trkpt>
      <trkpt lat="45.67836" lon="-1.00278">
        <ele>2.98</ele>
        <time>2022-09-20T11:11:32.000Z</time>
      </trkpt>
      <trkpt lat="45.67849" lon="-1.00251">
        <ele>4.06</ele>
        <time>2022-09-20T11:11:37.000Z</time>
      </trkpt>
      <trkpt lat="45.67862" lon="-1.00223">
        <ele>3.61</ele>
        <time>2022-09-20T11:11:42.000Z</time>
      </trkpt>
      <trkpt lat="45.67871" lon="-1.00196">
        <ele>1.88</ele>
        <time>2022-09-20T11:11:47.000Z</time>
      </trkpt>
      <trkpt lat="45.67879" lon="-1.0017">
        <ele>1.07</ele>
        <time>2022-09-20T11:11:52.000Z</time>
      </trkpt>
      <trkpt lat="45.67886" lon="-1.00144">
        <ele>0.46</ele>
        <time>2022-09-20T11:11:57.000Z</time>
      </trkpt>
      <trkpt lat="45.67892" lon="-1.00121">
        <ele>-0.37</ele>
        <time>2022-09-20T11:12:02.000Z</time>
      </trkpt>
      <trkpt lat="45.67898" lon="-1.00098">
        <ele>0.17</ele>
        <time>2022-09-20T11:12:07.000Z</time>
      </trkpt>
      <trkpt lat="45.67904" lon="-1.00076">
        <ele>0.47</ele>
        <time>2022-09-20T11:12:12.000Z</time>
      </trkpt>
      <trkpt lat="45.67913" lon="-1.00058">
        <ele>0.87</ele>
        <time>2022-09-20T11:12:17.000Z</time>
      </trkpt>
      <trkpt lat="45.67922" lon="-1.00043">
        <ele>1.17</ele>
        <time>2022-09-20T11:12:22.000Z</time>
      </trkpt>
      <trkpt lat="45.67937" lon="-1.00022">
        <ele>2.07</ele>
        <time>2022-09-20T11:12:27.000Z</time>
      </trkpt>
      <trkpt lat="45.6795" lon="-1.00008">
        <ele>1.46</ele>
        <time>2022-09-20T11:12:32.000Z</time>
      </trkpt>
      <trkpt lat="45.67964" lon="-0.99996">
        <ele>1.1</ele>
        <time>2022-09-20T11:12:37.000Z</time>
      </trkpt>
      <trkpt lat="45.67979" lon="-0.99983">
        <ele>1.07</ele>
        <time>2022-09-20T11:12:42.000Z</time>
      </trkpt>
      <trkpt lat="45.67993" lon="-0.9997">
        <ele>1.63</ele>
        <time>2022-09-20T11:12:47.000Z</time>
      </trkpt>
      <trkpt lat="45.68007" lon="-0.99956">
        <ele>2.35</ele>
        <time>2022-09-20T11:12:52.000Z</time>
      </trkpt>
      <trkpt lat="45.68019" lon="-0.99945">
        <ele>2.52</ele>
        <time>2022-09-20T11:12:57.000Z</time>
      </trkpt>
      <trkpt lat="45.68032" lon="-0.99932">
        <ele>2.73</ele>
        <time>2022-09-20T11:13:02.000Z</time>
      </trkpt>
      <trkpt lat="45.68045" lon="-0.9992">
        <ele>2.05</ele>
        <time>2022-09-20T11:13:07.000Z</time>
      </trkpt>
      <trkpt lat="45.68059" lon="-0.99908">
        <ele>2.15</ele>
        <time>2022-09-20T11:13:12.000Z</time>
      </trkpt>
      <trkpt lat="45.68072" lon="-0.99895">
        <ele>2.16</ele>
        <time>2022-09-20T11:13:17.000Z</time>
      </trkpt>
      <trkpt lat="45.68087" lon="-0.99881">
        <ele>2.84</ele>
        <time>2022-09-20T11:13:22.000Z</time>
      </trkpt>
      <trkpt lat="45.68103" lon="-0.9987">
        <ele>3.17</ele>
        <time>2022-09-20T11:13:27.000Z</time>
      </trkpt>
      <trkpt lat="45.68123" lon="-0.99866">
        <ele>4.69</ele>
        <time>2022-09-20T11:13:32.000Z</time>
      </trkpt>
      <trkpt lat="45.68143" lon="-0.99865">
        <ele>4.05</ele>
        <time>2022-09-20T11:13:37.000Z</time>
      </trkpt>
      <trkpt lat="45.68165" lon="-0.99864">
        <ele>4.48</ele>
        <time>2022-09-20T11:13:42.000Z</time>
      </trkpt>
      <trkpt lat="45.68186" lon="-0.99863">
        <ele>4.63</ele>
        <time>2022-09-20T11:13:47.000Z</time>
      </trkpt>
      <trkpt lat="45.68207" lon="-0.99864">
        <ele>5.98</ele>
        <time>2022-09-20T11:13:52.000Z</time>
      </trkpt>
      <trkpt lat="45.6823" lon="-0.99864">
        <ele>7.27</ele>
        <time>2022-09-20T11:13:57.000Z</time>
      </trkpt>
      <trkpt lat="45.68253" lon="-0.99867">
        <ele>7.97</ele>
        <time>2022-09-20T11:14:02.000Z</time>
      </trkpt>
      <trkpt lat="45.68276" lon="-0.99882">
        <ele>6.21</ele>
        <time>2022-09-20T11:14:07.000Z</time>
      </trkpt>
      <trkpt lat="45.68296" lon="-0.99898">
        <ele>6.1</ele>
        <time>2022-09-20T11:14:12.000Z</time>
      </trkpt>
      <trkpt lat="45.68316" lon="-0.99911">
        <ele>4.31</ele>
        <time>2022-09-20T11:14:17.000Z</time>
      </trkpt>
      <trkpt lat="45.68335" lon="-0.99906">
        <ele>3.25</ele>
        <time>2022-09-20T11:14:22.000Z</time>
      </trkpt>
      <trkpt lat="45.68341" lon="-0.99885">
        <ele>0.29</ele>
        <time>2022-09-20T11:14:27.000Z</time>
      </trkpt>
      <trkpt lat="45.68334" lon="-0.9986">
        <ele>-0.03</ele>
        <time>2022-09-20T11:14:32.000Z</time>
      </trkpt>
      <trkpt lat="45.68335" lon="-0.99828">
        <ele>0.03</ele>
        <time>2022-09-20T11:14:37.000Z</time>
      </trkpt>
      <trkpt lat="45.68349" lon="-0.99806">
        <ele>0.54</ele>
        <time>2022-09-20T11:14:42.000Z</time>
      </trkpt>
      <trkpt lat="45.68369" lon="-0.99806">
        <ele>1.03</ele>
        <time>2022-09-20T11:14:47.000Z</time>
      </trkpt>
      <trkpt lat="45.68389" lon="-0.99817">
        <ele>0.91</ele>
        <time>2022-09-20T11:14:52.000Z</time>
      </trkpt>
      <trkpt lat="45.6841" lon="-0.99825">
        <ele>1.1</ele>
        <time>2022-09-20T11:14:57.000Z</time>
      </trkpt>
      <trkpt lat="45.68431" lon="-0.99828">
        <ele>-0.18</ele>
        <time>2022-09-20T11:15:02.000Z</time>
      </trkpt>
      <trkpt lat="45.68441" lon="-0.9983">
        <ele>0.5</ele>
        <time>2022-09-20T11:15:43.000Z</time>
      </trkpt>
      <trkpt lat="45.68456" lon="-0.99836">
        <ele>1.25</ele>
        <time>2022-09-20T11:15:48.000Z</time>
      </trkpt>
      <trkpt lat="45.68479" lon="-0.99846">
        <ele>1.51</ele>
        <time>2022-09-20T11:15:53.000Z</time>
      </trkpt>
      <trkpt lat="45.68505" lon="-0.99856">
        <ele>2.22</ele>
        <time>2022-09-20T11:15:58.000Z</time>
      </trkpt>
      <trkpt lat="45.68534" lon="-0.99865">
        <ele>3.5</ele>
        <time>2022-09-20T11:16:03.000Z</time>
      </trkpt>
      <trkpt lat="45.68562" lon="-0.99874">
        <ele>2.32</ele>
        <time>2022-09-20T11:16:08.000Z</time>
      </trkpt>
      <trkpt lat="45.68592" lon="-0.99885">
        <ele>0.35</ele>
        <time>2022-09-20T11:16:13.000Z</time>
      </trkpt>
      <trkpt lat="45.68623" lon="-0.99893">
        <ele>-1.12</ele>
        <time>2022-09-20T11:16:18.000Z</time>
      </trkpt>
      <trkpt lat="45.68655" lon="-0.99901">
        <ele>0.1</ele>
        <time>2022-09-20T11:16:23.000Z</time>
      </trkpt>
      <trkpt lat="45.68685" lon="-0.99903">
        <ele>-0.49</ele>
        <time>2022-09-20T11:16:28.000Z</time>
      </trkpt>
      <trkpt lat="45.68717" lon="-0.99903">
        <ele>1.16</ele>
        <time>2022-09-20T11:16:33.000Z</time>
      </trkpt>
      <trkpt lat="45.68747" lon="-0.999">
        <ele>1.98</ele>
        <time>2022-09-20T11:16:38.000Z</time>
      </trkpt>
      <trkpt lat="45.68776" lon="-0.99895">
        <ele>4.47</ele>
        <time>2022-09-20T11:16:43.000Z</time>
      </trkpt>
      <trkpt lat="45.68804" lon="-0.99884">
        <ele>7.88</ele>
        <time>2022-09-20T11:16:48.000Z</time>
      </trkpt>
      <trkpt lat="45.68831" lon="-0.99871">
        <ele>9.67</ele>
        <time>2022-09-20T11:16:53.000Z</time>
      </trkpt>
      <trkpt lat="45.68858" lon="-0.99855">
        <ele>9.92</ele>
        <time>2022-09-20T11:16:58.000Z</time>
      </trkpt>
      <trkpt lat="45.68889" lon="-0.99832">
        <ele>10.73</ele>
        <time>2022-09-20T11:17:03.000Z</time>
      </trkpt>
      <trkpt lat="45.6892" lon="-0.99801">
        <ele>11.46</ele>
        <time>2022-09-20T11:17:08.000Z</time>
      </trkpt>
      <trkpt lat="45.68952" lon="-0.99775">
        <ele>11.6</ele>
        <time>2022-09-20T11:17:13.000Z</time>
      </trkpt>
      <trkpt lat="45.6898" lon="-0.99747">
        <ele>9.73</ele>
        <time>2022-09-20T11:17:18.000Z</time>
      </trkpt>
      <trkpt lat="45.69004" lon="-0.99719">
        <ele>9.31</ele>
        <time>2022-09-20T11:17:23.000Z</time>
      </trkpt>
      <trkpt lat="45.69028" lon="-0.99694">
        <ele>5</ele>
        <time>2022-09-20T11:17:28.000Z</time>
      </trkpt>
      <trkpt lat="45.69053" lon="-0.9967">
        <ele>1.61</ele>
        <time>2022-09-20T11:17:33.000Z</time>
      </trkpt>
      <trkpt lat="45.69076" lon="-0.99647">
        <ele>-0.34</ele>
        <time>2022-09-20T11:17:38.000Z</time>
      </trkpt>
      <trkpt lat="45.69099" lon="-0.99628">
        <ele>-1.43</ele>
        <time>2022-09-20T11:17:43.000Z</time>
      </trkpt>
      <trkpt lat="45.69122" lon="-0.99608">
        <ele>-3.66</ele>
        <time>2022-09-20T11:17:48.000Z</time>
      </trkpt>
      <trkpt lat="45.69147" lon="-0.99586">
        <ele>-6.27</ele>
        <time>2022-09-20T11:17:53.000Z</time>
      </trkpt>
      <trkpt lat="45.69169" lon="-0.99568">
        <ele>-7.75</ele>
        <time>2022-09-20T11:17:58.000Z</time>
      </trkpt>
      <trkpt lat="45.69192" lon="-0.99548">
        <ele>-8.01</ele>
        <time>2022-09-20T11:18:03.000Z</time>
      </trkpt>
      <trkpt lat="45.69214" lon="-0.99529">
        <ele>-9.1</ele>
        <time>2022-09-20T11:18:08.000Z</time>
      </trkpt>
      <trkpt lat="45.69236" lon="-0.9951">
        <ele>-9.2</ele>
        <time>2022-09-20T11:18:13.000Z</time>
      </trkpt>
      <trkpt lat="45.69258" lon="-0.99494">
        <ele>-8.87</ele>
        <time>2022-09-20T11:18:18.000Z</time>
      </trkpt>
      <trkpt lat="45.69279" lon="-0.99477">
        <ele>-9.68</ele>
        <time>2022-09-20T11:18:23.000Z</time>
      </trkpt>
      <trkpt lat="45.693" lon="-0.99458">
        <ele>-9.13</ele>
        <time>2022-09-20T11:18:28.000Z</time>
      </trkpt>
      <trkpt lat="45.6932" lon="-0.9944">
        <ele>-9.53</ele>
        <time>2022-09-20T11:18:33.000Z</time>
      </trkpt>
      <trkpt lat="45.6934" lon="-0.9942">
        <ele>-8.03</ele>
        <time>2022-09-20T11:18:38.000Z</time>
      </trkpt>
      <trkpt lat="45.6936" lon="-0.99401">
        <ele>-6.86</ele>
        <time>2022-09-20T11:18:43.000Z</time>
      </trkpt>
      <trkpt lat="45.69379" lon="-0.99382">
        <ele>-6.37</ele>
        <time>2022-09-20T11:18:48.000Z</time>
      </trkpt>
      <trkpt lat="45.69398" lon="-0.99363">
        <ele>-5.59</ele>
        <time>2022-09-20T11:18:53.000Z</time>
      </trkpt>
      <trkpt lat="45.69415" lon="-0.99343">
        <ele>-4.28</ele>
        <time>2022-09-20T11:18:58.000Z</time>
      </trkpt>
      <trkpt lat="45.69432" lon="-0.99324">
        <ele>-2.35</ele>
        <time>2022-09-20T11:19:03.000Z</time>
      </trkpt>
      <trkpt lat="45.69449" lon="-0.99304">
        <ele>-0.92</ele>
        <time>2022-09-20T11:19:08.000Z</time>
      </trkpt>
      <trkpt lat="45.69468" lon="-0.99284">
        <ele>-0.88</ele>
        <time>2022-09-20T11:19:13.000Z</time>
      </trkpt>
      <trkpt lat="45.69487" lon="-0.99264">
        <ele>-0.84</ele>
        <time>2022-09-20T11:19:18.000Z</time>
      </trkpt>
      <trkpt lat="45.69508" lon="-0.99245">
        <ele>-1.68</ele>
        <time>2022-09-20T11:19:23.000Z</time>
      </trkpt>
      <trkpt lat="45.69528" lon="-0.99226">
        <ele>-2.29</ele>
        <time>2022-09-20T11:19:28.000Z</time>
      </trkpt>
      <trkpt lat="45.6955" lon="-0.99209">
        <ele>-2.55</ele>
        <time>2022-09-20T11:19:33.000Z</time>
      </trkpt>
      <trkpt lat="45.6957" lon="-0.99191">
        <ele>-3.04</ele>
        <time>2022-09-20T11:19:38.000Z</time>
      </trkpt>
      <trkpt lat="45.69591" lon="-0.99173">
        <ele>-3.35</ele>
        <time>2022-09-20T11:19:43.000Z</time>
      </trkpt>
      <trkpt lat="45.69613" lon="-0.99155">
        <ele>-4.9</ele>
        <time>2022-09-20T11:19:48.000Z</time>
      </trkpt>
      <trkpt lat="45.69635" lon="-0.99137">
        <ele>-5.61</ele>
        <time>2022-09-20T11:19:53.000Z</time>
      </trkpt>
      <trkpt lat="45.69655" lon="-0.99118">
        <ele>-6.21</ele>
        <time>2022-09-20T11:19:58.000Z</time>
      </trkpt>
      <trkpt lat="45.69674" lon="-0.99102">
        <ele>-6.7</ele>
        <time>2022-09-20T11:20:03.000Z</time>
      </trkpt>
      <trkpt lat="45.69693" lon="-0.99085">
        <ele>-7.15</ele>
        <time>2022-09-20T11:20:08.000Z</time>
      </trkpt>
      <trkpt lat="45.69711" lon="-0.99069">
        <ele>-7.27</ele>
        <time>2022-09-20T11:20:13.000Z</time>
      </trkpt>
      <trkpt lat="45.69727" lon="-0.99052">
        <ele>-6.64</ele>
        <time>2022-09-20T11:20:18.000Z</time>
      </trkpt>
      <trkpt lat="45.69741" lon="-0.99033">
        <ele>-6.28</ele>
        <time>2022-09-20T11:20:23.000Z</time>
      </trkpt>
      <trkpt lat="45.69754" lon="-0.99011">
        <ele>-6.92</ele>
        <time>2022-09-20T11:20:28.000Z</time>
      </trkpt>
      <trkpt lat="45.69765" lon="-0.98991">
        <ele>-5.9</ele>
        <time>2022-09-20T11:20:33.000Z</time>
      </trkpt>
      <trkpt lat="45.69777" lon="-0.98969">
        <ele>-5.42</ele>
        <time>2022-09-20T11:20:38.000Z</time>
      </trkpt>
      <trkpt lat="45.69789" lon="-0.98947">
        <ele>-6.62</ele>
        <time>2022-09-20T11:20:43.000Z</time>
      </trkpt>
      <trkpt lat="45.69801" lon="-0.98925">
        <ele>-6.02</ele>
        <time>2022-09-20T11:20:48.000Z</time>
      </trkpt>
      <trkpt lat="45.69814" lon="-0.98902">
        <ele>-3.69</ele>
        <time>2022-09-20T11:20:53.000Z</time>
      </trkpt>
      <trkpt lat="45.69827" lon="-0.98876">
        <ele>-2.49</ele>
        <time>2022-09-20T11:20:58.000Z</time>
      </trkpt>
      <trkpt lat="45.6984" lon="-0.98855">
        <ele>-4.6</ele>
        <time>2022-09-20T11:21:03.000Z</time>
      </trkpt>
      <trkpt lat="45.69853" lon="-0.98831">
        <ele>-6.35</ele>
        <time>2022-09-20T11:21:08.000Z</time>
      </trkpt>
      <trkpt lat="45.69865" lon="-0.98807">
        <ele>-6.92</ele>
        <time>2022-09-20T11:21:13.000Z</time>
      </trkpt>
      <trkpt lat="45.6988" lon="-0.98785">
        <ele>-4.69</ele>
        <time>2022-09-20T11:21:18.000Z</time>
      </trkpt>
      <trkpt lat="45.69894" lon="-0.98764">
        <ele>-3.31</ele>
        <time>2022-09-20T11:21:23.000Z</time>
      </trkpt>
      <trkpt lat="45.69909" lon="-0.98743">
        <ele>-2.25</ele>
        <time>2022-09-20T11:21:28.000Z</time>
      </trkpt>
      <trkpt lat="45.69926" lon="-0.98723">
        <ele>-1.86</ele>
        <time>2022-09-20T11:21:33.000Z</time>
      </trkpt>
      <trkpt lat="45.69943" lon="-0.98703">
        <ele>-1.79</ele>
        <time>2022-09-20T11:21:38.000Z</time>
      </trkpt>
      <trkpt lat="45.6996" lon="-0.9868">
        <ele>-1.7</ele>
        <time>2022-09-20T11:21:43.000Z</time>
      </trkpt>
      <trkpt lat="45.69976" lon="-0.9866">
        <ele>-4.07</ele>
        <time>2022-09-20T11:21:48.000Z</time>
      </trkpt>
      <trkpt lat="45.69994" lon="-0.98638">
        <ele>-6.54</ele>
        <time>2022-09-20T11:21:53.000Z</time>
      </trkpt>
      <trkpt lat="45.7001" lon="-0.98616">
        <ele>-7.94</ele>
        <time>2022-09-20T11:21:58.000Z</time>
      </trkpt>
      <trkpt lat="45.70027" lon="-0.98595">
        <ele>-8.52</ele>
        <time>2022-09-20T11:22:03.000Z</time>
      </trkpt>
      <trkpt lat="45.70043" lon="-0.98573">
        <ele>-8.6</ele>
        <time>2022-09-20T11:22:08.000Z</time>
      </trkpt>
      <trkpt lat="45.70059" lon="-0.98551">
        <ele>-6.56</ele>
        <time>2022-09-20T11:22:13.000Z</time>
      </trkpt>
      <trkpt lat="45.70073" lon="-0.98531">
        <ele>-5.2</ele>
        <time>2022-09-20T11:22:18.000Z</time>
      </trkpt>
      <trkpt lat="45.70087" lon="-0.98512">
        <ele>-4.13</ele>
        <time>2022-09-20T11:22:23.000Z</time>
      </trkpt>
      <trkpt lat="45.701" lon="-0.98491">
        <ele>-3.73</ele>
        <time>2022-09-20T11:22:28.000Z</time>
      </trkpt>
      <trkpt lat="45.70112" lon="-0.98467">
        <ele>-4.76</ele>
        <time>2022-09-20T11:22:33.000Z</time>
      </trkpt>
      <trkpt lat="45.70126" lon="-0.98443">
        <ele>-5.67</ele>
        <time>2022-09-20T11:22:38.000Z</time>
      </trkpt>
      <trkpt lat="45.70139" lon="-0.98418">
        <ele>-5.46</ele>
        <time>2022-09-20T11:22:43.000Z</time>
      </trkpt>
      <trkpt lat="45.70152" lon="-0.98394">
        <ele>-5.97</ele>
        <time>2022-09-20T11:22:48.000Z</time>
      </trkpt>
      <trkpt lat="45.70165" lon="-0.98369">
        <ele>-8.21</ele>
        <time>2022-09-20T11:22:53.000Z</time>
      </trkpt>
      <trkpt lat="45.70176" lon="-0.98344">
        <ele>-7.94</ele>
        <time>2022-09-20T11:22:58.000Z</time>
      </trkpt>
      <trkpt lat="45.70186" lon="-0.9832">
        <ele>-7.43</ele>
        <time>2022-09-20T11:23:03.000Z</time>
      </trkpt>
      <trkpt lat="45.70193" lon="-0.98298">
        <ele>-8.29</ele>
        <time>2022-09-20T11:23:08.000Z</time>
      </trkpt>
      <trkpt lat="45.70199" lon="-0.98274">
        <ele>-8.05</ele>
        <time>2022-09-20T11:23:13.000Z</time>
      </trkpt>
      <trkpt lat="45.70208" lon="-0.98246">
        <ele>-8.27</ele>
        <time>2022-09-20T11:23:18.000Z</time>
      </trkpt>
      <trkpt lat="45.70218" lon="-0.98219">
        <ele>-5.13</ele>
        <time>2022-09-20T11:23:23.000Z</time>
      </trkpt>
      <trkpt lat="45.70227" lon="-0.98193">
        <ele>-3.05</ele>
        <time>2022-09-20T11:23:28.000Z</time>
      </trkpt>
      <trkpt lat="45.70234" lon="-0.98162">
        <ele>-0.69</ele>
        <time>2022-09-20T11:23:33.000Z</time>
      </trkpt>
      <trkpt lat="45.70242" lon="-0.98134">
        <ele>-0.23</ele>
        <time>2022-09-20T11:23:38.000Z</time>
      </trkpt>
      <trkpt lat="45.70249" lon="-0.98107">
        <ele>1.54</ele>
        <time>2022-09-20T11:23:43.000Z</time>
      </trkpt>
      <trkpt lat="45.70258" lon="-0.9808">
        <ele>3.37</ele>
        <time>2022-09-20T11:23:48.000Z</time>
      </trkpt>
      <trkpt lat="45.70267" lon="-0.98053">
        <ele>5.66</ele>
        <time>2022-09-20T11:23:53.000Z</time>
      </trkpt>
      <trkpt lat="45.70274" lon="-0.98025">
        <ele>7.74</ele>
        <time>2022-09-20T11:23:58.000Z</time>
      </trkpt>
      <trkpt lat="45.70284" lon="-0.98">
        <ele>9.69</ele>
        <time>2022-09-20T11:24:03.000Z</time>
      </trkpt>
      <trkpt lat="45.70295" lon="-0.97972">
        <ele>11.37</ele>
        <time>2022-09-20T11:24:08.000Z</time>
      </trkpt>
      <trkpt lat="45.70306" lon="-0.97944">
        <ele>13</ele>
        <time>2022-09-20T11:24:13.000Z</time>
      </trkpt>
      <trkpt lat="45.70312" lon="-0.97915">
        <ele>13.1</ele>
        <time>2022-09-20T11:24:18.000Z</time>
      </trkpt>
      <trkpt lat="45.7032" lon="-0.97886">
        <ele>13.68</ele>
        <time>2022-09-20T11:24:23.000Z</time>
      </trkpt>
      <trkpt lat="45.70326" lon="-0.9786">
        <ele>12.64</ele>
        <time>2022-09-20T11:24:28.000Z</time>
      </trkpt>
      <trkpt lat="45.70332" lon="-0.97835">
        <ele>12.96</ele>
        <time>2022-09-20T11:24:33.000Z</time>
      </trkpt>
      <trkpt lat="45.70338" lon="-0.97806">
        <ele>14.18</ele>
        <time>2022-09-20T11:24:38.000Z</time>
      </trkpt>
      <trkpt lat="45.70339" lon="-0.9778">
        <ele>15.7</ele>
        <time>2022-09-20T11:24:43.000Z</time>
      </trkpt>
      <trkpt lat="45.70345" lon="-0.97759">
        <ele>14.54</ele>
        <time>2022-09-20T11:24:48.000Z</time>
      </trkpt>
      <trkpt lat="45.70356" lon="-0.97737">
        <ele>14.63</ele>
        <time>2022-09-20T11:24:53.000Z</time>
      </trkpt>
      <trkpt lat="45.70364" lon="-0.97711">
        <ele>16.08</ele>
        <time>2022-09-20T11:24:58.000Z</time>
      </trkpt>
      <trkpt lat="45.70373" lon="-0.97686">
        <ele>17.36</ele>
        <time>2022-09-20T11:25:03.000Z</time>
      </trkpt>
      <trkpt lat="45.70384" lon="-0.97662">
        <ele>18.69</ele>
        <time>2022-09-20T11:25:08.000Z</time>
      </trkpt>
      <trkpt lat="45.70395" lon="-0.9764">
        <ele>20.4</ele>
        <time>2022-09-20T11:25:13.000Z</time>
      </trkpt>
      <trkpt lat="45.70404" lon="-0.97623">
        <ele>21.9</ele>
        <time>2022-09-20T11:25:18.000Z</time>
      </trkpt>
      <trkpt lat="45.70428" lon="-0.97581">
        <ele>20.95</ele>
        <time>2022-09-20T11:25:23.000Z</time>
      </trkpt>
      <trkpt lat="45.70443" lon="-0.97547">
        <ele>18.95</ele>
        <time>2022-09-20T11:25:28.000Z</time>
      </trkpt>
      <trkpt lat="45.70454" lon="-0.97519">
        <ele>16.62</ele>
        <time>2022-09-20T11:25:33.000Z</time>
      </trkpt>
      <trkpt lat="45.70469" lon="-0.97495">
        <ele>13.39</ele>
        <time>2022-09-20T11:25:38.000Z</time>
      </trkpt>
      <trkpt lat="45.70486" lon="-0.9747">
        <ele>12.56</ele>
        <time>2022-09-20T11:25:43.000Z</time>
      </trkpt>
      <trkpt lat="45.70502" lon="-0.97445">
        <ele>11.59</ele>
        <time>2022-09-20T11:25:48.000Z</time>
      </trkpt>
      <trkpt lat="45.70513" lon="-0.97421">
        <ele>10.66</ele>
        <time>2022-09-20T11:25:53.000Z</time>
      </trkpt>
      <trkpt lat="45.70535" lon="-0.97407">
        <ele>9.49</ele>
        <time>2022-09-20T11:25:58.000Z</time>
      </trkpt>
      <trkpt lat="45.70553" lon="-0.9739">
        <ele>8.11</ele>
        <time>2022-09-20T11:26:03.000Z</time>
      </trkpt>
      <trkpt lat="45.70568" lon="-0.97372">
        <ele>6.89</ele>
        <time>2022-09-20T11:26:08.000Z</time>
      </trkpt>
      <trkpt lat="45.70589" lon="-0.97352">
        <ele>4.81</ele>
        <time>2022-09-20T11:26:13.000Z</time>
      </trkpt>
      <trkpt lat="45.7061" lon="-0.97333">
        <ele>3.16</ele>
        <time>2022-09-20T11:26:18.000Z</time>
      </trkpt>
      <trkpt lat="45.70633" lon="-0.97318">
        <ele>1.5</ele>
        <time>2022-09-20T11:26:23.000Z</time>
      </trkpt>
      <trkpt lat="45.70664" lon="-0.97305">
        <ele>-1.18</ele>
        <time>2022-09-20T11:26:28.000Z</time>
      </trkpt>
      <trkpt lat="45.70692" lon="-0.97292">
        <ele>-3.16</ele>
        <time>2022-09-20T11:26:33.000Z</time>
      </trkpt>
      <trkpt lat="45.70721" lon="-0.9728">
        <ele>-3.93</ele>
        <time>2022-09-20T11:26:38.000Z</time>
      </trkpt>
      <trkpt lat="45.70749" lon="-0.97273">
        <ele>-4.74</ele>
        <time>2022-09-20T11:26:43.000Z</time>
      </trkpt>
      <trkpt lat="45.70775" lon="-0.97269">
        <ele>-4.34</ele>
        <time>2022-09-20T11:26:48.000Z</time>
      </trkpt>
      <trkpt lat="45.70799" lon="-0.97266">
        <ele>-3.79</ele>
        <time>2022-09-20T11:26:53.000Z</time>
      </trkpt>
      <trkpt lat="45.70819" lon="-0.97265">
        <ele>-4.17</ele>
        <time>2022-09-20T11:26:58.000Z</time>
      </trkpt>
      <trkpt lat="45.70841" lon="-0.97265">
        <ele>-4.37</ele>
        <time>2022-09-20T11:27:03.000Z</time>
      </trkpt>
      <trkpt lat="45.70862" lon="-0.97266">
        <ele>-3.24</ele>
        <time>2022-09-20T11:27:08.000Z</time>
      </trkpt>
      <trkpt lat="45.70886" lon="-0.97267">
        <ele>-2.05</ele>
        <time>2022-09-20T11:27:13.000Z</time>
      </trkpt>
      <trkpt lat="45.70908" lon="-0.97267">
        <ele>-3.23</ele>
        <time>2022-09-20T11:27:18.000Z</time>
      </trkpt>
      <trkpt lat="45.7093" lon="-0.97268">
        <ele>-5.2</ele>
        <time>2022-09-20T11:27:23.000Z</time>
      </trkpt>
      <trkpt lat="45.70951" lon="-0.9727">
        <ele>-4.42</ele>
        <time>2022-09-20T11:27:28.000Z</time>
      </trkpt>
      <trkpt lat="45.70973" lon="-0.9727">
        <ele>-3.71</ele>
        <time>2022-09-20T11:27:33.000Z</time>
      </trkpt>
      <trkpt lat="45.71001" lon="-0.97271">
        <ele>-2.59</ele>
        <time>2022-09-20T11:27:38.000Z</time>
      </trkpt>
      <trkpt lat="45.7103" lon="-0.9727">
        <ele>-1.89</ele>
        <time>2022-09-20T11:27:43.000Z</time>
      </trkpt>
      <trkpt lat="45.7106" lon="-0.97273">
        <ele>-2.32</ele>
        <time>2022-09-20T11:27:48.000Z</time>
      </trkpt>
      <trkpt lat="45.71089" lon="-0.97275">
        <ele>-3.12</ele>
        <time>2022-09-20T11:27:53.000Z</time>
      </trkpt>
      <trkpt lat="45.71116" lon="-0.97277">
        <ele>-4.63</ele>
        <time>2022-09-20T11:27:58.000Z</time>
      </trkpt>
      <trkpt lat="45.71139" lon="-0.97277">
        <ele>-5.44</ele>
        <time>2022-09-20T11:28:03.000Z</time>
      </trkpt>
      <trkpt lat="45.71154" lon="-0.97277">
        <ele>-4.97</ele>
        <time>2022-09-20T11:28:08.000Z</time>
      </trkpt>
      <trkpt lat="45.71164" lon="-0.97279">
        <ele>-3.81</ele>
        <time>2022-09-20T11:29:15.000Z</time>
      </trkpt>
      <trkpt lat="45.71182" lon="-0.97279">
        <ele>-3.99</ele>
        <time>2022-09-20T11:29:20.000Z</time>
      </trkpt>
      <trkpt lat="45.71206" lon="-0.97279">
        <ele>-5.19</ele>
        <time>2022-09-20T11:29:25.000Z</time>
      </trkpt>
      <trkpt lat="45.7123" lon="-0.97279">
        <ele>-6.16</ele>
        <time>2022-09-20T11:29:30.000Z</time>
      </trkpt>
      <trkpt lat="45.71255" lon="-0.9728">
        <ele>-6.06</ele>
        <time>2022-09-20T11:29:35.000Z</time>
      </trkpt>
      <trkpt lat="45.71282" lon="-0.97281">
        <ele>-5.6</ele>
        <time>2022-09-20T11:29:40.000Z</time>
      </trkpt>
      <trkpt lat="45.71312" lon="-0.97282">
        <ele>-5.72</ele>
        <time>2022-09-20T11:29:45.000Z</time>
      </trkpt>
      <trkpt lat="45.71338" lon="-0.97283">
        <ele>-6.53</ele>
        <time>2022-09-20T11:29:50.000Z</time>
      </trkpt>
      <trkpt lat="45.71365" lon="-0.97283">
        <ele>-5.4</ele>
        <time>2022-09-20T11:29:55.000Z</time>
      </trkpt>
      <trkpt lat="45.71391" lon="-0.9728">
        <ele>-5.33</ele>
        <time>2022-09-20T11:30:00.000Z</time>
      </trkpt>
      <trkpt lat="45.71416" lon="-0.97273">
        <ele>-4.31</ele>
        <time>2022-09-20T11:30:05.000Z</time>
      </trkpt>
      <trkpt lat="45.7144" lon="-0.97264">
        <ele>-3.05</ele>
        <time>2022-09-20T11:30:10.000Z</time>
      </trkpt>
      <trkpt lat="45.71461" lon="-0.97251">
        <ele>-4.04</ele>
        <time>2022-09-20T11:30:15.000Z</time>
      </trkpt>
      <trkpt lat="45.71484" lon="-0.97237">
        <ele>-6.36</ele>
        <time>2022-09-20T11:30:20.000Z</time>
      </trkpt>
      <trkpt lat="45.71505" lon="-0.9722">
        <ele>-8.07</ele>
        <time>2022-09-20T11:30:25.000Z</time>
      </trkpt>
      <trkpt lat="45.71525" lon="-0.97202">
        <ele>-9</ele>
        <time>2022-09-20T11:30:30.000Z</time>
      </trkpt>
      <trkpt lat="45.71544" lon="-0.97183">
        <ele>-8.46</ele>
        <time>2022-09-20T11:30:35.000Z</time>
      </trkpt>
      <trkpt lat="45.71559" lon="-0.97164">
        <ele>-9.02</ele>
        <time>2022-09-20T11:30:40.000Z</time>
      </trkpt>
      <trkpt lat="45.71574" lon="-0.97144">
        <ele>-9.39</ele>
        <time>2022-09-20T11:30:45.000Z</time>
      </trkpt>
      <trkpt lat="45.71591" lon="-0.97125">
        <ele>-8.73</ele>
        <time>2022-09-20T11:30:50.000Z</time>
      </trkpt>
      <trkpt lat="45.71605" lon="-0.97102">
        <ele>-7.84</ele>
        <time>2022-09-20T11:30:55.000Z</time>
      </trkpt>
      <trkpt lat="45.71621" lon="-0.97082">
        <ele>-7.05</ele>
        <time>2022-09-20T11:31:00.000Z</time>
      </trkpt>
      <trkpt lat="45.7164" lon="-0.97063">
        <ele>-6.04</ele>
        <time>2022-09-20T11:31:05.000Z</time>
      </trkpt>
      <trkpt lat="45.7166" lon="-0.97044">
        <ele>-5.46</ele>
        <time>2022-09-20T11:31:10.000Z</time>
      </trkpt>
      <trkpt lat="45.71681" lon="-0.97026">
        <ele>-5.18</ele>
        <time>2022-09-20T11:31:15.000Z</time>
      </trkpt>
      <trkpt lat="45.71701" lon="-0.97007">
        <ele>-5.76</ele>
        <time>2022-09-20T11:31:20.000Z</time>
      </trkpt>
      <trkpt lat="45.71721" lon="-0.96989">
        <ele>-6.48</ele>
        <time>2022-09-20T11:31:25.000Z</time>
      </trkpt>
      <trkpt lat="45.71741" lon="-0.96975">
        <ele>-6.55</ele>
        <time>2022-09-20T11:31:30.000Z</time>
      </trkpt>
      <trkpt lat="45.71758" lon="-0.96962">
        <ele>-7.04</ele>
        <time>2022-09-20T11:31:35.000Z</time>
      </trkpt>
      <trkpt lat="45.71776" lon="-0.9695">
        <ele>-5.88</ele>
        <time>2022-09-20T11:31:40.000Z</time>
      </trkpt>
      <trkpt lat="45.71792" lon="-0.96937">
        <ele>-5.95</ele>
        <time>2022-09-20T11:31:45.000Z</time>
      </trkpt>
      <trkpt lat="45.71807" lon="-0.96923">
        <ele>-7.08</ele>
        <time>2022-09-20T11:31:50.000Z</time>
      </trkpt>
      <trkpt lat="45.71823" lon="-0.9691">
        <ele>-8.73</ele>
        <time>2022-09-20T11:31:55.000Z</time>
      </trkpt>
      <trkpt lat="45.7184" lon="-0.96896">
        <ele>-8.63</ele>
        <time>2022-09-20T11:32:00.000Z</time>
      </trkpt>
      <trkpt lat="45.71857" lon="-0.96882">
        <ele>-8.38</ele>
        <time>2022-09-20T11:32:05.000Z</time>
      </trkpt>
      <trkpt lat="45.71875" lon="-0.96868">
        <ele>-8.59</ele>
        <time>2022-09-20T11:32:10.000Z</time>
      </trkpt>
      <trkpt lat="45.71893" lon="-0.96853">
        <ele>-8.84</ele>
        <time>2022-09-20T11:32:15.000Z</time>
      </trkpt>
      <trkpt lat="45.71911" lon="-0.96838">
        <ele>-9.45</ele>
        <time>2022-09-20T11:32:20.000Z</time>
      </trkpt>
      <trkpt lat="45.7193" lon="-0.96824">
        <ele>-9.04</ele>
        <time>2022-09-20T11:32:25.000Z</time>
      </trkpt>
      <trkpt lat="45.71948" lon="-0.9681">
        <ele>-8.48</ele>
        <time>2022-09-20T11:32:30.000Z</time>
      </trkpt>
      <trkpt lat="45.71966" lon="-0.96796">
        <ele>-7.97</ele>
        <time>2022-09-20T11:32:35.000Z</time>
      </trkpt>
      <trkpt lat="45.71982" lon="-0.96783">
        <ele>-7.32</ele>
        <time>2022-09-20T11:32:40.000Z</time>
      </trkpt>
      <trkpt lat="45.72" lon="-0.96769">
        <ele>-7.82</ele>
        <time>2022-09-20T11:32:45.000Z</time>
      </trkpt>
      <trkpt lat="45.72017" lon="-0.96754">
        <ele>-8.37</ele>
        <time>2022-09-20T11:32:50.000Z</time>
      </trkpt>
      <trkpt lat="45.72034" lon="-0.9674">
        <ele>-8.94</ele>
        <time>2022-09-20T11:32:55.000Z</time>
      </trkpt>
      <trkpt lat="45.72052" lon="-0.96725">
        <ele>-8.53</ele>
        <time>2022-09-20T11:33:00.000Z</time>
      </trkpt>
      <trkpt lat="45.7207" lon="-0.96713">
        <ele>-8.41</ele>
        <time>2022-09-20T11:33:05.000Z</time>
      </trkpt>
      <trkpt lat="45.72087" lon="-0.96698">
        <ele>-8.5</ele>
        <time>2022-09-20T11:33:10.000Z</time>
      </trkpt>
      <trkpt lat="45.72105" lon="-0.96685">
        <ele>-7</ele>
        <time>2022-09-20T11:33:15.000Z</time>
      </trkpt>
      <trkpt lat="45.72123" lon="-0.96671">
        <ele>-6.1</ele>
        <time>2022-09-20T11:33:20.000Z</time>
      </trkpt>
      <trkpt lat="45.72144" lon="-0.96655">
        <ele>-7.62</ele>
        <time>2022-09-20T11:33:25.000Z</time>
      </trkpt>
      <trkpt lat="45.72163" lon="-0.96642">
        <ele>-8</ele>
        <time>2022-09-20T11:33:30.000Z</time>
      </trkpt>
      <trkpt lat="45.7218" lon="-0.96628">
        <ele>-8.89</ele>
        <time>2022-09-20T11:33:35.000Z</time>
      </trkpt>
      <trkpt lat="45.72199" lon="-0.96612">
        <ele>-9.65</ele>
        <time>2022-09-20T11:33:40.000Z</time>
      </trkpt>
      <trkpt lat="45.72218" lon="-0.96596">
        <ele>-10.23</ele>
        <time>2022-09-20T11:33:45.000Z</time>
      </trkpt>
      <trkpt lat="45.72237" lon="-0.9658">
        <ele>-11.24</ele>
        <time>2022-09-20T11:33:50.000Z</time>
      </trkpt>
      <trkpt lat="45.72254" lon="-0.96565">
        <ele>-11.58</ele>
        <time>2022-09-20T11:33:55.000Z</time>
      </trkpt>
      <trkpt lat="45.72273" lon="-0.96548">
        <ele>-11.63</ele>
        <time>2022-09-20T11:34:00.000Z</time>
      </trkpt>
      <trkpt lat="45.72293" lon="-0.96532">
        <ele>-11.57</ele>
        <time>2022-09-20T11:34:05.000Z</time>
      </trkpt>
      <trkpt lat="45.72312" lon="-0.96516">
        <ele>-12.25</ele>
        <time>2022-09-20T11:34:10.000Z</time>
      </trkpt>
      <trkpt lat="45.72329" lon="-0.96502">
        <ele>-11.78</ele>
        <time>2022-09-20T11:34:15.000Z</time>
      </trkpt>
      <trkpt lat="45.72348" lon="-0.96488">
        <ele>-10.92</ele>
        <time>2022-09-20T11:34:20.000Z</time>
      </trkpt>
      <trkpt lat="45.72365" lon="-0.96473">
        <ele>-12.05</ele>
        <time>2022-09-20T11:34:25.000Z</time>
      </trkpt>
      <trkpt lat="45.72384" lon="-0.9646">
        <ele>-11.43</ele>
        <time>2022-09-20T11:34:30.000Z</time>
      </trkpt>
      <trkpt lat="45.72402" lon="-0.96446">
        <ele>-11.27</ele>
        <time>2022-09-20T11:34:35.000Z</time>
      </trkpt>
      <trkpt lat="45.72418" lon="-0.96433">
        <ele>-12.2</ele>
        <time>2022-09-20T11:34:40.000Z</time>
      </trkpt>
      <trkpt lat="45.72434" lon="-0.96421">
        <ele>-12.37</ele>
        <time>2022-09-20T11:34:45.000Z</time>
      </trkpt>
      <trkpt lat="45.7245" lon="-0.96408">
        <ele>-13.58</ele>
        <time>2022-09-20T11:34:50.000Z</time>
      </trkpt>
      <trkpt lat="45.72464" lon="-0.96393">
        <ele>-14.04</ele>
        <time>2022-09-20T11:34:55.000Z</time>
      </trkpt>
      <trkpt lat="45.72481" lon="-0.96381">
        <ele>-13.97</ele>
        <time>2022-09-20T11:35:00.000Z</time>
      </trkpt>
      <trkpt lat="45.72497" lon="-0.96371">
        <ele>-12.83</ele>
        <time>2022-09-20T11:35:05.000Z</time>
      </trkpt>
      <trkpt lat="45.72507" lon="-0.96362">
        <ele>-12.36</ele>
        <time>2022-09-20T11:35:10.000Z</time>
      </trkpt>
      <trkpt lat="45.72517" lon="-0.96357">
        <ele>-11.29</ele>
        <time>2022-09-20T11:35:57.000Z</time>
      </trkpt>
      <trkpt lat="45.72526" lon="-0.96346">
        <ele>-10.64</ele>
        <time>2022-09-20T11:36:02.000Z</time>
      </trkpt>
      <trkpt lat="45.72539" lon="-0.96334">
        <ele>-8.62</ele>
        <time>2022-09-20T11:36:07.000Z</time>
      </trkpt>
      <trkpt lat="45.72554" lon="-0.96326">
        <ele>-7.56</ele>
        <time>2022-09-20T11:36:12.000Z</time>
      </trkpt>
      <trkpt lat="45.72571" lon="-0.96316">
        <ele>-6.57</ele>
        <time>2022-09-20T11:36:17.000Z</time>
      </trkpt>
      <trkpt lat="45.72589" lon="-0.96303">
        <ele>-5.47</ele>
        <time>2022-09-20T11:36:22.000Z</time>
      </trkpt>
      <trkpt lat="45.72609" lon="-0.96286">
        <ele>-5.69</ele>
        <time>2022-09-20T11:36:27.000Z</time>
      </trkpt>
      <trkpt lat="45.72627" lon="-0.96267">
        <ele>-5.43</ele>
        <time>2022-09-20T11:36:32.000Z</time>
      </trkpt>
      <trkpt lat="45.72646" lon="-0.9625">
        <ele>-4.41</ele>
        <time>2022-09-20T11:36:37.000Z</time>
      </trkpt>
      <trkpt lat="45.72666" lon="-0.96235">
        <ele>-3.8</ele>
        <time>2022-09-20T11:36:42.000Z</time>
      </trkpt>
      <trkpt lat="45.72687" lon="-0.9622">
        <ele>-3.6</ele>
        <time>2022-09-20T11:36:47.000Z</time>
      </trkpt>
      <trkpt lat="45.72709" lon="-0.96203">
        <ele>-6.13</ele>
        <time>2022-09-20T11:36:52.000Z</time>
      </trkpt>
      <trkpt lat="45.7273" lon="-0.96184">
        <ele>-7.26</ele>
        <time>2022-09-20T11:36:57.000Z</time>
      </trkpt>
      <trkpt lat="45.72748" lon="-0.96162">
        <ele>-8.68</ele>
        <time>2022-09-20T11:37:02.000Z</time>
      </trkpt>
      <trkpt lat="45.72765" lon="-0.9614">
        <ele>-9.94</ele>
        <time>2022-09-20T11:37:07.000Z</time>
      </trkpt>
      <trkpt lat="45.72784" lon="-0.96119">
        <ele>-8.34</ele>
        <time>2022-09-20T11:37:12.000Z</time>
      </trkpt>
      <trkpt lat="45.72803" lon="-0.96097">
        <ele>-7.8</ele>
        <time>2022-09-20T11:37:17.000Z</time>
      </trkpt>
      <trkpt lat="45.72821" lon="-0.96075">
        <ele>-7.07</ele>
        <time>2022-09-20T11:37:22.000Z</time>
      </trkpt>
      <trkpt lat="45.72841" lon="-0.96054">
        <ele>-3.74</ele>
        <time>2022-09-20T11:37:27.000Z</time>
      </trkpt>
      <trkpt lat="45.7286" lon="-0.96033">
        <ele>-3.2</ele>
        <time>2022-09-20T11:37:32.000Z</time>
      </trkpt>
      <trkpt lat="45.72876" lon="-0.9601">
        <ele>-3.68</ele>
        <time>2022-09-20T11:37:37.000Z</time>
      </trkpt>
      <trkpt lat="45.72893" lon="-0.95991">
        <ele>-2.72</ele>
        <time>2022-09-20T11:37:42.000Z</time>
      </trkpt>
      <trkpt lat="45.72908" lon="-0.95968">
        <ele>-2.1</ele>
        <time>2022-09-20T11:37:47.000Z</time>
      </trkpt>
      <trkpt lat="45.72923" lon="-0.95945">
        <ele>-1.78</ele>
        <time>2022-09-20T11:37:52.000Z</time>
      </trkpt>
      <trkpt lat="45.72937" lon="-0.95926">
        <ele>-1.16</ele>
        <time>2022-09-20T11:37:57.000Z</time>
      </trkpt>
      <trkpt lat="45.72947" lon="-0.95912">
        <ele>-1.58</ele>
        <time>2022-09-20T11:38:02.000Z</time>
      </trkpt>
      <trkpt lat="45.72956" lon="-0.95902">
        <ele>-0.41</ele>
        <time>2022-09-20T11:38:07.000Z</time>
      </trkpt>
      <trkpt lat="45.72969" lon="-0.95901">
        <ele>1.83</ele>
        <time>2022-09-20T11:38:12.000Z</time>
      </trkpt>
      <trkpt lat="45.72979" lon="-0.95887">
        <ele>3.28</ele>
        <time>2022-09-20T11:38:17.000Z</time>
      </trkpt>
      <trkpt lat="45.7299" lon="-0.95873">
        <ele>3.68</ele>
        <time>2022-09-20T11:38:22.000Z</time>
      </trkpt>
      <trkpt lat="45.73001" lon="-0.95857">
        <ele>3.38</ele>
        <time>2022-09-20T11:38:27.000Z</time>
      </trkpt>
      <trkpt lat="45.73012" lon="-0.9584">
        <ele>3.22</ele>
        <time>2022-09-20T11:38:32.000Z</time>
      </trkpt>
      <trkpt lat="45.73023" lon="-0.95823">
        <ele>3.23</ele>
        <time>2022-09-20T11:38:37.000Z</time>
      </trkpt>
      <trkpt lat="45.73033" lon="-0.9581">
        <ele>2.64</ele>
        <time>2022-09-20T11:38:42.000Z</time>
      </trkpt>
      <trkpt lat="45.73045" lon="-0.95794">
        <ele>2.6</ele>
        <time>2022-09-20T11:38:47.000Z</time>
      </trkpt>
      <trkpt lat="45.73056" lon="-0.95779">
        <ele>2.53</ele>
        <time>2022-09-20T11:38:52.000Z</time>
      </trkpt>
      <trkpt lat="45.73068" lon="-0.95764">
        <ele>1.77</ele>
        <time>2022-09-20T11:38:57.000Z</time>
      </trkpt>
      <trkpt lat="45.73078" lon="-0.95748">
        <ele>0.8</ele>
        <time>2022-09-20T11:39:02.000Z</time>
      </trkpt>
      <trkpt lat="45.73089" lon="-0.95732">
        <ele>1.5</ele>
        <time>2022-09-20T11:39:07.000Z</time>
      </trkpt>
      <trkpt lat="45.73102" lon="-0.95716">
        <ele>1.41</ele>
        <time>2022-09-20T11:39:12.000Z</time>
      </trkpt>
      <trkpt lat="45.73114" lon="-0.95703">
        <ele>1.62</ele>
        <time>2022-09-20T11:39:17.000Z</time>
      </trkpt>
      <trkpt lat="45.73126" lon="-0.95688">
        <ele>0.92</ele>
        <time>2022-09-20T11:39:22.000Z</time>
      </trkpt>
      <trkpt lat="45.7314" lon="-0.95673">
        <ele>0.69</ele>
        <time>2022-09-20T11:39:27.000Z</time>
      </trkpt>
      <trkpt lat="45.73153" lon="-0.95661">
        <ele>0.6</ele>
        <time>2022-09-20T11:39:32.000Z</time>
      </trkpt>
      <trkpt lat="45.73165" lon="-0.95659">
        <ele>1.37</ele>
        <time>2022-09-20T11:39:37.000Z</time>
      </trkpt>
      <trkpt lat="45.73162" lon="-0.95644">
        <ele>1.36</ele>
        <time>2022-09-20T11:39:58.000Z</time>
      </trkpt>
      <trkpt lat="45.73159" lon="-0.95622">
        <ele>0.76</ele>
        <time>2022-09-20T11:40:03.000Z</time>
      </trkpt>
      <trkpt lat="45.7317" lon="-0.95601">
        <ele>0.11</ele>
        <time>2022-09-20T11:40:08.000Z</time>
      </trkpt>
      <trkpt lat="45.73189" lon="-0.95591">
        <ele>1.5</ele>
        <time>2022-09-20T11:40:13.000Z</time>
      </trkpt>
      <trkpt lat="45.73208" lon="-0.95578">
        <ele>2.27</ele>
        <time>2022-09-20T11:40:18.000Z</time>
      </trkpt>
      <trkpt lat="45.73226" lon="-0.95565">
        <ele>1.75</ele>
        <time>2022-09-20T11:40:23.000Z</time>
      </trkpt>
      <trkpt lat="45.73246" lon="-0.95551">
        <ele>0.77</ele>
        <time>2022-09-20T11:40:28.000Z</time>
      </trkpt>
      <trkpt lat="45.73269" lon="-0.95537">
        <ele>0.67</ele>
        <time>2022-09-20T11:40:33.000Z</time>
      </trkpt>
      <trkpt lat="45.73293" lon="-0.95522">
        <ele>0.06</ele>
        <time>2022-09-20T11:40:38.000Z</time>
      </trkpt>
      <trkpt lat="45.73317" lon="-0.95506">
        <ele>-1.22</ele>
        <time>2022-09-20T11:40:43.000Z</time>
      </trkpt>
      <trkpt lat="45.73339" lon="-0.9549">
        <ele>-2.51</ele>
        <time>2022-09-20T11:40:48.000Z</time>
      </trkpt>
      <trkpt lat="45.73362" lon="-0.95473">
        <ele>-3.38</ele>
        <time>2022-09-20T11:40:53.000Z</time>
      </trkpt>
      <trkpt lat="45.73383" lon="-0.95459">
        <ele>-4.83</ele>
        <time>2022-09-20T11:40:58.000Z</time>
      </trkpt>
      <trkpt lat="45.73402" lon="-0.95445">
        <ele>-5.16</ele>
        <time>2022-09-20T11:41:03.000Z</time>
      </trkpt>
      <trkpt lat="45.7342" lon="-0.95429">
        <ele>-6.05</ele>
        <time>2022-09-20T11:41:08.000Z</time>
      </trkpt>
      <trkpt lat="45.73439" lon="-0.95411">
        <ele>-5.59</ele>
        <time>2022-09-20T11:41:13.000Z</time>
      </trkpt>
      <trkpt lat="45.73457" lon="-0.95391">
        <ele>-5.33</ele>
        <time>2022-09-20T11:41:18.000Z</time>
      </trkpt>
      <trkpt lat="45.73477" lon="-0.95372">
        <ele>-4.63</ele>
        <time>2022-09-20T11:41:23.000Z</time>
      </trkpt>
      <trkpt lat="45.73495" lon="-0.95355">
        <ele>-5.17</ele>
        <time>2022-09-20T11:41:28.000Z</time>
      </trkpt>
      <trkpt lat="45.73514" lon="-0.95337">
        <ele>-5.38</ele>
        <time>2022-09-20T11:41:33.000Z</time>
      </trkpt>
      <trkpt lat="45.73531" lon="-0.9532">
        <ele>-5.03</ele>
        <time>2022-09-20T11:41:38.000Z</time>
      </trkpt>
      <trkpt lat="45.73547" lon="-0.95304">
        <ele>-5.04</ele>
        <time>2022-09-20T11:41:43.000Z</time>
      </trkpt>
      <trkpt lat="45.73563" lon="-0.95289">
        <ele>-4.41</ele>
        <time>2022-09-20T11:41:48.000Z</time>
      </trkpt>
      <trkpt lat="45.73578" lon="-0.95272">
        <ele>-3.6</ele>
        <time>2022-09-20T11:41:53.000Z</time>
      </trkpt>
      <trkpt lat="45.73594" lon="-0.95256">
        <ele>-1.83</ele>
        <time>2022-09-20T11:41:58.000Z</time>
      </trkpt>
      <trkpt lat="45.7361" lon="-0.9524">
        <ele>-0.94</ele>
        <time>2022-09-20T11:42:03.000Z</time>
      </trkpt>
      <trkpt lat="45.73626" lon="-0.95225">
        <ele>-1.45</ele>
        <time>2022-09-20T11:42:08.000Z</time>
      </trkpt>
      <trkpt lat="45.7364" lon="-0.95209">
        <ele>-2.54</ele>
        <time>2022-09-20T11:42:13.000Z</time>
      </trkpt>
      <trkpt lat="45.73657" lon="-0.95195">
        <ele>-0.96</ele>
        <time>2022-09-20T11:42:18.000Z</time>
      </trkpt>
      <trkpt lat="45.73674" lon="-0.95183">
        <ele>0.88</ele>
        <time>2022-09-20T11:42:23.000Z</time>
      </trkpt>
      <trkpt lat="45.73691" lon="-0.95169">
        <ele>1.1</ele>
        <time>2022-09-20T11:42:28.000Z</time>
      </trkpt>
      <trkpt lat="45.73709" lon="-0.95157">
        <ele>1.24</ele>
        <time>2022-09-20T11:42:33.000Z</time>
      </trkpt>
      <trkpt lat="45.73726" lon="-0.95146">
        <ele>1.09</ele>
        <time>2022-09-20T11:42:38.000Z</time>
      </trkpt>
      <trkpt lat="45.73744" lon="-0.95136">
        <ele>1.22</ele>
        <time>2022-09-20T11:42:43.000Z</time>
      </trkpt>
      <trkpt lat="45.73762" lon="-0.95126">
        <ele>1.27</ele>
        <time>2022-09-20T11:42:48.000Z</time>
      </trkpt>
      <trkpt lat="45.7378" lon="-0.95116">
        <ele>1.03</ele>
        <time>2022-09-20T11:42:53.000Z</time>
      </trkpt>
      <trkpt lat="45.73798" lon="-0.95106">
        <ele>1.85</ele>
        <time>2022-09-20T11:42:58.000Z</time>
      </trkpt>
      <trkpt lat="45.73816" lon="-0.95096">
        <ele>2.33</ele>
        <time>2022-09-20T11:43:03.000Z</time>
      </trkpt>
      <trkpt lat="45.73833" lon="-0.95085">
        <ele>3.24</ele>
        <time>2022-09-20T11:43:08.000Z</time>
      </trkpt>
      <trkpt lat="45.73852" lon="-0.95074">
        <ele>4.07</ele>
        <time>2022-09-20T11:43:13.000Z</time>
      </trkpt>
      <trkpt lat="45.73871" lon="-0.95063">
        <ele>3.83</ele>
        <time>2022-09-20T11:43:18.000Z</time>
      </trkpt>
      <trkpt lat="45.73889" lon="-0.95053">
        <ele>3.77</ele>
        <time>2022-09-20T11:43:23.000Z</time>
      </trkpt>
      <trkpt lat="45.73908" lon="-0.95044">
        <ele>4.72</ele>
        <time>2022-09-20T11:43:28.000Z</time>
      </trkpt>
      <trkpt lat="45.73925" lon="-0.95035">
        <ele>4.86</ele>
        <time>2022-09-20T11:43:33.000Z</time>
      </trkpt>
      <trkpt lat="45.7394" lon="-0.95028">
        <ele>4.56</ele>
        <time>2022-09-20T11:43:38.000Z</time>
      </trkpt>
      <trkpt lat="45.73955" lon="-0.95021">
        <ele>4.79</ele>
        <time>2022-09-20T11:43:43.000Z</time>
      </trkpt>
      <trkpt lat="45.73968" lon="-0.95015">
        <ele>4.64</ele>
        <time>2022-09-20T11:43:48.000Z</time>
      </trkpt>
      <trkpt lat="45.73982" lon="-0.95009">
        <ele>4.96</ele>
        <time>2022-09-20T11:43:53.000Z</time>
      </trkpt>
      <trkpt lat="45.73997" lon="-0.95004">
        <ele>5.4</ele>
        <time>2022-09-20T11:43:58.000Z</time>
      </trkpt>
      <trkpt lat="45.74012" lon="-0.94998">
        <ele>4.74</ele>
        <time>2022-09-20T11:44:03.000Z</time>
      </trkpt>
      <trkpt lat="45.74028" lon="-0.94993">
        <ele>4.7</ele>
        <time>2022-09-20T11:44:08.000Z</time>
      </trkpt>
      <trkpt lat="45.74043" lon="-0.94987">
        <ele>4.33</ele>
        <time>2022-09-20T11:44:13.000Z</time>
      </trkpt>
      <trkpt lat="45.74058" lon="-0.9498">
        <ele>4.08</ele>
        <time>2022-09-20T11:44:18.000Z</time>
      </trkpt>
      <trkpt lat="45.74075" lon="-0.94974">
        <ele>4.11</ele>
        <time>2022-09-20T11:44:23.000Z</time>
      </trkpt>
      <trkpt lat="45.74091" lon="-0.94969">
        <ele>4.26</ele>
        <time>2022-09-20T11:44:28.000Z</time>
      </trkpt>
      <trkpt lat="45.74105" lon="-0.94964">
        <ele>3.61</ele>
        <time>2022-09-20T11:44:33.000Z</time>
      </trkpt>
      <trkpt lat="45.74119" lon="-0.9496">
        <ele>3.32</ele>
        <time>2022-09-20T11:44:38.000Z</time>
      </trkpt>
      <trkpt lat="45.74135" lon="-0.94955">
        <ele>4.35</ele>
        <time>2022-09-20T11:44:43.000Z</time>
      </trkpt>
      <trkpt lat="45.7415" lon="-0.94947">
        <ele>4.33</ele>
        <time>2022-09-20T11:44:48.000Z</time>
      </trkpt>
      <trkpt lat="45.74164" lon="-0.94942">
        <ele>6.02</ele>
        <time>2022-09-20T11:44:53.000Z</time>
      </trkpt>
      <trkpt lat="45.74179" lon="-0.94937">
        <ele>8.15</ele>
        <time>2022-09-20T11:44:58.000Z</time>
      </trkpt>
      <trkpt lat="45.74193" lon="-0.94932">
        <ele>9.66</ele>
        <time>2022-09-20T11:45:03.000Z</time>
      </trkpt>
      <trkpt lat="45.74208" lon="-0.94927">
        <ele>8.6</ele>
        <time>2022-09-20T11:45:08.000Z</time>
      </trkpt>
      <trkpt lat="45.74223" lon="-0.94921">
        <ele>8.59</ele>
        <time>2022-09-20T11:45:13.000Z</time>
      </trkpt>
      <trkpt lat="45.74236" lon="-0.94913">
        <ele>8.7</ele>
        <time>2022-09-20T11:45:18.000Z</time>
      </trkpt>
      <trkpt lat="45.74253" lon="-0.94907">
        <ele>9.29</ele>
        <time>2022-09-20T11:45:23.000Z</time>
      </trkpt>
      <trkpt lat="45.74269" lon="-0.94901">
        <ele>8.47</ele>
        <time>2022-09-20T11:45:28.000Z</time>
      </trkpt>
      <trkpt lat="45.74285" lon="-0.94896">
        <ele>8.68</ele>
        <time>2022-09-20T11:45:33.000Z</time>
      </trkpt>
      <trkpt lat="45.74302" lon="-0.94891">
        <ele>8.13</ele>
        <time>2022-09-20T11:45:38.000Z</time>
      </trkpt>
      <trkpt lat="45.7432" lon="-0.94888">
        <ele>7.64</ele>
        <time>2022-09-20T11:45:43.000Z</time>
      </trkpt>
      <trkpt lat="45.74338" lon="-0.94883">
        <ele>7.28</ele>
        <time>2022-09-20T11:45:48.000Z</time>
      </trkpt>
      <trkpt lat="45.74357" lon="-0.94882">
        <ele>8.51</ele>
        <time>2022-09-20T11:45:53.000Z</time>
      </trkpt>
      <trkpt lat="45.74375" lon="-0.94881">
        <ele>9.07</ele>
        <time>2022-09-20T11:45:58.000Z</time>
      </trkpt>
      <trkpt lat="45.74393" lon="-0.94881">
        <ele>10.49</ele>
        <time>2022-09-20T11:46:03.000Z</time>
      </trkpt>
      <trkpt lat="45.7441" lon="-0.94882">
        <ele>10.76</ele>
        <time>2022-09-20T11:46:08.000Z</time>
      </trkpt>
      <trkpt lat="45.74427" lon="-0.94885">
        <ele>9.35</ele>
        <time>2022-09-20T11:46:13.000Z</time>
      </trkpt>
      <trkpt lat="45.74445" lon="-0.94887">
        <ele>8.01</ele>
        <time>2022-09-20T11:46:18.000Z</time>
      </trkpt>
      <trkpt lat="45.74462" lon="-0.9489">
        <ele>7.9</ele>
        <time>2022-09-20T11:46:23.000Z</time>
      </trkpt>
      <trkpt lat="45.74478" lon="-0.94894">
        <ele>7.04</ele>
        <time>2022-09-20T11:46:28.000Z</time>
      </trkpt>
      <trkpt lat="45.74494" lon="-0.94898">
        <ele>6.96</ele>
        <time>2022-09-20T11:46:33.000Z</time>
      </trkpt>
      <trkpt lat="45.74511" lon="-0.94904">
        <ele>5.46</ele>
        <time>2022-09-20T11:46:38.000Z</time>
      </trkpt>
      <trkpt lat="45.74527" lon="-0.94909">
        <ele>4.91</ele>
        <time>2022-09-20T11:46:43.000Z</time>
      </trkpt>
      <trkpt lat="45.74543" lon="-0.94913">
        <ele>5.12</ele>
        <time>2022-09-20T11:46:48.000Z</time>
      </trkpt>
      <trkpt lat="45.74561" lon="-0.94916">
        <ele>6.16</ele>
        <time>2022-09-20T11:46:53.000Z</time>
      </trkpt>
      <trkpt lat="45.74578" lon="-0.94922">
        <ele>6.86</ele>
        <time>2022-09-20T11:46:58.000Z</time>
      </trkpt>
      <trkpt lat="45.74597" lon="-0.94926">
        <ele>7.03</ele>
        <time>2022-09-20T11:47:03.000Z</time>
      </trkpt>
      <trkpt lat="45.74617" lon="-0.94927">
        <ele>7.59</ele>
        <time>2022-09-20T11:47:08.000Z</time>
      </trkpt>
      <trkpt lat="45.74636" lon="-0.94926">
        <ele>9.2</ele>
        <time>2022-09-20T11:47:13.000Z</time>
      </trkpt>
      <trkpt lat="45.74658" lon="-0.94922">
        <ele>10.06</ele>
        <time>2022-09-20T11:47:18.000Z</time>
      </trkpt>
      <trkpt lat="45.74684" lon="-0.94913">
        <ele>8.11</ele>
        <time>2022-09-20T11:47:23.000Z</time>
      </trkpt>
      <trkpt lat="45.74715" lon="-0.949">
        <ele>5.33</ele>
        <time>2022-09-20T11:47:28.000Z</time>
      </trkpt>
      <trkpt lat="45.74745" lon="-0.94888">
        <ele>4.26</ele>
        <time>2022-09-20T11:47:33.000Z</time>
      </trkpt>
      <trkpt lat="45.74775" lon="-0.94876">
        <ele>4.41</ele>
        <time>2022-09-20T11:47:38.000Z</time>
      </trkpt>
      <trkpt lat="45.74803" lon="-0.94864">
        <ele>6.58</ele>
        <time>2022-09-20T11:47:43.000Z</time>
      </trkpt>
      <trkpt lat="45.74828" lon="-0.94853">
        <ele>7.13</ele>
        <time>2022-09-20T11:47:48.000Z</time>
      </trkpt>
      <trkpt lat="45.7485" lon="-0.94844">
        <ele>7.97</ele>
        <time>2022-09-20T11:47:53.000Z</time>
      </trkpt>
      <trkpt lat="45.74874" lon="-0.94837">
        <ele>8.41</ele>
        <time>2022-09-20T11:47:58.000Z</time>
      </trkpt>
      <trkpt lat="45.74897" lon="-0.94828">
        <ele>8.4</ele>
        <time>2022-09-20T11:48:03.000Z</time>
      </trkpt>
      <trkpt lat="45.74922" lon="-0.94823">
        <ele>8.17</ele>
        <time>2022-09-20T11:48:08.000Z</time>
      </trkpt>
      <trkpt lat="45.74947" lon="-0.94807">
        <ele>7</ele>
        <time>2022-09-20T11:48:13.000Z</time>
      </trkpt>
      <trkpt lat="45.7497" lon="-0.94794">
        <ele>6.97</ele>
        <time>2022-09-20T11:48:18.000Z</time>
      </trkpt>
      <trkpt lat="45.74993" lon="-0.94783">
        <ele>7.24</ele>
        <time>2022-09-20T11:48:23.000Z</time>
      </trkpt>
      <trkpt lat="45.75017" lon="-0.94775">
        <ele>7.79</ele>
        <time>2022-09-20T11:48:28.000Z</time>
      </trkpt>
      <trkpt lat="45.75038" lon="-0.94767">
        <ele>7.33</ele>
        <time>2022-09-20T11:48:33.000Z</time>
      </trkpt>
      <trkpt lat="45.75056" lon="-0.94759">
        <ele>7.51</ele>
        <time>2022-09-20T11:48:38.000Z</time>
      </trkpt>
      <trkpt lat="45.75072" lon="-0.94752">
        <ele>8.15</ele>
        <time>2022-09-20T11:48:43.000Z</time>
      </trkpt>
      <trkpt lat="45.75089" lon="-0.94745">
        <ele>9.04</ele>
        <time>2022-09-20T11:48:48.000Z</time>
      </trkpt>
      <trkpt lat="45.75108" lon="-0.94737">
        <ele>8.93</ele>
        <time>2022-09-20T11:48:53.000Z</time>
      </trkpt>
      <trkpt lat="45.75125" lon="-0.9473">
        <ele>8.51</ele>
        <time>2022-09-20T11:48:58.000Z</time>
      </trkpt>
      <trkpt lat="45.75143" lon="-0.94722">
        <ele>8.53</ele>
        <time>2022-09-20T11:49:03.000Z</time>
      </trkpt>
      <trkpt lat="45.75162" lon="-0.94713">
        <ele>7.86</ele>
        <time>2022-09-20T11:49:08.000Z</time>
      </trkpt>
      <trkpt lat="45.75183" lon="-0.94704">
        <ele>7.54</ele>
        <time>2022-09-20T11:49:13.000Z</time>
      </trkpt>
      <trkpt lat="45.75203" lon="-0.94695">
        <ele>6.85</ele>
        <time>2022-09-20T11:49:18.000Z</time>
      </trkpt>
      <trkpt lat="45.75226" lon="-0.94685">
        <ele>6.24</ele>
        <time>2022-09-20T11:49:23.000Z</time>
      </trkpt>
      <trkpt lat="45.75247" lon="-0.94674">
        <ele>6.38</ele>
        <time>2022-09-20T11:49:28.000Z</time>
      </trkpt>
      <trkpt lat="45.75266" lon="-0.94665">
        <ele>7.06</ele>
        <time>2022-09-20T11:49:33.000Z</time>
      </trkpt>
      <trkpt lat="45.75288" lon="-0.94655">
        <ele>7.16</ele>
        <time>2022-09-20T11:49:38.000Z</time>
      </trkpt>
      <trkpt lat="45.75308" lon="-0.94643">
        <ele>6.46</ele>
        <time>2022-09-20T11:49:43.000Z</time>
      </trkpt>
      <trkpt lat="45.75317" lon="-0.94636">
        <ele>6.53</ele>
        <time>2022-09-20T11:49:48.000Z</time>
      </trkpt>
      <trkpt lat="45.75317" lon="-0.94649">
        <ele>6.3</ele>
        <time>2022-09-20T11:50:08.000Z</time>
      </trkpt>
      <trkpt lat="45.75319" lon="-0.94636">
        <ele>6.5</ele>
        <time>2022-09-20T11:50:17.000Z</time>
      </trkpt>
      <trkpt lat="45.75321" lon="-0.94621">
        <ele>7.6</ele>
        <time>2022-09-20T11:50:38.000Z</time>
      </trkpt>
      <trkpt lat="45.75332" lon="-0.94619">
        <ele>7.69</ele>
        <time>2022-09-20T11:50:43.000Z</time>
      </trkpt>
      <trkpt lat="45.75343" lon="-0.9462">
        <ele>7.8</ele>
        <time>2022-09-20T11:50:48.000Z</time>
      </trkpt>
      <trkpt lat="45.75356" lon="-0.9462">
        <ele>7.13</ele>
        <time>2022-09-20T11:50:53.000Z</time>
      </trkpt>
      <trkpt lat="45.75371" lon="-0.94616">
        <ele>6.9</ele>
        <time>2022-09-20T11:50:58.000Z</time>
      </trkpt>
      <trkpt lat="45.75386" lon="-0.94608">
        <ele>7.17</ele>
        <time>2022-09-20T11:51:03.000Z</time>
      </trkpt>
      <trkpt lat="45.75406" lon="-0.94597">
        <ele>7.39</ele>
        <time>2022-09-20T11:51:08.000Z</time>
      </trkpt>
      <trkpt lat="45.75423" lon="-0.94594">
        <ele>7.59</ele>
        <time>2022-09-20T11:51:13.000Z</time>
      </trkpt>
      <trkpt lat="45.75444" lon="-0.94587">
        <ele>7.99</ele>
        <time>2022-09-20T11:51:18.000Z</time>
      </trkpt>
      <trkpt lat="45.75463" lon="-0.9458">
        <ele>8.62</ele>
        <time>2022-09-20T11:51:23.000Z</time>
      </trkpt>
      <trkpt lat="45.75482" lon="-0.94567">
        <ele>9.48</ele>
        <time>2022-09-20T11:51:28.000Z</time>
      </trkpt>
      <trkpt lat="45.75508" lon="-0.94554">
        <ele>9.4</ele>
        <time>2022-09-20T11:51:33.000Z</time>
      </trkpt>
      <trkpt lat="45.75536" lon="-0.94538">
        <ele>8.81</ele>
        <time>2022-09-20T11:51:38.000Z</time>
      </trkpt>
      <trkpt lat="45.75566" lon="-0.94523">
        <ele>8.93</ele>
        <time>2022-09-20T11:51:43.000Z</time>
      </trkpt>
      <trkpt lat="45.75598" lon="-0.94504">
        <ele>8.21</ele>
        <time>2022-09-20T11:51:48.000Z</time>
      </trkpt>
      <trkpt lat="45.7563" lon="-0.94485">
        <ele>6.25</ele>
        <time>2022-09-20T11:51:53.000Z</time>
      </trkpt>
      <trkpt lat="45.75659" lon="-0.94468">
        <ele>2.56</ele>
        <time>2022-09-20T11:51:58.000Z</time>
      </trkpt>
      <trkpt lat="45.75686" lon="-0.94452">
        <ele>1.12</ele>
        <time>2022-09-20T11:52:03.000Z</time>
      </trkpt>
      <trkpt lat="45.75712" lon="-0.94436">
        <ele>0.35</ele>
        <time>2022-09-20T11:52:08.000Z</time>
      </trkpt>
      <trkpt lat="45.75739" lon="-0.94422">
        <ele>-0.5</ele>
        <time>2022-09-20T11:52:13.000Z</time>
      </trkpt>
      <trkpt lat="45.75766" lon="-0.94406">
        <ele>-0.36</ele>
        <time>2022-09-20T11:52:18.000Z</time>
      </trkpt>
      <trkpt lat="45.75791" lon="-0.94392">
        <ele>-0.59</ele>
        <time>2022-09-20T11:52:23.000Z</time>
      </trkpt>
      <trkpt lat="45.75813" lon="-0.94381">
        <ele>-0.97</ele>
        <time>2022-09-20T11:52:28.000Z</time>
      </trkpt>
      <trkpt lat="45.75837" lon="-0.94368">
        <ele>-1.37</ele>
        <time>2022-09-20T11:52:33.000Z</time>
      </trkpt>
      <trkpt lat="45.75862" lon="-0.94352">
        <ele>-1.5</ele>
        <time>2022-09-20T11:52:38.000Z</time>
      </trkpt>
      <trkpt lat="45.75887" lon="-0.94333">
        <ele>-1.13</ele>
        <time>2022-09-20T11:52:43.000Z</time>
      </trkpt>
      <trkpt lat="45.75911" lon="-0.94322">
        <ele>-1.4</ele>
        <time>2022-09-20T11:52:48.000Z</time>
      </trkpt>
      <trkpt lat="45.75933" lon="-0.9431">
        <ele>-1.09</ele>
        <time>2022-09-20T11:52:53.000Z</time>
      </trkpt>
      <trkpt lat="45.75954" lon="-0.94302">
        <ele>0.46</ele>
        <time>2022-09-20T11:52:58.000Z</time>
      </trkpt>
      <trkpt lat="45.75974" lon="-0.94291">
        <ele>0.97</ele>
        <time>2022-09-20T11:53:03.000Z</time>
      </trkpt>
      <trkpt lat="45.75994" lon="-0.9428">
        <ele>1.24</ele>
        <time>2022-09-20T11:53:08.000Z</time>
      </trkpt>
      <trkpt lat="45.76013" lon="-0.94268">
        <ele>1.85</ele>
        <time>2022-09-20T11:53:13.000Z</time>
      </trkpt>
      <trkpt lat="45.76032" lon="-0.94255">
        <ele>0.67</ele>
        <time>2022-09-20T11:53:18.000Z</time>
      </trkpt>
      <trkpt lat="45.76051" lon="-0.94244">
        <ele>-0.26</ele>
        <time>2022-09-20T11:53:23.000Z</time>
      </trkpt>
      <trkpt lat="45.76071" lon="-0.94234">
        <ele>-0.18</ele>
        <time>2022-09-20T11:53:28.000Z</time>
      </trkpt>
      <trkpt lat="45.76093" lon="-0.94223">
        <ele>-0.03</ele>
        <time>2022-09-20T11:53:33.000Z</time>
      </trkpt>
      <trkpt lat="45.76114" lon="-0.9421">
        <ele>0.3</ele>
        <time>2022-09-20T11:53:38.000Z</time>
      </trkpt>
      <trkpt lat="45.76138" lon="-0.94196">
        <ele>0.45</ele>
        <time>2022-09-20T11:53:43.000Z</time>
      </trkpt>
      <trkpt lat="45.76168" lon="-0.94182">
        <ele>-1.09</ele>
        <time>2022-09-20T11:53:48.000Z</time>
      </trkpt>
      <trkpt lat="45.76197" lon="-0.94162">
        <ele>-0.77</ele>
        <time>2022-09-20T11:53:53.000Z</time>
      </trkpt>
      <trkpt lat="45.76225" lon="-0.94146">
        <ele>-0.46</ele>
        <time>2022-09-20T11:53:58.000Z</time>
      </trkpt>
      <trkpt lat="45.76253" lon="-0.9413">
        <ele>-0.42</ele>
        <time>2022-09-20T11:54:03.000Z</time>
      </trkpt>
      <trkpt lat="45.76279" lon="-0.94117">
        <ele>2.27</ele>
        <time>2022-09-20T11:54:08.000Z</time>
      </trkpt>
      <trkpt lat="45.76303" lon="-0.94103">
        <ele>3.61</ele>
        <time>2022-09-20T11:54:13.000Z</time>
      </trkpt>
      <trkpt lat="45.76324" lon="-0.9409">
        <ele>4.69</ele>
        <time>2022-09-20T11:54:18.000Z</time>
      </trkpt>
      <trkpt lat="45.76345" lon="-0.94076">
        <ele>5.17</ele>
        <time>2022-09-20T11:54:23.000Z</time>
      </trkpt>
      <trkpt lat="45.7637" lon="-0.94063">
        <ele>5.49</ele>
        <time>2022-09-20T11:54:28.000Z</time>
      </trkpt>
      <trkpt lat="45.76391" lon="-0.9405">
        <ele>5.87</ele>
        <time>2022-09-20T11:54:33.000Z</time>
      </trkpt>
      <trkpt lat="45.76412" lon="-0.94037">
        <ele>6.07</ele>
        <time>2022-09-20T11:54:38.000Z</time>
      </trkpt>
      <trkpt lat="45.76433" lon="-0.94028">
        <ele>5.98</ele>
        <time>2022-09-20T11:54:43.000Z</time>
      </trkpt>
      <trkpt lat="45.76453" lon="-0.94017">
        <ele>5.08</ele>
        <time>2022-09-20T11:54:48.000Z</time>
      </trkpt>
      <trkpt lat="45.76472" lon="-0.94005">
        <ele>4.39</ele>
        <time>2022-09-20T11:54:53.000Z</time>
      </trkpt>
      <trkpt lat="45.76488" lon="-0.93993">
        <ele>4.84</ele>
        <time>2022-09-20T11:54:58.000Z</time>
      </trkpt>
      <trkpt lat="45.76505" lon="-0.93983">
        <ele>5.24</ele>
        <time>2022-09-20T11:55:03.000Z</time>
      </trkpt>
      <trkpt lat="45.76521" lon="-0.93974">
        <ele>5.04</ele>
        <time>2022-09-20T11:55:08.000Z</time>
      </trkpt>
      <trkpt lat="45.76538" lon="-0.93967">
        <ele>5.74</ele>
        <time>2022-09-20T11:55:13.000Z</time>
      </trkpt>
      <trkpt lat="45.76554" lon="-0.93959">
        <ele>6.24</ele>
        <time>2022-09-20T11:55:18.000Z</time>
      </trkpt>
      <trkpt lat="45.76569" lon="-0.93949">
        <ele>6.39</ele>
        <time>2022-09-20T11:55:23.000Z</time>
      </trkpt>
      <trkpt lat="45.76585" lon="-0.9394">
        <ele>6.95</ele>
        <time>2022-09-20T11:55:28.000Z</time>
      </trkpt>
      <trkpt lat="45.76601" lon="-0.93931">
        <ele>7.01</ele>
        <time>2022-09-20T11:55:33.000Z</time>
      </trkpt>
      <trkpt lat="45.76617" lon="-0.93921">
        <ele>7.19</ele>
        <time>2022-09-20T11:55:38.000Z</time>
      </trkpt>
      <trkpt lat="45.76634" lon="-0.93911">
        <ele>8.05</ele>
        <time>2022-09-20T11:55:43.000Z</time>
      </trkpt>
      <trkpt lat="45.76651" lon="-0.93904">
        <ele>9.09</ele>
        <time>2022-09-20T11:55:48.000Z</time>
      </trkpt>
      <trkpt lat="45.76669" lon="-0.93894">
        <ele>8.9</ele>
        <time>2022-09-20T11:55:53.000Z</time>
      </trkpt>
      <trkpt lat="45.76686" lon="-0.9388">
        <ele>7.22</ele>
        <time>2022-09-20T11:55:58.000Z</time>
      </trkpt>
      <trkpt lat="45.76704" lon="-0.9387">
        <ele>6.12</ele>
        <time>2022-09-20T11:56:03.000Z</time>
      </trkpt>
      <trkpt lat="45.76722" lon="-0.93862">
        <ele>5.93</ele>
        <time>2022-09-20T11:56:08.000Z</time>
      </trkpt>
      <trkpt lat="45.76739" lon="-0.93853">
        <ele>7.03</ele>
        <time>2022-09-20T11:56:13.000Z</time>
      </trkpt>
      <trkpt lat="45.76754" lon="-0.93844">
        <ele>7.68</ele>
        <time>2022-09-20T11:56:18.000Z</time>
      </trkpt>
      <trkpt lat="45.76769" lon="-0.93837">
        <ele>8.36</ele>
        <time>2022-09-20T11:56:23.000Z</time>
      </trkpt>
      <trkpt lat="45.76786" lon="-0.93829">
        <ele>6.6</ele>
        <time>2022-09-20T11:56:28.000Z</time>
      </trkpt>
      <trkpt lat="45.76803" lon="-0.93819">
        <ele>6.58</ele>
        <time>2022-09-20T11:56:33.000Z</time>
      </trkpt>
      <trkpt lat="45.7682" lon="-0.9381">
        <ele>6.97</ele>
        <time>2022-09-20T11:56:38.000Z</time>
      </trkpt>
      <trkpt lat="45.76839" lon="-0.93797">
        <ele>7.52</ele>
        <time>2022-09-20T11:56:43.000Z</time>
      </trkpt>
      <trkpt lat="45.7686" lon="-0.93788">
        <ele>10.14</ele>
        <time>2022-09-20T11:56:48.000Z</time>
      </trkpt>
      <trkpt lat="45.76878" lon="-0.93778">
        <ele>11.84</ele>
        <time>2022-09-20T11:56:53.000Z</time>
      </trkpt>
      <trkpt lat="45.76897" lon="-0.93768">
        <ele>12.65</ele>
        <time>2022-09-20T11:56:58.000Z</time>
      </trkpt>
      <trkpt lat="45.76917" lon="-0.93756">
        <ele>14.03</ele>
        <time>2022-09-20T11:57:03.000Z</time>
      </trkpt>
      <trkpt lat="45.7694" lon="-0.93747">
        <ele>13.39</ele>
        <time>2022-09-20T11:57:08.000Z</time>
      </trkpt>
      <trkpt lat="45.76965" lon="-0.93735">
        <ele>12.27</ele>
        <time>2022-09-20T11:57:13.000Z</time>
      </trkpt>
      <trkpt lat="45.76991" lon="-0.93725">
        <ele>10.98</ele>
        <time>2022-09-20T11:57:18.000Z</time>
      </trkpt>
      <trkpt lat="45.77018" lon="-0.93713">
        <ele>10.73</ele>
        <time>2022-09-20T11:57:23.000Z</time>
      </trkpt>
      <trkpt lat="45.77047" lon="-0.93701">
        <ele>10.6</ele>
        <time>2022-09-20T11:57:28.000Z</time>
      </trkpt>
      <trkpt lat="45.77075" lon="-0.9369">
        <ele>10.58</ele>
        <time>2022-09-20T11:57:33.000Z</time>
      </trkpt>
      <trkpt lat="45.77106" lon="-0.93675">
        <ele>9.63</ele>
        <time>2022-09-20T11:57:38.000Z</time>
      </trkpt>
      <trkpt lat="45.77133" lon="-0.93669">
        <ele>10.02</ele>
        <time>2022-09-20T11:57:43.000Z</time>
      </trkpt>
      <trkpt lat="45.7716" lon="-0.93662">
        <ele>9.73</ele>
        <time>2022-09-20T11:57:48.000Z</time>
      </trkpt>
      <trkpt lat="45.77185" lon="-0.93656">
        <ele>9.6</ele>
        <time>2022-09-20T11:57:53.000Z</time>
      </trkpt>
      <trkpt lat="45.7721" lon="-0.93652">
        <ele>12.6</ele>
        <time>2022-09-20T11:57:58.000Z</time>
      </trkpt>
      <trkpt lat="45.77233" lon="-0.93647">
        <ele>13.51</ele>
        <time>2022-09-20T11:58:03.000Z</time>
      </trkpt>
      <trkpt lat="45.77255" lon="-0.93642">
        <ele>13.1</ele>
        <time>2022-09-20T11:58:08.000Z</time>
      </trkpt>
      <trkpt lat="45.77278" lon="-0.93637">
        <ele>12.68</ele>
        <time>2022-09-20T11:58:13.000Z</time>
      </trkpt>
      <trkpt lat="45.77301" lon="-0.93632">
        <ele>12.95</ele>
        <time>2022-09-20T11:58:18.000Z</time>
      </trkpt>
      <trkpt lat="45.77326" lon="-0.93629">
        <ele>14.26</ele>
        <time>2022-09-20T11:58:23.000Z</time>
      </trkpt>
      <trkpt lat="45.77351" lon="-0.93624">
        <ele>12.83</ele>
        <time>2022-09-20T11:58:28.000Z</time>
      </trkpt>
      <trkpt lat="45.77375" lon="-0.9362">
        <ele>11.19</ele>
        <time>2022-09-20T11:58:33.000Z</time>
      </trkpt>
      <trkpt lat="45.77397" lon="-0.93619">
        <ele>11.76</ele>
        <time>2022-09-20T11:58:38.000Z</time>
      </trkpt>
      <trkpt lat="45.77419" lon="-0.93617">
        <ele>11.27</ele>
        <time>2022-09-20T11:58:43.000Z</time>
      </trkpt>
      <trkpt lat="45.77442" lon="-0.93617">
        <ele>12.59</ele>
        <time>2022-09-20T11:58:48.000Z</time>
      </trkpt>
      <trkpt lat="45.77464" lon="-0.93618">
        <ele>13.38</ele>
        <time>2022-09-20T11:58:53.000Z</time>
      </trkpt>
      <trkpt lat="45.77482" lon="-0.93616">
        <ele>12.27</ele>
        <time>2022-09-20T11:58:58.000Z</time>
      </trkpt>
      <trkpt lat="45.77503" lon="-0.93615">
        <ele>10.79</ele>
        <time>2022-09-20T11:59:03.000Z</time>
      </trkpt>
      <trkpt lat="45.7752" lon="-0.93615">
        <ele>9.72</ele>
        <time>2022-09-20T11:59:08.000Z</time>
      </trkpt>
      <trkpt lat="45.77536" lon="-0.93613">
        <ele>10.47</ele>
        <time>2022-09-20T11:59:13.000Z</time>
      </trkpt>
      <trkpt lat="45.77555" lon="-0.93614">
        <ele>12.64</ele>
        <time>2022-09-20T11:59:18.000Z</time>
      </trkpt>
      <trkpt lat="45.77572" lon="-0.93614">
        <ele>13.03</ele>
        <time>2022-09-20T11:59:23.000Z</time>
      </trkpt>
      <trkpt lat="45.77589" lon="-0.93615">
        <ele>12.57</ele>
        <time>2022-09-20T11:59:28.000Z</time>
      </trkpt>
      <trkpt lat="45.77605" lon="-0.93618">
        <ele>14.95</ele>
        <time>2022-09-20T11:59:33.000Z</time>
      </trkpt>
      <trkpt lat="45.77622" lon="-0.93624">
        <ele>13.1</ele>
        <time>2022-09-20T11:59:38.000Z</time>
      </trkpt>
      <trkpt lat="45.77639" lon="-0.93624">
        <ele>13.41</ele>
        <time>2022-09-20T11:59:43.000Z</time>
      </trkpt>
      <trkpt lat="45.77655" lon="-0.93626">
        <ele>14.15</ele>
        <time>2022-09-20T11:59:48.000Z</time>
      </trkpt>
      <trkpt lat="45.77665" lon="-0.93628">
        <ele>13.78</ele>
        <time>2022-09-20T11:59:53.000Z</time>
      </trkpt>
      <trkpt lat="45.77674" lon="-0.93631">
        <ele>13.81</ele>
        <time>2022-09-20T11:59:58.000Z</time>
      </trkpt>
      <trkpt lat="45.77664" lon="-0.93633">
        <ele>17.32</ele>
        <time>2022-09-20T12:01:25.000Z</time>
      </trkpt>
      <trkpt lat="45.77676" lon="-0.9364">
        <ele>19.95</ele>
        <time>2022-09-20T12:04:05.000Z</time>
      </trkpt>
      <trkpt lat="45.7767" lon="-0.93631">
        <ele>18.22</ele>
        <time>2022-09-20T12:05:34.000Z</time>
      </trkpt>
      <trkpt lat="45.77673" lon="-0.93643">
        <ele>18.6</ele>
        <time>2022-09-20T12:07:40.000Z</time>
      </trkpt>
      <trkpt lat="45.77666" lon="-0.93655">
        <ele>19.37</ele>
        <time>2022-09-20T12:08:42.000Z</time>
      </trkpt>
      <trkpt lat="45.77665" lon="-0.93676">
        <ele>18.94</ele>
        <time>2022-09-20T12:08:47.000Z</time>
      </trkpt>
      <trkpt lat="45.77665" lon="-0.93697">
        <ele>19.03</ele>
        <time>2022-09-20T12:08:52.000Z</time>
      </trkpt>
      <trkpt lat="45.77662" lon="-0.93716">
        <ele>19.2</ele>
        <time>2022-09-20T12:08:57.000Z</time>
      </trkpt>
      <trkpt lat="45.77659" lon="-0.93737">
        <ele>18.71</ele>
        <time>2022-09-20T12:09:02.000Z</time>
      </trkpt>
      <trkpt lat="45.77655" lon="-0.93759">
        <ele>18.33</ele>
        <time>2022-09-20T12:09:07.000Z</time>
      </trkpt>
      <trkpt lat="45.77657" lon="-0.93782">
        <ele>18.13</ele>
        <time>2022-09-20T12:09:12.000Z</time>
      </trkpt>
      <trkpt lat="45.77655" lon="-0.93805">
        <ele>17.98</ele>
        <time>2022-09-20T12:09:17.000Z</time>
      </trkpt>
      <trkpt lat="45.77655" lon="-0.93829">
        <ele>18.33</ele>
        <time>2022-09-20T12:09:22.000Z</time>
      </trkpt>
      <trkpt lat="45.77654" lon="-0.93851">
        <ele>18.97</ele>
        <time>2022-09-20T12:09:27.000Z</time>
      </trkpt>
      <trkpt lat="45.77657" lon="-0.93872">
        <ele>19.19</ele>
        <time>2022-09-20T12:09:32.000Z</time>
      </trkpt>
      <trkpt lat="45.77663" lon="-0.93891">
        <ele>18.83</ele>
        <time>2022-09-20T12:09:37.000Z</time>
      </trkpt>
      <trkpt lat="45.7767" lon="-0.93911">
        <ele>18.02</ele>
        <time>2022-09-20T12:09:42.000Z</time>
      </trkpt>
      <trkpt lat="45.7768" lon="-0.93934">
        <ele>17.73</ele>
        <time>2022-09-20T12:09:47.000Z</time>
      </trkpt>
      <trkpt lat="45.77689" lon="-0.93953">
        <ele>17.38</ele>
        <time>2022-09-20T12:09:52.000Z</time>
      </trkpt>
      <trkpt lat="45.777" lon="-0.93975">
        <ele>15.97</ele>
        <time>2022-09-20T12:09:57.000Z</time>
      </trkpt>
      <trkpt lat="45.77712" lon="-0.94004">
        <ele>15.69</ele>
        <time>2022-09-20T12:10:02.000Z</time>
      </trkpt>
      <trkpt lat="45.77726" lon="-0.94031">
        <ele>17.43</ele>
        <time>2022-09-20T12:10:07.000Z</time>
      </trkpt>
      <trkpt lat="45.77745" lon="-0.94053">
        <ele>19.05</ele>
        <time>2022-09-20T12:10:12.000Z</time>
      </trkpt>
      <trkpt lat="45.77763" lon="-0.94072">
        <ele>19.51</ele>
        <time>2022-09-20T12:10:17.000Z</time>
      </trkpt>
      <trkpt lat="45.77782" lon="-0.94094">
        <ele>18.83</ele>
        <time>2022-09-20T12:10:22.000Z</time>
      </trkpt>
      <trkpt lat="45.778" lon="-0.94119">
        <ele>19.63</ele>
        <time>2022-09-20T12:10:27.000Z</time>
      </trkpt>
      <trkpt lat="45.77817" lon="-0.94149">
        <ele>18.93</ele>
        <time>2022-09-20T12:10:32.000Z</time>
      </trkpt>
      <trkpt lat="45.7783" lon="-0.94183">
        <ele>18.31</ele>
        <time>2022-09-20T12:10:37.000Z</time>
      </trkpt>
      <trkpt lat="45.77838" lon="-0.94219">
        <ele>18.31</ele>
        <time>2022-09-20T12:10:42.000Z</time>
      </trkpt>
      <trkpt lat="45.77848" lon="-0.9425">
        <ele>18.03</ele>
        <time>2022-09-20T12:10:47.000Z</time>
      </trkpt>
      <trkpt lat="45.77865" lon="-0.9428">
        <ele>17.73</ele>
        <time>2022-09-20T12:10:52.000Z</time>
      </trkpt>
      <trkpt lat="45.77874" lon="-0.94306">
        <ele>17.99</ele>
        <time>2022-09-20T12:10:57.000Z</time>
      </trkpt>
      <trkpt lat="45.77888" lon="-0.94333">
        <ele>18.61</ele>
        <time>2022-09-20T12:11:02.000Z</time>
      </trkpt>
      <trkpt lat="45.77902" lon="-0.94347">
        <ele>20.27</ele>
        <time>2022-09-20T12:11:07.000Z</time>
      </trkpt>
      <trkpt lat="45.77912" lon="-0.94358">
        <ele>21.41</ele>
        <time>2022-09-20T12:11:12.000Z</time>
      </trkpt>
      <trkpt lat="45.77918" lon="-0.94369">
        <ele>24.27</ele>
        <time>2022-09-20T12:11:35.000Z</time>
      </trkpt>
      <trkpt lat="45.7793" lon="-0.94376">
        <ele>24.49</ele>
        <time>2022-09-20T12:11:40.000Z</time>
      </trkpt>
      <trkpt lat="45.77948" lon="-0.94385">
        <ele>24.5</ele>
        <time>2022-09-20T12:11:45.000Z</time>
      </trkpt>
      <trkpt lat="45.77969" lon="-0.94396">
        <ele>23.79</ele>
        <time>2022-09-20T12:11:50.000Z</time>
      </trkpt>
      <trkpt lat="45.77985" lon="-0.94409">
        <ele>23.34</ele>
        <time>2022-09-20T12:11:55.000Z</time>
      </trkpt>
      <trkpt lat="45.78" lon="-0.94421">
        <ele>22.35</ele>
        <time>2022-09-20T12:12:00.000Z</time>
      </trkpt>
      <trkpt lat="45.78016" lon="-0.94432">
        <ele>22.06</ele>
        <time>2022-09-20T12:12:05.000Z</time>
      </trkpt>
      <trkpt lat="45.78032" lon="-0.94445">
        <ele>21.35</ele>
        <time>2022-09-20T12:12:10.000Z</time>
      </trkpt>
      <trkpt lat="45.7805" lon="-0.94457">
        <ele>20.27</ele>
        <time>2022-09-20T12:12:15.000Z</time>
      </trkpt>
      <trkpt lat="45.78068" lon="-0.94468">
        <ele>19.5</ele>
        <time>2022-09-20T12:12:20.000Z</time>
      </trkpt>
      <trkpt lat="45.78088" lon="-0.94474">
        <ele>20.73</ele>
        <time>2022-09-20T12:12:25.000Z</time>
      </trkpt>
      <trkpt lat="45.78106" lon="-0.94471">
        <ele>22.41</ele>
        <time>2022-09-20T12:12:30.000Z</time>
      </trkpt>
      <trkpt lat="45.78121" lon="-0.94462">
        <ele>23.08</ele>
        <time>2022-09-20T12:12:35.000Z</time>
      </trkpt>
      <trkpt lat="45.78136" lon="-0.94453">
        <ele>22.76</ele>
        <time>2022-09-20T12:12:40.000Z</time>
      </trkpt>
      <trkpt lat="45.78153" lon="-0.94443">
        <ele>23.37</ele>
        <time>2022-09-20T12:12:45.000Z</time>
      </trkpt>
      <trkpt lat="45.7817" lon="-0.94433">
        <ele>23.79</ele>
        <time>2022-09-20T12:12:50.000Z</time>
      </trkpt>
      <trkpt lat="45.78186" lon="-0.94422">
        <ele>23.27</ele>
        <time>2022-09-20T12:12:55.000Z</time>
      </trkpt>
      <trkpt lat="45.78202" lon="-0.94414">
        <ele>23.59</ele>
        <time>2022-09-20T12:13:00.000Z</time>
      </trkpt>
      <trkpt lat="45.78216" lon="-0.94409">
        <ele>24.67</ele>
        <time>2022-09-20T12:13:05.000Z</time>
      </trkpt>
      <trkpt lat="45.7823" lon="-0.94406">
        <ele>25.84</ele>
        <time>2022-09-20T12:13:10.000Z</time>
      </trkpt>
      <trkpt lat="45.78241" lon="-0.94409">
        <ele>25.42</ele>
        <time>2022-09-20T12:13:15.000Z</time>
      </trkpt>
      <trkpt lat="45.78254" lon="-0.94412">
        <ele>23.73</ele>
        <time>2022-09-20T12:13:20.000Z</time>
      </trkpt>
      <trkpt lat="45.78268" lon="-0.94418">
        <ele>21.46</ele>
        <time>2022-09-20T12:13:25.000Z</time>
      </trkpt>
      <trkpt lat="45.7828" lon="-0.94429">
        <ele>19.42</ele>
        <time>2022-09-20T12:13:30.000Z</time>
      </trkpt>
      <trkpt lat="45.7829" lon="-0.94444">
        <ele>18.46</ele>
        <time>2022-09-20T12:13:35.000Z</time>
      </trkpt>
      <trkpt lat="45.78304" lon="-0.94461">
        <ele>17.91</ele>
        <time>2022-09-20T12:13:40.000Z</time>
      </trkpt>
      <trkpt lat="45.78319" lon="-0.94481">
        <ele>18.24</ele>
        <time>2022-09-20T12:13:45.000Z</time>
      </trkpt>
      <trkpt lat="45.78333" lon="-0.94498">
        <ele>20.05</ele>
        <time>2022-09-20T12:13:50.000Z</time>
      </trkpt>
      <trkpt lat="45.78349" lon="-0.94517">
        <ele>21.24</ele>
        <time>2022-09-20T12:13:55.000Z</time>
      </trkpt>
      <trkpt lat="45.78366" lon="-0.94539">
        <ele>20.8</ele>
        <time>2022-09-20T12:14:00.000Z</time>
      </trkpt>
      <trkpt lat="45.78383" lon="-0.94565">
        <ele>21.47</ele>
        <time>2022-09-20T12:14:05.000Z</time>
      </trkpt>
      <trkpt lat="45.78406" lon="-0.94591">
        <ele>21.16</ele>
        <time>2022-09-20T12:14:10.000Z</time>
      </trkpt>
      <trkpt lat="45.78434" lon="-0.94613">
        <ele>18.91</ele>
        <time>2022-09-20T12:14:15.000Z</time>
      </trkpt>
      <trkpt lat="45.78464" lon="-0.94628">
        <ele>16.62</ele>
        <time>2022-09-20T12:14:20.000Z</time>
      </trkpt>
      <trkpt lat="45.78492" lon="-0.94637">
        <ele>15.2</ele>
        <time>2022-09-20T12:14:25.000Z</time>
      </trkpt>
      <trkpt lat="45.78516" lon="-0.94646">
        <ele>13.49</ele>
        <time>2022-09-20T12:14:30.000Z</time>
      </trkpt>
      <trkpt lat="45.78539" lon="-0.94655">
        <ele>14.31</ele>
        <time>2022-09-20T12:14:35.000Z</time>
      </trkpt>
      <trkpt lat="45.78561" lon="-0.94663">
        <ele>14.23</ele>
        <time>2022-09-20T12:14:40.000Z</time>
      </trkpt>
      <trkpt lat="45.78579" lon="-0.94672">
        <ele>13.91</ele>
        <time>2022-09-20T12:14:45.000Z</time>
      </trkpt>
      <trkpt lat="45.78596" lon="-0.94682">
        <ele>13.39</ele>
        <time>2022-09-20T12:14:50.000Z</time>
      </trkpt>
      <trkpt lat="45.7861" lon="-0.94694">
        <ele>14.42</ele>
        <time>2022-09-20T12:14:55.000Z</time>
      </trkpt>
      <trkpt lat="45.78626" lon="-0.94709">
        <ele>15.68</ele>
        <time>2022-09-20T12:15:00.000Z</time>
      </trkpt>
      <trkpt lat="45.78642" lon="-0.94728">
        <ele>16.27</ele>
        <time>2022-09-20T12:15:05.000Z</time>
      </trkpt>
      <trkpt lat="45.78657" lon="-0.94748">
        <ele>16.86</ele>
        <time>2022-09-20T12:15:10.000Z</time>
      </trkpt>
      <trkpt lat="45.78674" lon="-0.94768">
        <ele>17.86</ele>
        <time>2022-09-20T12:15:15.000Z</time>
      </trkpt>
      <trkpt lat="45.78688" lon="-0.94788">
        <ele>18.66</ele>
        <time>2022-09-20T12:15:20.000Z</time>
      </trkpt>
      <trkpt lat="45.78702" lon="-0.94807">
        <ele>18.36</ele>
        <time>2022-09-20T12:15:25.000Z</time>
      </trkpt>
      <trkpt lat="45.78718" lon="-0.94827">
        <ele>17.14</ele>
        <time>2022-09-20T12:15:30.000Z</time>
      </trkpt>
      <trkpt lat="45.78734" lon="-0.94848">
        <ele>16.71</ele>
        <time>2022-09-20T12:15:35.000Z</time>
      </trkpt>
      <trkpt lat="45.78753" lon="-0.94869">
        <ele>17.33</ele>
        <time>2022-09-20T12:15:40.000Z</time>
      </trkpt>
      <trkpt lat="45.78772" lon="-0.94893">
        <ele>17.73</ele>
        <time>2022-09-20T12:15:45.000Z</time>
      </trkpt>
      <trkpt lat="45.7879" lon="-0.94917">
        <ele>17.05</ele>
        <time>2022-09-20T12:15:50.000Z</time>
      </trkpt>
      <trkpt lat="45.78811" lon="-0.94938">
        <ele>17.36</ele>
        <time>2022-09-20T12:15:55.000Z</time>
      </trkpt>
      <trkpt lat="45.78833" lon="-0.94958">
        <ele>17.87</ele>
        <time>2022-09-20T12:16:00.000Z</time>
      </trkpt>
      <trkpt lat="45.78856" lon="-0.94969">
        <ele>18.36</ele>
        <time>2022-09-20T12:16:05.000Z</time>
      </trkpt>
      <trkpt lat="45.7888" lon="-0.94974">
        <ele>17.42</ele>
        <time>2022-09-20T12:16:10.000Z</time>
      </trkpt>
      <trkpt lat="45.78902" lon="-0.94974">
        <ele>15.96</ele>
        <time>2022-09-20T12:16:15.000Z</time>
      </trkpt>
      <trkpt lat="45.78924" lon="-0.9497">
        <ele>16.03</ele>
        <time>2022-09-20T12:16:20.000Z</time>
      </trkpt>
      <trkpt lat="45.78945" lon="-0.94962">
        <ele>15.09</ele>
        <time>2022-09-20T12:16:25.000Z</time>
      </trkpt>
      <trkpt lat="45.78965" lon="-0.94956">
        <ele>13.58</ele>
        <time>2022-09-20T12:16:30.000Z</time>
      </trkpt>
      <trkpt lat="45.78986" lon="-0.94957">
        <ele>12.8</ele>
        <time>2022-09-20T12:16:35.000Z</time>
      </trkpt>
      <trkpt lat="45.79009" lon="-0.9496">
        <ele>12.44</ele>
        <time>2022-09-20T12:16:40.000Z</time>
      </trkpt>
      <trkpt lat="45.79032" lon="-0.94966">
        <ele>12.86</ele>
        <time>2022-09-20T12:16:45.000Z</time>
      </trkpt>
      <trkpt lat="45.79053" lon="-0.94977">
        <ele>13.56</ele>
        <time>2022-09-20T12:16:50.000Z</time>
      </trkpt>
      <trkpt lat="45.79074" lon="-0.94993">
        <ele>13.5</ele>
        <time>2022-09-20T12:16:55.000Z</time>
      </trkpt>
      <trkpt lat="45.79096" lon="-0.95008">
        <ele>16.32</ele>
        <time>2022-09-20T12:17:00.000Z</time>
      </trkpt>
      <trkpt lat="45.79118" lon="-0.95026">
        <ele>16.86</ele>
        <time>2022-09-20T12:17:05.000Z</time>
      </trkpt>
      <trkpt lat="45.79141" lon="-0.95045">
        <ele>17.69</ele>
        <time>2022-09-20T12:17:10.000Z</time>
      </trkpt>
      <trkpt lat="45.79162" lon="-0.95062">
        <ele>19.18</ele>
        <time>2022-09-20T12:17:15.000Z</time>
      </trkpt>
      <trkpt lat="45.79182" lon="-0.95078">
        <ele>19.3</ele>
        <time>2022-09-20T12:17:20.000Z</time>
      </trkpt>
      <trkpt lat="45.79203" lon="-0.95091">
        <ele>20.31</ele>
        <time>2022-09-20T12:17:25.000Z</time>
      </trkpt>
      <trkpt lat="45.79224" lon="-0.95098">
        <ele>21.06</ele>
        <time>2022-09-20T12:17:30.000Z</time>
      </trkpt>
      <trkpt lat="45.79246" lon="-0.95104">
        <ele>19.53</ele>
        <time>2022-09-20T12:17:35.000Z</time>
      </trkpt>
      <trkpt lat="45.79267" lon="-0.95107">
        <ele>18.76</ele>
        <time>2022-09-20T12:17:40.000Z</time>
      </trkpt>
      <trkpt lat="45.79288" lon="-0.9511">
        <ele>18.42</ele>
        <time>2022-09-20T12:17:45.000Z</time>
      </trkpt>
      <trkpt lat="45.79308" lon="-0.95115">
        <ele>17.52</ele>
        <time>2022-09-20T12:17:50.000Z</time>
      </trkpt>
      <trkpt lat="45.7933" lon="-0.95119">
        <ele>17.53</ele>
        <time>2022-09-20T12:17:55.000Z</time>
      </trkpt>
      <trkpt lat="45.79351" lon="-0.9512">
        <ele>16.71</ele>
        <time>2022-09-20T12:18:00.000Z</time>
      </trkpt>
      <trkpt lat="45.79372" lon="-0.95122">
        <ele>17.81</ele>
        <time>2022-09-20T12:18:05.000Z</time>
      </trkpt>
      <trkpt lat="45.79393" lon="-0.95126">
        <ele>18.78</ele>
        <time>2022-09-20T12:18:10.000Z</time>
      </trkpt>
      <trkpt lat="45.79413" lon="-0.95131">
        <ele>18.14</ele>
        <time>2022-09-20T12:18:15.000Z</time>
      </trkpt>
      <trkpt lat="45.79433" lon="-0.95136">
        <ele>18.01</ele>
        <time>2022-09-20T12:18:20.000Z</time>
      </trkpt>
      <trkpt lat="45.79454" lon="-0.95141">
        <ele>16.75</ele>
        <time>2022-09-20T12:18:25.000Z</time>
      </trkpt>
      <trkpt lat="45.79475" lon="-0.95142">
        <ele>16.52</ele>
        <time>2022-09-20T12:18:30.000Z</time>
      </trkpt>
      <trkpt lat="45.79496" lon="-0.95142">
        <ele>16.93</ele>
        <time>2022-09-20T12:18:35.000Z</time>
      </trkpt>
      <trkpt lat="45.79518" lon="-0.95139">
        <ele>17.11</ele>
        <time>2022-09-20T12:18:40.000Z</time>
      </trkpt>
      <trkpt lat="45.7954" lon="-0.95134">
        <ele>15.92</ele>
        <time>2022-09-20T12:18:45.000Z</time>
      </trkpt>
      <trkpt lat="45.79562" lon="-0.95129">
        <ele>16.1</ele>
        <time>2022-09-20T12:18:50.000Z</time>
      </trkpt>
      <trkpt lat="45.79582" lon="-0.95123">
        <ele>16.41</ele>
        <time>2022-09-20T12:18:55.000Z</time>
      </trkpt>
      <trkpt lat="45.79602" lon="-0.95118">
        <ele>17.65</ele>
        <time>2022-09-20T12:19:00.000Z</time>
      </trkpt>
      <trkpt lat="45.79624" lon="-0.95114">
        <ele>17.15</ele>
        <time>2022-09-20T12:19:05.000Z</time>
      </trkpt>
      <trkpt lat="45.79645" lon="-0.95115">
        <ele>17.07</ele>
        <time>2022-09-20T12:19:10.000Z</time>
      </trkpt>
      <trkpt lat="45.79666" lon="-0.95119">
        <ele>19.62</ele>
        <time>2022-09-20T12:19:15.000Z</time>
      </trkpt>
      <trkpt lat="45.79686" lon="-0.95127">
        <ele>20.16</ele>
        <time>2022-09-20T12:19:20.000Z</time>
      </trkpt>
      <trkpt lat="45.79707" lon="-0.95137">
        <ele>21.95</ele>
        <time>2022-09-20T12:19:25.000Z</time>
      </trkpt>
      <trkpt lat="45.79728" lon="-0.95147">
        <ele>23.21</ele>
        <time>2022-09-20T12:19:30.000Z</time>
      </trkpt>
      <trkpt lat="45.79749" lon="-0.95153">
        <ele>22.1</ele>
        <time>2022-09-20T12:19:35.000Z</time>
      </trkpt>
      <trkpt lat="45.7977" lon="-0.95163">
        <ele>20.56</ele>
        <time>2022-09-20T12:19:40.000Z</time>
      </trkpt>
      <trkpt lat="45.7979" lon="-0.95172">
        <ele>19.36</ele>
        <time>2022-09-20T12:19:45.000Z</time>
      </trkpt>
      <trkpt lat="45.7981" lon="-0.95182">
        <ele>17.75</ele>
        <time>2022-09-20T12:19:50.000Z</time>
      </trkpt>
      <trkpt lat="45.79831" lon="-0.95191">
        <ele>16.99</ele>
        <time>2022-09-20T12:19:55.000Z</time>
      </trkpt>
      <trkpt lat="45.79852" lon="-0.952">
        <ele>17.29</ele>
        <time>2022-09-20T12:20:00.000Z</time>
      </trkpt>
      <trkpt lat="45.79874" lon="-0.95209">
        <ele>17.26</ele>
        <time>2022-09-20T12:20:05.000Z</time>
      </trkpt>
      <trkpt lat="45.79896" lon="-0.95218">
        <ele>16.92</ele>
        <time>2022-09-20T12:20:10.000Z</time>
      </trkpt>
      <trkpt lat="45.79917" lon="-0.95222">
        <ele>16.66</ele>
        <time>2022-09-20T12:20:15.000Z</time>
      </trkpt>
      <trkpt lat="45.79938" lon="-0.95211">
        <ele>15.35</ele>
        <time>2022-09-20T12:20:20.000Z</time>
      </trkpt>
      <trkpt lat="45.79957" lon="-0.95194">
        <ele>14.76</ele>
        <time>2022-09-20T12:20:25.000Z</time>
      </trkpt>
      <trkpt lat="45.79978" lon="-0.95178">
        <ele>14.78</ele>
        <time>2022-09-20T12:20:30.000Z</time>
      </trkpt>
      <trkpt lat="45.79997" lon="-0.95155">
        <ele>13.28</ele>
        <time>2022-09-20T12:20:35.000Z</time>
      </trkpt>
      <trkpt lat="45.80019" lon="-0.9514">
        <ele>12.46</ele>
        <time>2022-09-20T12:20:40.000Z</time>
      </trkpt>
      <trkpt lat="45.8004" lon="-0.95125">
        <ele>11.83</ele>
        <time>2022-09-20T12:20:45.000Z</time>
      </trkpt>
      <trkpt lat="45.80059" lon="-0.95111">
        <ele>10.94</ele>
        <time>2022-09-20T12:20:50.000Z</time>
      </trkpt>
      <trkpt lat="45.8008" lon="-0.95102">
        <ele>10.97</ele>
        <time>2022-09-20T12:20:55.000Z</time>
      </trkpt>
      <trkpt lat="45.80097" lon="-0.9509">
        <ele>11.72</ele>
        <time>2022-09-20T12:21:00.000Z</time>
      </trkpt>
      <trkpt lat="45.80112" lon="-0.95078">
        <ele>11.43</ele>
        <time>2022-09-20T12:21:05.000Z</time>
      </trkpt>
      <trkpt lat="45.80128" lon="-0.95072">
        <ele>11.52</ele>
        <time>2022-09-20T12:21:10.000Z</time>
      </trkpt>
      <trkpt lat="45.80148" lon="-0.95065">
        <ele>11.61</ele>
        <time>2022-09-20T12:21:15.000Z</time>
      </trkpt>
      <trkpt lat="45.80162" lon="-0.95053">
        <ele>11.33</ele>
        <time>2022-09-20T12:21:20.000Z</time>
      </trkpt>
      <trkpt lat="45.80172" lon="-0.9505">
        <ele>10.03</ele>
        <time>2022-09-20T12:21:52.000Z</time>
      </trkpt>
      <trkpt lat="45.80187" lon="-0.95042">
        <ele>9.9</ele>
        <time>2022-09-20T12:21:57.000Z</time>
      </trkpt>
      <trkpt lat="45.8021" lon="-0.95023">
        <ele>10.04</ele>
        <time>2022-09-20T12:22:02.000Z</time>
      </trkpt>
      <trkpt lat="45.80231" lon="-0.95008">
        <ele>11.7</ele>
        <time>2022-09-20T12:22:07.000Z</time>
      </trkpt>
      <trkpt lat="45.80251" lon="-0.94997">
        <ele>12.9</ele>
        <time>2022-09-20T12:22:12.000Z</time>
      </trkpt>
      <trkpt lat="45.80273" lon="-0.94987">
        <ele>13.64</ele>
        <time>2022-09-20T12:22:17.000Z</time>
      </trkpt>
      <trkpt lat="45.80295" lon="-0.94978">
        <ele>14.83</ele>
        <time>2022-09-20T12:22:22.000Z</time>
      </trkpt>
      <trkpt lat="45.80319" lon="-0.9497">
        <ele>15.12</ele>
        <time>2022-09-20T12:22:27.000Z</time>
      </trkpt>
      <trkpt lat="45.80345" lon="-0.94962">
        <ele>14.86</ele>
        <time>2022-09-20T12:22:32.000Z</time>
      </trkpt>
      <trkpt lat="45.80371" lon="-0.94954">
        <ele>14.73</ele>
        <time>2022-09-20T12:22:37.000Z</time>
      </trkpt>
      <trkpt lat="45.80397" lon="-0.94944">
        <ele>13.6</ele>
        <time>2022-09-20T12:22:42.000Z</time>
      </trkpt>
      <trkpt lat="45.80422" lon="-0.94935">
        <ele>13.18</ele>
        <time>2022-09-20T12:22:47.000Z</time>
      </trkpt>
      <trkpt lat="45.80449" lon="-0.94925">
        <ele>11.81</ele>
        <time>2022-09-20T12:22:52.000Z</time>
      </trkpt>
      <trkpt lat="45.80473" lon="-0.94916">
        <ele>11.52</ele>
        <time>2022-09-20T12:22:57.000Z</time>
      </trkpt>
      <trkpt lat="45.80496" lon="-0.9491">
        <ele>10.87</ele>
        <time>2022-09-20T12:23:02.000Z</time>
      </trkpt>
      <trkpt lat="45.80518" lon="-0.94906">
        <ele>11.04</ele>
        <time>2022-09-20T12:23:07.000Z</time>
      </trkpt>
      <trkpt lat="45.80538" lon="-0.94904">
        <ele>10.5</ele>
        <time>2022-09-20T12:23:12.000Z</time>
      </trkpt>
      <trkpt lat="45.80555" lon="-0.94908">
        <ele>12.22</ele>
        <time>2022-09-20T12:23:17.000Z</time>
      </trkpt>
      <trkpt lat="45.80571" lon="-0.94912">
        <ele>12.98</ele>
        <time>2022-09-20T12:23:22.000Z</time>
      </trkpt>
      <trkpt lat="45.80587" lon="-0.94919">
        <ele>13.48</ele>
        <time>2022-09-20T12:23:27.000Z</time>
      </trkpt>
      <trkpt lat="45.80602" lon="-0.94929">
        <ele>13.61</ele>
        <time>2022-09-20T12:23:32.000Z</time>
      </trkpt>
      <trkpt lat="45.80618" lon="-0.9494">
        <ele>12.96</ele>
        <time>2022-09-20T12:23:37.000Z</time>
      </trkpt>
      <trkpt lat="45.80635" lon="-0.94952">
        <ele>13.47</ele>
        <time>2022-09-20T12:23:42.000Z</time>
      </trkpt>
      <trkpt lat="45.80649" lon="-0.94966">
        <ele>13.86</ele>
        <time>2022-09-20T12:23:47.000Z</time>
      </trkpt>
      <trkpt lat="45.80662" lon="-0.94983">
        <ele>14.83</ele>
        <time>2022-09-20T12:23:52.000Z</time>
      </trkpt>
      <trkpt lat="45.80673" lon="-0.95">
        <ele>14.87</ele>
        <time>2022-09-20T12:23:57.000Z</time>
      </trkpt>
      <trkpt lat="45.80684" lon="-0.95018">
        <ele>15.06</ele>
        <time>2022-09-20T12:24:02.000Z</time>
      </trkpt>
      <trkpt lat="45.80695" lon="-0.95037">
        <ele>15.97</ele>
        <time>2022-09-20T12:24:07.000Z</time>
      </trkpt>
      <trkpt lat="45.80704" lon="-0.95055">
        <ele>16.24</ele>
        <time>2022-09-20T12:24:12.000Z</time>
      </trkpt>
      <trkpt lat="45.80714" lon="-0.95073">
        <ele>16.32</ele>
        <time>2022-09-20T12:24:17.000Z</time>
      </trkpt>
      <trkpt lat="45.80724" lon="-0.95093">
        <ele>17.58</ele>
        <time>2022-09-20T12:24:22.000Z</time>
      </trkpt>
      <trkpt lat="45.80738" lon="-0.95113">
        <ele>18.39</ele>
        <time>2022-09-20T12:24:27.000Z</time>
      </trkpt>
      <trkpt lat="45.80755" lon="-0.9513">
        <ele>18.93</ele>
        <time>2022-09-20T12:24:32.000Z</time>
      </trkpt>
      <trkpt lat="45.80773" lon="-0.95145">
        <ele>19.06</ele>
        <time>2022-09-20T12:24:37.000Z</time>
      </trkpt>
      <trkpt lat="45.80793" lon="-0.95158">
        <ele>17.79</ele>
        <time>2022-09-20T12:24:42.000Z</time>
      </trkpt>
      <trkpt lat="45.80813" lon="-0.95168">
        <ele>16.62</ele>
        <time>2022-09-20T12:24:47.000Z</time>
      </trkpt>
      <trkpt lat="45.80832" lon="-0.95178">
        <ele>17.06</ele>
        <time>2022-09-20T12:24:52.000Z</time>
      </trkpt>
      <trkpt lat="45.80852" lon="-0.95185">
        <ele>17.43</ele>
        <time>2022-09-20T12:24:57.000Z</time>
      </trkpt>
      <trkpt lat="45.80873" lon="-0.95194">
        <ele>17.67</ele>
        <time>2022-09-20T12:25:02.000Z</time>
      </trkpt>
      <trkpt lat="45.80892" lon="-0.95203">
        <ele>16.59</ele>
        <time>2022-09-20T12:25:07.000Z</time>
      </trkpt>
      <trkpt lat="45.80913" lon="-0.95209">
        <ele>16.19</ele>
        <time>2022-09-20T12:25:12.000Z</time>
      </trkpt>
      <trkpt lat="45.80933" lon="-0.9521">
        <ele>15.34</ele>
        <time>2022-09-20T12:25:17.000Z</time>
      </trkpt>
      <trkpt lat="45.80954" lon="-0.95208">
        <ele>15.48</ele>
        <time>2022-09-20T12:25:22.000Z</time>
      </trkpt>
      <trkpt lat="45.80974" lon="-0.95201">
        <ele>14.91</ele>
        <time>2022-09-20T12:25:27.000Z</time>
      </trkpt>
      <trkpt lat="45.80995" lon="-0.95192">
        <ele>15.3</ele>
        <time>2022-09-20T12:25:32.000Z</time>
      </trkpt>
      <trkpt lat="45.81017" lon="-0.95182">
        <ele>15.77</ele>
        <time>2022-09-20T12:25:37.000Z</time>
      </trkpt>
      <trkpt lat="45.81037" lon="-0.95173">
        <ele>16.84</ele>
        <time>2022-09-20T12:25:42.000Z</time>
      </trkpt>
      <trkpt lat="45.81058" lon="-0.95158">
        <ele>16.9</ele>
        <time>2022-09-20T12:25:47.000Z</time>
      </trkpt>
      <trkpt lat="45.8108" lon="-0.95149">
        <ele>17.32</ele>
        <time>2022-09-20T12:25:52.000Z</time>
      </trkpt>
      <trkpt lat="45.81099" lon="-0.95139">
        <ele>16.61</ele>
        <time>2022-09-20T12:25:57.000Z</time>
      </trkpt>
      <trkpt lat="45.81119" lon="-0.95129">
        <ele>15.67</ele>
        <time>2022-09-20T12:26:02.000Z</time>
      </trkpt>
      <trkpt lat="45.81137" lon="-0.95117">
        <ele>15.34</ele>
        <time>2022-09-20T12:26:07.000Z</time>
      </trkpt>
      <trkpt lat="45.81156" lon="-0.95104">
        <ele>15.13</ele>
        <time>2022-09-20T12:26:12.000Z</time>
      </trkpt>
      <trkpt lat="45.81177" lon="-0.95089">
        <ele>14.3</ele>
        <time>2022-09-20T12:26:17.000Z</time>
      </trkpt>
      <trkpt lat="45.81197" lon="-0.95075">
        <ele>14.49</ele>
        <time>2022-09-20T12:26:22.000Z</time>
      </trkpt>
      <trkpt lat="45.81216" lon="-0.95061">
        <ele>13.48</ele>
        <time>2022-09-20T12:26:27.000Z</time>
      </trkpt>
      <trkpt lat="45.81236" lon="-0.95048">
        <ele>12.75</ele>
        <time>2022-09-20T12:26:32.000Z</time>
      </trkpt>
      <trkpt lat="45.81256" lon="-0.95034">
        <ele>13.51</ele>
        <time>2022-09-20T12:26:37.000Z</time>
      </trkpt>
      <trkpt lat="45.81277" lon="-0.95019">
        <ele>13.13</ele>
        <time>2022-09-20T12:26:42.000Z</time>
      </trkpt>
      <trkpt lat="45.81298" lon="-0.95003">
        <ele>13.09</ele>
        <time>2022-09-20T12:26:47.000Z</time>
      </trkpt>
      <trkpt lat="45.81318" lon="-0.9499">
        <ele>12.57</ele>
        <time>2022-09-20T12:26:52.000Z</time>
      </trkpt>
      <trkpt lat="45.81338" lon="-0.94977">
        <ele>12</ele>
        <time>2022-09-20T12:26:57.000Z</time>
      </trkpt>
      <trkpt lat="45.81356" lon="-0.94967">
        <ele>11.65</ele>
        <time>2022-09-20T12:27:02.000Z</time>
      </trkpt>
      <trkpt lat="45.81375" lon="-0.94964">
        <ele>11.59</ele>
        <time>2022-09-20T12:27:07.000Z</time>
      </trkpt>
      <trkpt lat="45.81392" lon="-0.94964">
        <ele>11.78</ele>
        <time>2022-09-20T12:27:12.000Z</time>
      </trkpt>
      <trkpt lat="45.81412" lon="-0.94963">
        <ele>11.41</ele>
        <time>2022-09-20T12:27:17.000Z</time>
      </trkpt>
      <trkpt lat="45.8144" lon="-0.9496">
        <ele>12.18</ele>
        <time>2022-09-20T12:27:22.000Z</time>
      </trkpt>
      <trkpt lat="45.81462" lon="-0.94958">
        <ele>12.54</ele>
        <time>2022-09-20T12:27:27.000Z</time>
      </trkpt>
      <trkpt lat="45.81484" lon="-0.94952">
        <ele>12.18</ele>
        <time>2022-09-20T12:27:32.000Z</time>
      </trkpt>
      <trkpt lat="45.81507" lon="-0.94943">
        <ele>10.45</ele>
        <time>2022-09-20T12:27:37.000Z</time>
      </trkpt>
      <trkpt lat="45.81528" lon="-0.94932">
        <ele>9.18</ele>
        <time>2022-09-20T12:27:42.000Z</time>
      </trkpt>
      <trkpt lat="45.81547" lon="-0.94918">
        <ele>9.79</ele>
        <time>2022-09-20T12:27:47.000Z</time>
      </trkpt>
      <trkpt lat="45.81567" lon="-0.94902">
        <ele>10.4</ele>
        <time>2022-09-20T12:27:52.000Z</time>
      </trkpt>
      <trkpt lat="45.81585" lon="-0.94891">
        <ele>11.34</ele>
        <time>2022-09-20T12:27:57.000Z</time>
      </trkpt>
      <trkpt lat="45.816" lon="-0.9488">
        <ele>12.26</ele>
        <time>2022-09-20T12:28:02.000Z</time>
      </trkpt>
      <trkpt lat="45.81617" lon="-0.94866">
        <ele>11.76</ele>
        <time>2022-09-20T12:28:07.000Z</time>
      </trkpt>
      <trkpt lat="45.81638" lon="-0.94852">
        <ele>12.31</ele>
        <time>2022-09-20T12:28:12.000Z</time>
      </trkpt>
      <trkpt lat="45.81654" lon="-0.9484">
        <ele>12.77</ele>
        <time>2022-09-20T12:28:17.000Z</time>
      </trkpt>
      <trkpt lat="45.81673" lon="-0.94823">
        <ele>12.55</ele>
        <time>2022-09-20T12:28:22.000Z</time>
      </trkpt>
      <trkpt lat="45.8169" lon="-0.9481">
        <ele>13.66</ele>
        <time>2022-09-20T12:28:27.000Z</time>
      </trkpt>
      <trkpt lat="45.81706" lon="-0.94802">
        <ele>14.09</ele>
        <time>2022-09-20T12:28:32.000Z</time>
      </trkpt>
      <trkpt lat="45.81722" lon="-0.94793">
        <ele>14.8</ele>
        <time>2022-09-20T12:28:37.000Z</time>
      </trkpt>
      <trkpt lat="45.81737" lon="-0.94784">
        <ele>15.76</ele>
        <time>2022-09-20T12:28:42.000Z</time>
      </trkpt>
      <trkpt lat="45.81754" lon="-0.9477">
        <ele>16.12</ele>
        <time>2022-09-20T12:28:47.000Z</time>
      </trkpt>
      <trkpt lat="45.81773" lon="-0.94754">
        <ele>13.83</ele>
        <time>2022-09-20T12:28:52.000Z</time>
      </trkpt>
      <trkpt lat="45.81794" lon="-0.94742">
        <ele>12.73</ele>
        <time>2022-09-20T12:28:57.000Z</time>
      </trkpt>
      <trkpt lat="45.81813" lon="-0.94733">
        <ele>10.77</ele>
        <time>2022-09-20T12:29:02.000Z</time>
      </trkpt>
      <trkpt lat="45.81832" lon="-0.94725">
        <ele>8.97</ele>
        <time>2022-09-20T12:29:07.000Z</time>
      </trkpt>
      <trkpt lat="45.81851" lon="-0.9472">
        <ele>7.14</ele>
        <time>2022-09-20T12:29:12.000Z</time>
      </trkpt>
      <trkpt lat="45.8187" lon="-0.94716">
        <ele>5.03</ele>
        <time>2022-09-20T12:29:17.000Z</time>
      </trkpt>
      <trkpt lat="45.81888" lon="-0.9471">
        <ele>4.54</ele>
        <time>2022-09-20T12:29:22.000Z</time>
      </trkpt>
      <trkpt lat="45.81904" lon="-0.94703">
        <ele>5.49</ele>
        <time>2022-09-20T12:29:27.000Z</time>
      </trkpt>
      <trkpt lat="45.8192" lon="-0.94703">
        <ele>7.78</ele>
        <time>2022-09-20T12:29:32.000Z</time>
      </trkpt>
      <trkpt lat="45.81932" lon="-0.94701">
        <ele>8.43</ele>
        <time>2022-09-20T12:29:37.000Z</time>
      </trkpt>
      <trkpt lat="45.81949" lon="-0.94695">
        <ele>10.23</ele>
        <time>2022-09-20T12:29:42.000Z</time>
      </trkpt>
      <trkpt lat="45.81957" lon="-0.9469">
        <ele>10.4</ele>
        <time>2022-09-20T12:29:51.000Z</time>
      </trkpt>
      <trkpt lat="45.81962" lon="-0.94679">
        <ele>10.3</ele>
        <time>2022-09-20T12:30:09.000Z</time>
      </trkpt>
      <trkpt lat="45.81972" lon="-0.94681">
        <ele>11.47</ele>
        <time>2022-09-20T12:31:08.000Z</time>
      </trkpt>
      <trkpt lat="45.81982" lon="-0.94686">
        <ele>11.68</ele>
        <time>2022-09-20T12:31:14.000Z</time>
      </trkpt>
      <trkpt lat="45.81996" lon="-0.94685">
        <ele>11.66</ele>
        <time>2022-09-20T12:31:19.000Z</time>
      </trkpt>
      <trkpt lat="45.82016" lon="-0.94679">
        <ele>11.68</ele>
        <time>2022-09-20T12:31:24.000Z</time>
      </trkpt>
      <trkpt lat="45.82042" lon="-0.94671">
        <ele>11.88</ele>
        <time>2022-09-20T12:31:29.000Z</time>
      </trkpt>
      <trkpt lat="45.82067" lon="-0.94665">
        <ele>10.57</ele>
        <time>2022-09-20T12:31:34.000Z</time>
      </trkpt>
      <trkpt lat="45.82096" lon="-0.94662">
        <ele>7.7</ele>
        <time>2022-09-20T12:31:39.000Z</time>
      </trkpt>
      <trkpt lat="45.82122" lon="-0.9467">
        <ele>8.19</ele>
        <time>2022-09-20T12:31:44.000Z</time>
      </trkpt>
      <trkpt lat="45.82143" lon="-0.94678">
        <ele>8</ele>
        <time>2022-09-20T12:31:49.000Z</time>
      </trkpt>
      <trkpt lat="45.82159" lon="-0.94688">
        <ele>8.74</ele>
        <time>2022-09-20T12:31:54.000Z</time>
      </trkpt>
      <trkpt lat="45.82173" lon="-0.94703">
        <ele>8.51</ele>
        <time>2022-09-20T12:31:59.000Z</time>
      </trkpt>
      <trkpt lat="45.82193" lon="-0.9471">
        <ele>9.45</ele>
        <time>2022-09-20T12:32:04.000Z</time>
      </trkpt>
      <trkpt lat="45.8221" lon="-0.94706">
        <ele>9.93</ele>
        <time>2022-09-20T12:32:09.000Z</time>
      </trkpt>
      <trkpt lat="45.82227" lon="-0.947">
        <ele>10.31</ele>
        <time>2022-09-20T12:32:14.000Z</time>
      </trkpt>
      <trkpt lat="45.82242" lon="-0.9469">
        <ele>9.42</ele>
        <time>2022-09-20T12:32:19.000Z</time>
      </trkpt>
      <trkpt lat="45.82257" lon="-0.94679">
        <ele>7.92</ele>
        <time>2022-09-20T12:32:24.000Z</time>
      </trkpt>
      <trkpt lat="45.82273" lon="-0.94667">
        <ele>7.74</ele>
        <time>2022-09-20T12:32:29.000Z</time>
      </trkpt>
      <trkpt lat="45.82293" lon="-0.94651">
        <ele>6.52</ele>
        <time>2022-09-20T12:32:34.000Z</time>
      </trkpt>
      <trkpt lat="45.82314" lon="-0.94636">
        <ele>7.24</ele>
        <time>2022-09-20T12:32:39.000Z</time>
      </trkpt>
      <trkpt lat="45.82333" lon="-0.94619">
        <ele>10</ele>
        <time>2022-09-20T12:32:44.000Z</time>
      </trkpt>
      <trkpt lat="45.82353" lon="-0.94603">
        <ele>10.96</ele>
        <time>2022-09-20T12:32:49.000Z</time>
      </trkpt>
      <trkpt lat="45.82376" lon="-0.94581">
        <ele>12.3</ele>
        <time>2022-09-20T12:32:54.000Z</time>
      </trkpt>
      <trkpt lat="45.82401" lon="-0.9455">
        <ele>11.79</ele>
        <time>2022-09-20T12:32:59.000Z</time>
      </trkpt>
      <trkpt lat="45.82426" lon="-0.94515">
        <ele>10.25</ele>
        <time>2022-09-20T12:33:04.000Z</time>
      </trkpt>
      <trkpt lat="45.8245" lon="-0.94475">
        <ele>10.66</ele>
        <time>2022-09-20T12:33:09.000Z</time>
      </trkpt>
      <trkpt lat="45.82474" lon="-0.94441">
        <ele>9.62</ele>
        <time>2022-09-20T12:33:14.000Z</time>
      </trkpt>
      <trkpt lat="45.82499" lon="-0.94409">
        <ele>8.05</ele>
        <time>2022-09-20T12:33:19.000Z</time>
      </trkpt>
      <trkpt lat="45.82528" lon="-0.9438">
        <ele>7.6</ele>
        <time>2022-09-20T12:33:24.000Z</time>
      </trkpt>
      <trkpt lat="45.82561" lon="-0.94356">
        <ele>7.08</ele>
        <time>2022-09-20T12:33:29.000Z</time>
      </trkpt>
      <trkpt lat="45.82594" lon="-0.94342">
        <ele>7.43</ele>
        <time>2022-09-20T12:33:34.000Z</time>
      </trkpt>
      <trkpt lat="45.82626" lon="-0.94332">
        <ele>6.32</ele>
        <time>2022-09-20T12:33:39.000Z</time>
      </trkpt>
      <trkpt lat="45.82653" lon="-0.94325">
        <ele>3.1</ele>
        <time>2022-09-20T12:33:44.000Z</time>
      </trkpt>
      <trkpt lat="45.82681" lon="-0.94315">
        <ele>1.08</ele>
        <time>2022-09-20T12:33:49.000Z</time>
      </trkpt>
      <trkpt lat="45.82713" lon="-0.94305">
        <ele>0.8</ele>
        <time>2022-09-20T12:33:54.000Z</time>
      </trkpt>
      <trkpt lat="45.82745" lon="-0.94296">
        <ele>0.26</ele>
        <time>2022-09-20T12:33:59.000Z</time>
      </trkpt>
      <trkpt lat="45.82778" lon="-0.94292">
        <ele>-1.27</ele>
        <time>2022-09-20T12:34:04.000Z</time>
      </trkpt>
      <trkpt lat="45.82817" lon="-0.94288">
        <ele>-2.86</ele>
        <time>2022-09-20T12:34:09.000Z</time>
      </trkpt>
      <trkpt lat="45.82861" lon="-0.94281">
        <ele>-4.71</ele>
        <time>2022-09-20T12:34:14.000Z</time>
      </trkpt>
      <trkpt lat="45.82906" lon="-0.94271">
        <ele>-8.37</ele>
        <time>2022-09-20T12:34:19.000Z</time>
      </trkpt>
      <trkpt lat="45.82949" lon="-0.94261">
        <ele>-13.85</ele>
        <time>2022-09-20T12:34:24.000Z</time>
      </trkpt>
      <trkpt lat="45.82992" lon="-0.94251">
        <ele>-19.22</ele>
        <time>2022-09-20T12:34:29.000Z</time>
      </trkpt>
      <trkpt lat="45.8303" lon="-0.94242">
        <ele>-17.1</ele>
        <time>2022-09-20T12:34:34.000Z</time>
      </trkpt>
      <trkpt lat="45.83063" lon="-0.94236">
        <ele>-15.39</ele>
        <time>2022-09-20T12:34:39.000Z</time>
      </trkpt>
      <trkpt lat="45.83095" lon="-0.94228">
        <ele>-12.27</ele>
        <time>2022-09-20T12:34:44.000Z</time>
      </trkpt>
      <trkpt lat="45.83124" lon="-0.94221">
        <ele>-12.68</ele>
        <time>2022-09-20T12:34:49.000Z</time>
      </trkpt>
      <trkpt lat="45.83147" lon="-0.94217">
        <ele>-11.88</ele>
        <time>2022-09-20T12:34:54.000Z</time>
      </trkpt>
      <trkpt lat="45.83168" lon="-0.94214">
        <ele>-11.1</ele>
        <time>2022-09-20T12:34:59.000Z</time>
      </trkpt>
      <trkpt lat="45.83188" lon="-0.94211">
        <ele>-12.06</ele>
        <time>2022-09-20T12:35:04.000Z</time>
      </trkpt>
      <trkpt lat="45.83208" lon="-0.94206">
        <ele>-12.68</ele>
        <time>2022-09-20T12:35:09.000Z</time>
      </trkpt>
      <trkpt lat="45.83226" lon="-0.94205">
        <ele>-14.18</ele>
        <time>2022-09-20T12:35:14.000Z</time>
      </trkpt>
      <trkpt lat="45.83245" lon="-0.94203">
        <ele>-14.78</ele>
        <time>2022-09-20T12:35:19.000Z</time>
      </trkpt>
      <trkpt lat="45.83264" lon="-0.94201">
        <ele>-15.43</ele>
        <time>2022-09-20T12:35:24.000Z</time>
      </trkpt>
      <trkpt lat="45.8329" lon="-0.94196">
        <ele>-13.13</ele>
        <time>2022-09-20T12:35:29.000Z</time>
      </trkpt>
      <trkpt lat="45.83317" lon="-0.9419">
        <ele>-13.29</ele>
        <time>2022-09-20T12:35:34.000Z</time>
      </trkpt>
      <trkpt lat="45.83346" lon="-0.94184">
        <ele>-12.06</ele>
        <time>2022-09-20T12:35:39.000Z</time>
      </trkpt>
      <trkpt lat="45.83372" lon="-0.94179">
        <ele>-11.39</ele>
        <time>2022-09-20T12:35:44.000Z</time>
      </trkpt>
      <trkpt lat="45.83392" lon="-0.94183">
        <ele>-9.42</ele>
        <time>2022-09-20T12:35:49.000Z</time>
      </trkpt>
      <trkpt lat="45.8341" lon="-0.94186">
        <ele>-6.47</ele>
        <time>2022-09-20T12:35:54.000Z</time>
      </trkpt>
      <trkpt lat="45.83428" lon="-0.94187">
        <ele>-4.69</ele>
        <time>2022-09-20T12:35:59.000Z</time>
      </trkpt>
      <trkpt lat="45.83443" lon="-0.94189">
        <ele>-5.85</ele>
        <time>2022-09-20T12:36:04.000Z</time>
      </trkpt>
      <trkpt lat="45.83458" lon="-0.94186">
        <ele>-6.96</ele>
        <time>2022-09-20T12:36:09.000Z</time>
      </trkpt>
      <trkpt lat="45.83467" lon="-0.94184">
        <ele>-8.89</ele>
        <time>2022-09-20T12:36:17.000Z</time>
      </trkpt>
      <trkpt lat="45.83476" lon="-0.94193">
        <ele>-8.92</ele>
        <time>2022-09-20T12:36:32.000Z</time>
      </trkpt>
      <trkpt lat="45.83487" lon="-0.94201">
        <ele>-8.62</ele>
        <time>2022-09-20T12:36:37.000Z</time>
      </trkpt>
      <trkpt lat="45.835" lon="-0.9421">
        <ele>-8.78</ele>
        <time>2022-09-20T12:36:42.000Z</time>
      </trkpt>
      <trkpt lat="45.83513" lon="-0.94218">
        <ele>-9.25</ele>
        <time>2022-09-20T12:36:47.000Z</time>
      </trkpt>
      <trkpt lat="45.83525" lon="-0.94229">
        <ele>-9.79</ele>
        <time>2022-09-20T12:36:52.000Z</time>
      </trkpt>
      <trkpt lat="45.8354" lon="-0.9424">
        <ele>-10.39</ele>
        <time>2022-09-20T12:36:57.000Z</time>
      </trkpt>
      <trkpt lat="45.83553" lon="-0.94257">
        <ele>-10.6</ele>
        <time>2022-09-20T12:37:02.000Z</time>
      </trkpt>
      <trkpt lat="45.83569" lon="-0.94275">
        <ele>-10.52</ele>
        <time>2022-09-20T12:37:07.000Z</time>
      </trkpt>
      <trkpt lat="45.83581" lon="-0.94293">
        <ele>-11.04</ele>
        <time>2022-09-20T12:37:12.000Z</time>
      </trkpt>
      <trkpt lat="45.83594" lon="-0.94311">
        <ele>-11.59</ele>
        <time>2022-09-20T12:37:17.000Z</time>
      </trkpt>
      <trkpt lat="45.83614" lon="-0.94333">
        <ele>-10.91</ele>
        <time>2022-09-20T12:37:22.000Z</time>
      </trkpt>
      <trkpt lat="45.83631" lon="-0.94356">
        <ele>-10.08</ele>
        <time>2022-09-20T12:37:27.000Z</time>
      </trkpt>
      <trkpt lat="45.8365" lon="-0.9438">
        <ele>-8.91</ele>
        <time>2022-09-20T12:37:32.000Z</time>
      </trkpt>
      <trkpt lat="45.83671" lon="-0.94403">
        <ele>-6.75</ele>
        <time>2022-09-20T12:37:37.000Z</time>
      </trkpt>
      <trkpt lat="45.83693" lon="-0.94425">
        <ele>-6.13</ele>
        <time>2022-09-20T12:37:42.000Z</time>
      </trkpt>
      <trkpt lat="45.83708" lon="-0.94456">
        <ele>-0.46</ele>
        <time>2022-09-20T12:37:47.000Z</time>
      </trkpt>
      <trkpt lat="45.83722" lon="-0.94477">
        <ele>1.26</ele>
        <time>2022-09-20T12:37:52.000Z</time>
      </trkpt>
      <trkpt lat="45.83737" lon="-0.94497">
        <ele>1.77</ele>
        <time>2022-09-20T12:37:57.000Z</time>
      </trkpt>
      <trkpt lat="45.8375" lon="-0.94517">
        <ele>2.59</ele>
        <time>2022-09-20T12:38:02.000Z</time>
      </trkpt>
      <trkpt lat="45.83765" lon="-0.94536">
        <ele>2.75</ele>
        <time>2022-09-20T12:38:07.000Z</time>
      </trkpt>
      <trkpt lat="45.83777" lon="-0.94554">
        <ele>2.78</ele>
        <time>2022-09-20T12:38:12.000Z</time>
      </trkpt>
      <trkpt lat="45.8379" lon="-0.94571">
        <ele>3.33</ele>
        <time>2022-09-20T12:38:17.000Z</time>
      </trkpt>
      <trkpt lat="45.83804" lon="-0.9459">
        <ele>3.54</ele>
        <time>2022-09-20T12:38:22.000Z</time>
      </trkpt>
      <trkpt lat="45.83817" lon="-0.9461">
        <ele>4.13</ele>
        <time>2022-09-20T12:38:27.000Z</time>
      </trkpt>
      <trkpt lat="45.83832" lon="-0.94632">
        <ele>4.42</ele>
        <time>2022-09-20T12:38:32.000Z</time>
      </trkpt>
      <trkpt lat="45.83846" lon="-0.94655">
        <ele>5.93</ele>
        <time>2022-09-20T12:38:37.000Z</time>
      </trkpt>
      <trkpt lat="45.83863" lon="-0.94678">
        <ele>6.63</ele>
        <time>2022-09-20T12:38:42.000Z</time>
      </trkpt>
      <trkpt lat="45.83884" lon="-0.947">
        <ele>6.41</ele>
        <time>2022-09-20T12:38:47.000Z</time>
      </trkpt>
      <trkpt lat="45.83903" lon="-0.94718">
        <ele>6.36</ele>
        <time>2022-09-20T12:38:52.000Z</time>
      </trkpt>
      <trkpt lat="45.83924" lon="-0.9473">
        <ele>7.12</ele>
        <time>2022-09-20T12:38:57.000Z</time>
      </trkpt>
      <trkpt lat="45.83944" lon="-0.94736">
        <ele>6.56</ele>
        <time>2022-09-20T12:39:02.000Z</time>
      </trkpt>
      <trkpt lat="45.83962" lon="-0.94739">
        <ele>5.31</ele>
        <time>2022-09-20T12:39:07.000Z</time>
      </trkpt>
      <trkpt lat="45.83977" lon="-0.94739">
        <ele>2.78</ele>
        <time>2022-09-20T12:39:12.000Z</time>
      </trkpt>
      <trkpt lat="45.83991" lon="-0.94734">
        <ele>1.44</ele>
        <time>2022-09-20T12:39:17.000Z</time>
      </trkpt>
      <trkpt lat="45.83999" lon="-0.94725">
        <ele>-0.7</ele>
        <time>2022-09-20T12:39:28.000Z</time>
      </trkpt>
      <trkpt lat="45.84008" lon="-0.94721">
        <ele>-0.92</ele>
        <time>2022-09-20T12:39:34.000Z</time>
      </trkpt>
      <trkpt lat="45.84022" lon="-0.94714">
        <ele>-0.51</ele>
        <time>2022-09-20T12:39:39.000Z</time>
      </trkpt>
      <trkpt lat="45.84036" lon="-0.94704">
        <ele>0.39</ele>
        <time>2022-09-20T12:39:44.000Z</time>
      </trkpt>
      <trkpt lat="45.84051" lon="-0.94687">
        <ele>2.65</ele>
        <time>2022-09-20T12:39:49.000Z</time>
      </trkpt>
      <trkpt lat="45.84063" lon="-0.94676">
        <ele>5.41</ele>
        <time>2022-09-20T12:39:54.000Z</time>
      </trkpt>
      <trkpt lat="45.84075" lon="-0.94667">
        <ele>7.19</ele>
        <time>2022-09-20T12:39:59.000Z</time>
      </trkpt>
      <trkpt lat="45.84087" lon="-0.94658">
        <ele>8.18</ele>
        <time>2022-09-20T12:40:04.000Z</time>
      </trkpt>
      <trkpt lat="45.84099" lon="-0.94647">
        <ele>9.4</ele>
        <time>2022-09-20T12:40:09.000Z</time>
      </trkpt>
      <trkpt lat="45.84111" lon="-0.94634">
        <ele>8.47</ele>
        <time>2022-09-20T12:40:14.000Z</time>
      </trkpt>
      <trkpt lat="45.84127" lon="-0.9462">
        <ele>8.03</ele>
        <time>2022-09-20T12:40:19.000Z</time>
      </trkpt>
      <trkpt lat="45.84142" lon="-0.94611">
        <ele>7.19</ele>
        <time>2022-09-20T12:40:24.000Z</time>
      </trkpt>
      <trkpt lat="45.8416" lon="-0.94599">
        <ele>6.07</ele>
        <time>2022-09-20T12:40:29.000Z</time>
      </trkpt>
      <trkpt lat="45.84185" lon="-0.94583">
        <ele>5.02</ele>
        <time>2022-09-20T12:40:34.000Z</time>
      </trkpt>
      <trkpt lat="45.8421" lon="-0.94567">
        <ele>4.55</ele>
        <time>2022-09-20T12:40:39.000Z</time>
      </trkpt>
      <trkpt lat="45.84232" lon="-0.94561">
        <ele>4.13</ele>
        <time>2022-09-20T12:40:44.000Z</time>
      </trkpt>
      <trkpt lat="45.84251" lon="-0.9456">
        <ele>3.77</ele>
        <time>2022-09-20T12:40:49.000Z</time>
      </trkpt>
      <trkpt lat="45.84271" lon="-0.94558">
        <ele>4.19</ele>
        <time>2022-09-20T12:40:54.000Z</time>
      </trkpt>
      <trkpt lat="45.84288" lon="-0.94557">
        <ele>4.88</ele>
        <time>2022-09-20T12:40:59.000Z</time>
      </trkpt>
      <trkpt lat="45.84307" lon="-0.94554">
        <ele>4.75</ele>
        <time>2022-09-20T12:41:04.000Z</time>
      </trkpt>
      <trkpt lat="45.84324" lon="-0.94553">
        <ele>2.33</ele>
        <time>2022-09-20T12:41:09.000Z</time>
      </trkpt>
      <trkpt lat="45.84343" lon="-0.94553">
        <ele>5.31</ele>
        <time>2022-09-20T12:41:14.000Z</time>
      </trkpt>
      <trkpt lat="45.84361" lon="-0.94556">
        <ele>6.15</ele>
        <time>2022-09-20T12:41:19.000Z</time>
      </trkpt>
      <trkpt lat="45.84357" lon="-0.94541">
        <ele>7.13</ele>
        <time>2022-09-20T12:41:50.000Z</time>
      </trkpt>
      <trkpt lat="45.84348" lon="-0.94526">
        <ele>6.34</ele>
        <time>2022-09-20T12:41:55.000Z</time>
      </trkpt>
      <trkpt lat="45.84337" lon="-0.94515">
        <ele>6.53</ele>
        <time>2022-09-20T12:42:00.000Z</time>
      </trkpt>
      <trkpt lat="45.84324" lon="-0.94511">
        <ele>7.13</ele>
        <time>2022-09-20T12:42:05.000Z</time>
      </trkpt>
      <trkpt lat="45.84315" lon="-0.9451">
        <ele>7.7</ele>
        <time>2022-09-20T12:42:10.000Z</time>
      </trkpt>
      <trkpt lat="45.84305" lon="-0.94512">
        <ele>7.6</ele>
        <time>2022-09-20T12:42:15.000Z</time>
      </trkpt>
      <trkpt lat="45.84315" lon="-0.94508">
        <ele>7.26</ele>
        <time>2022-09-20T12:42:24.000Z</time>
      </trkpt>
      <trkpt lat="45.84329" lon="-0.94512">
        <ele>7.71</ele>
        <time>2022-09-20T12:42:29.000Z</time>
      </trkpt>
      <trkpt lat="45.84345" lon="-0.94523">
        <ele>6.61</ele>
        <time>2022-09-20T12:42:34.000Z</time>
      </trkpt>
      <trkpt lat="45.84355" lon="-0.94518">
        <ele>5.36</ele>
        <time>2022-09-20T12:42:39.000Z</time>
      </trkpt>
      <trkpt lat="45.84359" lon="-0.94497">
        <ele>5.4</ele>
        <time>2022-09-20T12:42:44.000Z</time>
      </trkpt>
      <trkpt lat="45.84362" lon="-0.94479">
        <ele>4.21</ele>
        <time>2022-09-20T12:42:49.000Z</time>
      </trkpt>
      <trkpt lat="45.8437" lon="-0.94471">
        <ele>4.48</ele>
        <time>2022-09-20T12:42:55.000Z</time>
      </trkpt>
      <trkpt lat="45.84378" lon="-0.94459">
        <ele>2.7</ele>
        <time>2022-09-20T12:46:06.000Z</time>
      </trkpt>
      <trkpt lat="45.84369" lon="-0.94464">
        <ele>-0.62</ele>
        <time>2022-09-20T12:55:16.000Z</time>
      </trkpt>
      <trkpt lat="45.8436" lon="-0.94469">
        <ele>-0.37</ele>
        <time>2022-09-20T12:55:26.000Z</time>
      </trkpt>
      <trkpt lat="45.84361" lon="-0.94489">
        <ele>-0.03</ele>
        <time>2022-09-20T12:55:31.000Z</time>
      </trkpt>
      <trkpt lat="45.84361" lon="-0.94512">
        <ele>0.19</ele>
        <time>2022-09-20T12:55:36.000Z</time>
      </trkpt>
      <trkpt lat="45.84363" lon="-0.94533">
        <ele>0.89</ele>
        <time>2022-09-20T12:55:41.000Z</time>
      </trkpt>
      <trkpt lat="45.84367" lon="-0.94547">
        <ele>3.63</ele>
        <time>2022-09-20T12:55:46.000Z</time>
      </trkpt>
      <trkpt lat="45.84376" lon="-0.94553">
        <ele>3.94</ele>
        <time>2022-09-20T12:56:00.000Z</time>
      </trkpt>
      <trkpt lat="45.84391" lon="-0.94556">
        <ele>3.44</ele>
        <time>2022-09-20T12:56:05.000Z</time>
      </trkpt>
      <trkpt lat="45.84411" lon="-0.94559">
        <ele>2.53</ele>
        <time>2022-09-20T12:56:10.000Z</time>
      </trkpt>
      <trkpt lat="45.84431" lon="-0.94566">
        <ele>1.45</ele>
        <time>2022-09-20T12:56:15.000Z</time>
      </trkpt>
      <trkpt lat="45.84455" lon="-0.9458">
        <ele>0.82</ele>
        <time>2022-09-20T12:56:20.000Z</time>
      </trkpt>
      <trkpt lat="45.8448" lon="-0.94595">
        <ele>0.21</ele>
        <time>2022-09-20T12:56:25.000Z</time>
      </trkpt>
      <trkpt lat="45.84509" lon="-0.94607">
        <ele>-0.04</ele>
        <time>2022-09-20T12:56:30.000Z</time>
      </trkpt>
      <trkpt lat="45.84536" lon="-0.94616">
        <ele>-1.19</ele>
        <time>2022-09-20T12:56:35.000Z</time>
      </trkpt>
      <trkpt lat="45.84562" lon="-0.94623">
        <ele>-3.68</ele>
        <time>2022-09-20T12:56:40.000Z</time>
      </trkpt>
      <trkpt lat="45.84588" lon="-0.94627">
        <ele>-4.95</ele>
        <time>2022-09-20T12:56:45.000Z</time>
      </trkpt>
      <trkpt lat="45.84611" lon="-0.94632">
        <ele>-4.14</ele>
        <time>2022-09-20T12:56:50.000Z</time>
      </trkpt>
      <trkpt lat="45.84631" lon="-0.94641">
        <ele>-0.96</ele>
        <time>2022-09-20T12:56:55.000Z</time>
      </trkpt>
      <trkpt lat="45.84652" lon="-0.94651">
        <ele>1.24</ele>
        <time>2022-09-20T12:57:00.000Z</time>
      </trkpt>
      <trkpt lat="45.84672" lon="-0.94663">
        <ele>2.42</ele>
        <time>2022-09-20T12:57:05.000Z</time>
      </trkpt>
      <trkpt lat="45.84692" lon="-0.94675">
        <ele>2.35</ele>
        <time>2022-09-20T12:57:10.000Z</time>
      </trkpt>
      <trkpt lat="45.84711" lon="-0.94687">
        <ele>2.84</ele>
        <time>2022-09-20T12:57:15.000Z</time>
      </trkpt>
      <trkpt lat="45.84729" lon="-0.947">
        <ele>3.61</ele>
        <time>2022-09-20T12:57:20.000Z</time>
      </trkpt>
      <trkpt lat="45.84745" lon="-0.94711">
        <ele>4.25</ele>
        <time>2022-09-20T12:57:25.000Z</time>
      </trkpt>
      <trkpt lat="45.84762" lon="-0.94723">
        <ele>5.21</ele>
        <time>2022-09-20T12:57:30.000Z</time>
      </trkpt>
      <trkpt lat="45.84781" lon="-0.94734">
        <ele>5.95</ele>
        <time>2022-09-20T12:57:35.000Z</time>
      </trkpt>
      <trkpt lat="45.84798" lon="-0.94747">
        <ele>5.33</ele>
        <time>2022-09-20T12:57:40.000Z</time>
      </trkpt>
      <trkpt lat="45.84815" lon="-0.94759">
        <ele>5.69</ele>
        <time>2022-09-20T12:57:45.000Z</time>
      </trkpt>
      <trkpt lat="45.84831" lon="-0.94771">
        <ele>6.19</ele>
        <time>2022-09-20T12:57:50.000Z</time>
      </trkpt>
      <trkpt lat="45.84847" lon="-0.94783">
        <ele>6.63</ele>
        <time>2022-09-20T12:57:55.000Z</time>
      </trkpt>
      <trkpt lat="45.84864" lon="-0.94795">
        <ele>7.47</ele>
        <time>2022-09-20T12:58:00.000Z</time>
      </trkpt>
      <trkpt lat="45.84883" lon="-0.94808">
        <ele>8.11</ele>
        <time>2022-09-20T12:58:05.000Z</time>
      </trkpt>
      <trkpt lat="45.84904" lon="-0.94818">
        <ele>6.87</ele>
        <time>2022-09-20T12:58:10.000Z</time>
      </trkpt>
      <trkpt lat="45.84928" lon="-0.94828">
        <ele>7.34</ele>
        <time>2022-09-20T12:58:15.000Z</time>
      </trkpt>
      <trkpt lat="45.84953" lon="-0.94838">
        <ele>7.59</ele>
        <time>2022-09-20T12:58:20.000Z</time>
      </trkpt>
      <trkpt lat="45.8498" lon="-0.94849">
        <ele>8.45</ele>
        <time>2022-09-20T12:58:25.000Z</time>
      </trkpt>
      <trkpt lat="45.85007" lon="-0.94858">
        <ele>8.82</ele>
        <time>2022-09-20T12:58:30.000Z</time>
      </trkpt>
      <trkpt lat="45.85033" lon="-0.94868">
        <ele>9.02</ele>
        <time>2022-09-20T12:58:35.000Z</time>
      </trkpt>
      <trkpt lat="45.85058" lon="-0.94878">
        <ele>8.3</ele>
        <time>2022-09-20T12:58:40.000Z</time>
      </trkpt>
      <trkpt lat="45.85083" lon="-0.94889">
        <ele>6.8</ele>
        <time>2022-09-20T12:58:45.000Z</time>
      </trkpt>
      <trkpt lat="45.85107" lon="-0.94902">
        <ele>5.76</ele>
        <time>2022-09-20T12:58:50.000Z</time>
      </trkpt>
      <trkpt lat="45.85133" lon="-0.94919">
        <ele>4.37</ele>
        <time>2022-09-20T12:58:55.000Z</time>
      </trkpt>
      <trkpt lat="45.85155" lon="-0.9494">
        <ele>4.12</ele>
        <time>2022-09-20T12:59:00.000Z</time>
      </trkpt>
      <trkpt lat="45.8518" lon="-0.9496">
        <ele>3.33</ele>
        <time>2022-09-20T12:59:05.000Z</time>
      </trkpt>
      <trkpt lat="45.85203" lon="-0.9498">
        <ele>2.54</ele>
        <time>2022-09-20T12:59:10.000Z</time>
      </trkpt>
      <trkpt lat="45.85227" lon="-0.95001">
        <ele>1.53</ele>
        <time>2022-09-20T12:59:15.000Z</time>
      </trkpt>
      <trkpt lat="45.85251" lon="-0.9502">
        <ele>2.11</ele>
        <time>2022-09-20T12:59:20.000Z</time>
      </trkpt>
      <trkpt lat="45.85277" lon="-0.95042">
        <ele>3.92</ele>
        <time>2022-09-20T12:59:25.000Z</time>
      </trkpt>
      <trkpt lat="45.85301" lon="-0.95065">
        <ele>6.75</ele>
        <time>2022-09-20T12:59:30.000Z</time>
      </trkpt>
      <trkpt lat="45.85326" lon="-0.95086">
        <ele>8.16</ele>
        <time>2022-09-20T12:59:35.000Z</time>
      </trkpt>
      <trkpt lat="45.85349" lon="-0.95106">
        <ele>9.2</ele>
        <time>2022-09-20T12:59:40.000Z</time>
      </trkpt>
      <trkpt lat="45.85376" lon="-0.95117">
        <ele>9.57</ele>
        <time>2022-09-20T12:59:45.000Z</time>
      </trkpt>
      <trkpt lat="45.85397" lon="-0.9512">
        <ele>9.28</ele>
        <time>2022-09-20T12:59:50.000Z</time>
      </trkpt>
      <trkpt lat="45.85406" lon="-0.95116">
        <ele>9.1</ele>
        <time>2022-09-20T12:59:56.000Z</time>
      </trkpt>
      <trkpt lat="45.85419" lon="-0.95111">
        <ele>9.07</ele>
        <time>2022-09-20T13:00:20.000Z</time>
      </trkpt>
      <trkpt lat="45.85426" lon="-0.9512">
        <ele>9.88</ele>
        <time>2022-09-20T13:00:26.000Z</time>
      </trkpt>
      <trkpt lat="45.85437" lon="-0.95121">
        <ele>10.55</ele>
        <time>2022-09-20T13:00:31.000Z</time>
      </trkpt>
      <trkpt lat="45.85452" lon="-0.95118">
        <ele>10.71</ele>
        <time>2022-09-20T13:00:36.000Z</time>
      </trkpt>
      <trkpt lat="45.85469" lon="-0.95116">
        <ele>10.82</ele>
        <time>2022-09-20T13:00:41.000Z</time>
      </trkpt>
      <trkpt lat="45.85489" lon="-0.95114">
        <ele>11.17</ele>
        <time>2022-09-20T13:00:46.000Z</time>
      </trkpt>
      <trkpt lat="45.85511" lon="-0.9511">
        <ele>10.95</ele>
        <time>2022-09-20T13:00:51.000Z</time>
      </trkpt>
      <trkpt lat="45.85536" lon="-0.95104">
        <ele>10.85</ele>
        <time>2022-09-20T13:00:56.000Z</time>
      </trkpt>
      <trkpt lat="45.85561" lon="-0.951">
        <ele>11.73</ele>
        <time>2022-09-20T13:01:01.000Z</time>
      </trkpt>
      <trkpt lat="45.85586" lon="-0.95093">
        <ele>12.55</ele>
        <time>2022-09-20T13:01:06.000Z</time>
      </trkpt>
      <trkpt lat="45.85609" lon="-0.95089">
        <ele>11.92</ele>
        <time>2022-09-20T13:01:11.000Z</time>
      </trkpt>
      <trkpt lat="45.85633" lon="-0.95085">
        <ele>10.99</ele>
        <time>2022-09-20T13:01:16.000Z</time>
      </trkpt>
      <trkpt lat="45.85654" lon="-0.95081">
        <ele>11.26</ele>
        <time>2022-09-20T13:01:21.000Z</time>
      </trkpt>
      <trkpt lat="45.85677" lon="-0.95077">
        <ele>12.23</ele>
        <time>2022-09-20T13:01:26.000Z</time>
      </trkpt>
      <trkpt lat="45.85698" lon="-0.95072">
        <ele>12.95</ele>
        <time>2022-09-20T13:01:31.000Z</time>
      </trkpt>
      <trkpt lat="45.85718" lon="-0.95068">
        <ele>12.3</ele>
        <time>2022-09-20T13:01:36.000Z</time>
      </trkpt>
      <trkpt lat="45.85739" lon="-0.95065">
        <ele>12.35</ele>
        <time>2022-09-20T13:01:41.000Z</time>
      </trkpt>
      <trkpt lat="45.85759" lon="-0.95062">
        <ele>12.56</ele>
        <time>2022-09-20T13:01:46.000Z</time>
      </trkpt>
      <trkpt lat="45.85778" lon="-0.95059">
        <ele>13.5</ele>
        <time>2022-09-20T13:01:51.000Z</time>
      </trkpt>
      <trkpt lat="45.85798" lon="-0.95056">
        <ele>13.34</ele>
        <time>2022-09-20T13:01:56.000Z</time>
      </trkpt>
      <trkpt lat="45.85816" lon="-0.95055">
        <ele>13.47</ele>
        <time>2022-09-20T13:02:01.000Z</time>
      </trkpt>
      <trkpt lat="45.85835" lon="-0.95052">
        <ele>14.01</ele>
        <time>2022-09-20T13:02:06.000Z</time>
      </trkpt>
      <trkpt lat="45.85853" lon="-0.95052">
        <ele>13.32</ele>
        <time>2022-09-20T13:02:11.000Z</time>
      </trkpt>
      <trkpt lat="45.85874" lon="-0.9505">
        <ele>13.07</ele>
        <time>2022-09-20T13:02:16.000Z</time>
      </trkpt>
      <trkpt lat="45.85895" lon="-0.95049">
        <ele>13.26</ele>
        <time>2022-09-20T13:02:21.000Z</time>
      </trkpt>
      <trkpt lat="45.85916" lon="-0.95047">
        <ele>12.87</ele>
        <time>2022-09-20T13:02:26.000Z</time>
      </trkpt>
      <trkpt lat="45.85937" lon="-0.95045">
        <ele>12.81</ele>
        <time>2022-09-20T13:02:31.000Z</time>
      </trkpt>
      <trkpt lat="45.85955" lon="-0.95044">
        <ele>11.91</ele>
        <time>2022-09-20T13:02:36.000Z</time>
      </trkpt>
      <trkpt lat="45.85976" lon="-0.95042">
        <ele>11.22</ele>
        <time>2022-09-20T13:02:41.000Z</time>
      </trkpt>
      <trkpt lat="45.85998" lon="-0.95041">
        <ele>9.73</ele>
        <time>2022-09-20T13:02:46.000Z</time>
      </trkpt>
      <trkpt lat="45.86021" lon="-0.9504">
        <ele>10.29</ele>
        <time>2022-09-20T13:02:51.000Z</time>
      </trkpt>
      <trkpt lat="45.86044" lon="-0.95038">
        <ele>10.27</ele>
        <time>2022-09-20T13:02:56.000Z</time>
      </trkpt>
      <trkpt lat="45.86067" lon="-0.95036">
        <ele>10.44</ele>
        <time>2022-09-20T13:03:01.000Z</time>
      </trkpt>
      <trkpt lat="45.86092" lon="-0.95035">
        <ele>10.19</ele>
        <time>2022-09-20T13:03:06.000Z</time>
      </trkpt>
      <trkpt lat="45.86117" lon="-0.95035">
        <ele>8.44</ele>
        <time>2022-09-20T13:03:11.000Z</time>
      </trkpt>
      <trkpt lat="45.86143" lon="-0.95033">
        <ele>6.77</ele>
        <time>2022-09-20T13:03:16.000Z</time>
      </trkpt>
      <trkpt lat="45.86169" lon="-0.95031">
        <ele>7.43</ele>
        <time>2022-09-20T13:03:21.000Z</time>
      </trkpt>
      <trkpt lat="45.86194" lon="-0.9503">
        <ele>9.64</ele>
        <time>2022-09-20T13:03:26.000Z</time>
      </trkpt>
      <trkpt lat="45.86217" lon="-0.95037">
        <ele>9.47</ele>
        <time>2022-09-20T13:03:31.000Z</time>
      </trkpt>
      <trkpt lat="45.86238" lon="-0.95051">
        <ele>9.95</ele>
        <time>2022-09-20T13:03:36.000Z</time>
      </trkpt>
      <trkpt lat="45.86255" lon="-0.95067">
        <ele>9.91</ele>
        <time>2022-09-20T13:03:41.000Z</time>
      </trkpt>
      <trkpt lat="45.86273" lon="-0.95087">
        <ele>9.39</ele>
        <time>2022-09-20T13:03:46.000Z</time>
      </trkpt>
      <trkpt lat="45.86291" lon="-0.95107">
        <ele>8.71</ele>
        <time>2022-09-20T13:03:51.000Z</time>
      </trkpt>
      <trkpt lat="45.8631" lon="-0.95128">
        <ele>8.84</ele>
        <time>2022-09-20T13:03:56.000Z</time>
      </trkpt>
      <trkpt lat="45.86331" lon="-0.95149">
        <ele>7.3</ele>
        <time>2022-09-20T13:04:01.000Z</time>
      </trkpt>
      <trkpt lat="45.86353" lon="-0.95171">
        <ele>7.21</ele>
        <time>2022-09-20T13:04:06.000Z</time>
      </trkpt>
      <trkpt lat="45.86374" lon="-0.95196">
        <ele>6.51</ele>
        <time>2022-09-20T13:04:11.000Z</time>
      </trkpt>
      <trkpt lat="45.86398" lon="-0.95219">
        <ele>6.06</ele>
        <time>2022-09-20T13:04:16.000Z</time>
      </trkpt>
      <trkpt lat="45.86422" lon="-0.95245">
        <ele>6.67</ele>
        <time>2022-09-20T13:04:21.000Z</time>
      </trkpt>
      <trkpt lat="45.86445" lon="-0.95269">
        <ele>6.26</ele>
        <time>2022-09-20T13:04:26.000Z</time>
      </trkpt>
      <trkpt lat="45.86469" lon="-0.95294">
        <ele>6.03</ele>
        <time>2022-09-20T13:04:31.000Z</time>
      </trkpt>
      <trkpt lat="45.86491" lon="-0.95315">
        <ele>6.17</ele>
        <time>2022-09-20T13:04:36.000Z</time>
      </trkpt>
      <trkpt lat="45.86513" lon="-0.95337">
        <ele>5.91</ele>
        <time>2022-09-20T13:04:41.000Z</time>
      </trkpt>
      <trkpt lat="45.86534" lon="-0.9536">
        <ele>6.84</ele>
        <time>2022-09-20T13:04:46.000Z</time>
      </trkpt>
      <trkpt lat="45.86554" lon="-0.95381">
        <ele>8.19</ele>
        <time>2022-09-20T13:04:51.000Z</time>
      </trkpt>
      <trkpt lat="45.86574" lon="-0.95402">
        <ele>8.68</ele>
        <time>2022-09-20T13:04:56.000Z</time>
      </trkpt>
      <trkpt lat="45.86595" lon="-0.95425">
        <ele>8.08</ele>
        <time>2022-09-20T13:05:01.000Z</time>
      </trkpt>
      <trkpt lat="45.86616" lon="-0.95449">
        <ele>7.41</ele>
        <time>2022-09-20T13:05:06.000Z</time>
      </trkpt>
      <trkpt lat="45.8664" lon="-0.95474">
        <ele>5.27</ele>
        <time>2022-09-20T13:05:11.000Z</time>
      </trkpt>
      <trkpt lat="45.86666" lon="-0.955">
        <ele>5.53</ele>
        <time>2022-09-20T13:05:16.000Z</time>
      </trkpt>
      <trkpt lat="45.86691" lon="-0.95528">
        <ele>4.59</ele>
        <time>2022-09-20T13:05:21.000Z</time>
      </trkpt>
      <trkpt lat="45.86719" lon="-0.95557">
        <ele>3.41</ele>
        <time>2022-09-20T13:05:26.000Z</time>
      </trkpt>
      <trkpt lat="45.8675" lon="-0.95588">
        <ele>2.2</ele>
        <time>2022-09-20T13:05:31.000Z</time>
      </trkpt>
      <trkpt lat="45.86779" lon="-0.95618">
        <ele>0.95</ele>
        <time>2022-09-20T13:05:36.000Z</time>
      </trkpt>
      <trkpt lat="45.86801" lon="-0.95646">
        <ele>2.92</ele>
        <time>2022-09-20T13:05:41.000Z</time>
      </trkpt>
      <trkpt lat="45.86821" lon="-0.95668">
        <ele>4.78</ele>
        <time>2022-09-20T13:05:46.000Z</time>
      </trkpt>
      <trkpt lat="45.8684" lon="-0.95686">
        <ele>5.96</ele>
        <time>2022-09-20T13:05:51.000Z</time>
      </trkpt>
      <trkpt lat="45.86858" lon="-0.95705">
        <ele>7.2</ele>
        <time>2022-09-20T13:05:56.000Z</time>
      </trkpt>
      <trkpt lat="45.86876" lon="-0.95724">
        <ele>7.93</ele>
        <time>2022-09-20T13:06:01.000Z</time>
      </trkpt>
      <trkpt lat="45.86893" lon="-0.95741">
        <ele>8.46</ele>
        <time>2022-09-20T13:06:06.000Z</time>
      </trkpt>
      <trkpt lat="45.86911" lon="-0.9576">
        <ele>8.42</ele>
        <time>2022-09-20T13:06:11.000Z</time>
      </trkpt>
      <trkpt lat="45.86929" lon="-0.95778">
        <ele>9.01</ele>
        <time>2022-09-20T13:06:16.000Z</time>
      </trkpt>
      <trkpt lat="45.86946" lon="-0.95796">
        <ele>8.85</ele>
        <time>2022-09-20T13:06:21.000Z</time>
      </trkpt>
      <trkpt lat="45.86962" lon="-0.95815">
        <ele>9.6</ele>
        <time>2022-09-20T13:06:26.000Z</time>
      </trkpt>
      <trkpt lat="45.86981" lon="-0.95836">
        <ele>9.76</ele>
        <time>2022-09-20T13:06:31.000Z</time>
      </trkpt>
      <trkpt lat="45.87" lon="-0.95855">
        <ele>9.86</ele>
        <time>2022-09-20T13:06:36.000Z</time>
      </trkpt>
      <trkpt lat="45.87019" lon="-0.95875">
        <ele>9.9</ele>
        <time>2022-09-20T13:06:41.000Z</time>
      </trkpt>
      <trkpt lat="45.87038" lon="-0.95895">
        <ele>9.97</ele>
        <time>2022-09-20T13:06:46.000Z</time>
      </trkpt>
      <trkpt lat="45.8706" lon="-0.95912">
        <ele>9.91</ele>
        <time>2022-09-20T13:06:51.000Z</time>
      </trkpt>
      <trkpt lat="45.8708" lon="-0.95936">
        <ele>11.84</ele>
        <time>2022-09-20T13:06:56.000Z</time>
      </trkpt>
      <trkpt lat="45.87096" lon="-0.95955">
        <ele>11.5</ele>
        <time>2022-09-20T13:07:01.000Z</time>
      </trkpt>
      <trkpt lat="45.87109" lon="-0.9597">
        <ele>10.46</ele>
        <time>2022-09-20T13:07:06.000Z</time>
      </trkpt>
      <trkpt lat="45.87118" lon="-0.95977">
        <ele>9.16</ele>
        <time>2022-09-20T13:07:14.000Z</time>
      </trkpt>
      <trkpt lat="45.8713" lon="-0.95992">
        <ele>7.35</ele>
        <time>2022-09-20T13:07:19.000Z</time>
      </trkpt>
      <trkpt lat="45.87148" lon="-0.96009">
        <ele>7.1</ele>
        <time>2022-09-20T13:07:24.000Z</time>
      </trkpt>
      <trkpt lat="45.87165" lon="-0.96029">
        <ele>5.97</ele>
        <time>2022-09-20T13:07:29.000Z</time>
      </trkpt>
      <trkpt lat="45.87186" lon="-0.9605">
        <ele>5.65</ele>
        <time>2022-09-20T13:07:34.000Z</time>
      </trkpt>
      <trkpt lat="45.87208" lon="-0.96073">
        <ele>5.01</ele>
        <time>2022-09-20T13:07:39.000Z</time>
      </trkpt>
      <trkpt lat="45.87229" lon="-0.96095">
        <ele>4.65</ele>
        <time>2022-09-20T13:07:44.000Z</time>
      </trkpt>
      <trkpt lat="45.87247" lon="-0.96116">
        <ele>4.58</ele>
        <time>2022-09-20T13:07:49.000Z</time>
      </trkpt>
      <trkpt lat="45.87264" lon="-0.96134">
        <ele>3.86</ele>
        <time>2022-09-20T13:07:54.000Z</time>
      </trkpt>
      <trkpt lat="45.87283" lon="-0.96153">
        <ele>3.01</ele>
        <time>2022-09-20T13:07:59.000Z</time>
      </trkpt>
      <trkpt lat="45.87301" lon="-0.96172">
        <ele>2.22</ele>
        <time>2022-09-20T13:08:04.000Z</time>
      </trkpt>
      <trkpt lat="45.8732" lon="-0.96192">
        <ele>0.94</ele>
        <time>2022-09-20T13:08:09.000Z</time>
      </trkpt>
      <trkpt lat="45.87339" lon="-0.96211">
        <ele>1.37</ele>
        <time>2022-09-20T13:08:14.000Z</time>
      </trkpt>
      <trkpt lat="45.87356" lon="-0.96224">
        <ele>1.16</ele>
        <time>2022-09-20T13:08:19.000Z</time>
      </trkpt>
      <trkpt lat="45.87365" lon="-0.96239">
        <ele>0.52</ele>
        <time>2022-09-20T13:08:24.000Z</time>
      </trkpt>
      <trkpt lat="45.87373" lon="-0.96244">
        <ele>1.87</ele>
        <time>2022-09-20T13:08:46.000Z</time>
      </trkpt>
      <trkpt lat="45.87383" lon="-0.96245">
        <ele>2.59</ele>
        <time>2022-09-20T13:09:22.000Z</time>
      </trkpt>
      <trkpt lat="45.87402" lon="-0.96251">
        <ele>1.26</ele>
        <time>2022-09-20T13:09:27.000Z</time>
      </trkpt>
      <trkpt lat="45.87428" lon="-0.96259">
        <ele>2</ele>
        <time>2022-09-20T13:09:32.000Z</time>
      </trkpt>
      <trkpt lat="45.87453" lon="-0.9627">
        <ele>1.52</ele>
        <time>2022-09-20T13:09:37.000Z</time>
      </trkpt>
      <trkpt lat="45.87477" lon="-0.96284">
        <ele>2.52</ele>
        <time>2022-09-20T13:09:42.000Z</time>
      </trkpt>
      <trkpt lat="45.87508" lon="-0.96296">
        <ele>3.15</ele>
        <time>2022-09-20T13:09:47.000Z</time>
      </trkpt>
      <trkpt lat="45.87537" lon="-0.96305">
        <ele>2.52</ele>
        <time>2022-09-20T13:09:52.000Z</time>
      </trkpt>
      <trkpt lat="45.87563" lon="-0.96316">
        <ele>1.42</ele>
        <time>2022-09-20T13:09:57.000Z</time>
      </trkpt>
      <trkpt lat="45.87587" lon="-0.96328">
        <ele>1.17</ele>
        <time>2022-09-20T13:10:02.000Z</time>
      </trkpt>
      <trkpt lat="45.87603" lon="-0.96323">
        <ele>1.12</ele>
        <time>2022-09-20T13:10:07.000Z</time>
      </trkpt>
      <trkpt lat="45.87613" lon="-0.96318">
        <ele>0.83</ele>
        <time>2022-09-20T13:10:38.000Z</time>
      </trkpt>
      <trkpt lat="45.87632" lon="-0.96317">
        <ele>0.13</ele>
        <time>2022-09-20T13:10:43.000Z</time>
      </trkpt>
      <trkpt lat="45.87652" lon="-0.96312">
        <ele>-0.07</ele>
        <time>2022-09-20T13:10:48.000Z</time>
      </trkpt>
      <trkpt lat="45.87667" lon="-0.96297">
        <ele>-0.42</ele>
        <time>2022-09-20T13:10:53.000Z</time>
      </trkpt>
      <trkpt lat="45.87679" lon="-0.96281">
        <ele>-0.88</ele>
        <time>2022-09-20T13:10:58.000Z</time>
      </trkpt>
      <trkpt lat="45.8769" lon="-0.96271">
        <ele>-2.04</ele>
        <time>2022-09-20T13:11:03.000Z</time>
      </trkpt>
      <trkpt lat="45.87698" lon="-0.96265">
        <ele>-1.36</ele>
        <time>2022-09-20T13:11:20.000Z</time>
      </trkpt>
      <trkpt lat="45.87709" lon="-0.96257">
        <ele>-2</ele>
        <time>2022-09-20T13:11:25.000Z</time>
      </trkpt>
      <trkpt lat="45.87722" lon="-0.96246">
        <ele>-2</ele>
        <time>2022-09-20T13:11:30.000Z</time>
      </trkpt>
      <trkpt lat="45.87735" lon="-0.96233">
        <ele>-0.82</ele>
        <time>2022-09-20T13:11:35.000Z</time>
      </trkpt>
      <trkpt lat="45.87753" lon="-0.96219">
        <ele>0.39</ele>
        <time>2022-09-20T13:11:40.000Z</time>
      </trkpt>
      <trkpt lat="45.8777" lon="-0.96203">
        <ele>1.06</ele>
        <time>2022-09-20T13:11:45.000Z</time>
      </trkpt>
      <trkpt lat="45.87788" lon="-0.96185">
        <ele>2.12</ele>
        <time>2022-09-20T13:11:50.000Z</time>
      </trkpt>
      <trkpt lat="45.87805" lon="-0.96169">
        <ele>3.05</ele>
        <time>2022-09-20T13:11:55.000Z</time>
      </trkpt>
      <trkpt lat="45.87825" lon="-0.96153">
        <ele>3.33</ele>
        <time>2022-09-20T13:12:00.000Z</time>
      </trkpt>
      <trkpt lat="45.87841" lon="-0.96139">
        <ele>2.1</ele>
        <time>2022-09-20T13:12:05.000Z</time>
      </trkpt>
      <trkpt lat="45.87862" lon="-0.96126">
        <ele>1.99</ele>
        <time>2022-09-20T13:12:10.000Z</time>
      </trkpt>
      <trkpt lat="45.87881" lon="-0.96112">
        <ele>2.63</ele>
        <time>2022-09-20T13:12:15.000Z</time>
      </trkpt>
      <trkpt lat="45.87902" lon="-0.96098">
        <ele>3.11</ele>
        <time>2022-09-20T13:12:20.000Z</time>
      </trkpt>
      <trkpt lat="45.87924" lon="-0.96084">
        <ele>3.19</ele>
        <time>2022-09-20T13:12:25.000Z</time>
      </trkpt>
      <trkpt lat="45.87946" lon="-0.96068">
        <ele>3.21</ele>
        <time>2022-09-20T13:12:30.000Z</time>
      </trkpt>
      <trkpt lat="45.87969" lon="-0.96051">
        <ele>2.92</ele>
        <time>2022-09-20T13:12:35.000Z</time>
      </trkpt>
      <trkpt lat="45.87992" lon="-0.96034">
        <ele>3.16</ele>
        <time>2022-09-20T13:12:40.000Z</time>
      </trkpt>
      <trkpt lat="45.88013" lon="-0.96013">
        <ele>2.17</ele>
        <time>2022-09-20T13:12:45.000Z</time>
      </trkpt>
      <trkpt lat="45.88032" lon="-0.95988">
        <ele>2.52</ele>
        <time>2022-09-20T13:12:50.000Z</time>
      </trkpt>
      <trkpt lat="45.88053" lon="-0.95961">
        <ele>2.52</ele>
        <time>2022-09-20T13:12:55.000Z</time>
      </trkpt>
      <trkpt lat="45.88072" lon="-0.95935">
        <ele>3.31</ele>
        <time>2022-09-20T13:13:00.000Z</time>
      </trkpt>
      <trkpt lat="45.88083" lon="-0.95905">
        <ele>2.78</ele>
        <time>2022-09-20T13:13:05.000Z</time>
      </trkpt>
      <trkpt lat="45.88094" lon="-0.95876">
        <ele>1.46</ele>
        <time>2022-09-20T13:13:10.000Z</time>
      </trkpt>
      <trkpt lat="45.88104" lon="-0.95858">
        <ele>1.95</ele>
        <time>2022-09-20T13:13:15.000Z</time>
      </trkpt>
      <trkpt lat="45.88117" lon="-0.95845">
        <ele>2.37</ele>
        <time>2022-09-20T13:13:20.000Z</time>
      </trkpt>
      <trkpt lat="45.88138" lon="-0.95838">
        <ele>0.56</ele>
        <time>2022-09-20T13:13:25.000Z</time>
      </trkpt>
      <trkpt lat="45.88154" lon="-0.95827">
        <ele>-0.52</ele>
        <time>2022-09-20T13:13:30.000Z</time>
      </trkpt>
      <trkpt lat="45.88165" lon="-0.95819">
        <ele>-1</ele>
        <time>2022-09-20T13:13:35.000Z</time>
      </trkpt>
      <trkpt lat="45.88174" lon="-0.95809">
        <ele>-0.49</ele>
        <time>2022-09-20T13:13:40.000Z</time>
      </trkpt>
      <trkpt lat="45.88185" lon="-0.95797">
        <ele>0.08</ele>
        <time>2022-09-20T13:13:45.000Z</time>
      </trkpt>
      <trkpt lat="45.88199" lon="-0.95783">
        <ele>0.86</ele>
        <time>2022-09-20T13:13:50.000Z</time>
      </trkpt>
      <trkpt lat="45.88211" lon="-0.95769">
        <ele>1.47</ele>
        <time>2022-09-20T13:13:55.000Z</time>
      </trkpt>
      <trkpt lat="45.88223" lon="-0.95755">
        <ele>2.19</ele>
        <time>2022-09-20T13:14:00.000Z</time>
      </trkpt>
      <trkpt lat="45.88238" lon="-0.95742">
        <ele>2.94</ele>
        <time>2022-09-20T13:14:05.000Z</time>
      </trkpt>
      <trkpt lat="45.88254" lon="-0.95729">
        <ele>3.56</ele>
        <time>2022-09-20T13:14:10.000Z</time>
      </trkpt>
      <trkpt lat="45.88268" lon="-0.95718">
        <ele>4.44</ele>
        <time>2022-09-20T13:14:15.000Z</time>
      </trkpt>
      <trkpt lat="45.88282" lon="-0.95706">
        <ele>4.52</ele>
        <time>2022-09-20T13:14:20.000Z</time>
      </trkpt>
      <trkpt lat="45.88295" lon="-0.95695">
        <ele>3.38</ele>
        <time>2022-09-20T13:14:25.000Z</time>
      </trkpt>
      <trkpt lat="45.88308" lon="-0.95684">
        <ele>2.58</ele>
        <time>2022-09-20T13:14:30.000Z</time>
      </trkpt>
      <trkpt lat="45.88323" lon="-0.95675">
        <ele>1.14</ele>
        <time>2022-09-20T13:14:35.000Z</time>
      </trkpt>
      <trkpt lat="45.88335" lon="-0.95665">
        <ele>-1.03</ele>
        <time>2022-09-20T13:14:40.000Z</time>
      </trkpt>
      <trkpt lat="45.88348" lon="-0.95662">
        <ele>-2.04</ele>
        <time>2022-09-20T13:14:45.000Z</time>
      </trkpt>
      <trkpt lat="45.8836" lon="-0.95662">
        <ele>-1.96</ele>
        <time>2022-09-20T13:14:50.000Z</time>
      </trkpt>
      <trkpt lat="45.88374" lon="-0.95662">
        <ele>0.53</ele>
        <time>2022-09-20T13:14:55.000Z</time>
      </trkpt>
      <trkpt lat="45.88388" lon="-0.95659">
        <ele>3</ele>
        <time>2022-09-20T13:15:00.000Z</time>
      </trkpt>
      <trkpt lat="45.88402" lon="-0.95653">
        <ele>2.58</ele>
        <time>2022-09-20T13:15:05.000Z</time>
      </trkpt>
      <trkpt lat="45.88416" lon="-0.95644">
        <ele>1.95</ele>
        <time>2022-09-20T13:15:10.000Z</time>
      </trkpt>
      <trkpt lat="45.88428" lon="-0.95635">
        <ele>3.99</ele>
        <time>2022-09-20T13:15:15.000Z</time>
      </trkpt>
      <trkpt lat="45.88441" lon="-0.95623">
        <ele>4.49</ele>
        <time>2022-09-20T13:15:20.000Z</time>
      </trkpt>
      <trkpt lat="45.88452" lon="-0.95611">
        <ele>5.25</ele>
        <time>2022-09-20T13:15:25.000Z</time>
      </trkpt>
      <trkpt lat="45.88464" lon="-0.95598">
        <ele>5.39</ele>
        <time>2022-09-20T13:15:30.000Z</time>
      </trkpt>
      <trkpt lat="45.88475" lon="-0.95584">
        <ele>4.25</ele>
        <time>2022-09-20T13:15:35.000Z</time>
      </trkpt>
      <trkpt lat="45.8849" lon="-0.95569">
        <ele>3.7</ele>
        <time>2022-09-20T13:15:40.000Z</time>
      </trkpt>
      <trkpt lat="45.88505" lon="-0.95556">
        <ele>3.56</ele>
        <time>2022-09-20T13:15:45.000Z</time>
      </trkpt>
      <trkpt lat="45.8852" lon="-0.95543">
        <ele>4.25</ele>
        <time>2022-09-20T13:15:50.000Z</time>
      </trkpt>
      <trkpt lat="45.88535" lon="-0.95531">
        <ele>4.49</ele>
        <time>2022-09-20T13:15:55.000Z</time>
      </trkpt>
      <trkpt lat="45.88549" lon="-0.9552">
        <ele>4.31</ele>
        <time>2022-09-20T13:16:00.000Z</time>
      </trkpt>
      <trkpt lat="45.88562" lon="-0.9551">
        <ele>3.64</ele>
        <time>2022-09-20T13:16:05.000Z</time>
      </trkpt>
      <trkpt lat="45.88577" lon="-0.95501">
        <ele>3.55</ele>
        <time>2022-09-20T13:16:10.000Z</time>
      </trkpt>
      <trkpt lat="45.88591" lon="-0.95492">
        <ele>3.97</ele>
        <time>2022-09-20T13:16:15.000Z</time>
      </trkpt>
      <trkpt lat="45.88606" lon="-0.95482">
        <ele>4.7</ele>
        <time>2022-09-20T13:16:20.000Z</time>
      </trkpt>
      <trkpt lat="45.88622" lon="-0.95474">
        <ele>4.23</ele>
        <time>2022-09-20T13:16:25.000Z</time>
      </trkpt>
      <trkpt lat="45.88637" lon="-0.95468">
        <ele>3.73</ele>
        <time>2022-09-20T13:16:30.000Z</time>
      </trkpt>
      <trkpt lat="45.88652" lon="-0.95462">
        <ele>3.7</ele>
        <time>2022-09-20T13:16:35.000Z</time>
      </trkpt>
      <trkpt lat="45.8867" lon="-0.95457">
        <ele>4.48</ele>
        <time>2022-09-20T13:16:40.000Z</time>
      </trkpt>
      <trkpt lat="45.88686" lon="-0.95451">
        <ele>4.65</ele>
        <time>2022-09-20T13:16:45.000Z</time>
      </trkpt>
      <trkpt lat="45.88704" lon="-0.95444">
        <ele>4.19</ele>
        <time>2022-09-20T13:16:50.000Z</time>
      </trkpt>
      <trkpt lat="45.8872" lon="-0.95433">
        <ele>5</ele>
        <time>2022-09-20T13:16:55.000Z</time>
      </trkpt>
      <trkpt lat="45.88737" lon="-0.95424">
        <ele>4.53</ele>
        <time>2022-09-20T13:17:00.000Z</time>
      </trkpt>
      <trkpt lat="45.88753" lon="-0.95414">
        <ele>3.89</ele>
        <time>2022-09-20T13:17:05.000Z</time>
      </trkpt>
      <trkpt lat="45.88769" lon="-0.95405">
        <ele>3.87</ele>
        <time>2022-09-20T13:17:10.000Z</time>
      </trkpt>
      <trkpt lat="45.88786" lon="-0.95396">
        <ele>4.09</ele>
        <time>2022-09-20T13:17:15.000Z</time>
      </trkpt>
      <trkpt lat="45.88804" lon="-0.95392">
        <ele>4.71</ele>
        <time>2022-09-20T13:17:20.000Z</time>
      </trkpt>
      <trkpt lat="45.88824" lon="-0.95394">
        <ele>4.02</ele>
        <time>2022-09-20T13:17:25.000Z</time>
      </trkpt>
      <trkpt lat="45.88844" lon="-0.95402">
        <ele>3.12</ele>
        <time>2022-09-20T13:17:30.000Z</time>
      </trkpt>
      <trkpt lat="45.88864" lon="-0.95407">
        <ele>1.78</ele>
        <time>2022-09-20T13:17:35.000Z</time>
      </trkpt>
      <trkpt lat="45.88888" lon="-0.95406">
        <ele>1.18</ele>
        <time>2022-09-20T13:17:40.000Z</time>
      </trkpt>
      <trkpt lat="45.88912" lon="-0.95406">
        <ele>1.53</ele>
        <time>2022-09-20T13:17:45.000Z</time>
      </trkpt>
      <trkpt lat="45.88936" lon="-0.954">
        <ele>1.45</ele>
        <time>2022-09-20T13:17:50.000Z</time>
      </trkpt>
      <trkpt lat="45.88957" lon="-0.95385">
        <ele>-0.05</ele>
        <time>2022-09-20T13:17:55.000Z</time>
      </trkpt>
      <trkpt lat="45.8898" lon="-0.95373">
        <ele>13</ele>
        <time>2022-09-20T13:18:00.000Z</time>
      </trkpt>
      <trkpt lat="45.89003" lon="-0.95367">
        <ele>1.4</ele>
        <time>2022-09-20T13:18:05.000Z</time>
      </trkpt>
      <trkpt lat="45.89026" lon="-0.95368">
        <ele>3.68</ele>
        <time>2022-09-20T13:18:10.000Z</time>
      </trkpt>
      <trkpt lat="45.89047" lon="-0.95369">
        <ele>5.34</ele>
        <time>2022-09-20T13:18:15.000Z</time>
      </trkpt>
      <trkpt lat="45.89068" lon="-0.95368">
        <ele>4.22</ele>
        <time>2022-09-20T13:18:20.000Z</time>
      </trkpt>
      <trkpt lat="45.89091" lon="-0.95366">
        <ele>4.43</ele>
        <time>2022-09-20T13:18:25.000Z</time>
      </trkpt>
      <trkpt lat="45.89114" lon="-0.95363">
        <ele>5.31</ele>
        <time>2022-09-20T13:18:30.000Z</time>
      </trkpt>
      <trkpt lat="45.89132" lon="-0.9536">
        <ele>5.65</ele>
        <time>2022-09-20T13:18:35.000Z</time>
      </trkpt>
      <trkpt lat="45.89152" lon="-0.95355">
        <ele>5.02</ele>
        <time>2022-09-20T13:18:40.000Z</time>
      </trkpt>
      <trkpt lat="45.89169" lon="-0.95353">
        <ele>4.45</ele>
        <time>2022-09-20T13:18:45.000Z</time>
      </trkpt>
      <trkpt lat="45.8919" lon="-0.95348">
        <ele>3.78</ele>
        <time>2022-09-20T13:18:50.000Z</time>
      </trkpt>
      <trkpt lat="45.89208" lon="-0.95343">
        <ele>2.9</ele>
        <time>2022-09-20T13:18:55.000Z</time>
      </trkpt>
      <trkpt lat="45.89223" lon="-0.95338">
        <ele>3.29</ele>
        <time>2022-09-20T13:19:00.000Z</time>
      </trkpt>
      <trkpt lat="45.89238" lon="-0.95332">
        <ele>3.5</ele>
        <time>2022-09-20T13:19:05.000Z</time>
      </trkpt>
      <trkpt lat="45.89256" lon="-0.95325">
        <ele>2.81</ele>
        <time>2022-09-20T13:19:10.000Z</time>
      </trkpt>
      <trkpt lat="45.89274" lon="-0.9532">
        <ele>1.67</ele>
        <time>2022-09-20T13:19:15.000Z</time>
      </trkpt>
      <trkpt lat="45.89293" lon="-0.95315">
        <ele>1.29</ele>
        <time>2022-09-20T13:19:20.000Z</time>
      </trkpt>
      <trkpt lat="45.89313" lon="-0.95309">
        <ele>0.89</ele>
        <time>2022-09-20T13:19:25.000Z</time>
      </trkpt>
      <trkpt lat="45.89332" lon="-0.953">
        <ele>0.3</ele>
        <time>2022-09-20T13:19:30.000Z</time>
      </trkpt>
      <trkpt lat="45.89353" lon="-0.9529">
        <ele>0.3</ele>
        <time>2022-09-20T13:19:35.000Z</time>
      </trkpt>
      <trkpt lat="45.89372" lon="-0.95279">
        <ele>0.49</ele>
        <time>2022-09-20T13:19:40.000Z</time>
      </trkpt>
      <trkpt lat="45.89391" lon="-0.95263">
        <ele>0.7</ele>
        <time>2022-09-20T13:19:45.000Z</time>
      </trkpt>
      <trkpt lat="45.89408" lon="-0.95252">
        <ele>0.52</ele>
        <time>2022-09-20T13:19:50.000Z</time>
      </trkpt>
      <trkpt lat="45.89421" lon="-0.95242">
        <ele>1.2</ele>
        <time>2022-09-20T13:19:55.000Z</time>
      </trkpt>
      <trkpt lat="45.89438" lon="-0.95232">
        <ele>2.18</ele>
        <time>2022-09-20T13:20:00.000Z</time>
      </trkpt>
      <trkpt lat="45.89456" lon="-0.95223">
        <ele>3.06</ele>
        <time>2022-09-20T13:20:05.000Z</time>
      </trkpt>
      <trkpt lat="45.89475" lon="-0.95214">
        <ele>3.2</ele>
        <time>2022-09-20T13:20:10.000Z</time>
      </trkpt>
      <trkpt lat="45.89496" lon="-0.95207">
        <ele>2.61</ele>
        <time>2022-09-20T13:20:15.000Z</time>
      </trkpt>
      <trkpt lat="45.89519" lon="-0.95199">
        <ele>2.13</ele>
        <time>2022-09-20T13:20:20.000Z</time>
      </trkpt>
      <trkpt lat="45.89543" lon="-0.95192">
        <ele>1.87</ele>
        <time>2022-09-20T13:20:25.000Z</time>
      </trkpt>
      <trkpt lat="45.89569" lon="-0.95182">
        <ele>2.51</ele>
        <time>2022-09-20T13:20:30.000Z</time>
      </trkpt>
      <trkpt lat="45.89591" lon="-0.95171">
        <ele>3.87</ele>
        <time>2022-09-20T13:20:35.000Z</time>
      </trkpt>
      <trkpt lat="45.89619" lon="-0.95159">
        <ele>5.3</ele>
        <time>2022-09-20T13:20:40.000Z</time>
      </trkpt>
      <trkpt lat="45.89647" lon="-0.95153">
        <ele>5</ele>
        <time>2022-09-20T13:20:45.000Z</time>
      </trkpt>
      <trkpt lat="45.89672" lon="-0.95145">
        <ele>4.42</ele>
        <time>2022-09-20T13:20:50.000Z</time>
      </trkpt>
      <trkpt lat="45.89697" lon="-0.95141">
        <ele>5.61</ele>
        <time>2022-09-20T13:20:55.000Z</time>
      </trkpt>
      <trkpt lat="45.89719" lon="-0.95135">
        <ele>7.04</ele>
        <time>2022-09-20T13:21:00.000Z</time>
      </trkpt>
      <trkpt lat="45.89742" lon="-0.9513">
        <ele>8.07</ele>
        <time>2022-09-20T13:21:05.000Z</time>
      </trkpt>
      <trkpt lat="45.89765" lon="-0.95122">
        <ele>10.49</ele>
        <time>2022-09-20T13:21:10.000Z</time>
      </trkpt>
      <trkpt lat="45.89787" lon="-0.95116">
        <ele>11.39</ele>
        <time>2022-09-20T13:21:15.000Z</time>
      </trkpt>
      <trkpt lat="45.89806" lon="-0.95115">
        <ele>11.28</ele>
        <time>2022-09-20T13:21:20.000Z</time>
      </trkpt>
      <trkpt lat="45.89821" lon="-0.95117">
        <ele>11.96</ele>
        <time>2022-09-20T13:21:25.000Z</time>
      </trkpt>
      <trkpt lat="45.89837" lon="-0.95121">
        <ele>13.4</ele>
        <time>2022-09-20T13:21:30.000Z</time>
      </trkpt>
      <trkpt lat="45.89856" lon="-0.95114">
        <ele>13.81</ele>
        <time>2022-09-20T13:21:35.000Z</time>
      </trkpt>
      <trkpt lat="45.8987" lon="-0.95105">
        <ele>16.39</ele>
        <time>2022-09-20T13:21:40.000Z</time>
      </trkpt>
      <trkpt lat="45.89889" lon="-0.95096">
        <ele>17.08</ele>
        <time>2022-09-20T13:21:45.000Z</time>
      </trkpt>
      <trkpt lat="45.8991" lon="-0.95086">
        <ele>17.81</ele>
        <time>2022-09-20T13:21:50.000Z</time>
      </trkpt>
      <trkpt lat="45.89929" lon="-0.95077">
        <ele>18.2</ele>
        <time>2022-09-20T13:21:55.000Z</time>
      </trkpt>
      <trkpt lat="45.89946" lon="-0.95075">
        <ele>17.14</ele>
        <time>2022-09-20T13:22:00.000Z</time>
      </trkpt>
      <trkpt lat="45.89951" lon="-0.9506">
        <ele>13.53</ele>
        <time>2022-09-20T13:22:19.000Z</time>
      </trkpt>
      <trkpt lat="45.89961" lon="-0.95063">
        <ele>8.44</ele>
        <time>2022-09-20T13:23:38.000Z</time>
      </trkpt>
      <trkpt lat="45.89974" lon="-0.95077">
        <ele>7.17</ele>
        <time>2022-09-20T13:23:43.000Z</time>
      </trkpt>
      <trkpt lat="45.89984" lon="-0.95098">
        <ele>6.48</ele>
        <time>2022-09-20T13:23:48.000Z</time>
      </trkpt>
      <trkpt lat="45.89997" lon="-0.95118">
        <ele>5.14</ele>
        <time>2022-09-20T13:23:53.000Z</time>
      </trkpt>
      <trkpt lat="45.90006" lon="-0.95126">
        <ele>5.19</ele>
        <time>2022-09-20T13:23:58.000Z</time>
      </trkpt>
      <trkpt lat="45.90017" lon="-0.95135">
        <ele>4.51</ele>
        <time>2022-09-20T13:24:03.000Z</time>
      </trkpt>
      <trkpt lat="45.90029" lon="-0.95147">
        <ele>4.55</ele>
        <time>2022-09-20T13:24:08.000Z</time>
      </trkpt>
      <trkpt lat="45.90043" lon="-0.95162">
        <ele>4.08</ele>
        <time>2022-09-20T13:24:13.000Z</time>
      </trkpt>
      <trkpt lat="45.90055" lon="-0.95178">
        <ele>3.63</ele>
        <time>2022-09-20T13:24:18.000Z</time>
      </trkpt>
      <trkpt lat="45.90064" lon="-0.95198">
        <ele>3.69</ele>
        <time>2022-09-20T13:24:23.000Z</time>
      </trkpt>
      <trkpt lat="45.90074" lon="-0.95217">
        <ele>3.88</ele>
        <time>2022-09-20T13:24:28.000Z</time>
      </trkpt>
      <trkpt lat="45.90085" lon="-0.95238">
        <ele>3.88</ele>
        <time>2022-09-20T13:24:33.000Z</time>
      </trkpt>
      <trkpt lat="45.90097" lon="-0.95263">
        <ele>3.58</ele>
        <time>2022-09-20T13:24:38.000Z</time>
      </trkpt>
      <trkpt lat="45.90109" lon="-0.95288">
        <ele>2.29</ele>
        <time>2022-09-20T13:24:43.000Z</time>
      </trkpt>
      <trkpt lat="45.90121" lon="-0.95313">
        <ele>0.18</ele>
        <time>2022-09-20T13:24:48.000Z</time>
      </trkpt>
      <trkpt lat="45.90134" lon="-0.95344">
        <ele>-0.47</ele>
        <time>2022-09-20T13:24:53.000Z</time>
      </trkpt>
      <trkpt lat="45.90146" lon="-0.95371">
        <ele>-0.82</ele>
        <time>2022-09-20T13:24:58.000Z</time>
      </trkpt>
      <trkpt lat="45.90157" lon="-0.95396">
        <ele>-0.8</ele>
        <time>2022-09-20T13:25:03.000Z</time>
      </trkpt>
      <trkpt lat="45.90169" lon="-0.95405">
        <ele>-0.22</ele>
        <time>2022-09-20T13:25:08.000Z</time>
      </trkpt>
      <trkpt lat="45.90179" lon="-0.95405">
        <ele>1.1</ele>
        <time>2022-09-20T13:25:37.000Z</time>
      </trkpt>
      <trkpt lat="45.902" lon="-0.95414">
        <ele>2.46</ele>
        <time>2022-09-20T13:25:42.000Z</time>
      </trkpt>
      <trkpt lat="45.90219" lon="-0.95408">
        <ele>3.2</ele>
        <time>2022-09-20T13:25:47.000Z</time>
      </trkpt>
      <trkpt lat="45.90243" lon="-0.95409">
        <ele>2.28</ele>
        <time>2022-09-20T13:25:52.000Z</time>
      </trkpt>
      <trkpt lat="45.90267" lon="-0.95415">
        <ele>1.65</ele>
        <time>2022-09-20T13:25:57.000Z</time>
      </trkpt>
      <trkpt lat="45.90292" lon="-0.95422">
        <ele>0.95</ele>
        <time>2022-09-20T13:26:02.000Z</time>
      </trkpt>
      <trkpt lat="45.90316" lon="-0.95429">
        <ele>0.04</ele>
        <time>2022-09-20T13:26:07.000Z</time>
      </trkpt>
      <trkpt lat="45.90338" lon="-0.95441">
        <ele>1.56</ele>
        <time>2022-09-20T13:26:12.000Z</time>
      </trkpt>
      <trkpt lat="45.90349" lon="-0.95468">
        <ele>2.09</ele>
        <time>2022-09-20T13:26:17.000Z</time>
      </trkpt>
      <trkpt lat="45.9035" lon="-0.95493">
        <ele>2.49</ele>
        <time>2022-09-20T13:26:22.000Z</time>
      </trkpt>
      <trkpt lat="45.9036" lon="-0.95512">
        <ele>5.36</ele>
        <time>2022-09-20T13:26:27.000Z</time>
      </trkpt>
      <trkpt lat="45.90376" lon="-0.95519">
        <ele>6.88</ele>
        <time>2022-09-20T13:26:32.000Z</time>
      </trkpt>
      <trkpt lat="45.90389" lon="-0.95525">
        <ele>7.29</ele>
        <time>2022-09-20T13:26:37.000Z</time>
      </trkpt>
      <trkpt lat="45.90378" lon="-0.9552">
        <ele>7.16</ele>
        <time>2022-09-20T13:27:04.000Z</time>
      </trkpt>
      <trkpt lat="45.9036" lon="-0.95513">
        <ele>5.95</ele>
        <time>2022-09-20T13:27:09.000Z</time>
      </trkpt>
      <trkpt lat="45.90348" lon="-0.95493">
        <ele>4.29</ele>
        <time>2022-09-20T13:27:14.000Z</time>
      </trkpt>
      <trkpt lat="45.90349" lon="-0.95474">
        <ele>2.4</ele>
        <time>2022-09-20T13:27:19.000Z</time>
      </trkpt>
      <trkpt lat="45.90345" lon="-0.9545">
        <ele>0.78</ele>
        <time>2022-09-20T13:27:24.000Z</time>
      </trkpt>
      <trkpt lat="45.90331" lon="-0.95434">
        <ele>-0.85</ele>
        <time>2022-09-20T13:27:29.000Z</time>
      </trkpt>
      <trkpt lat="45.90309" lon="-0.95428">
        <ele>-1.43</ele>
        <time>2022-09-20T13:27:34.000Z</time>
      </trkpt>
      <trkpt lat="45.90286" lon="-0.95422">
        <ele>-2.99</ele>
        <time>2022-09-20T13:27:39.000Z</time>
      </trkpt>
      <trkpt lat="45.90263" lon="-0.95414">
        <ele>-4.16</ele>
        <time>2022-09-20T13:27:44.000Z</time>
      </trkpt>
      <trkpt lat="45.90237" lon="-0.9541">
        <ele>-4.76</ele>
        <time>2022-09-20T13:27:49.000Z</time>
      </trkpt>
      <trkpt lat="45.90215" lon="-0.95413">
        <ele>-5.22</ele>
        <time>2022-09-20T13:27:54.000Z</time>
      </trkpt>
      <trkpt lat="45.90198" lon="-0.95421">
        <ele>-4.79</ele>
        <time>2022-09-20T13:27:59.000Z</time>
      </trkpt>
      <trkpt lat="45.90197" lon="-0.95452">
        <ele>-5.49</ele>
        <time>2022-09-20T13:28:04.000Z</time>
      </trkpt>
      <trkpt lat="45.90201" lon="-0.9549">
        <ele>-5.96</ele>
        <time>2022-09-20T13:28:09.000Z</time>
      </trkpt>
      <trkpt lat="45.90195" lon="-0.95524">
        <ele>-5.9</ele>
        <time>2022-09-20T13:28:14.000Z</time>
      </trkpt>
      <trkpt lat="45.90195" lon="-0.95556">
        <ele>-5.84</ele>
        <time>2022-09-20T13:28:19.000Z</time>
      </trkpt>
      <trkpt lat="45.90199" lon="-0.95591">
        <ele>-5.61</ele>
        <time>2022-09-20T13:28:24.000Z</time>
      </trkpt>
      <trkpt lat="45.90204" lon="-0.95627">
        <ele>-5.43</ele>
        <time>2022-09-20T13:28:29.000Z</time>
      </trkpt>
      <trkpt lat="45.90208" lon="-0.95662">
        <ele>-5.28</ele>
        <time>2022-09-20T13:28:34.000Z</time>
      </trkpt>
      <trkpt lat="45.90214" lon="-0.95689">
        <ele>-4.82</ele>
        <time>2022-09-20T13:28:39.000Z</time>
      </trkpt>
      <trkpt lat="45.90218" lon="-0.95703">
        <ele>-5</ele>
        <time>2022-09-20T13:28:44.000Z</time>
      </trkpt>
      <trkpt lat="45.90226" lon="-0.9571">
        <ele>-5.45</ele>
        <time>2022-09-20T13:29:09.000Z</time>
      </trkpt>
      <trkpt lat="45.90223" lon="-0.95723">
        <ele>-5.5</ele>
        <time>2022-09-20T13:29:14.000Z</time>
      </trkpt>
      <trkpt lat="45.90226" lon="-0.95751">
        <ele>-5.77</ele>
        <time>2022-09-20T13:29:19.000Z</time>
      </trkpt>
      <trkpt lat="45.90231" lon="-0.95783">
        <ele>-5.41</ele>
        <time>2022-09-20T13:29:24.000Z</time>
      </trkpt>
      <trkpt lat="45.90233" lon="-0.95813">
        <ele>-4.98</ele>
        <time>2022-09-20T13:29:29.000Z</time>
      </trkpt>
      <trkpt lat="45.90237" lon="-0.95828">
        <ele>-5.31</ele>
        <time>2022-09-20T13:29:34.000Z</time>
      </trkpt>
      <trkpt lat="45.90252" lon="-0.95826">
        <ele>-5.26</ele>
        <time>2022-09-20T13:29:39.000Z</time>
      </trkpt>
      <trkpt lat="45.90274" lon="-0.95823">
        <ele>-4.29</ele>
        <time>2022-09-20T13:29:44.000Z</time>
      </trkpt>
      <trkpt lat="45.90296" lon="-0.95827">
        <ele>-4.4</ele>
        <time>2022-09-20T13:29:49.000Z</time>
      </trkpt>
      <trkpt lat="45.90318" lon="-0.95833">
        <ele>-5.01</ele>
        <time>2022-09-20T13:29:54.000Z</time>
      </trkpt>
      <trkpt lat="45.90332" lon="-0.95841">
        <ele>-2.82</ele>
        <time>2022-09-20T13:29:59.000Z</time>
      </trkpt>
      <trkpt lat="45.90324" lon="-0.95848">
        <ele>-1.4</ele>
        <time>2022-09-20T13:30:11.000Z</time>
      </trkpt>
      <trkpt lat="45.90331" lon="-0.95862">
        <ele>4.85</ele>
        <time>2022-09-20T13:42:10.000Z</time>
      </trkpt>
      <trkpt lat="45.90323" lon="-0.95855">
        <ele>2.12</ele>
        <time>2022-09-20T13:42:55.000Z</time>
      </trkpt>
      <trkpt lat="45.90327" lon="-0.95842">
        <ele>0.59</ele>
        <time>2022-09-20T13:47:27.000Z</time>
      </trkpt>
      <trkpt lat="45.90337" lon="-0.95839">
        <ele>0.72</ele>
        <time>2022-09-20T13:47:40.000Z</time>
      </trkpt>
      <trkpt lat="45.90356" lon="-0.95842">
        <ele>0.51</ele>
        <time>2022-09-20T13:47:45.000Z</time>
      </trkpt>
      <trkpt lat="45.90378" lon="-0.95844">
        <ele>0.6</ele>
        <time>2022-09-20T13:47:50.000Z</time>
      </trkpt>
      <trkpt lat="45.90402" lon="-0.95846">
        <ele>0.77</ele>
        <time>2022-09-20T13:47:55.000Z</time>
      </trkpt>
      <trkpt lat="45.9043" lon="-0.95849">
        <ele>0.02</ele>
        <time>2022-09-20T13:48:00.000Z</time>
      </trkpt>
      <trkpt lat="45.90454" lon="-0.95854">
        <ele>-2.32</ele>
        <time>2022-09-20T13:48:05.000Z</time>
      </trkpt>
      <trkpt lat="45.90477" lon="-0.95857">
        <ele>-3.14</ele>
        <time>2022-09-20T13:48:10.000Z</time>
      </trkpt>
      <trkpt lat="45.90501" lon="-0.9586">
        <ele>-4.71</ele>
        <time>2022-09-20T13:48:15.000Z</time>
      </trkpt>
      <trkpt lat="45.90522" lon="-0.95868">
        <ele>-6.45</ele>
        <time>2022-09-20T13:48:20.000Z</time>
      </trkpt>
      <trkpt lat="45.90543" lon="-0.95873">
        <ele>-8.13</ele>
        <time>2022-09-20T13:48:25.000Z</time>
      </trkpt>
      <trkpt lat="45.90564" lon="-0.95877">
        <ele>-9.71</ele>
        <time>2022-09-20T13:48:30.000Z</time>
      </trkpt>
      <trkpt lat="45.90583" lon="-0.95882">
        <ele>-10.23</ele>
        <time>2022-09-20T13:48:35.000Z</time>
      </trkpt>
      <trkpt lat="45.90602" lon="-0.95886">
        <ele>-9.69</ele>
        <time>2022-09-20T13:48:40.000Z</time>
      </trkpt>
      <trkpt lat="45.90622" lon="-0.95889">
        <ele>-9.2</ele>
        <time>2022-09-20T13:48:45.000Z</time>
      </trkpt>
      <trkpt lat="45.90642" lon="-0.95892">
        <ele>-7.19</ele>
        <time>2022-09-20T13:48:50.000Z</time>
      </trkpt>
      <trkpt lat="45.90664" lon="-0.95893">
        <ele>-7.21</ele>
        <time>2022-09-20T13:48:55.000Z</time>
      </trkpt>
      <trkpt lat="45.90687" lon="-0.95895">
        <ele>-8.02</ele>
        <time>2022-09-20T13:49:00.000Z</time>
      </trkpt>
      <trkpt lat="45.90711" lon="-0.95896">
        <ele>-10.36</ele>
        <time>2022-09-20T13:49:05.000Z</time>
      </trkpt>
      <trkpt lat="45.90733" lon="-0.95899">
        <ele>-10.6</ele>
        <time>2022-09-20T13:49:10.000Z</time>
      </trkpt>
      <trkpt lat="45.90758" lon="-0.959">
        <ele>-10</ele>
        <time>2022-09-20T13:49:15.000Z</time>
      </trkpt>
      <trkpt lat="45.90784" lon="-0.95902">
        <ele>-9.61</ele>
        <time>2022-09-20T13:49:20.000Z</time>
      </trkpt>
      <trkpt lat="45.90787" lon="-0.95917">
        <ele>-4.32</ele>
        <time>2022-09-20T13:49:29.000Z</time>
      </trkpt>
      <trkpt lat="45.90785" lon="-0.95939">
        <ele>-3.46</ele>
        <time>2022-09-20T13:49:34.000Z</time>
      </trkpt>
      <trkpt lat="45.90782" lon="-0.95956">
        <ele>-1.85</ele>
        <time>2022-09-20T13:49:39.000Z</time>
      </trkpt>
      <trkpt lat="45.9079" lon="-0.95966">
        <ele>-0.22</ele>
        <time>2022-09-20T13:49:46.000Z</time>
      </trkpt>
      <trkpt lat="45.90806" lon="-0.9597">
        <ele>0.27</ele>
        <time>2022-09-20T13:49:51.000Z</time>
      </trkpt>
      <trkpt lat="45.90823" lon="-0.95972">
        <ele>0.49</ele>
        <time>2022-09-20T13:49:56.000Z</time>
      </trkpt>
      <trkpt lat="45.90845" lon="-0.95969">
        <ele>0.38</ele>
        <time>2022-09-20T13:50:01.000Z</time>
      </trkpt>
      <trkpt lat="45.90865" lon="-0.95967">
        <ele>-0.12</ele>
        <time>2022-09-20T13:50:06.000Z</time>
      </trkpt>
      <trkpt lat="45.90884" lon="-0.95963">
        <ele>-1.19</ele>
        <time>2022-09-20T13:50:11.000Z</time>
      </trkpt>
      <trkpt lat="45.90905" lon="-0.95954">
        <ele>-0.36</ele>
        <time>2022-09-20T13:50:16.000Z</time>
      </trkpt>
      <trkpt lat="45.90921" lon="-0.95957">
        <ele>-1.69</ele>
        <time>2022-09-20T13:50:21.000Z</time>
      </trkpt>
      <trkpt lat="45.90937" lon="-0.95956">
        <ele>-1.94</ele>
        <time>2022-09-20T13:50:26.000Z</time>
      </trkpt>
      <trkpt lat="45.90952" lon="-0.95956">
        <ele>-1.26</ele>
        <time>2022-09-20T13:50:31.000Z</time>
      </trkpt>
      <trkpt lat="45.90968" lon="-0.95957">
        <ele>-2.86</ele>
        <time>2022-09-20T13:50:36.000Z</time>
      </trkpt>
      <trkpt lat="45.90984" lon="-0.95956">
        <ele>-4.18</ele>
        <time>2022-09-20T13:50:41.000Z</time>
      </trkpt>
      <trkpt lat="45.91001" lon="-0.95958">
        <ele>-6.33</ele>
        <time>2022-09-20T13:50:46.000Z</time>
      </trkpt>
      <trkpt lat="45.91019" lon="-0.95966">
        <ele>-6.38</ele>
        <time>2022-09-20T13:50:51.000Z</time>
      </trkpt>
      <trkpt lat="45.91035" lon="-0.9597">
        <ele>-7.29</ele>
        <time>2022-09-20T13:50:56.000Z</time>
      </trkpt>
      <trkpt lat="45.91053" lon="-0.95961">
        <ele>-3.91</ele>
        <time>2022-09-20T13:51:01.000Z</time>
      </trkpt>
      <trkpt lat="45.9107" lon="-0.95951">
        <ele>-3.04</ele>
        <time>2022-09-20T13:51:06.000Z</time>
      </trkpt>
      <trkpt lat="45.91088" lon="-0.95952">
        <ele>-2.26</ele>
        <time>2022-09-20T13:51:11.000Z</time>
      </trkpt>
      <trkpt lat="45.91107" lon="-0.95952">
        <ele>-2.19</ele>
        <time>2022-09-20T13:51:16.000Z</time>
      </trkpt>
      <trkpt lat="45.91125" lon="-0.95952">
        <ele>-0.67</ele>
        <time>2022-09-20T13:51:21.000Z</time>
      </trkpt>
      <trkpt lat="45.91145" lon="-0.95952">
        <ele>-2.13</ele>
        <time>2022-09-20T13:51:26.000Z</time>
      </trkpt>
      <trkpt lat="45.91163" lon="-0.9595">
        <ele>-1.73</ele>
        <time>2022-09-20T13:51:31.000Z</time>
      </trkpt>
      <trkpt lat="45.91177" lon="-0.9595">
        <ele>-1.16</ele>
        <time>2022-09-20T13:51:36.000Z</time>
      </trkpt>
      <trkpt lat="45.91191" lon="-0.9595">
        <ele>-4.64</ele>
        <time>2022-09-20T13:51:41.000Z</time>
      </trkpt>
      <trkpt lat="45.91205" lon="-0.95952">
        <ele>-4.33</ele>
        <time>2022-09-20T13:51:46.000Z</time>
      </trkpt>
      <trkpt lat="45.91222" lon="-0.9595">
        <ele>-3.44</ele>
        <time>2022-09-20T13:51:51.000Z</time>
      </trkpt>
      <trkpt lat="45.91242" lon="-0.95948">
        <ele>-2.21</ele>
        <time>2022-09-20T13:51:56.000Z</time>
      </trkpt>
      <trkpt lat="45.91265" lon="-0.95947">
        <ele>0.23</ele>
        <time>2022-09-20T13:52:01.000Z</time>
      </trkpt>
      <trkpt lat="45.91286" lon="-0.95946">
        <ele>2.3</ele>
        <time>2022-09-20T13:52:06.000Z</time>
      </trkpt>
      <trkpt lat="45.91309" lon="-0.95943">
        <ele>2.14</ele>
        <time>2022-09-20T13:52:11.000Z</time>
      </trkpt>
      <trkpt lat="45.91331" lon="-0.9594">
        <ele>2.06</ele>
        <time>2022-09-20T13:52:16.000Z</time>
      </trkpt>
      <trkpt lat="45.91348" lon="-0.95941">
        <ele>-0.84</ele>
        <time>2022-09-20T13:52:21.000Z</time>
      </trkpt>
      <trkpt lat="45.91365" lon="-0.95948">
        <ele>-2.28</ele>
        <time>2022-09-20T13:52:26.000Z</time>
      </trkpt>
      <trkpt lat="45.9138" lon="-0.95958">
        <ele>-2.75</ele>
        <time>2022-09-20T13:52:31.000Z</time>
      </trkpt>
      <trkpt lat="45.91398" lon="-0.9597">
        <ele>-3.32</ele>
        <time>2022-09-20T13:52:36.000Z</time>
      </trkpt>
      <trkpt lat="45.91417" lon="-0.95982">
        <ele>-3.95</ele>
        <time>2022-09-20T13:52:41.000Z</time>
      </trkpt>
      <trkpt lat="45.91437" lon="-0.95998">
        <ele>-5.04</ele>
        <time>2022-09-20T13:52:46.000Z</time>
      </trkpt>
      <trkpt lat="45.91457" lon="-0.96012">
        <ele>-6.38</ele>
        <time>2022-09-20T13:52:51.000Z</time>
      </trkpt>
      <trkpt lat="45.91478" lon="-0.96026">
        <ele>-7.98</ele>
        <time>2022-09-20T13:52:56.000Z</time>
      </trkpt>
      <trkpt lat="45.91502" lon="-0.9604">
        <ele>-7.42</ele>
        <time>2022-09-20T13:53:01.000Z</time>
      </trkpt>
      <trkpt lat="45.91523" lon="-0.96055">
        <ele>-8.53</ele>
        <time>2022-09-20T13:53:06.000Z</time>
      </trkpt>
      <trkpt lat="45.91533" lon="-0.96063">
        <ele>-8.76</ele>
        <time>2022-09-20T13:53:11.000Z</time>
      </trkpt>
      <trkpt lat="45.91534" lon="-0.9605">
        <ele>-0.37</ele>
        <time>2022-09-20T13:56:03.000Z</time>
      </trkpt>
      <trkpt lat="45.91533" lon="-0.96034">
        <ele>-0.77</ele>
        <time>2022-09-20T13:56:17.000Z</time>
      </trkpt>
      <trkpt lat="45.9153" lon="-0.96022">
        <ele>-1.07</ele>
        <time>2022-09-20T13:56:22.000Z</time>
      </trkpt>
      <trkpt lat="45.91527" lon="-0.95996">
        <ele>-1.57</ele>
        <time>2022-09-20T13:56:27.000Z</time>
      </trkpt>
      <trkpt lat="45.91524" lon="-0.95966">
        <ele>-2.16</ele>
        <time>2022-09-20T13:56:32.000Z</time>
      </trkpt>
      <trkpt lat="45.91509" lon="-0.95945">
        <ele>-2.74</ele>
        <time>2022-09-20T13:56:37.000Z</time>
      </trkpt>
      <trkpt lat="45.91505" lon="-0.95925">
        <ele>-3.54</ele>
        <time>2022-09-20T13:56:42.000Z</time>
      </trkpt>
      <trkpt lat="45.91512" lon="-0.95918">
        <ele>-5.14</ele>
        <time>2022-09-20T13:56:57.000Z</time>
      </trkpt>
      <trkpt lat="45.91508" lon="-0.95932">
        <ele>-3.08</ele>
        <time>2022-09-20T13:59:56.000Z</time>
      </trkpt>
      <trkpt lat="45.9152" lon="-0.95949">
        <ele>-3.57</ele>
        <time>2022-09-20T14:00:01.000Z</time>
      </trkpt>
      <trkpt lat="45.91527" lon="-0.95967">
        <ele>-4.45</ele>
        <time>2022-09-20T14:00:06.000Z</time>
      </trkpt>
      <trkpt lat="45.9153" lon="-0.9599">
        <ele>-5.34</ele>
        <time>2022-09-20T14:00:11.000Z</time>
      </trkpt>
      <trkpt lat="45.91532" lon="-0.96011">
        <ele>-6.5</ele>
        <time>2022-09-20T14:00:16.000Z</time>
      </trkpt>
      <trkpt lat="45.91533" lon="-0.96033">
        <ele>-7.24</ele>
        <time>2022-09-20T14:00:21.000Z</time>
      </trkpt>
      <trkpt lat="45.91532" lon="-0.96047">
        <ele>-6.88</ele>
        <time>2022-09-20T14:00:28.000Z</time>
      </trkpt>
      <trkpt lat="45.91534" lon="-0.96071">
        <ele>-0.7</ele>
        <time>2022-09-20T14:07:46.000Z</time>
      </trkpt>
      <trkpt lat="45.91543" lon="-0.96074">
        <ele>-1</ele>
        <time>2022-09-20T14:08:04.000Z</time>
      </trkpt>
      <trkpt lat="45.91541" lon="-0.96061">
        <ele>-1.1</ele>
        <time>2022-09-20T14:08:28.000Z</time>
      </trkpt>
      <trkpt lat="45.9155" lon="-0.96066">
        <ele>-1.4</ele>
        <time>2022-09-20T14:08:50.000Z</time>
      </trkpt>
      <trkpt lat="45.91559" lon="-0.96071">
        <ele>-4.89</ele>
        <time>2022-09-20T14:10:57.000Z</time>
      </trkpt>
      <trkpt lat="45.91568" lon="-0.96069">
        <ele>-3.38</ele>
        <time>2022-09-20T14:11:17.000Z</time>
      </trkpt>
      <trkpt lat="45.91577" lon="-0.96068">
        <ele>-3.06</ele>
        <time>2022-09-20T14:11:36.000Z</time>
      </trkpt>
      <trkpt lat="45.91586" lon="-0.96072">
        <ele>-3.33</ele>
        <time>2022-09-20T14:11:53.000Z</time>
      </trkpt>
      <trkpt lat="45.91595" lon="-0.96072">
        <ele>-0.46</ele>
        <time>2022-09-20T14:12:06.000Z</time>
      </trkpt>
      <trkpt lat="45.91604" lon="-0.96072">
        <ele>-1.23</ele>
        <time>2022-09-20T14:12:27.000Z</time>
      </trkpt>
      <trkpt lat="45.91613" lon="-0.96073">
        <ele>-3.17</ele>
        <time>2022-09-20T14:12:50.000Z</time>
      </trkpt>
      <trkpt lat="45.91623" lon="-0.96074">
        <ele>-3.64</ele>
        <time>2022-09-20T14:13:10.000Z</time>
      </trkpt>
      <trkpt lat="45.91632" lon="-0.96073">
        <ele>-2.53</ele>
        <time>2022-09-20T14:13:28.000Z</time>
      </trkpt>
      <trkpt lat="45.91641" lon="-0.96074">
        <ele>-3.67</ele>
        <time>2022-09-20T14:13:46.000Z</time>
      </trkpt>
      <trkpt lat="45.9165" lon="-0.96075">
        <ele>-2.12</ele>
        <time>2022-09-20T14:14:03.000Z</time>
      </trkpt>
      <trkpt lat="45.91659" lon="-0.96077">
        <ele>-2.3</ele>
        <time>2022-09-20T14:14:24.000Z</time>
      </trkpt>
      <trkpt lat="45.91668" lon="-0.96076">
        <ele>-1.91</ele>
        <time>2022-09-20T14:14:43.000Z</time>
      </trkpt>
      <trkpt lat="45.91677" lon="-0.96081">
        <ele>-0.98</ele>
        <time>2022-09-20T14:15:38.000Z</time>
      </trkpt>
      <trkpt lat="45.91686" lon="-0.9608">
        <ele>-1.19</ele>
        <time>2022-09-20T14:16:05.000Z</time>
      </trkpt>
      <trkpt lat="45.91696" lon="-0.96073">
        <ele>-1.17</ele>
        <time>2022-09-20T14:16:11.000Z</time>
      </trkpt>
      <trkpt lat="45.91704" lon="-0.9607">
        <ele>-2.17</ele>
        <time>2022-09-20T14:16:24.000Z</time>
      </trkpt>
      <trkpt lat="45.91709" lon="-0.96081">
        <ele>-2.22</ele>
        <time>2022-09-20T14:18:21.000Z</time>
      </trkpt>
      <trkpt lat="45.91705" lon="-0.96093">
        <ele>-3.26</ele>
        <time>2022-09-20T14:18:34.000Z</time>
      </trkpt>
      <trkpt lat="45.917" lon="-0.96105">
        <ele>-3.7</ele>
        <time>2022-09-20T14:18:41.000Z</time>
      </trkpt>
      <trkpt lat="45.91703" lon="-0.96119">
        <ele>-5.2</ele>
        <time>2022-09-20T14:19:08.000Z</time>
      </trkpt>
      <trkpt lat="45.9171" lon="-0.96136">
        <ele>-5.18</ele>
        <time>2022-09-20T14:19:13.000Z</time>
      </trkpt>
      <trkpt lat="45.91713" lon="-0.96153">
        <ele>-5.42</ele>
        <time>2022-09-20T14:19:18.000Z</time>
      </trkpt>
      <trkpt lat="45.91723" lon="-0.96158">
        <ele>-7.24</ele>
        <time>2022-09-20T14:19:26.000Z</time>
      </trkpt>
      <trkpt lat="45.91737" lon="-0.96159">
        <ele>-8.23</ele>
        <time>2022-09-20T14:19:31.000Z</time>
      </trkpt>
      <trkpt lat="45.91757" lon="-0.96157">
        <ele>-9.23</ele>
        <time>2022-09-20T14:19:36.000Z</time>
      </trkpt>
      <trkpt lat="45.91777" lon="-0.96157">
        <ele>-10</ele>
        <time>2022-09-20T14:19:41.000Z</time>
      </trkpt>
      <trkpt lat="45.91786" lon="-0.96173">
        <ele>-9.91</ele>
        <time>2022-09-20T14:19:46.000Z</time>
      </trkpt>
      <trkpt lat="45.91783" lon="-0.96197">
        <ele>-9.16</ele>
        <time>2022-09-20T14:19:51.000Z</time>
      </trkpt>
      <trkpt lat="45.9178" lon="-0.96227">
        <ele>-8.46</ele>
        <time>2022-09-20T14:19:56.000Z</time>
      </trkpt>
      <trkpt lat="45.91776" lon="-0.96259">
        <ele>-8.59</ele>
        <time>2022-09-20T14:20:01.000Z</time>
      </trkpt>
      <trkpt lat="45.91774" lon="-0.96292">
        <ele>-7.97</ele>
        <time>2022-09-20T14:20:06.000Z</time>
      </trkpt>
      <trkpt lat="45.91772" lon="-0.96324">
        <ele>-10.48</ele>
        <time>2022-09-20T14:20:11.000Z</time>
      </trkpt>
      <trkpt lat="45.91771" lon="-0.96357">
        <ele>-9.97</ele>
        <time>2022-09-20T14:20:16.000Z</time>
      </trkpt>
      <trkpt lat="45.91772" lon="-0.96387">
        <ele>-10.3</ele>
        <time>2022-09-20T14:20:21.000Z</time>
      </trkpt>
      <trkpt lat="45.91785" lon="-0.96404">
        <ele>-10.8</ele>
        <time>2022-09-20T14:20:26.000Z</time>
      </trkpt>
      <trkpt lat="45.91804" lon="-0.96407">
        <ele>-10.87</ele>
        <time>2022-09-20T14:20:31.000Z</time>
      </trkpt>
      <trkpt lat="45.91823" lon="-0.96416">
        <ele>-10.95</ele>
        <time>2022-09-20T14:20:36.000Z</time>
      </trkpt>
      <trkpt lat="45.91842" lon="-0.96424">
        <ele>-11.59</ele>
        <time>2022-09-20T14:20:41.000Z</time>
      </trkpt>
      <trkpt lat="45.91863" lon="-0.96432">
        <ele>-11.4</ele>
        <time>2022-09-20T14:20:46.000Z</time>
      </trkpt>
      <trkpt lat="45.91886" lon="-0.96444">
        <ele>-10.15</ele>
        <time>2022-09-20T14:20:51.000Z</time>
      </trkpt>
      <trkpt lat="45.91908" lon="-0.96459">
        <ele>-8.53</ele>
        <time>2022-09-20T14:20:56.000Z</time>
      </trkpt>
      <trkpt lat="45.91925" lon="-0.96475">
        <ele>-8.07</ele>
        <time>2022-09-20T14:21:01.000Z</time>
      </trkpt>
      <trkpt lat="45.91924" lon="-0.96488">
        <ele>-7.53</ele>
        <time>2022-09-20T14:21:14.000Z</time>
      </trkpt>
      <trkpt lat="45.9193" lon="-0.965">
        <ele>-6.51</ele>
        <time>2022-09-20T14:21:44.000Z</time>
      </trkpt>
      <trkpt lat="45.91938" lon="-0.96524">
        <ele>-6.58</ele>
        <time>2022-09-20T14:21:49.000Z</time>
      </trkpt>
      <trkpt lat="45.91937" lon="-0.96553">
        <ele>-6.62</ele>
        <time>2022-09-20T14:21:54.000Z</time>
      </trkpt>
      <trkpt lat="45.91934" lon="-0.96582">
        <ele>-6.31</ele>
        <time>2022-09-20T14:21:59.000Z</time>
      </trkpt>
      <trkpt lat="45.91932" lon="-0.96614">
        <ele>-6.71</ele>
        <time>2022-09-20T14:22:04.000Z</time>
      </trkpt>
      <trkpt lat="45.9193" lon="-0.96648">
        <ele>-6.31</ele>
        <time>2022-09-20T14:22:09.000Z</time>
      </trkpt>
      <trkpt lat="45.91926" lon="-0.96681">
        <ele>-6.52</ele>
        <time>2022-09-20T14:22:14.000Z</time>
      </trkpt>
      <trkpt lat="45.91923" lon="-0.96718">
        <ele>-6.65</ele>
        <time>2022-09-20T14:22:19.000Z</time>
      </trkpt>
      <trkpt lat="45.9192" lon="-0.96753">
        <ele>-6.57</ele>
        <time>2022-09-20T14:22:24.000Z</time>
      </trkpt>
      <trkpt lat="45.91915" lon="-0.96786">
        <ele>-6.51</ele>
        <time>2022-09-20T14:22:29.000Z</time>
      </trkpt>
      <trkpt lat="45.91927" lon="-0.96816">
        <ele>-6.31</ele>
        <time>2022-09-20T14:22:34.000Z</time>
      </trkpt>
      <trkpt lat="45.91943" lon="-0.9685">
        <ele>-5.68</ele>
        <time>2022-09-20T14:22:39.000Z</time>
      </trkpt>
      <trkpt lat="45.91953" lon="-0.96883">
        <ele>-4.96</ele>
        <time>2022-09-20T14:22:44.000Z</time>
      </trkpt>
      <trkpt lat="45.9196" lon="-0.96916">
        <ele>-5.12</ele>
        <time>2022-09-20T14:22:49.000Z</time>
      </trkpt>
      <trkpt lat="45.91967" lon="-0.96949">
        <ele>-5.16</ele>
        <time>2022-09-20T14:22:54.000Z</time>
      </trkpt>
      <trkpt lat="45.91973" lon="-0.96982">
        <ele>-5.81</ele>
        <time>2022-09-20T14:22:59.000Z</time>
      </trkpt>
      <trkpt lat="45.91978" lon="-0.97014">
        <ele>-5.79</ele>
        <time>2022-09-20T14:23:04.000Z</time>
      </trkpt>
      <trkpt lat="45.91989" lon="-0.97044">
        <ele>-6.06</ele>
        <time>2022-09-20T14:23:09.000Z</time>
      </trkpt>
      <trkpt lat="45.92002" lon="-0.97075">
        <ele>-6.86</ele>
        <time>2022-09-20T14:23:14.000Z</time>
      </trkpt>
      <trkpt lat="45.92018" lon="-0.97103">
        <ele>-6.73</ele>
        <time>2022-09-20T14:23:19.000Z</time>
      </trkpt>
      <trkpt lat="45.92035" lon="-0.97129">
        <ele>-6.58</ele>
        <time>2022-09-20T14:23:24.000Z</time>
      </trkpt>
      <trkpt lat="45.92054" lon="-0.97151">
        <ele>-7.19</ele>
        <time>2022-09-20T14:23:29.000Z</time>
      </trkpt>
      <trkpt lat="45.92076" lon="-0.97169">
        <ele>-7.67</ele>
        <time>2022-09-20T14:23:34.000Z</time>
      </trkpt>
      <trkpt lat="45.92098" lon="-0.97183">
        <ele>-7.11</ele>
        <time>2022-09-20T14:23:39.000Z</time>
      </trkpt>
      <trkpt lat="45.92122" lon="-0.97188">
        <ele>-7.52</ele>
        <time>2022-09-20T14:23:44.000Z</time>
      </trkpt>
      <trkpt lat="45.92144" lon="-0.97193">
        <ele>-7.85</ele>
        <time>2022-09-20T14:23:49.000Z</time>
      </trkpt>
      <trkpt lat="45.92166" lon="-0.97202">
        <ele>-8.04</ele>
        <time>2022-09-20T14:23:54.000Z</time>
      </trkpt>
      <trkpt lat="45.92186" lon="-0.97214">
        <ele>-6.9</ele>
        <time>2022-09-20T14:23:59.000Z</time>
      </trkpt>
      <trkpt lat="45.92206" lon="-0.97232">
        <ele>-6.18</ele>
        <time>2022-09-20T14:24:04.000Z</time>
      </trkpt>
      <trkpt lat="45.92224" lon="-0.97254">
        <ele>-5.75</ele>
        <time>2022-09-20T14:24:09.000Z</time>
      </trkpt>
      <trkpt lat="45.92239" lon="-0.97278">
        <ele>-5.55</ele>
        <time>2022-09-20T14:24:14.000Z</time>
      </trkpt>
      <trkpt lat="45.92256" lon="-0.97302">
        <ele>-4.97</ele>
        <time>2022-09-20T14:24:19.000Z</time>
      </trkpt>
      <trkpt lat="45.92272" lon="-0.9732">
        <ele>-4.53</ele>
        <time>2022-09-20T14:24:24.000Z</time>
      </trkpt>
      <trkpt lat="45.92288" lon="-0.97335">
        <ele>-4.12</ele>
        <time>2022-09-20T14:24:29.000Z</time>
      </trkpt>
      <trkpt lat="45.92304" lon="-0.97348">
        <ele>-4.48</ele>
        <time>2022-09-20T14:24:34.000Z</time>
      </trkpt>
      <trkpt lat="45.92318" lon="-0.97364">
        <ele>-4.29</ele>
        <time>2022-09-20T14:24:39.000Z</time>
      </trkpt>
      <trkpt lat="45.92335" lon="-0.97382">
        <ele>-4.9</ele>
        <time>2022-09-20T14:24:44.000Z</time>
      </trkpt>
      <trkpt lat="45.92352" lon="-0.97401">
        <ele>-5.15</ele>
        <time>2022-09-20T14:24:49.000Z</time>
      </trkpt>
      <trkpt lat="45.92369" lon="-0.97415">
        <ele>-5.42</ele>
        <time>2022-09-20T14:24:54.000Z</time>
      </trkpt>
      <trkpt lat="45.92386" lon="-0.97433">
        <ele>-5.07</ele>
        <time>2022-09-20T14:24:59.000Z</time>
      </trkpt>
      <trkpt lat="45.92402" lon="-0.97451">
        <ele>-5.31</ele>
        <time>2022-09-20T14:25:04.000Z</time>
      </trkpt>
      <trkpt lat="45.92417" lon="-0.97474">
        <ele>-4.87</ele>
        <time>2022-09-20T14:25:09.000Z</time>
      </trkpt>
      <trkpt lat="45.92423" lon="-0.97498">
        <ele>-4.98</ele>
        <time>2022-09-20T14:25:14.000Z</time>
      </trkpt>
      <trkpt lat="45.92424" lon="-0.97517">
        <ele>-4.71</ele>
        <time>2022-09-20T14:25:19.000Z</time>
      </trkpt>
      <trkpt lat="45.92424" lon="-0.97531">
        <ele>-6.41</ele>
        <time>2022-09-20T14:25:24.000Z</time>
      </trkpt>
      <trkpt lat="45.92433" lon="-0.9754">
        <ele>-8.4</ele>
        <time>2022-09-20T14:25:57.000Z</time>
      </trkpt>
      <trkpt lat="45.92452" lon="-0.9755">
        <ele>-7.86</ele>
        <time>2022-09-20T14:26:02.000Z</time>
      </trkpt>
      <trkpt lat="45.92473" lon="-0.97558">
        <ele>-7.52</ele>
        <time>2022-09-20T14:26:07.000Z</time>
      </trkpt>
      <trkpt lat="45.92492" lon="-0.97568">
        <ele>-6.7</ele>
        <time>2022-09-20T14:26:12.000Z</time>
      </trkpt>
      <trkpt lat="45.92508" lon="-0.97579">
        <ele>-6.78</ele>
        <time>2022-09-20T14:26:17.000Z</time>
      </trkpt>
      <trkpt lat="45.92523" lon="-0.97593">
        <ele>-7</ele>
        <time>2022-09-20T14:26:22.000Z</time>
      </trkpt>
      <trkpt lat="45.92537" lon="-0.97605">
        <ele>-7.42</ele>
        <time>2022-09-20T14:26:27.000Z</time>
      </trkpt>
      <trkpt lat="45.92553" lon="-0.97622">
        <ele>-6.32</ele>
        <time>2022-09-20T14:26:32.000Z</time>
      </trkpt>
      <trkpt lat="45.9257" lon="-0.97639">
        <ele>-5.54</ele>
        <time>2022-09-20T14:26:37.000Z</time>
      </trkpt>
      <trkpt lat="45.92587" lon="-0.97656">
        <ele>-5.8</ele>
        <time>2022-09-20T14:26:42.000Z</time>
      </trkpt>
      <trkpt lat="45.92604" lon="-0.97673">
        <ele>-5.97</ele>
        <time>2022-09-20T14:26:47.000Z</time>
      </trkpt>
      <trkpt lat="45.92621" lon="-0.97691">
        <ele>-5.88</ele>
        <time>2022-09-20T14:26:52.000Z</time>
      </trkpt>
      <trkpt lat="45.92637" lon="-0.97708">
        <ele>-6.6</ele>
        <time>2022-09-20T14:26:57.000Z</time>
      </trkpt>
      <trkpt lat="45.92656" lon="-0.97726">
        <ele>-6.56</ele>
        <time>2022-09-20T14:27:02.000Z</time>
      </trkpt>
      <trkpt lat="45.92673" lon="-0.97744">
        <ele>-6.68</ele>
        <time>2022-09-20T14:27:07.000Z</time>
      </trkpt>
      <trkpt lat="45.9269" lon="-0.97762">
        <ele>-6.83</ele>
        <time>2022-09-20T14:27:12.000Z</time>
      </trkpt>
      <trkpt lat="45.92708" lon="-0.97781">
        <ele>-7.52</ele>
        <time>2022-09-20T14:27:17.000Z</time>
      </trkpt>
      <trkpt lat="45.92726" lon="-0.97799">
        <ele>-7.92</ele>
        <time>2022-09-20T14:27:22.000Z</time>
      </trkpt>
      <trkpt lat="45.92743" lon="-0.97816">
        <ele>-7.06</ele>
        <time>2022-09-20T14:27:27.000Z</time>
      </trkpt>
      <trkpt lat="45.92762" lon="-0.97833">
        <ele>-6.78</ele>
        <time>2022-09-20T14:27:32.000Z</time>
      </trkpt>
      <trkpt lat="45.9278" lon="-0.97851">
        <ele>-7.29</ele>
        <time>2022-09-20T14:27:37.000Z</time>
      </trkpt>
      <trkpt lat="45.92799" lon="-0.97871">
        <ele>-6.75</ele>
        <time>2022-09-20T14:27:42.000Z</time>
      </trkpt>
      <trkpt lat="45.92818" lon="-0.97891">
        <ele>-5.13</ele>
        <time>2022-09-20T14:27:47.000Z</time>
      </trkpt>
      <trkpt lat="45.92837" lon="-0.97911">
        <ele>-5.04</ele>
        <time>2022-09-20T14:27:52.000Z</time>
      </trkpt>
      <trkpt lat="45.92856" lon="-0.9793">
        <ele>-5.17</ele>
        <time>2022-09-20T14:27:57.000Z</time>
      </trkpt>
      <trkpt lat="45.92875" lon="-0.97948">
        <ele>-5.38</ele>
        <time>2022-09-20T14:28:02.000Z</time>
      </trkpt>
      <trkpt lat="45.92894" lon="-0.97967">
        <ele>-5.69</ele>
        <time>2022-09-20T14:28:07.000Z</time>
      </trkpt>
      <trkpt lat="45.92909" lon="-0.97985">
        <ele>-6</ele>
        <time>2022-09-20T14:28:12.000Z</time>
      </trkpt>
      <trkpt lat="45.9292" lon="-0.97992">
        <ele>-6.37</ele>
        <time>2022-09-20T14:28:17.000Z</time>
      </trkpt>
      <trkpt lat="45.92928" lon="-0.97985">
        <ele>-6.27</ele>
        <time>2022-09-20T14:29:07.000Z</time>
      </trkpt>
      <trkpt lat="45.92937" lon="-0.97982">
        <ele>-6.33</ele>
        <time>2022-09-20T14:29:18.000Z</time>
      </trkpt>
      <trkpt lat="45.92947" lon="-0.97979">
        <ele>-4.8</ele>
        <time>2022-09-20T14:30:06.000Z</time>
      </trkpt>
      <trkpt lat="45.92955" lon="-0.97987">
        <ele>-4.63</ele>
        <time>2022-09-20T14:30:17.000Z</time>
      </trkpt>
      <trkpt lat="45.92972" lon="-0.98003">
        <ele>-4.24</ele>
        <time>2022-09-20T14:30:22.000Z</time>
      </trkpt>
      <trkpt lat="45.9299" lon="-0.98022">
        <ele>-3.76</ele>
        <time>2022-09-20T14:30:27.000Z</time>
      </trkpt>
      <trkpt lat="45.9301" lon="-0.98042">
        <ele>-4.26</ele>
        <time>2022-09-20T14:30:32.000Z</time>
      </trkpt>
      <trkpt lat="45.93031" lon="-0.98063">
        <ele>-3.9</ele>
        <time>2022-09-20T14:30:37.000Z</time>
      </trkpt>
      <trkpt lat="45.93053" lon="-0.98084">
        <ele>-3.9</ele>
        <time>2022-09-20T14:30:42.000Z</time>
      </trkpt>
      <trkpt lat="45.93076" lon="-0.98106">
        <ele>-3.26</ele>
        <time>2022-09-20T14:30:47.000Z</time>
      </trkpt>
      <trkpt lat="45.93098" lon="-0.9813">
        <ele>-2.87</ele>
        <time>2022-09-20T14:30:52.000Z</time>
      </trkpt>
      <trkpt lat="45.9312" lon="-0.98152">
        <ele>-3.28</ele>
        <time>2022-09-20T14:30:57.000Z</time>
      </trkpt>
      <trkpt lat="45.93144" lon="-0.98175">
        <ele>-3.63</ele>
        <time>2022-09-20T14:31:02.000Z</time>
      </trkpt>
      <trkpt lat="45.93166" lon="-0.98198">
        <ele>-4.05</ele>
        <time>2022-09-20T14:31:07.000Z</time>
      </trkpt>
      <trkpt lat="45.93188" lon="-0.98219">
        <ele>-4</ele>
        <time>2022-09-20T14:31:12.000Z</time>
      </trkpt>
      <trkpt lat="45.9321" lon="-0.98244">
        <ele>-3.92</ele>
        <time>2022-09-20T14:31:17.000Z</time>
      </trkpt>
      <trkpt lat="45.93235" lon="-0.98269">
        <ele>-3.55</ele>
        <time>2022-09-20T14:31:22.000Z</time>
      </trkpt>
      <trkpt lat="45.93259" lon="-0.98294">
        <ele>-2.89</ele>
        <time>2022-09-20T14:31:27.000Z</time>
      </trkpt>
      <trkpt lat="45.9328" lon="-0.98317">
        <ele>-2.33</ele>
        <time>2022-09-20T14:31:32.000Z</time>
      </trkpt>
      <trkpt lat="45.93303" lon="-0.98339">
        <ele>-2.32</ele>
        <time>2022-09-20T14:31:37.000Z</time>
      </trkpt>
      <trkpt lat="45.93326" lon="-0.98357">
        <ele>-2.54</ele>
        <time>2022-09-20T14:31:42.000Z</time>
      </trkpt>
      <trkpt lat="45.93349" lon="-0.98377">
        <ele>-1.4</ele>
        <time>2022-09-20T14:31:47.000Z</time>
      </trkpt>
      <trkpt lat="45.93372" lon="-0.98395">
        <ele>-1.67</ele>
        <time>2022-09-20T14:31:52.000Z</time>
      </trkpt>
      <trkpt lat="45.93397" lon="-0.98413">
        <ele>-2.67</ele>
        <time>2022-09-20T14:31:57.000Z</time>
      </trkpt>
      <trkpt lat="45.93422" lon="-0.98427">
        <ele>-3.46</ele>
        <time>2022-09-20T14:32:02.000Z</time>
      </trkpt>
      <trkpt lat="45.93446" lon="-0.98438">
        <ele>-3.62</ele>
        <time>2022-09-20T14:32:07.000Z</time>
      </trkpt>
      <trkpt lat="45.93469" lon="-0.98448">
        <ele>-3.43</ele>
        <time>2022-09-20T14:32:12.000Z</time>
      </trkpt>
      <trkpt lat="45.93494" lon="-0.98453">
        <ele>-3.46</ele>
        <time>2022-09-20T14:32:17.000Z</time>
      </trkpt>
      <trkpt lat="45.9352" lon="-0.9846">
        <ele>-3.6</ele>
        <time>2022-09-20T14:32:22.000Z</time>
      </trkpt>
      <trkpt lat="45.93545" lon="-0.98463">
        <ele>-2.84</ele>
        <time>2022-09-20T14:32:27.000Z</time>
      </trkpt>
      <trkpt lat="45.93568" lon="-0.98461">
        <ele>-3.53</ele>
        <time>2022-09-20T14:32:32.000Z</time>
      </trkpt>
      <trkpt lat="45.93586" lon="-0.98456">
        <ele>-3.29</ele>
        <time>2022-09-20T14:32:37.000Z</time>
      </trkpt>
      <trkpt lat="45.93601" lon="-0.9845">
        <ele>-3.94</ele>
        <time>2022-09-20T14:32:42.000Z</time>
      </trkpt>
      <trkpt lat="45.9361" lon="-0.98456">
        <ele>-3.61</ele>
        <time>2022-09-20T14:32:47.000Z</time>
      </trkpt>
      <trkpt lat="45.93614" lon="-0.98469">
        <ele>-3.52</ele>
        <time>2022-09-20T14:32:52.000Z</time>
      </trkpt>
      <trkpt lat="45.93627" lon="-0.98472">
        <ele>-2.67</ele>
        <time>2022-09-20T14:32:57.000Z</time>
      </trkpt>
      <trkpt lat="45.93643" lon="-0.9847">
        <ele>-1.75</ele>
        <time>2022-09-20T14:33:02.000Z</time>
      </trkpt>
      <trkpt lat="45.93661" lon="-0.98474">
        <ele>-2.52</ele>
        <time>2022-09-20T14:33:07.000Z</time>
      </trkpt>
      <trkpt lat="45.93672" lon="-0.98488">
        <ele>-2.83</ele>
        <time>2022-09-20T14:33:12.000Z</time>
      </trkpt>
      <trkpt lat="45.93686" lon="-0.9849">
        <ele>-2.16</ele>
        <time>2022-09-20T14:33:17.000Z</time>
      </trkpt>
      <trkpt lat="45.93701" lon="-0.98485">
        <ele>-1.54</ele>
        <time>2022-09-20T14:33:22.000Z</time>
      </trkpt>
      <trkpt lat="45.93712" lon="-0.98475">
        <ele>-1.92</ele>
        <time>2022-09-20T14:34:12.000Z</time>
      </trkpt>
      <trkpt lat="45.93721" lon="-0.98464">
        <ele>-1.9</ele>
        <time>2022-09-20T14:34:17.000Z</time>
      </trkpt>
      <trkpt lat="45.93737" lon="-0.98464">
        <ele>-0.71</ele>
        <time>2022-09-20T14:34:22.000Z</time>
      </trkpt>
      <trkpt lat="45.93745" lon="-0.9846">
        <ele>-1.14</ele>
        <time>2022-09-20T14:34:27.000Z</time>
      </trkpt>
      <trkpt lat="45.93749" lon="-0.98444">
        <ele>-1.64</ele>
        <time>2022-09-20T14:34:32.000Z</time>
      </trkpt>
      <trkpt lat="45.93763" lon="-0.98435">
        <ele>-3.2</ele>
        <time>2022-09-20T14:34:37.000Z</time>
      </trkpt>
      <trkpt lat="45.93774" lon="-0.98426">
        <ele>-4.15</ele>
        <time>2022-09-20T14:34:42.000Z</time>
      </trkpt>
      <trkpt lat="45.93783" lon="-0.98416">
        <ele>-4.64</ele>
        <time>2022-09-20T14:34:47.000Z</time>
      </trkpt>
      <trkpt lat="45.93796" lon="-0.98424">
        <ele>-4.8</ele>
        <time>2022-09-20T14:34:52.000Z</time>
      </trkpt>
      <trkpt lat="45.93805" lon="-0.98421">
        <ele>-4.73</ele>
        <time>2022-09-20T14:35:06.000Z</time>
      </trkpt>
      <trkpt lat="45.93816" lon="-0.98414">
        <ele>-4.53</ele>
        <time>2022-09-20T14:35:11.000Z</time>
      </trkpt>
      <trkpt lat="45.93834" lon="-0.98406">
        <ele>-4.13</ele>
        <time>2022-09-20T14:35:16.000Z</time>
      </trkpt>
      <trkpt lat="45.93851" lon="-0.98396">
        <ele>-4.59</ele>
        <time>2022-09-20T14:35:21.000Z</time>
      </trkpt>
      <trkpt lat="45.9387" lon="-0.98382">
        <ele>-5.22</ele>
        <time>2022-09-20T14:35:26.000Z</time>
      </trkpt>
      <trkpt lat="45.9389" lon="-0.98369">
        <ele>-4.74</ele>
        <time>2022-09-20T14:35:31.000Z</time>
      </trkpt>
      <trkpt lat="45.93906" lon="-0.98359">
        <ele>-4.65</ele>
        <time>2022-09-20T14:35:36.000Z</time>
      </trkpt>
      <trkpt lat="45.93925" lon="-0.98349">
        <ele>-5.49</ele>
        <time>2022-09-20T14:35:41.000Z</time>
      </trkpt>
      <trkpt lat="45.93945" lon="-0.98339">
        <ele>-5.88</ele>
        <time>2022-09-20T14:35:46.000Z</time>
      </trkpt>
      <trkpt lat="45.93962" lon="-0.9833">
        <ele>-5.95</ele>
        <time>2022-09-20T14:35:51.000Z</time>
      </trkpt>
      <trkpt lat="45.93974" lon="-0.98323">
        <ele>-6.27</ele>
        <time>2022-09-20T14:35:56.000Z</time>
      </trkpt>
      <trkpt lat="45.93983" lon="-0.98318">
        <ele>-5.04</ele>
        <time>2022-09-20T14:36:10.000Z</time>
      </trkpt>
      <trkpt lat="45.93994" lon="-0.98345">
        <ele>-5.83</ele>
        <time>2022-09-20T14:36:15.000Z</time>
      </trkpt>
      <trkpt lat="45.94004" lon="-0.98374">
        <ele>-5.24</ele>
        <time>2022-09-20T14:36:20.000Z</time>
      </trkpt>
      <trkpt lat="45.94017" lon="-0.98401">
        <ele>-3.76</ele>
        <time>2022-09-20T14:36:25.000Z</time>
      </trkpt>
      <trkpt lat="45.94027" lon="-0.98416">
        <ele>-3.53</ele>
        <time>2022-09-20T14:36:30.000Z</time>
      </trkpt>
      <trkpt lat="45.94044" lon="-0.98403">
        <ele>-3.4</ele>
        <time>2022-09-20T14:36:35.000Z</time>
      </trkpt>
      <trkpt lat="45.94063" lon="-0.98386">
        <ele>-3.43</ele>
        <time>2022-09-20T14:36:40.000Z</time>
      </trkpt>
      <trkpt lat="45.94083" lon="-0.98364">
        <ele>-0.56</ele>
        <time>2022-09-20T14:36:45.000Z</time>
      </trkpt>
      <trkpt lat="45.94103" lon="-0.98345">
        <ele>1.19</ele>
        <time>2022-09-20T14:36:50.000Z</time>
      </trkpt>
      <trkpt lat="45.9412" lon="-0.98323">
        <ele>2.62</ele>
        <time>2022-09-20T14:36:55.000Z</time>
      </trkpt>
      <trkpt lat="45.94137" lon="-0.98297">
        <ele>4.16</ele>
        <time>2022-09-20T14:37:00.000Z</time>
      </trkpt>
      <trkpt lat="45.94153" lon="-0.98272">
        <ele>5.44</ele>
        <time>2022-09-20T14:37:05.000Z</time>
      </trkpt>
      <trkpt lat="45.94168" lon="-0.98249">
        <ele>6.44</ele>
        <time>2022-09-20T14:37:10.000Z</time>
      </trkpt>
      <trkpt lat="45.94181" lon="-0.98225">
        <ele>7.02</ele>
        <time>2022-09-20T14:37:15.000Z</time>
      </trkpt>
      <trkpt lat="45.94194" lon="-0.98201">
        <ele>7.39</ele>
        <time>2022-09-20T14:37:20.000Z</time>
      </trkpt>
      <trkpt lat="45.94207" lon="-0.98174">
        <ele>7.11</ele>
        <time>2022-09-20T14:37:25.000Z</time>
      </trkpt>
      <trkpt lat="45.94219" lon="-0.98146">
        <ele>5.78</ele>
        <time>2022-09-20T14:37:30.000Z</time>
      </trkpt>
      <trkpt lat="45.9423" lon="-0.98114">
        <ele>4.71</ele>
        <time>2022-09-20T14:37:35.000Z</time>
      </trkpt>
      <trkpt lat="45.94241" lon="-0.98089">
        <ele>3.8</ele>
        <time>2022-09-20T14:37:40.000Z</time>
      </trkpt>
      <trkpt lat="45.94255" lon="-0.98061">
        <ele>3.28</ele>
        <time>2022-09-20T14:37:45.000Z</time>
      </trkpt>
      <trkpt lat="45.9427" lon="-0.98039">
        <ele>1.53</ele>
        <time>2022-09-20T14:37:50.000Z</time>
      </trkpt>
      <trkpt lat="45.94285" lon="-0.98017">
        <ele>0.07</ele>
        <time>2022-09-20T14:37:55.000Z</time>
      </trkpt>
      <trkpt lat="45.94302" lon="-0.97994">
        <ele>-1.72</ele>
        <time>2022-09-20T14:38:00.000Z</time>
      </trkpt>
      <trkpt lat="45.94319" lon="-0.97973">
        <ele>-2.85</ele>
        <time>2022-09-20T14:38:05.000Z</time>
      </trkpt>
      <trkpt lat="45.94334" lon="-0.97954">
        <ele>-4.14</ele>
        <time>2022-09-20T14:38:10.000Z</time>
      </trkpt>
      <trkpt lat="45.94347" lon="-0.97938">
        <ele>-4.98</ele>
        <time>2022-09-20T14:38:15.000Z</time>
      </trkpt>
      <trkpt lat="45.9436" lon="-0.97921">
        <ele>-4.99</ele>
        <time>2022-09-20T14:38:20.000Z</time>
      </trkpt>
      <trkpt lat="45.94374" lon="-0.97904">
        <ele>-4.58</ele>
        <time>2022-09-20T14:38:25.000Z</time>
      </trkpt>
      <trkpt lat="45.9439" lon="-0.97887">
        <ele>-4.41</ele>
        <time>2022-09-20T14:38:30.000Z</time>
      </trkpt>
      <trkpt lat="45.94404" lon="-0.97869">
        <ele>-5.72</ele>
        <time>2022-09-20T14:38:35.000Z</time>
      </trkpt>
      <trkpt lat="45.94419" lon="-0.97852">
        <ele>-7.5</ele>
        <time>2022-09-20T14:38:40.000Z</time>
      </trkpt>
      <trkpt lat="45.94433" lon="-0.9784">
        <ele>-7.92</ele>
        <time>2022-09-20T14:38:45.000Z</time>
      </trkpt>
      <trkpt lat="45.94445" lon="-0.97828">
        <ele>-5.04</ele>
        <time>2022-09-20T14:38:50.000Z</time>
      </trkpt>
      <trkpt lat="45.94458" lon="-0.97818">
        <ele>-4.57</ele>
        <time>2022-09-20T14:38:55.000Z</time>
      </trkpt>
      <trkpt lat="45.9447" lon="-0.97808">
        <ele>-4.92</ele>
        <time>2022-09-20T14:39:00.000Z</time>
      </trkpt>
      <trkpt lat="45.94481" lon="-0.97794">
        <ele>-4.5</ele>
        <time>2022-09-20T14:39:05.000Z</time>
      </trkpt>
      <trkpt lat="45.94495" lon="-0.97783">
        <ele>-3.54</ele>
        <time>2022-09-20T14:39:10.000Z</time>
      </trkpt>
      <trkpt lat="45.94508" lon="-0.97773">
        <ele>-2.47</ele>
        <time>2022-09-20T14:39:15.000Z</time>
      </trkpt>
      <trkpt lat="45.94523" lon="-0.97762">
        <ele>-0.74</ele>
        <time>2022-09-20T14:39:20.000Z</time>
      </trkpt>
      <trkpt lat="45.94536" lon="-0.97753">
        <ele>0.24</ele>
        <time>2022-09-20T14:39:25.000Z</time>
      </trkpt>
      <trkpt lat="45.94551" lon="-0.97743">
        <ele>1.58</ele>
        <time>2022-09-20T14:39:30.000Z</time>
      </trkpt>
      <trkpt lat="45.94564" lon="-0.97735">
        <ele>2.57</ele>
        <time>2022-09-20T14:39:35.000Z</time>
      </trkpt>
      <trkpt lat="45.9458" lon="-0.97728">
        <ele>5</ele>
        <time>2022-09-20T14:39:40.000Z</time>
      </trkpt>
      <trkpt lat="45.94593" lon="-0.97722">
        <ele>7.5</ele>
        <time>2022-09-20T14:39:45.000Z</time>
      </trkpt>
      <trkpt lat="45.94606" lon="-0.97715">
        <ele>7.21</ele>
        <time>2022-09-20T14:39:50.000Z</time>
      </trkpt>
      <trkpt lat="45.94619" lon="-0.97709">
        <ele>6.74</ele>
        <time>2022-09-20T14:39:55.000Z</time>
      </trkpt>
      <trkpt lat="45.94633" lon="-0.97703">
        <ele>7.39</ele>
        <time>2022-09-20T14:40:00.000Z</time>
      </trkpt>
      <trkpt lat="45.94646" lon="-0.97695">
        <ele>6.79</ele>
        <time>2022-09-20T14:40:05.000Z</time>
      </trkpt>
      <trkpt lat="45.9466" lon="-0.97684">
        <ele>5.63</ele>
        <time>2022-09-20T14:40:10.000Z</time>
      </trkpt>
      <trkpt lat="45.9467" lon="-0.9768">
        <ele>6.09</ele>
        <time>2022-09-20T14:40:15.000Z</time>
      </trkpt>
      <trkpt lat="45.94681" lon="-0.97678">
        <ele>7.28</ele>
        <time>2022-09-20T14:40:20.000Z</time>
      </trkpt>
      <trkpt lat="45.9469" lon="-0.97671">
        <ele>9.62</ele>
        <time>2022-09-20T14:40:52.000Z</time>
      </trkpt>
      <trkpt lat="45.94689" lon="-0.97657">
        <ele>13.43</ele>
        <time>2022-09-20T14:41:32.000Z</time>
      </trkpt>
      <trkpt lat="45.94683" lon="-0.97638">
        <ele>13.13</ele>
        <time>2022-09-20T14:41:37.000Z</time>
      </trkpt>
      <trkpt lat="45.9468" lon="-0.97612">
        <ele>12.05</ele>
        <time>2022-09-20T14:41:42.000Z</time>
      </trkpt>
      <trkpt lat="45.94697" lon="-0.97606">
        <ele>11.86</ele>
        <time>2022-09-20T14:41:47.000Z</time>
      </trkpt>
      <trkpt lat="45.94717" lon="-0.97612">
        <ele>11.42</ele>
        <time>2022-09-20T14:41:52.000Z</time>
      </trkpt>
      <trkpt lat="45.94734" lon="-0.97617">
        <ele>10.89</ele>
        <time>2022-09-20T14:41:57.000Z</time>
      </trkpt>
      <trkpt lat="45.94755" lon="-0.97623">
        <ele>9.83</ele>
        <time>2022-09-20T14:42:02.000Z</time>
      </trkpt>
      <trkpt lat="45.94773" lon="-0.97624">
        <ele>8.23</ele>
        <time>2022-09-20T14:42:07.000Z</time>
      </trkpt>
      <trkpt lat="45.94783" lon="-0.9762">
        <ele>8.29</ele>
        <time>2022-09-20T14:42:12.000Z</time>
      </trkpt>
      <trkpt lat="45.94786" lon="-0.97596">
        <ele>8.39</ele>
        <time>2022-09-20T14:42:17.000Z</time>
      </trkpt>
      <trkpt lat="45.94792" lon="-0.9758">
        <ele>9.31</ele>
        <time>2022-09-20T14:42:22.000Z</time>
      </trkpt>
      <trkpt lat="45.94802" lon="-0.97571">
        <ele>9.61</ele>
        <time>2022-09-20T14:42:28.000Z</time>
      </trkpt>
      <trkpt lat="45.94808" lon="-0.9756">
        <ele>10.2</ele>
        <time>2022-09-20T14:42:54.000Z</time>
      </trkpt>
      <trkpt lat="45.94804" lon="-0.97575">
        <ele>10.96</ele>
        <time>2022-09-20T14:43:36.000Z</time>
      </trkpt>
      <trkpt lat="45.94795" lon="-0.97581">
        <ele>10.68</ele>
        <time>2022-09-20T14:43:47.000Z</time>
      </trkpt>
      <trkpt lat="45.94786" lon="-0.97581">
        <ele>10.6</ele>
        <time>2022-09-20T14:43:56.000Z</time>
      </trkpt>
      <trkpt lat="45.94788" lon="-0.97568">
        <ele>11.07</ele>
        <time>2022-09-20T14:44:37.000Z</time>
      </trkpt>
      <trkpt lat="45.94787" lon="-0.97545">
        <ele>10.71</ele>
        <time>2022-09-20T14:44:42.000Z</time>
      </trkpt>
      <trkpt lat="45.94786" lon="-0.97515">
        <ele>10.48</ele>
        <time>2022-09-20T14:44:47.000Z</time>
      </trkpt>
      <trkpt lat="45.94784" lon="-0.97483">
        <ele>10.69</ele>
        <time>2022-09-20T14:44:52.000Z</time>
      </trkpt>
      <trkpt lat="45.94783" lon="-0.97449">
        <ele>10.77</ele>
        <time>2022-09-20T14:44:57.000Z</time>
      </trkpt>
      <trkpt lat="45.94781" lon="-0.97414">
        <ele>11.17</ele>
        <time>2022-09-20T14:45:02.000Z</time>
      </trkpt>
      <trkpt lat="45.9478" lon="-0.97381">
        <ele>11.09</ele>
        <time>2022-09-20T14:45:07.000Z</time>
      </trkpt>
      <trkpt lat="45.94778" lon="-0.97344">
        <ele>11.19</ele>
        <time>2022-09-20T14:45:12.000Z</time>
      </trkpt>
      <trkpt lat="45.94777" lon="-0.97307">
        <ele>11.27</ele>
        <time>2022-09-20T14:45:17.000Z</time>
      </trkpt>
      <trkpt lat="45.94775" lon="-0.97268">
        <ele>10.49</ele>
        <time>2022-09-20T14:45:22.000Z</time>
      </trkpt>
      <trkpt lat="45.94774" lon="-0.97226">
        <ele>11.06</ele>
        <time>2022-09-20T14:45:27.000Z</time>
      </trkpt>
      <trkpt lat="45.94771" lon="-0.97185">
        <ele>10.88</ele>
        <time>2022-09-20T14:45:32.000Z</time>
      </trkpt>
      <trkpt lat="45.94769" lon="-0.97145">
        <ele>9.75</ele>
        <time>2022-09-20T14:45:37.000Z</time>
      </trkpt>
      <trkpt lat="45.94767" lon="-0.97107">
        <ele>8.72</ele>
        <time>2022-09-20T14:45:42.000Z</time>
      </trkpt>
      <trkpt lat="45.94768" lon="-0.97071">
        <ele>7.72</ele>
        <time>2022-09-20T14:45:47.000Z</time>
      </trkpt>
      <trkpt lat="45.94768" lon="-0.97032">
        <ele>7.76</ele>
        <time>2022-09-20T14:45:52.000Z</time>
      </trkpt>
      <trkpt lat="45.94765" lon="-0.96994">
        <ele>7.31</ele>
        <time>2022-09-20T14:45:57.000Z</time>
      </trkpt>
      <trkpt lat="45.94762" lon="-0.96954">
        <ele>6.73</ele>
        <time>2022-09-20T14:46:02.000Z</time>
      </trkpt>
      <trkpt lat="45.94759" lon="-0.96916">
        <ele>6.3</ele>
        <time>2022-09-20T14:46:07.000Z</time>
      </trkpt>
      <trkpt lat="45.94757" lon="-0.9689">
        <ele>5</ele>
        <time>2022-09-20T14:46:12.000Z</time>
      </trkpt>
      <trkpt lat="45.94755" lon="-0.96868">
        <ele>3.84</ele>
        <time>2022-09-20T14:46:17.000Z</time>
      </trkpt>
      <trkpt lat="45.94754" lon="-0.96848">
        <ele>3.01</ele>
        <time>2022-09-20T14:46:22.000Z</time>
      </trkpt>
      <trkpt lat="45.94754" lon="-0.96834">
        <ele>2.43</ele>
        <time>2022-09-20T14:46:28.000Z</time>
      </trkpt>
      <trkpt lat="45.94753" lon="-0.96816">
        <ele>1.76</ele>
        <time>2022-09-20T14:46:33.000Z</time>
      </trkpt>
      <trkpt lat="45.94755" lon="-0.96794">
        <ele>1.52</ele>
        <time>2022-09-20T14:46:38.000Z</time>
      </trkpt>
      <trkpt lat="45.94755" lon="-0.96772">
        <ele>1.93</ele>
        <time>2022-09-20T14:46:43.000Z</time>
      </trkpt>
      <trkpt lat="45.94749" lon="-0.9676">
        <ele>3.55</ele>
        <time>2022-09-20T14:47:03.000Z</time>
      </trkpt>
      <trkpt lat="45.94747" lon="-0.96735">
        <ele>3.9</ele>
        <time>2022-09-20T14:47:08.000Z</time>
      </trkpt>
      <trkpt lat="45.94743" lon="-0.96705">
        <ele>3.61</ele>
        <time>2022-09-20T14:47:13.000Z</time>
      </trkpt>
      <trkpt lat="45.94736" lon="-0.96663">
        <ele>3.5</ele>
        <time>2022-09-20T14:47:18.000Z</time>
      </trkpt>
      <trkpt lat="45.9473" lon="-0.96626">
        <ele>3.41</ele>
        <time>2022-09-20T14:47:23.000Z</time>
      </trkpt>
      <trkpt lat="45.94728" lon="-0.96595">
        <ele>3.33</ele>
        <time>2022-09-20T14:47:28.000Z</time>
      </trkpt>
      <trkpt lat="45.94725" lon="-0.96565">
        <ele>3.3</ele>
        <time>2022-09-20T14:47:33.000Z</time>
      </trkpt>
      <trkpt lat="45.94726" lon="-0.96537">
        <ele>3.13</ele>
        <time>2022-09-20T14:47:38.000Z</time>
      </trkpt>
      <trkpt lat="45.94721" lon="-0.96503">
        <ele>2.41</ele>
        <time>2022-09-20T14:47:43.000Z</time>
      </trkpt>
      <trkpt lat="45.94712" lon="-0.96468">
        <ele>1.57</ele>
        <time>2022-09-20T14:47:48.000Z</time>
      </trkpt>
      <trkpt lat="45.9471" lon="-0.9644">
        <ele>1.2</ele>
        <time>2022-09-20T14:47:53.000Z</time>
      </trkpt>
      <trkpt lat="45.9471" lon="-0.96417">
        <ele>1.1</ele>
        <time>2022-09-20T14:47:58.000Z</time>
      </trkpt>
      <trkpt lat="45.94702" lon="-0.96396">
        <ele>0.81</ele>
        <time>2022-09-20T14:48:03.000Z</time>
      </trkpt>
      <trkpt lat="45.94688" lon="-0.96378">
        <ele>0.53</ele>
        <time>2022-09-20T14:48:08.000Z</time>
      </trkpt>
      <trkpt lat="45.94678" lon="-0.96351">
        <ele>0.13</ele>
        <time>2022-09-20T14:48:13.000Z</time>
      </trkpt>
      <trkpt lat="45.94658" lon="-0.96331">
        <ele>-1.53</ele>
        <time>2022-09-20T14:48:18.000Z</time>
      </trkpt>
      <trkpt lat="45.94645" lon="-0.96322">
        <ele>-1.89</ele>
        <time>2022-09-20T14:48:23.000Z</time>
      </trkpt>
      <trkpt lat="45.94628" lon="-0.96305">
        <ele>-2.27</ele>
        <time>2022-09-20T14:48:28.000Z</time>
      </trkpt>
      <trkpt lat="45.9461" lon="-0.96289">
        <ele>-2.57</ele>
        <time>2022-09-20T14:48:33.000Z</time>
      </trkpt>
      <trkpt lat="45.9458" lon="-0.96258">
        <ele>-3.03</ele>
        <time>2022-09-20T14:48:38.000Z</time>
      </trkpt>
      <trkpt lat="45.94564" lon="-0.96242">
        <ele>-3.69</ele>
        <time>2022-09-20T14:48:43.000Z</time>
      </trkpt>
      <trkpt lat="45.94546" lon="-0.96228">
        <ele>-3.97</ele>
        <time>2022-09-20T14:48:48.000Z</time>
      </trkpt>
      <trkpt lat="45.94525" lon="-0.96213">
        <ele>-4.27</ele>
        <time>2022-09-20T14:48:53.000Z</time>
      </trkpt>
      <trkpt lat="45.94503" lon="-0.96196">
        <ele>-4.4</ele>
        <time>2022-09-20T14:48:58.000Z</time>
      </trkpt>
      <trkpt lat="45.94487" lon="-0.96176">
        <ele>-4.03</ele>
        <time>2022-09-20T14:49:03.000Z</time>
      </trkpt>
      <trkpt lat="45.94466" lon="-0.96164">
        <ele>-0.31</ele>
        <time>2022-09-20T14:49:08.000Z</time>
      </trkpt>
      <trkpt lat="45.9445" lon="-0.96153">
        <ele>0.44</ele>
        <time>2022-09-20T14:49:13.000Z</time>
      </trkpt>
      <trkpt lat="45.94437" lon="-0.96142">
        <ele>0.87</ele>
        <time>2022-09-20T14:49:18.000Z</time>
      </trkpt>
      <trkpt lat="45.94421" lon="-0.96129">
        <ele>1.69</ele>
        <time>2022-09-20T14:49:23.000Z</time>
      </trkpt>
      <trkpt lat="45.94404" lon="-0.96117">
        <ele>1.97</ele>
        <time>2022-09-20T14:49:28.000Z</time>
      </trkpt>
      <trkpt lat="45.94392" lon="-0.96106">
        <ele>2.27</ele>
        <time>2022-09-20T14:49:33.000Z</time>
      </trkpt>
      <trkpt lat="45.94376" lon="-0.96093">
        <ele>2.1</ele>
        <time>2022-09-20T14:49:38.000Z</time>
      </trkpt>
      <trkpt lat="45.94362" lon="-0.9608">
        <ele>2.57</ele>
        <time>2022-09-20T14:49:43.000Z</time>
      </trkpt>
      <trkpt lat="45.94345" lon="-0.96073">
        <ele>5.13</ele>
        <time>2022-09-20T14:49:48.000Z</time>
      </trkpt>
      <trkpt lat="45.94336" lon="-0.96072">
        <ele>7.59</ele>
        <time>2022-09-20T14:49:54.000Z</time>
      </trkpt>
      <trkpt lat="45.94327" lon="-0.96075">
        <ele>5.93</ele>
        <time>2022-09-20T14:50:31.000Z</time>
      </trkpt>
      <trkpt lat="45.94316" lon="-0.96083">
        <ele>5.51</ele>
        <time>2022-09-20T14:50:36.000Z</time>
      </trkpt>
      <trkpt lat="45.94307" lon="-0.96096">
        <ele>5.13</ele>
        <time>2022-09-20T14:50:41.000Z</time>
      </trkpt>
      <trkpt lat="45.94297" lon="-0.96113">
        <ele>4.15</ele>
        <time>2022-09-20T14:50:46.000Z</time>
      </trkpt>
      <trkpt lat="45.9429" lon="-0.96133">
        <ele>2.88</ele>
        <time>2022-09-20T14:50:51.000Z</time>
      </trkpt>
      <trkpt lat="45.94284" lon="-0.96154">
        <ele>0.96</ele>
        <time>2022-09-20T14:50:56.000Z</time>
      </trkpt>
      <trkpt lat="45.94277" lon="-0.96172">
        <ele>0.47</ele>
        <time>2022-09-20T14:51:01.000Z</time>
      </trkpt>
      <trkpt lat="45.94266" lon="-0.96192">
        <ele>0.3</ele>
        <time>2022-09-20T14:51:06.000Z</time>
      </trkpt>
      <trkpt lat="45.94254" lon="-0.9621">
        <ele>1.5</ele>
        <time>2022-09-20T14:51:11.000Z</time>
      </trkpt>
      <trkpt lat="45.94241" lon="-0.96227">
        <ele>3.18</ele>
        <time>2022-09-20T14:51:16.000Z</time>
      </trkpt>
      <trkpt lat="45.94226" lon="-0.96244">
        <ele>5.41</ele>
        <time>2022-09-20T14:51:21.000Z</time>
      </trkpt>
      <trkpt lat="45.94209" lon="-0.96259">
        <ele>8.71</ele>
        <time>2022-09-20T14:51:26.000Z</time>
      </trkpt>
      <trkpt lat="45.94197" lon="-0.96277">
        <ele>8.39</ele>
        <time>2022-09-20T14:51:31.000Z</time>
      </trkpt>
      <trkpt lat="45.94188" lon="-0.96296">
        <ele>7.02</ele>
        <time>2022-09-20T14:51:36.000Z</time>
      </trkpt>
      <trkpt lat="45.94181" lon="-0.96317">
        <ele>5.24</ele>
        <time>2022-09-20T14:51:41.000Z</time>
      </trkpt>
      <trkpt lat="45.94175" lon="-0.96338">
        <ele>3.48</ele>
        <time>2022-09-20T14:51:46.000Z</time>
      </trkpt>
      <trkpt lat="45.94172" lon="-0.96361">
        <ele>2.86</ele>
        <time>2022-09-20T14:51:51.000Z</time>
      </trkpt>
      <trkpt lat="45.94169" lon="-0.96385">
        <ele>2.53</ele>
        <time>2022-09-20T14:51:56.000Z</time>
      </trkpt>
      <trkpt lat="45.94167" lon="-0.96417">
        <ele>1.34</ele>
        <time>2022-09-20T14:52:01.000Z</time>
      </trkpt>
      <trkpt lat="45.94171" lon="-0.96457">
        <ele>2.98</ele>
        <time>2022-09-20T14:52:06.000Z</time>
      </trkpt>
      <trkpt lat="45.94165" lon="-0.96484">
        <ele>3.69</ele>
        <time>2022-09-20T14:52:11.000Z</time>
      </trkpt>
      <trkpt lat="45.94149" lon="-0.96499">
        <ele>5.1</ele>
        <time>2022-09-20T14:52:16.000Z</time>
      </trkpt>
      <trkpt lat="45.94129" lon="-0.96511">
        <ele>6.62</ele>
        <time>2022-09-20T14:52:21.000Z</time>
      </trkpt>
      <trkpt lat="45.94113" lon="-0.96518">
        <ele>8.57</ele>
        <time>2022-09-20T14:52:26.000Z</time>
      </trkpt>
      <trkpt lat="45.94116" lon="-0.96532">
        <ele>8.7</ele>
        <time>2022-09-20T14:54:11.000Z</time>
      </trkpt>
      <trkpt lat="45.94109" lon="-0.96522">
        <ele>7.77</ele>
        <time>2022-09-20T14:54:52.000Z</time>
      </trkpt>
      <trkpt lat="45.94105" lon="-0.96511">
        <ele>4.31</ele>
        <time>2022-09-20T14:56:16.000Z</time>
      </trkpt>
      <trkpt lat="45.94109" lon="-0.96523">
        <ele>4.11</ele>
        <time>2022-09-20T14:56:33.000Z</time>
      </trkpt>
      <trkpt lat="45.94115" lon="-0.96533">
        <ele>4</ele>
        <time>2022-09-20T14:56:39.000Z</time>
      </trkpt>
      <trkpt lat="45.94108" lon="-0.96521">
        <ele>4.26</ele>
        <time>2022-09-20T14:56:51.000Z</time>
      </trkpt>
      <trkpt lat="45.94102" lon="-0.96509">
        <ele>4.41</ele>
        <time>2022-09-20T14:57:02.000Z</time>
      </trkpt>
      <trkpt lat="45.9411" lon="-0.96518">
        <ele>2.51</ele>
        <time>2022-09-20T14:57:19.000Z</time>
      </trkpt>
      <trkpt lat="45.94114" lon="-0.96531">
        <ele>1.83</ele>
        <time>2022-09-20T14:57:30.000Z</time>
      </trkpt>
      <trkpt lat="45.94117" lon="-0.96544">
        <ele>1.7</ele>
        <time>2022-09-20T14:57:56.000Z</time>
      </trkpt>
      <trkpt lat="45.9411" lon="-0.96535">
        <ele>1.6</ele>
        <time>2022-09-20T14:58:05.000Z</time>
      </trkpt>
      <trkpt lat="45.94104" lon="-0.96516">
        <ele>1.83</ele>
        <time>2022-09-20T14:59:01.000Z</time>
      </trkpt>
      <trkpt lat="45.94112" lon="-0.96524">
        <ele>2.8</ele>
        <time>2022-09-20T14:59:21.000Z</time>
      </trkpt>
      <trkpt lat="45.94103" lon="-0.96519">
        <ele>5.58</ele>
        <time>2022-09-20T15:03:31.000Z</time>
      </trkpt>
      <trkpt lat="45.94089" lon="-0.96524">
        <ele>5.48</ele>
        <time>2022-09-20T15:03:36.000Z</time>
      </trkpt>
      <trkpt lat="45.94072" lon="-0.9653">
        <ele>5.31</ele>
        <time>2022-09-20T15:03:41.000Z</time>
      </trkpt>
      <trkpt lat="45.94055" lon="-0.96535">
        <ele>5.03</ele>
        <time>2022-09-20T15:03:46.000Z</time>
      </trkpt>
      <trkpt lat="45.94041" lon="-0.96549">
        <ele>4.59</ele>
        <time>2022-09-20T15:03:51.000Z</time>
      </trkpt>
      <trkpt lat="45.94021" lon="-0.96562">
        <ele>4.13</ele>
        <time>2022-09-20T15:03:56.000Z</time>
      </trkpt>
      <trkpt lat="45.93998" lon="-0.96576">
        <ele>4.12</ele>
        <time>2022-09-20T15:04:01.000Z</time>
      </trkpt>
      <trkpt lat="45.93972" lon="-0.96587">
        <ele>3.46</ele>
        <time>2022-09-20T15:04:06.000Z</time>
      </trkpt>
      <trkpt lat="45.93949" lon="-0.96596">
        <ele>3.14</ele>
        <time>2022-09-20T15:04:11.000Z</time>
      </trkpt>
      <trkpt lat="45.93936" lon="-0.96605">
        <ele>2.63</ele>
        <time>2022-09-20T15:04:16.000Z</time>
      </trkpt>
      <trkpt lat="45.93919" lon="-0.96612">
        <ele>2.33</ele>
        <time>2022-09-20T15:04:21.000Z</time>
      </trkpt>
      <trkpt lat="45.93907" lon="-0.96619">
        <ele>1.83</ele>
        <time>2022-09-20T15:04:26.000Z</time>
      </trkpt>
      <trkpt lat="45.93892" lon="-0.96629">
        <ele>1.7</ele>
        <time>2022-09-20T15:04:31.000Z</time>
      </trkpt>
      <trkpt lat="45.93875" lon="-0.96644">
        <ele>1.61</ele>
        <time>2022-09-20T15:04:36.000Z</time>
      </trkpt>
      <trkpt lat="45.93861" lon="-0.96657">
        <ele>1.2</ele>
        <time>2022-09-20T15:04:41.000Z</time>
      </trkpt>
      <trkpt lat="45.93848" lon="-0.96669">
        <ele>0.92</ele>
        <time>2022-09-20T15:04:46.000Z</time>
      </trkpt>
      <trkpt lat="45.93834" lon="-0.96682">
        <ele>0.27</ele>
        <time>2022-09-20T15:04:51.000Z</time>
      </trkpt>
      <trkpt lat="45.93818" lon="-0.96695">
        <ele>-0.27</ele>
        <time>2022-09-20T15:04:56.000Z</time>
      </trkpt>
      <trkpt lat="45.93798" lon="-0.96709">
        <ele>-0.97</ele>
        <time>2022-09-20T15:05:01.000Z</time>
      </trkpt>
      <trkpt lat="45.93777" lon="-0.96722">
        <ele>-1.57</ele>
        <time>2022-09-20T15:05:06.000Z</time>
      </trkpt>
      <trkpt lat="45.93754" lon="-0.96732">
        <ele>-1.8</ele>
        <time>2022-09-20T15:05:11.000Z</time>
      </trkpt>
      <trkpt lat="45.93731" lon="-0.9674">
        <ele>-1.71</ele>
        <time>2022-09-20T15:05:16.000Z</time>
      </trkpt>
      <trkpt lat="45.93708" lon="-0.96752">
        <ele>-1.78</ele>
        <time>2022-09-20T15:05:21.000Z</time>
      </trkpt>
      <trkpt lat="45.93686" lon="-0.96755">
        <ele>-2.08</ele>
        <time>2022-09-20T15:05:26.000Z</time>
      </trkpt>
      <trkpt lat="45.9366" lon="-0.96763">
        <ele>-1.48</ele>
        <time>2022-09-20T15:05:31.000Z</time>
      </trkpt>
      <trkpt lat="45.93634" lon="-0.96767">
        <ele>-1.3</ele>
        <time>2022-09-20T15:05:36.000Z</time>
      </trkpt>
      <trkpt lat="45.93611" lon="-0.96768">
        <ele>-0.46</ele>
        <time>2022-09-20T15:05:41.000Z</time>
      </trkpt>
      <trkpt lat="45.93589" lon="-0.96769">
        <ele>-0.01</ele>
        <time>2022-09-20T15:05:46.000Z</time>
      </trkpt>
      <trkpt lat="45.93571" lon="-0.96768">
        <ele>0.31</ele>
        <time>2022-09-20T15:05:51.000Z</time>
      </trkpt>
      <trkpt lat="45.93558" lon="-0.96765">
        <ele>0.42</ele>
        <time>2022-09-20T15:05:56.000Z</time>
      </trkpt>
      <trkpt lat="45.93541" lon="-0.96764">
        <ele>0.95</ele>
        <time>2022-09-20T15:06:01.000Z</time>
      </trkpt>
      <trkpt lat="45.93518" lon="-0.96769">
        <ele>0.35</ele>
        <time>2022-09-20T15:06:06.000Z</time>
      </trkpt>
      <trkpt lat="45.93494" lon="-0.96772">
        <ele>0.22</ele>
        <time>2022-09-20T15:06:11.000Z</time>
      </trkpt>
      <trkpt lat="45.93472" lon="-0.96762">
        <ele>-0.56</ele>
        <time>2022-09-20T15:06:16.000Z</time>
      </trkpt>
      <trkpt lat="45.93453" lon="-0.96744">
        <ele>-0.02</ele>
        <time>2022-09-20T15:06:21.000Z</time>
      </trkpt>
      <trkpt lat="45.93437" lon="-0.96726">
        <ele>0.67</ele>
        <time>2022-09-20T15:06:26.000Z</time>
      </trkpt>
      <trkpt lat="45.93417" lon="-0.96707">
        <ele>0.31</ele>
        <time>2022-09-20T15:06:31.000Z</time>
      </trkpt>
      <trkpt lat="45.93396" lon="-0.96691">
        <ele>-0.54</ele>
        <time>2022-09-20T15:06:36.000Z</time>
      </trkpt>
      <trkpt lat="45.93373" lon="-0.96677">
        <ele>0.01</ele>
        <time>2022-09-20T15:06:41.000Z</time>
      </trkpt>
      <trkpt lat="45.93351" lon="-0.96665">
        <ele>0.23</ele>
        <time>2022-09-20T15:06:46.000Z</time>
      </trkpt>
      <trkpt lat="45.93331" lon="-0.96657">
        <ele>-0.09</ele>
        <time>2022-09-20T15:06:51.000Z</time>
      </trkpt>
      <trkpt lat="45.93316" lon="-0.96651">
        <ele>0.12</ele>
        <time>2022-09-20T15:06:56.000Z</time>
      </trkpt>
      <trkpt lat="45.93306" lon="-0.96644">
        <ele>1.04</ele>
        <time>2022-09-20T15:07:01.000Z</time>
      </trkpt>
      <trkpt lat="45.93293" lon="-0.96649">
        <ele>1.98</ele>
        <time>2022-09-20T15:07:06.000Z</time>
      </trkpt>
      <trkpt lat="45.93275" lon="-0.96638">
        <ele>5.24</ele>
        <time>2022-09-20T15:07:11.000Z</time>
      </trkpt>
      <trkpt lat="45.93258" lon="-0.96629">
        <ele>6.23</ele>
        <time>2022-09-20T15:07:16.000Z</time>
      </trkpt>
      <trkpt lat="45.93239" lon="-0.96617">
        <ele>6.08</ele>
        <time>2022-09-20T15:07:21.000Z</time>
      </trkpt>
      <trkpt lat="45.93219" lon="-0.96606">
        <ele>6.64</ele>
        <time>2022-09-20T15:07:26.000Z</time>
      </trkpt>
      <trkpt lat="45.93199" lon="-0.96594">
        <ele>7.67</ele>
        <time>2022-09-20T15:07:31.000Z</time>
      </trkpt>
      <trkpt lat="45.93179" lon="-0.96581">
        <ele>8.04</ele>
        <time>2022-09-20T15:07:36.000Z</time>
      </trkpt>
      <trkpt lat="45.93162" lon="-0.96569">
        <ele>7.84</ele>
        <time>2022-09-20T15:07:41.000Z</time>
      </trkpt>
      <trkpt lat="45.93153" lon="-0.96566">
        <ele>6.74</ele>
        <time>2022-09-20T15:07:48.000Z</time>
      </trkpt>
      <trkpt lat="45.93152" lon="-0.96552">
        <ele>5.6</ele>
        <time>2022-09-20T15:07:54.000Z</time>
      </trkpt>
      <trkpt lat="45.93146" lon="-0.96539">
        <ele>4.88</ele>
        <time>2022-09-20T15:08:00.000Z</time>
      </trkpt>
      <trkpt lat="45.93136" lon="-0.96519">
        <ele>4.31</ele>
        <time>2022-09-20T15:08:05.000Z</time>
      </trkpt>
      <trkpt lat="45.93132" lon="-0.96501">
        <ele>4.11</ele>
        <time>2022-09-20T15:08:10.000Z</time>
      </trkpt>
      <trkpt lat="45.93127" lon="-0.9648">
        <ele>3.58</ele>
        <time>2022-09-20T15:08:15.000Z</time>
      </trkpt>
      <trkpt lat="45.93121" lon="-0.96468">
        <ele>2.87</ele>
        <time>2022-09-20T15:08:20.000Z</time>
      </trkpt>
      <trkpt lat="45.93107" lon="-0.96468">
        <ele>1.11</ele>
        <time>2022-09-20T15:08:29.000Z</time>
      </trkpt>
      <trkpt lat="45.93097" lon="-0.9646">
        <ele>0.87</ele>
        <time>2022-09-20T15:08:34.000Z</time>
      </trkpt>
      <trkpt lat="45.9309" lon="-0.96448">
        <ele>-0.36</ele>
        <time>2022-09-20T15:08:45.000Z</time>
      </trkpt>
      <trkpt lat="45.93086" lon="-0.96428">
        <ele>-0.22</ele>
        <time>2022-09-20T15:08:50.000Z</time>
      </trkpt>
      <trkpt lat="45.93085" lon="-0.96404">
        <ele>0.54</ele>
        <time>2022-09-20T15:08:55.000Z</time>
      </trkpt>
      <trkpt lat="45.93082" lon="-0.96376">
        <ele>1.04</ele>
        <time>2022-09-20T15:09:00.000Z</time>
      </trkpt>
      <trkpt lat="45.93078" lon="-0.96349">
        <ele>1.9</ele>
        <time>2022-09-20T15:09:05.000Z</time>
      </trkpt>
      <trkpt lat="45.93076" lon="-0.96334">
        <ele>2.35</ele>
        <time>2022-09-20T15:09:10.000Z</time>
      </trkpt>
      <trkpt lat="45.93066" lon="-0.96334">
        <ele>-0.75</ele>
        <time>2022-09-20T15:09:36.000Z</time>
      </trkpt>
      <trkpt lat="45.93047" lon="-0.96336">
        <ele>-1.09</ele>
        <time>2022-09-20T15:09:41.000Z</time>
      </trkpt>
      <trkpt lat="45.93019" lon="-0.96334">
        <ele>-0.92</ele>
        <time>2022-09-20T15:09:46.000Z</time>
      </trkpt>
      <trkpt lat="45.9299" lon="-0.96331">
        <ele>-1.2</ele>
        <time>2022-09-20T15:09:51.000Z</time>
      </trkpt>
      <trkpt lat="45.92965" lon="-0.96316">
        <ele>-1.38</ele>
        <time>2022-09-20T15:09:56.000Z</time>
      </trkpt>
      <trkpt lat="45.9294" lon="-0.96296">
        <ele>-1.72</ele>
        <time>2022-09-20T15:10:01.000Z</time>
      </trkpt>
      <trkpt lat="45.92919" lon="-0.96275">
        <ele>-3.05</ele>
        <time>2022-09-20T15:10:06.000Z</time>
      </trkpt>
      <trkpt lat="45.92897" lon="-0.96256">
        <ele>-4.8</ele>
        <time>2022-09-20T15:10:11.000Z</time>
      </trkpt>
      <trkpt lat="45.92877" lon="-0.96237">
        <ele>-5.19</ele>
        <time>2022-09-20T15:10:16.000Z</time>
      </trkpt>
      <trkpt lat="45.92856" lon="-0.96218">
        <ele>-6.05</ele>
        <time>2022-09-20T15:10:21.000Z</time>
      </trkpt>
      <trkpt lat="45.92833" lon="-0.962">
        <ele>-7.08</ele>
        <time>2022-09-20T15:10:26.000Z</time>
      </trkpt>
      <trkpt lat="45.92804" lon="-0.96188">
        <ele>-8.05</ele>
        <time>2022-09-20T15:10:31.000Z</time>
      </trkpt>
      <trkpt lat="45.92775" lon="-0.96179">
        <ele>-8.42</ele>
        <time>2022-09-20T15:10:36.000Z</time>
      </trkpt>
      <trkpt lat="45.92753" lon="-0.96169">
        <ele>-8.02</ele>
        <time>2022-09-20T15:10:41.000Z</time>
      </trkpt>
      <trkpt lat="45.92751" lon="-0.9614">
        <ele>-7.56</ele>
        <time>2022-09-20T15:10:46.000Z</time>
      </trkpt>
      <trkpt lat="45.92754" lon="-0.96117">
        <ele>-7.43</ele>
        <time>2022-09-20T15:10:51.000Z</time>
      </trkpt>
      <trkpt lat="45.92761" lon="-0.96099">
        <ele>-6.42</ele>
        <time>2022-09-20T15:10:56.000Z</time>
      </trkpt>
      <trkpt lat="45.92759" lon="-0.96076">
        <ele>-5.35</ele>
        <time>2022-09-20T15:11:01.000Z</time>
      </trkpt>
      <trkpt lat="45.92757" lon="-0.96049">
        <ele>-5.14</ele>
        <time>2022-09-20T15:11:06.000Z</time>
      </trkpt>
      <trkpt lat="45.92755" lon="-0.96035">
        <ele>-5.88</ele>
        <time>2022-09-20T15:11:11.000Z</time>
      </trkpt>
      <trkpt lat="45.9276" lon="-0.96022">
        <ele>-8.12</ele>
        <time>2022-09-20T15:11:43.000Z</time>
      </trkpt>
      <trkpt lat="45.92756" lon="-0.96001">
        <ele>-8.08</ele>
        <time>2022-09-20T15:11:48.000Z</time>
      </trkpt>
      <trkpt lat="45.92757" lon="-0.95976">
        <ele>-8.17</ele>
        <time>2022-09-20T15:11:53.000Z</time>
      </trkpt>
      <trkpt lat="45.92754" lon="-0.95948">
        <ele>-7.89</ele>
        <time>2022-09-20T15:11:58.000Z</time>
      </trkpt>
      <trkpt lat="45.92751" lon="-0.95916">
        <ele>-7.38</ele>
        <time>2022-09-20T15:12:03.000Z</time>
      </trkpt>
      <trkpt lat="45.9275" lon="-0.95886">
        <ele>-7.41</ele>
        <time>2022-09-20T15:12:08.000Z</time>
      </trkpt>
      <trkpt lat="45.92752" lon="-0.95857">
        <ele>-7.02</ele>
        <time>2022-09-20T15:12:13.000Z</time>
      </trkpt>
      <trkpt lat="45.92753" lon="-0.95828">
        <ele>-7.61</ele>
        <time>2022-09-20T15:12:18.000Z</time>
      </trkpt>
      <trkpt lat="45.92764" lon="-0.95795">
        <ele>-6.47</ele>
        <time>2022-09-20T15:12:23.000Z</time>
      </trkpt>
      <trkpt lat="45.92771" lon="-0.95764">
        <ele>-5.72</ele>
        <time>2022-09-20T15:12:28.000Z</time>
      </trkpt>
      <trkpt lat="45.92776" lon="-0.95738">
        <ele>-5.71</ele>
        <time>2022-09-20T15:12:33.000Z</time>
      </trkpt>
      <trkpt lat="45.92784" lon="-0.95713">
        <ele>-4.36</ele>
        <time>2022-09-20T15:12:38.000Z</time>
      </trkpt>
      <trkpt lat="45.92782" lon="-0.95688">
        <ele>-3.77</ele>
        <time>2022-09-20T15:12:43.000Z</time>
      </trkpt>
      <trkpt lat="45.92778" lon="-0.95664">
        <ele>-5.06</ele>
        <time>2022-09-20T15:12:48.000Z</time>
      </trkpt>
      <trkpt lat="45.92774" lon="-0.9565">
        <ele>-7.18</ele>
        <time>2022-09-20T15:12:53.000Z</time>
      </trkpt>
      <trkpt lat="45.92772" lon="-0.95636">
        <ele>-9.25</ele>
        <time>2022-09-20T15:13:09.000Z</time>
      </trkpt>
      <trkpt lat="45.92765" lon="-0.95612">
        <ele>-8.94</ele>
        <time>2022-09-20T15:13:14.000Z</time>
      </trkpt>
      <trkpt lat="45.92758" lon="-0.95582">
        <ele>-9.2</ele>
        <time>2022-09-20T15:13:19.000Z</time>
      </trkpt>
      <trkpt lat="45.9275" lon="-0.95556">
        <ele>-8.96</ele>
        <time>2022-09-20T15:13:24.000Z</time>
      </trkpt>
      <trkpt lat="45.92742" lon="-0.95529">
        <ele>-8.81</ele>
        <time>2022-09-20T15:13:29.000Z</time>
      </trkpt>
      <trkpt lat="45.9274" lon="-0.95504">
        <ele>-8.7</ele>
        <time>2022-09-20T15:13:34.000Z</time>
      </trkpt>
      <trkpt lat="45.92742" lon="-0.95484">
        <ele>-8.49</ele>
        <time>2022-09-20T15:13:39.000Z</time>
      </trkpt>
      <trkpt lat="45.92732" lon="-0.95465">
        <ele>-7.46</ele>
        <time>2022-09-20T15:13:44.000Z</time>
      </trkpt>
      <trkpt lat="45.92721" lon="-0.9544">
        <ele>-6.48</ele>
        <time>2022-09-20T15:13:49.000Z</time>
      </trkpt>
      <trkpt lat="45.92715" lon="-0.95416">
        <ele>-6.43</ele>
        <time>2022-09-20T15:13:54.000Z</time>
      </trkpt>
      <trkpt lat="45.92715" lon="-0.95394">
        <ele>-4.66</ele>
        <time>2022-09-20T15:13:59.000Z</time>
      </trkpt>
      <trkpt lat="45.92715" lon="-0.95369">
        <ele>-3.52</ele>
        <time>2022-09-20T15:14:04.000Z</time>
      </trkpt>
      <trkpt lat="45.92717" lon="-0.95346">
        <ele>-3.77</ele>
        <time>2022-09-20T15:14:09.000Z</time>
      </trkpt>
      <trkpt lat="45.92722" lon="-0.95324">
        <ele>-4.45</ele>
        <time>2022-09-20T15:14:14.000Z</time>
      </trkpt>
      <trkpt lat="45.92714" lon="-0.95302">
        <ele>-4.48</ele>
        <time>2022-09-20T15:14:19.000Z</time>
      </trkpt>
      <trkpt lat="45.927" lon="-0.95287">
        <ele>-3.94</ele>
        <time>2022-09-20T15:14:24.000Z</time>
      </trkpt>
      <trkpt lat="45.92686" lon="-0.95274">
        <ele>-3.64</ele>
        <time>2022-09-20T15:14:29.000Z</time>
      </trkpt>
      <trkpt lat="45.92673" lon="-0.95259">
        <ele>-2.57</ele>
        <time>2022-09-20T15:14:34.000Z</time>
      </trkpt>
      <trkpt lat="45.9266" lon="-0.95248">
        <ele>-1.06</ele>
        <time>2022-09-20T15:14:39.000Z</time>
      </trkpt>
      <trkpt lat="45.92646" lon="-0.95236">
        <ele>1.72</ele>
        <time>2022-09-20T15:14:44.000Z</time>
      </trkpt>
      <trkpt lat="45.92632" lon="-0.95222">
        <ele>2.34</ele>
        <time>2022-09-20T15:14:49.000Z</time>
      </trkpt>
      <trkpt lat="45.92616" lon="-0.9521">
        <ele>2.2</ele>
        <time>2022-09-20T15:14:54.000Z</time>
      </trkpt>
      <trkpt lat="45.92603" lon="-0.95198">
        <ele>2.54</ele>
        <time>2022-09-20T15:14:59.000Z</time>
      </trkpt>
      <trkpt lat="45.92596" lon="-0.9517">
        <ele>2.42</ele>
        <time>2022-09-20T15:15:04.000Z</time>
      </trkpt>
      <trkpt lat="45.926" lon="-0.95138">
        <ele>3.21</ele>
        <time>2022-09-20T15:15:09.000Z</time>
      </trkpt>
      <trkpt lat="45.92609" lon="-0.9511">
        <ele>3.84</ele>
        <time>2022-09-20T15:15:14.000Z</time>
      </trkpt>
      <trkpt lat="45.92618" lon="-0.9508">
        <ele>3.64</ele>
        <time>2022-09-20T15:15:19.000Z</time>
      </trkpt>
      <trkpt lat="45.92624" lon="-0.95057">
        <ele>2.2</ele>
        <time>2022-09-20T15:15:24.000Z</time>
      </trkpt>
      <trkpt lat="45.92629" lon="-0.95031">
        <ele>1.06</ele>
        <time>2022-09-20T15:15:29.000Z</time>
      </trkpt>
      <trkpt lat="45.92635" lon="-0.9501">
        <ele>-0.39</ele>
        <time>2022-09-20T15:15:34.000Z</time>
      </trkpt>
      <trkpt lat="45.92644" lon="-0.95007">
        <ele>-1.21</ele>
        <time>2022-09-20T15:15:42.000Z</time>
      </trkpt>
      <trkpt lat="45.92657" lon="-0.95021">
        <ele>-0.22</ele>
        <time>2022-09-20T15:17:00.000Z</time>
      </trkpt>
      <trkpt lat="45.92643" lon="-0.95021">
        <ele>0.27</ele>
        <time>2022-09-20T15:20:08.000Z</time>
      </trkpt>
      <trkpt lat="45.92634" lon="-0.95015">
        <ele>0.5</ele>
        <time>2022-09-20T15:20:16.000Z</time>
      </trkpt>
      <trkpt lat="45.92643" lon="-0.95012">
        <ele>1</ele>
        <time>2022-09-20T15:20:53.000Z</time>
      </trkpt>
      <trkpt lat="45.92653" lon="-0.95012">
        <ele>0.7</ele>
        <time>2022-09-20T15:21:30.000Z</time>
      </trkpt>
      <trkpt lat="45.92661" lon="-0.95017">
        <ele>0.7</ele>
        <time>2022-09-20T15:21:39.000Z</time>
      </trkpt>
      <trkpt lat="45.9265" lon="-0.95011">
        <ele>1.22</ele>
        <time>2022-09-20T15:22:26.000Z</time>
      </trkpt>
      <trkpt lat="45.92647" lon="-0.95024">
        <ele>0.9</ele>
        <time>2022-09-20T15:23:29.000Z</time>
      </trkpt>
      <trkpt lat="45.92656" lon="-0.95027">
        <ele>0.98</ele>
        <time>2022-09-20T15:24:34.000Z</time>
      </trkpt>
      <trkpt lat="45.92645" lon="-0.95011">
        <ele>0.4</ele>
        <time>2022-09-20T15:26:21.000Z</time>
      </trkpt>
      <trkpt lat="45.92654" lon="-0.95012">
        <ele>-6.1</ele>
        <time>2022-09-20T15:34:42.000Z</time>
      </trkpt>
    </trkseg>
  </trk>
</gpx>